<?xml version="1.0" encoding="UTF-8" standalone="no" ?>
<gpx xmlns="http://www.topografix.com/GPX/1/1" xmlns:xsi="http://www.w3.org/2001/XMLSchema-instance" xsi:schemaLocation="http://www.topografix.com/GPX/1/1 http://www.topografix.com/GPX/1/1/gpx.xsd" version="1.1" creator="VisuGPX - https://www.visugpx.com">
  <metadata>
    <name>Roquefort / Sainte-colombe/Aubiac</name>
    <desc><![CDATA[Parcours vtt effectué le 22 Août 2021. Trace à jour.
Condition physique modéré.    ]]></desc>
  </metadata>
  <trk>
    <name><![CDATA[Roquefort / Sainte-colombe/Aubiac]]></name>
    <trkseg>
      <trkpt lat="44.20052" lon="0.59807">
        <ele>92.420163</ele>
        <time>2021-08-22T06:39:28.811Z</time>
      </trkpt>
      <trkpt lat="44.20053" lon="0.59792">
        <ele>92.420163</ele>
        <time>2021-08-22T06:39:43.053Z</time>
      </trkpt>
      <trkpt lat="44.20051" lon="0.59779">
        <ele>92.420163</ele>
        <time>2021-08-22T06:39:47.064Z</time>
      </trkpt>
      <trkpt lat="44.20046" lon="0.59768">
        <ele>92.420163</ele>
        <time>2021-08-22T06:39:51.073Z</time>
      </trkpt>
      <trkpt lat="44.20038" lon="0.5976">
        <ele>92.420163</ele>
        <time>2021-08-22T06:39:55.063Z</time>
      </trkpt>
      <trkpt lat="44.20029" lon="0.59751">
        <ele>92.420163</ele>
        <time>2021-08-22T06:39:59.068Z</time>
      </trkpt>
      <trkpt lat="44.20019" lon="0.59742">
        <ele>92.420163</ele>
        <time>2021-08-22T06:40:03.060Z</time>
      </trkpt>
      <trkpt lat="44.20011" lon="0.59735">
        <ele>92.420163</ele>
        <time>2021-08-22T06:40:06.071Z</time>
      </trkpt>
      <trkpt lat="44.20004" lon="0.59727">
        <ele>92.420163</ele>
        <time>2021-08-22T06:40:09.062Z</time>
      </trkpt>
      <trkpt lat="44.19996" lon="0.5972">
        <ele>92.421318</ele>
        <time>2021-08-22T06:40:12.070Z</time>
      </trkpt>
      <trkpt lat="44.19989" lon="0.59713">
        <ele>92.532917</ele>
        <time>2021-08-22T06:40:15.069Z</time>
      </trkpt>
      <trkpt lat="44.1998" lon="0.59705">
        <ele>92.653884</ele>
        <time>2021-08-22T06:40:18.066Z</time>
      </trkpt>
      <trkpt lat="44.19973" lon="0.59698">
        <ele>92.765004</ele>
        <time>2021-08-22T06:40:21.065Z</time>
      </trkpt>
      <trkpt lat="44.19964" lon="0.59691">
        <ele>92.88662</ele>
        <time>2021-08-22T06:40:25.060Z</time>
      </trkpt>
      <trkpt lat="44.19956" lon="0.597">
        <ele>93.004301</ele>
        <time>2021-08-22T06:40:29.067Z</time>
      </trkpt>
      <trkpt lat="44.19952" lon="0.59713">
        <ele>93.132899</ele>
        <time>2021-08-22T06:40:32.071Z</time>
      </trkpt>
      <trkpt lat="44.19947" lon="0.5973">
        <ele>93.284087</ele>
        <time>2021-08-22T06:40:35.073Z</time>
      </trkpt>
      <trkpt lat="44.19943" lon="0.59746">
        <ele>93.430379</ele>
        <time>2021-08-22T06:40:38.062Z</time>
      </trkpt>
      <trkpt lat="44.19938" lon="0.59761">
        <ele>93.571664</ele>
        <time>2021-08-22T06:40:41.071Z</time>
      </trkpt>
      <trkpt lat="44.19934" lon="0.59775">
        <ele>93.709947</ele>
        <time>2021-08-22T06:40:44.074Z</time>
      </trkpt>
      <trkpt lat="44.19928" lon="0.5979">
        <ele>93.849342</ele>
        <time>2021-08-22T06:40:47.079Z</time>
      </trkpt>
      <trkpt lat="44.19923" lon="0.59804">
        <ele>93.990394</ele>
        <time>2021-08-22T06:40:50.069Z</time>
      </trkpt>
      <trkpt lat="44.19917" lon="0.59817">
        <ele>94.126664</ele>
        <time>2021-08-22T06:40:53.078Z</time>
      </trkpt>
      <trkpt lat="44.1991" lon="0.5983">
        <ele>94.257884</ele>
        <time>2021-08-22T06:40:56.079Z</time>
      </trkpt>
      <trkpt lat="44.19905" lon="0.59841">
        <ele>94.376445</ele>
        <time>2021-08-22T06:40:59.067Z</time>
      </trkpt>
      <trkpt lat="44.19898" lon="0.59854">
        <ele>94.511985</ele>
        <time>2021-08-22T06:41:03.075Z</time>
      </trkpt>
      <trkpt lat="44.19888" lon="0.59852">
        <ele>94.588495</ele>
        <time>2021-08-22T06:41:07.073Z</time>
      </trkpt>
      <trkpt lat="44.1988" lon="0.59846">
        <ele>94.595748</ele>
        <time>2021-08-22T06:41:10.072Z</time>
      </trkpt>
      <trkpt lat="44.19872" lon="0.59838">
        <ele>94.603622</ele>
        <time>2021-08-22T06:41:13.062Z</time>
      </trkpt>
      <trkpt lat="44.19863" lon="0.59831">
        <ele>94.61199</ele>
        <time>2021-08-22T06:41:16.078Z</time>
      </trkpt>
      <trkpt lat="44.19853" lon="0.59826">
        <ele>94.620404</ele>
        <time>2021-08-22T06:41:19.044Z</time>
      </trkpt>
      <trkpt lat="44.19843" lon="0.59822">
        <ele>94.628969</ele>
        <time>2021-08-22T06:41:22.069Z</time>
      </trkpt>
      <trkpt lat="44.19833" lon="0.59819">
        <ele>94.636968</ele>
        <time>2021-08-22T06:41:25.059Z</time>
      </trkpt>
      <trkpt lat="44.19822" lon="0.59817">
        <ele>94.645758</ele>
        <time>2021-08-22T06:41:28.054Z</time>
      </trkpt>
      <trkpt lat="44.19811" lon="0.59816">
        <ele>94.655173</ele>
        <time>2021-08-22T06:41:31.073Z</time>
      </trkpt>
      <trkpt lat="44.198" lon="0.5981">
        <ele>94.664523</ele>
        <time>2021-08-22T06:41:34.071Z</time>
      </trkpt>
      <trkpt lat="44.1979" lon="0.59812">
        <ele>94.672782</ele>
        <time>2021-08-22T06:41:37.069Z</time>
      </trkpt>
      <trkpt lat="44.19781" lon="0.59823">
        <ele>94.681695</ele>
        <time>2021-08-22T06:41:40.064Z</time>
      </trkpt>
      <trkpt lat="44.19778" lon="0.59839">
        <ele>94.691783</ele>
        <time>2021-08-22T06:41:43.073Z</time>
      </trkpt>
      <trkpt lat="44.19774" lon="0.59855">
        <ele>94.701453</ele>
        <time>2021-08-22T06:41:46.061Z</time>
      </trkpt>
      <trkpt lat="44.19767" lon="0.59871">
        <ele>94.71212</ele>
        <time>2021-08-22T06:41:49.065Z</time>
      </trkpt>
      <trkpt lat="44.19762" lon="0.59881">
        <ele>94.719336</ele>
        <time>2021-08-22T06:41:51.079Z</time>
      </trkpt>
      <trkpt lat="44.19755" lon="0.5989">
        <ele>94.726601</ele>
        <time>2021-08-22T06:41:53.081Z</time>
      </trkpt>
      <trkpt lat="44.19747" lon="0.59904">
        <ele>94.65102</ele>
        <time>2021-08-22T06:41:56.086Z</time>
      </trkpt>
      <trkpt lat="44.19738" lon="0.59918">
        <ele>94.5382</ele>
        <time>2021-08-22T06:41:59.059Z</time>
      </trkpt>
      <trkpt lat="44.19732" lon="0.59928">
        <ele>94.456686</ele>
        <time>2021-08-22T06:42:01.069Z</time>
      </trkpt>
      <trkpt lat="44.19725" lon="0.59936">
        <ele>94.376458</ele>
        <time>2021-08-22T06:42:03.079Z</time>
      </trkpt>
      <trkpt lat="44.19718" lon="0.59953">
        <ele>94.260328</ele>
        <time>2021-08-22T06:42:06.064Z</time>
      </trkpt>
      <trkpt lat="44.19712" lon="0.59963">
        <ele>94.179753</ele>
        <time>2021-08-22T06:42:08.078Z</time>
      </trkpt>
      <trkpt lat="44.19706" lon="0.59974">
        <ele>94.096381</ele>
        <time>2021-08-22T06:42:10.074Z</time>
      </trkpt>
      <trkpt lat="44.197" lon="0.59985">
        <ele>94.010217</ele>
        <time>2021-08-22T06:42:12.077Z</time>
      </trkpt>
      <trkpt lat="44.19694" lon="0.59995">
        <ele>93.927949</ele>
        <time>2021-08-22T06:42:14.075Z</time>
      </trkpt>
      <trkpt lat="44.19688" lon="0.60005">
        <ele>93.846813</ele>
        <time>2021-08-22T06:42:16.077Z</time>
      </trkpt>
      <trkpt lat="44.19682" lon="0.60015">
        <ele>93.76782</ele>
        <time>2021-08-22T06:42:18.083Z</time>
      </trkpt>
      <trkpt lat="44.19675" lon="0.60023">
        <ele>93.688523</ele>
        <time>2021-08-22T06:42:20.072Z</time>
      </trkpt>
      <trkpt lat="44.19669" lon="0.60038">
        <ele>93.579912</ele>
        <time>2021-08-22T06:42:23.064Z</time>
      </trkpt>
      <trkpt lat="44.19661" lon="0.60052">
        <ele>93.469265</ele>
        <time>2021-08-22T06:42:26.057Z</time>
      </trkpt>
      <trkpt lat="44.19653" lon="0.60066">
        <ele>93.361479</ele>
        <time>2021-08-22T06:42:29.069Z</time>
      </trkpt>
      <trkpt lat="44.19645" lon="0.6008">
        <ele>93.25031</ele>
        <time>2021-08-22T06:42:32.062Z</time>
      </trkpt>
      <trkpt lat="44.19637" lon="0.60093">
        <ele>93.19868</ele>
        <time>2021-08-22T06:42:35.055Z</time>
      </trkpt>
      <trkpt lat="44.1963" lon="0.60106">
        <ele>93.235511</ele>
        <time>2021-08-22T06:42:38.072Z</time>
      </trkpt>
      <trkpt lat="44.19622" lon="0.60117">
        <ele>93.268319</ele>
        <time>2021-08-22T06:42:41.063Z</time>
      </trkpt>
      <trkpt lat="44.1961" lon="0.60115">
        <ele>93.304402</ele>
        <time>2021-08-22T06:42:50.052Z</time>
      </trkpt>
      <trkpt lat="44.19601" lon="0.60117">
        <ele>93.33282</ele>
        <time>2021-08-22T06:42:53.059Z</time>
      </trkpt>
      <trkpt lat="44.19592" lon="0.60117">
        <ele>93.361178</ele>
        <time>2021-08-22T06:42:56.070Z</time>
      </trkpt>
      <trkpt lat="44.19583" lon="0.60122">
        <ele>93.391439</ele>
        <time>2021-08-22T06:43:01.053Z</time>
      </trkpt>
      <trkpt lat="44.19583" lon="0.60135">
        <ele>93.42007</ele>
        <time>2021-08-22T06:43:04.068Z</time>
      </trkpt>
      <trkpt lat="44.19583" lon="0.60148">
        <ele>93.44739</ele>
        <time>2021-08-22T06:43:07.076Z</time>
      </trkpt>
      <trkpt lat="44.1958" lon="0.60161">
        <ele>93.477541</ele>
        <time>2021-08-22T06:43:10.072Z</time>
      </trkpt>
      <trkpt lat="44.19572" lon="0.60173">
        <ele>93.512415</ele>
        <time>2021-08-22T06:43:13.077Z</time>
      </trkpt>
      <trkpt lat="44.19564" lon="0.60186">
        <ele>93.549694</ele>
        <time>2021-08-22T06:43:16.063Z</time>
      </trkpt>
      <trkpt lat="44.19557" lon="0.602">
        <ele>93.586476</ele>
        <time>2021-08-22T06:43:19.063Z</time>
      </trkpt>
      <trkpt lat="44.1955" lon="0.60212">
        <ele>93.622034</ele>
        <time>2021-08-22T06:43:22.067Z</time>
      </trkpt>
      <trkpt lat="44.19542" lon="0.60226">
        <ele>93.658674</ele>
        <time>2021-08-22T06:43:25.066Z</time>
      </trkpt>
      <trkpt lat="44.19535" lon="0.60238">
        <ele>93.694442</ele>
        <time>2021-08-22T06:43:28.058Z</time>
      </trkpt>
      <trkpt lat="44.19528" lon="0.6025">
        <ele>93.728838</ele>
        <time>2021-08-22T06:43:31.059Z</time>
      </trkpt>
      <trkpt lat="44.19521" lon="0.60262">
        <ele>93.813219</ele>
        <time>2021-08-22T06:43:34.058Z</time>
      </trkpt>
      <trkpt lat="44.19515" lon="0.60274">
        <ele>93.900925</ele>
        <time>2021-08-22T06:43:37.068Z</time>
      </trkpt>
      <trkpt lat="44.19507" lon="0.60284">
        <ele>93.986484</ele>
        <time>2021-08-22T06:43:40.059Z</time>
      </trkpt>
      <trkpt lat="44.19499" lon="0.60293">
        <ele>94.078227</ele>
        <time>2021-08-22T06:43:43.064Z</time>
      </trkpt>
      <trkpt lat="44.19489" lon="0.603">
        <ele>94.169661</ele>
        <time>2021-08-22T06:43:46.061Z</time>
      </trkpt>
      <trkpt lat="44.1948" lon="0.60311">
        <ele>94.266337</ele>
        <time>2021-08-22T06:43:49.059Z</time>
      </trkpt>
      <trkpt lat="44.1947" lon="0.6032">
        <ele>94.365968</ele>
        <time>2021-08-22T06:43:52.070Z</time>
      </trkpt>
      <trkpt lat="44.19461" lon="0.60325">
        <ele>94.453955</ele>
        <time>2021-08-22T06:43:55.066Z</time>
      </trkpt>
      <trkpt lat="44.1945" lon="0.60327">
        <ele>94.545427</ele>
        <time>2021-08-22T06:43:58.064Z</time>
      </trkpt>
      <trkpt lat="44.19442" lon="0.6032">
        <ele>94.628204</ele>
        <time>2021-08-22T06:44:01.054Z</time>
      </trkpt>
      <trkpt lat="44.19432" lon="0.60314">
        <ele>94.713809</ele>
        <time>2021-08-22T06:44:04.061Z</time>
      </trkpt>
      <trkpt lat="44.19425" lon="0.60327">
        <ele>94.809368</ele>
        <time>2021-08-22T06:44:07.054Z</time>
      </trkpt>
      <trkpt lat="44.19421" lon="0.60341">
        <ele>94.904397</ele>
        <time>2021-08-22T06:44:10.056Z</time>
      </trkpt>
      <trkpt lat="44.19413" lon="0.60353">
        <ele>94.999485</ele>
        <time>2021-08-22T06:44:13.059Z</time>
      </trkpt>
      <trkpt lat="44.19404" lon="0.60365">
        <ele>95.10766</ele>
        <time>2021-08-22T06:44:16.062Z</time>
      </trkpt>
      <trkpt lat="44.19394" lon="0.60377">
        <ele>95.220697</ele>
        <time>2021-08-22T06:44:19.070Z</time>
      </trkpt>
      <trkpt lat="44.19386" lon="0.60384">
        <ele>95.247068</ele>
        <time>2021-08-22T06:44:21.058Z</time>
      </trkpt>
      <trkpt lat="44.19375" lon="0.60393">
        <ele>95.251993</ele>
        <time>2021-08-22T06:44:24.061Z</time>
      </trkpt>
      <trkpt lat="44.19364" lon="0.60402">
        <ele>95.257036</ele>
        <time>2021-08-22T06:44:27.062Z</time>
      </trkpt>
      <trkpt lat="44.19353" lon="0.6041">
        <ele>95.261511</ele>
        <time>2021-08-22T06:44:30.069Z</time>
      </trkpt>
      <trkpt lat="44.19344" lon="0.6042">
        <ele>95.266101</ele>
        <time>2021-08-22T06:44:33.054Z</time>
      </trkpt>
      <trkpt lat="44.19336" lon="0.60431">
        <ele>95.270319</ele>
        <time>2021-08-22T06:44:36.058Z</time>
      </trkpt>
      <trkpt lat="44.19331" lon="0.60444">
        <ele>95.274475</ele>
        <time>2021-08-22T06:44:39.057Z</time>
      </trkpt>
      <trkpt lat="44.19324" lon="0.60454">
        <ele>95.278457</ele>
        <time>2021-08-22T06:44:42.065Z</time>
      </trkpt>
      <trkpt lat="44.19315" lon="0.6046">
        <ele>95.282253</ele>
        <time>2021-08-22T06:44:45.059Z</time>
      </trkpt>
      <trkpt lat="44.19305" lon="0.60468">
        <ele>95.286613</ele>
        <time>2021-08-22T06:44:48.065Z</time>
      </trkpt>
      <trkpt lat="44.19295" lon="0.60476">
        <ele>95.29111</ele>
        <time>2021-08-22T06:44:51.068Z</time>
      </trkpt>
      <trkpt lat="44.19284" lon="0.60486">
        <ele>95.295857</ele>
        <time>2021-08-22T06:44:54.059Z</time>
      </trkpt>
      <trkpt lat="44.19274" lon="0.60494">
        <ele>95.300317</ele>
        <time>2021-08-22T06:44:57.061Z</time>
      </trkpt>
      <trkpt lat="44.19265" lon="0.60502">
        <ele>95.304466</ele>
        <time>2021-08-22T06:45:00.072Z</time>
      </trkpt>
      <trkpt lat="44.19255" lon="0.60509">
        <ele>95.3089</ele>
        <time>2021-08-22T06:45:03.060Z</time>
      </trkpt>
      <trkpt lat="44.19243" lon="0.60511">
        <ele>95.31362</ele>
        <time>2021-08-22T06:45:06.060Z</time>
      </trkpt>
      <trkpt lat="44.1923" lon="0.60513">
        <ele>95.318798</ele>
        <time>2021-08-22T06:45:09.054Z</time>
      </trkpt>
      <trkpt lat="44.19219" lon="0.60512">
        <ele>95.323782</ele>
        <time>2021-08-22T06:45:12.063Z</time>
      </trkpt>
      <trkpt lat="44.19207" lon="0.60515">
        <ele>95.328526</ele>
        <time>2021-08-22T06:45:15.055Z</time>
      </trkpt>
      <trkpt lat="44.19196" lon="0.60513">
        <ele>95.333185</ele>
        <time>2021-08-22T06:45:18.056Z</time>
      </trkpt>
      <trkpt lat="44.19184" lon="0.60505">
        <ele>95.338995</ele>
        <time>2021-08-22T06:45:21.060Z</time>
      </trkpt>
      <trkpt lat="44.19176" lon="0.60497">
        <ele>95.343023</ele>
        <time>2021-08-22T06:45:23.063Z</time>
      </trkpt>
      <trkpt lat="44.19165" lon="0.60487">
        <ele>95.348762</ele>
        <time>2021-08-22T06:45:26.056Z</time>
      </trkpt>
      <trkpt lat="44.19157" lon="0.60479">
        <ele>95.352723</ele>
        <time>2021-08-22T06:45:28.063Z</time>
      </trkpt>
      <trkpt lat="44.19149" lon="0.60472">
        <ele>95.356717</ele>
        <time>2021-08-22T06:45:30.050Z</time>
      </trkpt>
      <trkpt lat="44.19141" lon="0.60465">
        <ele>95.360643</ele>
        <time>2021-08-22T06:45:32.066Z</time>
      </trkpt>
      <trkpt lat="44.19134" lon="0.60458">
        <ele>95.364428</ele>
        <time>2021-08-22T06:45:34.058Z</time>
      </trkpt>
      <trkpt lat="44.19126" lon="0.6045">
        <ele>95.368456</ele>
        <time>2021-08-22T06:45:36.055Z</time>
      </trkpt>
      <trkpt lat="44.19118" lon="0.60443">
        <ele>95.372467</ele>
        <time>2021-08-22T06:45:38.061Z</time>
      </trkpt>
      <trkpt lat="44.19111" lon="0.60435">
        <ele>95.376374</ele>
        <time>2021-08-22T06:45:40.059Z</time>
      </trkpt>
      <trkpt lat="44.19103" lon="0.60428">
        <ele>95.38035</ele>
        <time>2021-08-22T06:45:42.071Z</time>
      </trkpt>
      <trkpt lat="44.19095" lon="0.60421">
        <ele>95.384292</ele>
        <time>2021-08-22T06:45:44.065Z</time>
      </trkpt>
      <trkpt lat="44.19087" lon="0.60414">
        <ele>95.388182</ele>
        <time>2021-08-22T06:45:46.056Z</time>
      </trkpt>
      <trkpt lat="44.1908" lon="0.60406">
        <ele>95.481959</ele>
        <time>2021-08-22T06:45:48.058Z</time>
      </trkpt>
      <trkpt lat="44.19072" lon="0.60398">
        <ele>95.619731</ele>
        <time>2021-08-22T06:45:50.064Z</time>
      </trkpt>
      <trkpt lat="44.19064" lon="0.60391">
        <ele>95.755699</ele>
        <time>2021-08-22T06:45:52.066Z</time>
      </trkpt>
      <trkpt lat="44.19053" lon="0.60381">
        <ele>95.949544</ele>
        <time>2021-08-22T06:45:55.063Z</time>
      </trkpt>
      <trkpt lat="44.19042" lon="0.60371">
        <ele>96.14508</ele>
        <time>2021-08-22T06:45:58.062Z</time>
      </trkpt>
      <trkpt lat="44.19031" lon="0.60361">
        <ele>96.337123</ele>
        <time>2021-08-22T06:46:01.063Z</time>
      </trkpt>
      <trkpt lat="44.19021" lon="0.60351">
        <ele>96.5231</ele>
        <time>2021-08-22T06:46:04.067Z</time>
      </trkpt>
      <trkpt lat="44.1901" lon="0.60341">
        <ele>96.706049</ele>
        <time>2021-08-22T06:46:07.055Z</time>
      </trkpt>
      <trkpt lat="44.19" lon="0.60332">
        <ele>96.891385</ele>
        <time>2021-08-22T06:46:10.067Z</time>
      </trkpt>
      <trkpt lat="44.1899" lon="0.60322">
        <ele>97.067119</ele>
        <time>2021-08-22T06:46:13.059Z</time>
      </trkpt>
      <trkpt lat="44.18979" lon="0.60313">
        <ele>97.24778</ele>
        <time>2021-08-22T06:46:16.060Z</time>
      </trkpt>
      <trkpt lat="44.18968" lon="0.60303">
        <ele>97.43802</ele>
        <time>2021-08-22T06:46:19.067Z</time>
      </trkpt>
      <trkpt lat="44.18958" lon="0.60293">
        <ele>97.625748</ele>
        <time>2021-08-22T06:46:22.074Z</time>
      </trkpt>
      <trkpt lat="44.18947" lon="0.60284">
        <ele>97.814857</ele>
        <time>2021-08-22T06:46:25.058Z</time>
      </trkpt>
      <trkpt lat="44.18937" lon="0.60274">
        <ele>97.997171</ele>
        <time>2021-08-22T06:46:28.058Z</time>
      </trkpt>
      <trkpt lat="44.18927" lon="0.60264">
        <ele>98.41173</ele>
        <time>2021-08-22T06:46:31.051Z</time>
      </trkpt>
      <trkpt lat="44.18917" lon="0.60253">
        <ele>98.902268</ele>
        <time>2021-08-22T06:46:34.060Z</time>
      </trkpt>
      <trkpt lat="44.18906" lon="0.60244">
        <ele>99.39938</ele>
        <time>2021-08-22T06:46:37.067Z</time>
      </trkpt>
      <trkpt lat="44.18895" lon="0.60233">
        <ele>99.901007</ele>
        <time>2021-08-22T06:46:40.058Z</time>
      </trkpt>
      <trkpt lat="44.18885" lon="0.60224">
        <ele>100.368131</ele>
        <time>2021-08-22T06:46:43.064Z</time>
      </trkpt>
      <trkpt lat="44.18874" lon="0.60215">
        <ele>100.836765</ele>
        <time>2021-08-22T06:46:46.052Z</time>
      </trkpt>
      <trkpt lat="44.18864" lon="0.60205">
        <ele>101.308397</ele>
        <time>2021-08-22T06:46:49.066Z</time>
      </trkpt>
      <trkpt lat="44.18854" lon="0.60196">
        <ele>101.766351</ele>
        <time>2021-08-22T06:46:52.066Z</time>
      </trkpt>
      <trkpt lat="44.18844" lon="0.60187">
        <ele>102.219598</ele>
        <time>2021-08-22T06:46:55.073Z</time>
      </trkpt>
      <trkpt lat="44.18835" lon="0.60178">
        <ele>102.659954</ele>
        <time>2021-08-22T06:46:58.058Z</time>
      </trkpt>
      <trkpt lat="44.18825" lon="0.60171">
        <ele>103.079083</ele>
        <time>2021-08-22T06:47:01.057Z</time>
      </trkpt>
      <trkpt lat="44.18816" lon="0.60173">
        <ele>103.438268</ele>
        <time>2021-08-22T06:47:04.070Z</time>
      </trkpt>
      <trkpt lat="44.18806" lon="0.60179">
        <ele>103.853137</ele>
        <time>2021-08-22T06:47:07.070Z</time>
      </trkpt>
      <trkpt lat="44.18796" lon="0.60185">
        <ele>104.272571</ele>
        <time>2021-08-22T06:47:10.067Z</time>
      </trkpt>
      <trkpt lat="44.18786" lon="0.60189">
        <ele>104.680966</ele>
        <time>2021-08-22T06:47:13.062Z</time>
      </trkpt>
      <trkpt lat="44.18775" lon="0.60193">
        <ele>104.961338</ele>
        <time>2021-08-22T06:47:16.057Z</time>
      </trkpt>
      <trkpt lat="44.18764" lon="0.60197">
        <ele>105.045155</ele>
        <time>2021-08-22T06:47:19.064Z</time>
      </trkpt>
      <trkpt lat="44.18753" lon="0.60202">
        <ele>105.130027</ele>
        <time>2021-08-22T06:47:22.066Z</time>
      </trkpt>
      <trkpt lat="44.18742" lon="0.60206">
        <ele>105.217051</ele>
        <time>2021-08-22T06:47:25.065Z</time>
      </trkpt>
      <trkpt lat="44.18732" lon="0.60211">
        <ele>105.303217</ele>
        <time>2021-08-22T06:47:28.060Z</time>
      </trkpt>
      <trkpt lat="44.18721" lon="0.60215">
        <ele>105.390689</ele>
        <time>2021-08-22T06:47:31.071Z</time>
      </trkpt>
      <trkpt lat="44.1871" lon="0.6022">
        <ele>105.478474</ele>
        <time>2021-08-22T06:47:34.068Z</time>
      </trkpt>
      <trkpt lat="44.18698" lon="0.60225">
        <ele>105.573582</ele>
        <time>2021-08-22T06:47:37.072Z</time>
      </trkpt>
      <trkpt lat="44.18686" lon="0.60229">
        <ele>105.66886</ele>
        <time>2021-08-22T06:47:40.056Z</time>
      </trkpt>
      <trkpt lat="44.18674" lon="0.60233">
        <ele>105.761922</ele>
        <time>2021-08-22T06:47:43.060Z</time>
      </trkpt>
      <trkpt lat="44.18665" lon="0.60235">
        <ele>105.831551</ele>
        <time>2021-08-22T06:47:45.057Z</time>
      </trkpt>
      <trkpt lat="44.18655" lon="0.60238">
        <ele>105.904387</ele>
        <time>2021-08-22T06:47:47.061Z</time>
      </trkpt>
      <trkpt lat="44.18646" lon="0.60242">
        <ele>105.977152</ele>
        <time>2021-08-22T06:47:49.059Z</time>
      </trkpt>
      <trkpt lat="44.18634" lon="0.60247">
        <ele>106.077112</ele>
        <time>2021-08-22T06:47:52.073Z</time>
      </trkpt>
      <trkpt lat="44.18621" lon="0.60251">
        <ele>106.173739</ele>
        <time>2021-08-22T06:47:55.066Z</time>
      </trkpt>
      <trkpt lat="44.18612" lon="0.60255">
        <ele>106.244298</ele>
        <time>2021-08-22T06:47:57.062Z</time>
      </trkpt>
      <trkpt lat="44.18603" lon="0.60259">
        <ele>106.306405</ele>
        <time>2021-08-22T06:47:59.069Z</time>
      </trkpt>
      <trkpt lat="44.18594" lon="0.60262">
        <ele>106.340684</ele>
        <time>2021-08-22T06:48:01.062Z</time>
      </trkpt>
      <trkpt lat="44.18586" lon="0.60266">
        <ele>106.374882</ele>
        <time>2021-08-22T06:48:03.067Z</time>
      </trkpt>
      <trkpt lat="44.18573" lon="0.60272">
        <ele>106.42496</ele>
        <time>2021-08-22T06:48:06.061Z</time>
      </trkpt>
      <trkpt lat="44.18564" lon="0.60275">
        <ele>106.459288</ele>
        <time>2021-08-22T06:48:08.067Z</time>
      </trkpt>
      <trkpt lat="44.18555" lon="0.60279">
        <ele>106.493616</ele>
        <time>2021-08-22T06:48:10.052Z</time>
      </trkpt>
      <trkpt lat="44.18542" lon="0.60285">
        <ele>106.543746</ele>
        <time>2021-08-22T06:48:13.062Z</time>
      </trkpt>
      <trkpt lat="44.18534" lon="0.60289">
        <ele>106.577662</ele>
        <time>2021-08-22T06:48:15.062Z</time>
      </trkpt>
      <trkpt lat="44.18522" lon="0.60295">
        <ele>106.623957</ele>
        <time>2021-08-22T06:48:18.059Z</time>
      </trkpt>
      <trkpt lat="44.1851" lon="0.60298">
        <ele>106.666625</ele>
        <time>2021-08-22T06:48:21.061Z</time>
      </trkpt>
      <trkpt lat="44.185" lon="0.60301">
        <ele>106.704906</ele>
        <time>2021-08-22T06:48:24.070Z</time>
      </trkpt>
      <trkpt lat="44.1849" lon="0.60304">
        <ele>106.743777</ele>
        <time>2021-08-22T06:48:27.067Z</time>
      </trkpt>
      <trkpt lat="44.18478" lon="0.60309">
        <ele>106.789413</ele>
        <time>2021-08-22T06:48:30.072Z</time>
      </trkpt>
      <trkpt lat="44.18466" lon="0.60315">
        <ele>106.836561</ele>
        <time>2021-08-22T06:48:33.069Z</time>
      </trkpt>
      <trkpt lat="44.18453" lon="0.60319">
        <ele>106.886125</ele>
        <time>2021-08-22T06:48:36.065Z</time>
      </trkpt>
      <trkpt lat="44.1844" lon="0.60324">
        <ele>106.936258</ele>
        <time>2021-08-22T06:48:39.060Z</time>
      </trkpt>
      <trkpt lat="44.18428" lon="0.60329">
        <ele>106.983896</ele>
        <time>2021-08-22T06:48:42.063Z</time>
      </trkpt>
      <trkpt lat="44.18418" lon="0.60332">
        <ele>107.016593</ele>
        <time>2021-08-22T06:48:44.067Z</time>
      </trkpt>
      <trkpt lat="44.18409" lon="0.60335">
        <ele>107.049339</ele>
        <time>2021-08-22T06:48:46.061Z</time>
      </trkpt>
      <trkpt lat="44.184" lon="0.60339">
        <ele>107.081482</ele>
        <time>2021-08-22T06:48:48.066Z</time>
      </trkpt>
      <trkpt lat="44.18391" lon="0.60342">
        <ele>107.113833</ele>
        <time>2021-08-22T06:48:50.060Z</time>
      </trkpt>
      <trkpt lat="44.18382" lon="0.60345">
        <ele>107.146309</ele>
        <time>2021-08-22T06:48:52.070Z</time>
      </trkpt>
      <trkpt lat="44.18373" lon="0.60348">
        <ele>107.177659</ele>
        <time>2021-08-22T06:48:54.063Z</time>
      </trkpt>
      <trkpt lat="44.1836" lon="0.60354">
        <ele>107.224348</ele>
        <time>2021-08-22T06:48:57.065Z</time>
      </trkpt>
      <trkpt lat="44.18351" lon="0.60358">
        <ele>107.256764</ele>
        <time>2021-08-22T06:48:59.063Z</time>
      </trkpt>
      <trkpt lat="44.18342" lon="0.6036">
        <ele>107.289278</ele>
        <time>2021-08-22T06:49:01.053Z</time>
      </trkpt>
      <trkpt lat="44.18329" lon="0.60365">
        <ele>107.335117</ele>
        <time>2021-08-22T06:49:04.059Z</time>
      </trkpt>
      <trkpt lat="44.18316" lon="0.60369">
        <ele>107.379892</ele>
        <time>2021-08-22T06:49:07.069Z</time>
      </trkpt>
      <trkpt lat="44.18308" lon="0.60372">
        <ele>107.410786</ele>
        <time>2021-08-22T06:49:09.055Z</time>
      </trkpt>
      <trkpt lat="44.18295" lon="0.60377">
        <ele>107.455682</ele>
        <time>2021-08-22T06:49:12.067Z</time>
      </trkpt>
      <trkpt lat="44.18282" lon="0.60382">
        <ele>107.501195</ele>
        <time>2021-08-22T06:49:15.059Z</time>
      </trkpt>
      <trkpt lat="44.1827" lon="0.60387">
        <ele>107.547017</ele>
        <time>2021-08-22T06:49:18.067Z</time>
      </trkpt>
      <trkpt lat="44.18261" lon="0.6039">
        <ele>107.578363</ele>
        <time>2021-08-22T06:49:20.063Z</time>
      </trkpt>
      <trkpt lat="44.18248" lon="0.60395">
        <ele>107.679287</ele>
        <time>2021-08-22T06:49:23.061Z</time>
      </trkpt>
      <trkpt lat="44.18239" lon="0.60399">
        <ele>107.751547</ele>
        <time>2021-08-22T06:49:25.072Z</time>
      </trkpt>
      <trkpt lat="44.1823" lon="0.60402">
        <ele>107.823968</ele>
        <time>2021-08-22T06:49:27.070Z</time>
      </trkpt>
      <trkpt lat="44.18221" lon="0.60406">
        <ele>107.895472</ele>
        <time>2021-08-22T06:49:29.076Z</time>
      </trkpt>
      <trkpt lat="44.18212" lon="0.60409">
        <ele>107.968384</ele>
        <time>2021-08-22T06:49:31.053Z</time>
      </trkpt>
      <trkpt lat="44.182" lon="0.60414">
        <ele>108.07297</ele>
        <time>2021-08-22T06:49:34.066Z</time>
      </trkpt>
      <trkpt lat="44.18191" lon="0.60418">
        <ele>108.144052</ele>
        <time>2021-08-22T06:49:36.058Z</time>
      </trkpt>
      <trkpt lat="44.18182" lon="0.60421">
        <ele>108.219655</ele>
        <time>2021-08-22T06:49:38.071Z</time>
      </trkpt>
      <trkpt lat="44.18173" lon="0.60425">
        <ele>108.293885</ele>
        <time>2021-08-22T06:49:40.071Z</time>
      </trkpt>
      <trkpt lat="44.18163" lon="0.60428">
        <ele>108.370401</ele>
        <time>2021-08-22T06:49:42.067Z</time>
      </trkpt>
      <trkpt lat="44.18154" lon="0.60432">
        <ele>108.446014</ele>
        <time>2021-08-22T06:49:44.066Z</time>
      </trkpt>
      <trkpt lat="44.18145" lon="0.60435">
        <ele>108.522215</ele>
        <time>2021-08-22T06:49:46.064Z</time>
      </trkpt>
      <trkpt lat="44.18135" lon="0.60439">
        <ele>108.599783</ele>
        <time>2021-08-22T06:49:48.063Z</time>
      </trkpt>
      <trkpt lat="44.18126" lon="0.60442">
        <ele>108.674922</ele>
        <time>2021-08-22T06:49:50.061Z</time>
      </trkpt>
      <trkpt lat="44.18116" lon="0.60445">
        <ele>108.752971</ele>
        <time>2021-08-22T06:49:52.065Z</time>
      </trkpt>
      <trkpt lat="44.18107" lon="0.60449">
        <ele>108.828725</ele>
        <time>2021-08-22T06:49:54.062Z</time>
      </trkpt>
      <trkpt lat="44.18098" lon="0.60452">
        <ele>108.904338</ele>
        <time>2021-08-22T06:49:56.063Z</time>
      </trkpt>
      <trkpt lat="44.18088" lon="0.60455">
        <ele>108.982667</ele>
        <time>2021-08-22T06:49:58.073Z</time>
      </trkpt>
      <trkpt lat="44.18078" lon="0.60459">
        <ele>109.004249</ele>
        <time>2021-08-22T06:50:00.068Z</time>
      </trkpt>
      <trkpt lat="44.18068" lon="0.60463">
        <ele>109.009743</ele>
        <time>2021-08-22T06:50:02.065Z</time>
      </trkpt>
      <trkpt lat="44.18058" lon="0.60466">
        <ele>109.015246</ele>
        <time>2021-08-22T06:50:04.078Z</time>
      </trkpt>
      <trkpt lat="44.18048" lon="0.6047">
        <ele>109.020576</ele>
        <time>2021-08-22T06:50:06.061Z</time>
      </trkpt>
      <trkpt lat="44.18038" lon="0.60474">
        <ele>109.025977</ele>
        <time>2021-08-22T06:50:08.068Z</time>
      </trkpt>
      <trkpt lat="44.18029" lon="0.60478">
        <ele>109.031368</ele>
        <time>2021-08-22T06:50:10.071Z</time>
      </trkpt>
      <trkpt lat="44.18019" lon="0.60481">
        <ele>109.036721</ele>
        <time>2021-08-22T06:50:12.063Z</time>
      </trkpt>
      <trkpt lat="44.18009" lon="0.60484">
        <ele>109.041938</ele>
        <time>2021-08-22T06:50:14.062Z</time>
      </trkpt>
      <trkpt lat="44.18" lon="0.60488">
        <ele>109.047095</ele>
        <time>2021-08-22T06:50:16.061Z</time>
      </trkpt>
      <trkpt lat="44.1799" lon="0.60492">
        <ele>109.052404</ele>
        <time>2021-08-22T06:50:18.066Z</time>
      </trkpt>
      <trkpt lat="44.17981" lon="0.60496">
        <ele>109.057601</ele>
        <time>2021-08-22T06:50:20.064Z</time>
      </trkpt>
      <trkpt lat="44.17972" lon="0.605">
        <ele>109.062854</ele>
        <time>2021-08-22T06:50:22.066Z</time>
      </trkpt>
      <trkpt lat="44.17962" lon="0.60504">
        <ele>109.068225</ele>
        <time>2021-08-22T06:50:24.067Z</time>
      </trkpt>
      <trkpt lat="44.17952" lon="0.60507">
        <ele>109.073555</ele>
        <time>2021-08-22T06:50:26.077Z</time>
      </trkpt>
      <trkpt lat="44.17943" lon="0.60511">
        <ele>109.078721</ele>
        <time>2021-08-22T06:50:28.067Z</time>
      </trkpt>
      <trkpt lat="44.17933" lon="0.60514">
        <ele>109.083846</ele>
        <time>2021-08-22T06:50:30.076Z</time>
      </trkpt>
      <trkpt lat="44.17924" lon="0.60518">
        <ele>109.089013</ele>
        <time>2021-08-22T06:50:32.060Z</time>
      </trkpt>
      <trkpt lat="44.17915" lon="0.60522">
        <ele>109.09421</ele>
        <time>2021-08-22T06:50:34.057Z</time>
      </trkpt>
      <trkpt lat="44.17905" lon="0.60526">
        <ele>109.032611</ele>
        <time>2021-08-22T06:50:36.060Z</time>
      </trkpt>
      <trkpt lat="44.17896" lon="0.60529">
        <ele>108.954176</ele>
        <time>2021-08-22T06:50:38.068Z</time>
      </trkpt>
      <trkpt lat="44.17886" lon="0.60533">
        <ele>108.877141</ele>
        <time>2021-08-22T06:50:40.059Z</time>
      </trkpt>
      <trkpt lat="44.17877" lon="0.60537">
        <ele>108.802131</ele>
        <time>2021-08-22T06:50:42.069Z</time>
      </trkpt>
      <trkpt lat="44.17868" lon="0.6054">
        <ele>108.72696</ele>
        <time>2021-08-22T06:50:44.062Z</time>
      </trkpt>
      <trkpt lat="44.17859" lon="0.60544">
        <ele>108.652258</ele>
        <time>2021-08-22T06:50:46.062Z</time>
      </trkpt>
      <trkpt lat="44.17851" lon="0.60547">
        <ele>108.578766</ele>
        <time>2021-08-22T06:50:48.070Z</time>
      </trkpt>
      <trkpt lat="44.17838" lon="0.60552">
        <ele>108.473198</ele>
        <time>2021-08-22T06:50:51.073Z</time>
      </trkpt>
      <trkpt lat="44.17825" lon="0.60557">
        <ele>108.365933</ele>
        <time>2021-08-22T06:50:54.067Z</time>
      </trkpt>
      <trkpt lat="44.17812" lon="0.60562">
        <ele>108.258668</ele>
        <time>2021-08-22T06:50:57.069Z</time>
      </trkpt>
      <trkpt lat="44.17799" lon="0.60566">
        <ele>108.15369</ele>
        <time>2021-08-22T06:51:00.067Z</time>
      </trkpt>
      <trkpt lat="44.17786" lon="0.60569">
        <ele>108.049008</ele>
        <time>2021-08-22T06:51:03.062Z</time>
      </trkpt>
      <trkpt lat="44.17773" lon="0.60574">
        <ele>107.941836</ele>
        <time>2021-08-22T06:51:06.070Z</time>
      </trkpt>
      <trkpt lat="44.17761" lon="0.60579">
        <ele>107.8347</ele>
        <time>2021-08-22T06:51:09.063Z</time>
      </trkpt>
      <trkpt lat="44.17748" lon="0.60585">
        <ele>107.726113</ele>
        <time>2021-08-22T06:51:12.069Z</time>
      </trkpt>
      <trkpt lat="44.17739" lon="0.60588">
        <ele>107.654145</ele>
        <time>2021-08-22T06:51:14.053Z</time>
      </trkpt>
      <trkpt lat="44.17726" lon="0.60593">
        <ele>107.639996</ele>
        <time>2021-08-22T06:51:17.058Z</time>
      </trkpt>
      <trkpt lat="44.17717" lon="0.60597">
        <ele>107.630333</ele>
        <time>2021-08-22T06:51:19.048Z</time>
      </trkpt>
      <trkpt lat="44.17708" lon="0.606">
        <ele>107.620833</ele>
        <time>2021-08-22T06:51:21.062Z</time>
      </trkpt>
      <trkpt lat="44.17699" lon="0.60603">
        <ele>107.61117</ele>
        <time>2021-08-22T06:51:23.077Z</time>
      </trkpt>
      <trkpt lat="44.17691" lon="0.60607">
        <ele>107.601487</ele>
        <time>2021-08-22T06:51:25.058Z</time>
      </trkpt>
      <trkpt lat="44.17682" lon="0.60611">
        <ele>107.591621</ele>
        <time>2021-08-22T06:51:27.064Z</time>
      </trkpt>
      <trkpt lat="44.17673" lon="0.60614">
        <ele>107.581958</ele>
        <time>2021-08-22T06:51:29.054Z</time>
      </trkpt>
      <trkpt lat="44.17659" lon="0.60619">
        <ele>107.567524</ele>
        <time>2021-08-22T06:51:32.072Z</time>
      </trkpt>
      <trkpt lat="44.1765" lon="0.60623">
        <ele>107.557498</ele>
        <time>2021-08-22T06:51:34.068Z</time>
      </trkpt>
      <trkpt lat="44.17641" lon="0.60626">
        <ele>107.547909</ele>
        <time>2021-08-22T06:51:36.071Z</time>
      </trkpt>
      <trkpt lat="44.17633" lon="0.60629">
        <ele>107.538438</ele>
        <time>2021-08-22T06:51:38.060Z</time>
      </trkpt>
      <trkpt lat="44.17624" lon="0.60632">
        <ele>107.528614</ele>
        <time>2021-08-22T06:51:40.062Z</time>
      </trkpt>
      <trkpt lat="44.17615" lon="0.60636">
        <ele>107.518747</ele>
        <time>2021-08-22T06:51:42.064Z</time>
      </trkpt>
      <trkpt lat="44.17605" lon="0.6064">
        <ele>107.50839</ele>
        <time>2021-08-22T06:51:44.057Z</time>
      </trkpt>
      <trkpt lat="44.17596" lon="0.60644">
        <ele>107.498404</ele>
        <time>2021-08-22T06:51:46.076Z</time>
      </trkpt>
      <trkpt lat="44.17587" lon="0.60647">
        <ele>107.488575</ele>
        <time>2021-08-22T06:51:48.063Z</time>
      </trkpt>
      <trkpt lat="44.17578" lon="0.6065">
        <ele>107.479088</ele>
        <time>2021-08-22T06:51:50.060Z</time>
      </trkpt>
      <trkpt lat="44.17569" lon="0.60653">
        <ele>107.469323</ele>
        <time>2021-08-22T06:51:52.068Z</time>
      </trkpt>
      <trkpt lat="44.1756" lon="0.60656">
        <ele>107.490304</ele>
        <time>2021-08-22T06:51:54.063Z</time>
      </trkpt>
      <trkpt lat="44.17551" lon="0.6066">
        <ele>107.531178</ele>
        <time>2021-08-22T06:51:56.065Z</time>
      </trkpt>
      <trkpt lat="44.17543" lon="0.60664">
        <ele>107.57209</ele>
        <time>2021-08-22T06:51:58.065Z</time>
      </trkpt>
      <trkpt lat="44.17533" lon="0.60667">
        <ele>107.61417</ele>
        <time>2021-08-22T06:52:00.064Z</time>
      </trkpt>
      <trkpt lat="44.17524" lon="0.60671">
        <ele>107.655731</ele>
        <time>2021-08-22T06:52:02.071Z</time>
      </trkpt>
      <trkpt lat="44.17515" lon="0.60675">
        <ele>107.696874</ele>
        <time>2021-08-22T06:52:04.071Z</time>
      </trkpt>
      <trkpt lat="44.17506" lon="0.60677">
        <ele>107.737633</ele>
        <time>2021-08-22T06:52:06.063Z</time>
      </trkpt>
      <trkpt lat="44.17493" lon="0.60683">
        <ele>107.797591</ele>
        <time>2021-08-22T06:52:09.065Z</time>
      </trkpt>
      <trkpt lat="44.17484" lon="0.60687">
        <ele>107.841364</ele>
        <time>2021-08-22T06:52:11.060Z</time>
      </trkpt>
      <trkpt lat="44.17474" lon="0.6069">
        <ele>107.884717</ele>
        <time>2021-08-22T06:52:13.056Z</time>
      </trkpt>
      <trkpt lat="44.17466" lon="0.60694">
        <ele>107.925014</ele>
        <time>2021-08-22T06:52:15.056Z</time>
      </trkpt>
      <trkpt lat="44.17457" lon="0.60697">
        <ele>107.964704</ele>
        <time>2021-08-22T06:52:17.064Z</time>
      </trkpt>
      <trkpt lat="44.17444" lon="0.60702">
        <ele>108.022783</ele>
        <time>2021-08-22T06:52:20.060Z</time>
      </trkpt>
      <trkpt lat="44.17432" lon="0.60708">
        <ele>108.082317</ele>
        <time>2021-08-22T06:52:23.081Z</time>
      </trkpt>
      <trkpt lat="44.17423" lon="0.60711">
        <ele>108.12217</ele>
        <time>2021-08-22T06:52:25.061Z</time>
      </trkpt>
      <trkpt lat="44.17414" lon="0.60714">
        <ele>108.162876</ele>
        <time>2021-08-22T06:52:27.076Z</time>
      </trkpt>
      <trkpt lat="44.17405" lon="0.60718">
        <ele>108.205454</ele>
        <time>2021-08-22T06:52:29.068Z</time>
      </trkpt>
      <trkpt lat="44.17395" lon="0.60721">
        <ele>108.248887</ele>
        <time>2021-08-22T06:52:31.066Z</time>
      </trkpt>
      <trkpt lat="44.17386" lon="0.60724">
        <ele>108.33117</ele>
        <time>2021-08-22T06:52:33.066Z</time>
      </trkpt>
      <trkpt lat="44.17377" lon="0.60728">
        <ele>108.424491</ele>
        <time>2021-08-22T06:52:35.057Z</time>
      </trkpt>
      <trkpt lat="44.17368" lon="0.60731">
        <ele>108.517194</ele>
        <time>2021-08-22T06:52:37.058Z</time>
      </trkpt>
      <trkpt lat="44.17359" lon="0.60734">
        <ele>108.61088</ele>
        <time>2021-08-22T06:52:39.066Z</time>
      </trkpt>
      <trkpt lat="44.1735" lon="0.60737">
        <ele>108.708504</ele>
        <time>2021-08-22T06:52:41.066Z</time>
      </trkpt>
      <trkpt lat="44.17341" lon="0.60741">
        <ele>108.807671</ele>
        <time>2021-08-22T06:52:43.062Z</time>
      </trkpt>
      <trkpt lat="44.17331" lon="0.60744">
        <ele>108.906281</ele>
        <time>2021-08-22T06:52:45.072Z</time>
      </trkpt>
      <trkpt lat="44.17322" lon="0.60748">
        <ele>109.005072</ele>
        <time>2021-08-22T06:52:47.059Z</time>
      </trkpt>
      <trkpt lat="44.17313" lon="0.60751">
        <ele>109.102279</ele>
        <time>2021-08-22T06:52:49.061Z</time>
      </trkpt>
      <trkpt lat="44.17303" lon="0.60755">
        <ele>109.200314</ele>
        <time>2021-08-22T06:52:51.073Z</time>
      </trkpt>
      <trkpt lat="44.17294" lon="0.60759">
        <ele>109.299878</ele>
        <time>2021-08-22T06:52:53.075Z</time>
      </trkpt>
      <trkpt lat="44.17285" lon="0.60763">
        <ele>109.397685</ele>
        <time>2021-08-22T06:52:55.066Z</time>
      </trkpt>
      <trkpt lat="44.17276" lon="0.60766">
        <ele>109.493912</ele>
        <time>2021-08-22T06:52:57.065Z</time>
      </trkpt>
      <trkpt lat="44.17266" lon="0.6077">
        <ele>109.591719</ele>
        <time>2021-08-22T06:52:59.064Z</time>
      </trkpt>
      <trkpt lat="44.17257" lon="0.60773">
        <ele>109.688731</ele>
        <time>2021-08-22T06:53:01.068Z</time>
      </trkpt>
      <trkpt lat="44.17248" lon="0.60777">
        <ele>109.788094</ele>
        <time>2021-08-22T06:53:03.070Z</time>
      </trkpt>
      <trkpt lat="44.17238" lon="0.6078">
        <ele>109.888437</ele>
        <time>2021-08-22T06:53:05.078Z</time>
      </trkpt>
      <trkpt lat="44.17229" lon="0.60784">
        <ele>109.988213</ele>
        <time>2021-08-22T06:53:07.068Z</time>
      </trkpt>
      <trkpt lat="44.17219" lon="0.60787">
        <ele>110.087189</ele>
        <time>2021-08-22T06:53:09.074Z</time>
      </trkpt>
      <trkpt lat="44.1721" lon="0.6079">
        <ele>110.133104</ele>
        <time>2021-08-22T06:53:11.051Z</time>
      </trkpt>
      <trkpt lat="44.17201" lon="0.60794">
        <ele>110.178623</ele>
        <time>2021-08-22T06:53:13.066Z</time>
      </trkpt>
      <trkpt lat="44.17192" lon="0.60798">
        <ele>110.224264</ele>
        <time>2021-08-22T06:53:15.069Z</time>
      </trkpt>
      <trkpt lat="44.17182" lon="0.60801">
        <ele>110.270239</ele>
        <time>2021-08-22T06:53:17.065Z</time>
      </trkpt>
      <trkpt lat="44.17173" lon="0.60805">
        <ele>110.315671</ele>
        <time>2021-08-22T06:53:19.071Z</time>
      </trkpt>
      <trkpt lat="44.17164" lon="0.60808">
        <ele>110.36128</ele>
        <time>2021-08-22T06:53:21.074Z</time>
      </trkpt>
      <trkpt lat="44.17154" lon="0.60812">
        <ele>110.407435</ele>
        <time>2021-08-22T06:53:23.067Z</time>
      </trkpt>
      <trkpt lat="44.17145" lon="0.60816">
        <ele>110.453781</ele>
        <time>2021-08-22T06:53:25.066Z</time>
      </trkpt>
      <trkpt lat="44.17136" lon="0.60819">
        <ele>110.499028</ele>
        <time>2021-08-22T06:53:27.071Z</time>
      </trkpt>
      <trkpt lat="44.17126" lon="0.60822">
        <ele>110.543294</ele>
        <time>2021-08-22T06:53:29.069Z</time>
      </trkpt>
      <trkpt lat="44.17117" lon="0.60826">
        <ele>110.587901</ele>
        <time>2021-08-22T06:53:31.056Z</time>
      </trkpt>
      <trkpt lat="44.17109" lon="0.60829">
        <ele>110.630235</ele>
        <time>2021-08-22T06:53:33.059Z</time>
      </trkpt>
      <trkpt lat="44.171" lon="0.60832">
        <ele>110.673667</ele>
        <time>2021-08-22T06:53:35.066Z</time>
      </trkpt>
      <trkpt lat="44.17091" lon="0.60834">
        <ele>110.71644</ele>
        <time>2021-08-22T06:53:37.071Z</time>
      </trkpt>
      <trkpt lat="44.17082" lon="0.60837">
        <ele>110.759553</ele>
        <time>2021-08-22T06:53:39.066Z</time>
      </trkpt>
      <trkpt lat="44.17073" lon="0.6084">
        <ele>110.803381</ele>
        <time>2021-08-22T06:53:41.072Z</time>
      </trkpt>
      <trkpt lat="44.17064" lon="0.60841">
        <ele>110.846298</ele>
        <time>2021-08-22T06:53:43.064Z</time>
      </trkpt>
      <trkpt lat="44.17055" lon="0.60828">
        <ele>110.905743</ele>
        <time>2021-08-22T06:53:46.075Z</time>
      </trkpt>
      <trkpt lat="44.17051" lon="0.60818">
        <ele>110.938389</ele>
        <time>2021-08-22T06:53:48.056Z</time>
      </trkpt>
      <trkpt lat="44.17044" lon="0.60801">
        <ele>110.922883</ele>
        <time>2021-08-22T06:53:51.062Z</time>
      </trkpt>
      <trkpt lat="44.1704" lon="0.6079">
        <ele>110.912235</ele>
        <time>2021-08-22T06:53:53.073Z</time>
      </trkpt>
      <trkpt lat="44.17036" lon="0.60778">
        <ele>110.901641</ele>
        <time>2021-08-22T06:53:55.060Z</time>
      </trkpt>
      <trkpt lat="44.17031" lon="0.60767">
        <ele>110.891012</ele>
        <time>2021-08-22T06:53:57.061Z</time>
      </trkpt>
      <trkpt lat="44.17027" lon="0.60755">
        <ele>110.880145</ele>
        <time>2021-08-22T06:53:59.076Z</time>
      </trkpt>
      <trkpt lat="44.17023" lon="0.60743">
        <ele>110.868931</ele>
        <time>2021-08-22T06:54:01.064Z</time>
      </trkpt>
      <trkpt lat="44.17019" lon="0.60731">
        <ele>110.858216</ele>
        <time>2021-08-22T06:54:03.068Z</time>
      </trkpt>
      <trkpt lat="44.17015" lon="0.6072">
        <ele>110.8476</ele>
        <time>2021-08-22T06:54:05.072Z</time>
      </trkpt>
      <trkpt lat="44.17011" lon="0.60708">
        <ele>110.83671</ele>
        <time>2021-08-22T06:54:07.075Z</time>
      </trkpt>
      <trkpt lat="44.17007" lon="0.60696">
        <ele>110.825797</ele>
        <time>2021-08-22T06:54:09.064Z</time>
      </trkpt>
      <trkpt lat="44.17" lon="0.60687">
        <ele>110.814513</ele>
        <time>2021-08-22T06:54:11.065Z</time>
      </trkpt>
      <trkpt lat="44.1699" lon="0.60683">
        <ele>110.802678</ele>
        <time>2021-08-22T06:54:13.075Z</time>
      </trkpt>
      <trkpt lat="44.16981" lon="0.60678">
        <ele>110.791659</ele>
        <time>2021-08-22T06:54:15.067Z</time>
      </trkpt>
      <trkpt lat="44.16972" lon="0.60673">
        <ele>110.780893</ele>
        <time>2021-08-22T06:54:17.062Z</time>
      </trkpt>
      <trkpt lat="44.16964" lon="0.60667">
        <ele>110.770022</ele>
        <time>2021-08-22T06:54:19.060Z</time>
      </trkpt>
      <trkpt lat="44.16955" lon="0.60661">
        <ele>110.759042</ele>
        <time>2021-08-22T06:54:21.061Z</time>
      </trkpt>
      <trkpt lat="44.16947" lon="0.60655">
        <ele>110.747892</ele>
        <time>2021-08-22T06:54:23.063Z</time>
      </trkpt>
      <trkpt lat="44.16938" lon="0.60649">
        <ele>110.736759</ele>
        <time>2021-08-22T06:54:25.070Z</time>
      </trkpt>
      <trkpt lat="44.1693" lon="0.60643">
        <ele>110.717521</ele>
        <time>2021-08-22T06:54:27.079Z</time>
      </trkpt>
      <trkpt lat="44.16922" lon="0.60637">
        <ele>110.694274</ele>
        <time>2021-08-22T06:54:29.068Z</time>
      </trkpt>
      <trkpt lat="44.16913" lon="0.60631">
        <ele>110.670125</ele>
        <time>2021-08-22T06:54:31.071Z</time>
      </trkpt>
      <trkpt lat="44.16905" lon="0.60626">
        <ele>110.646286</ele>
        <time>2021-08-22T06:54:33.071Z</time>
      </trkpt>
      <trkpt lat="44.16896" lon="0.6062">
        <ele>110.621666</ele>
        <time>2021-08-22T06:54:35.064Z</time>
      </trkpt>
      <trkpt lat="44.16888" lon="0.60614">
        <ele>110.596895</ele>
        <time>2021-08-22T06:54:37.064Z</time>
      </trkpt>
      <trkpt lat="44.16879" lon="0.60608">
        <ele>110.572274</ele>
        <time>2021-08-22T06:54:39.064Z</time>
      </trkpt>
      <trkpt lat="44.16871" lon="0.60602">
        <ele>110.548342</ele>
        <time>2021-08-22T06:54:41.063Z</time>
      </trkpt>
      <trkpt lat="44.16863" lon="0.60596">
        <ele>110.524468</ele>
        <time>2021-08-22T06:54:43.066Z</time>
      </trkpt>
      <trkpt lat="44.16855" lon="0.6059">
        <ele>110.500867</ele>
        <time>2021-08-22T06:54:45.062Z</time>
      </trkpt>
      <trkpt lat="44.16844" lon="0.60579">
        <ele>110.467223</ele>
        <time>2021-08-22T06:54:48.067Z</time>
      </trkpt>
      <trkpt lat="44.16843" lon="0.60565">
        <ele>110.442425</ele>
        <time>2021-08-22T06:54:50.076Z</time>
      </trkpt>
      <trkpt lat="44.16844" lon="0.60552">
        <ele>110.418568</ele>
        <time>2021-08-22T06:54:52.071Z</time>
      </trkpt>
      <trkpt lat="44.16845" lon="0.60539">
        <ele>110.394732</ele>
        <time>2021-08-22T06:54:54.060Z</time>
      </trkpt>
      <trkpt lat="44.16846" lon="0.60527">
        <ele>110.37113</ele>
        <time>2021-08-22T06:54:56.071Z</time>
      </trkpt>
      <trkpt lat="44.16849" lon="0.60509">
        <ele>110.336937</ele>
        <time>2021-08-22T06:54:59.067Z</time>
      </trkpt>
      <trkpt lat="44.16858" lon="0.60496">
        <ele>110.303626</ele>
        <time>2021-08-22T06:55:02.071Z</time>
      </trkpt>
      <trkpt lat="44.16866" lon="0.60481">
        <ele>110.268661</ele>
        <time>2021-08-22T06:55:05.064Z</time>
      </trkpt>
      <trkpt lat="44.16869" lon="0.60469">
        <ele>110.237933</ele>
        <time>2021-08-22T06:55:07.064Z</time>
      </trkpt>
      <trkpt lat="44.1687" lon="0.60455">
        <ele>110.20627</ele>
        <time>2021-08-22T06:55:09.066Z</time>
      </trkpt>
      <trkpt lat="44.16872" lon="0.60442">
        <ele>110.174253</ele>
        <time>2021-08-22T06:55:11.070Z</time>
      </trkpt>
      <trkpt lat="44.16873" lon="0.60428">
        <ele>110.142371</ele>
        <time>2021-08-22T06:55:13.065Z</time>
      </trkpt>
      <trkpt lat="44.16874" lon="0.60415">
        <ele>110.11142</ele>
        <time>2021-08-22T06:55:15.076Z</time>
      </trkpt>
      <trkpt lat="44.16876" lon="0.60402">
        <ele>110.079451</ele>
        <time>2021-08-22T06:55:17.063Z</time>
      </trkpt>
      <trkpt lat="44.16877" lon="0.60389">
        <ele>110.048537</ele>
        <time>2021-08-22T06:55:19.062Z</time>
      </trkpt>
      <trkpt lat="44.16879" lon="0.60376">
        <ele>110.017737</ele>
        <time>2021-08-22T06:55:21.063Z</time>
      </trkpt>
      <trkpt lat="44.1688" lon="0.60363">
        <ele>109.987391</ele>
        <time>2021-08-22T06:55:23.059Z</time>
      </trkpt>
      <trkpt lat="44.16882" lon="0.60351">
        <ele>109.95802</ele>
        <time>2021-08-22T06:55:25.067Z</time>
      </trkpt>
      <trkpt lat="44.16883" lon="0.60337">
        <ele>109.926097</ele>
        <time>2021-08-22T06:55:27.067Z</time>
      </trkpt>
      <trkpt lat="44.16885" lon="0.60324">
        <ele>109.894204</ele>
        <time>2021-08-22T06:55:29.064Z</time>
      </trkpt>
      <trkpt lat="44.16886" lon="0.6031">
        <ele>109.861989</ele>
        <time>2021-08-22T06:55:31.064Z</time>
      </trkpt>
      <trkpt lat="44.16885" lon="0.60296">
        <ele>109.829866</ele>
        <time>2021-08-22T06:55:33.059Z</time>
      </trkpt>
      <trkpt lat="44.16884" lon="0.60282">
        <ele>109.796625</ele>
        <time>2021-08-22T06:55:35.068Z</time>
      </trkpt>
      <trkpt lat="44.16883" lon="0.60269">
        <ele>109.764701</ele>
        <time>2021-08-22T06:55:37.070Z</time>
      </trkpt>
      <trkpt lat="44.16882" lon="0.60255">
        <ele>109.733474</ele>
        <time>2021-08-22T06:55:39.062Z</time>
      </trkpt>
      <trkpt lat="44.16881" lon="0.60242">
        <ele>109.702865</ele>
        <time>2021-08-22T06:55:41.063Z</time>
      </trkpt>
      <trkpt lat="44.1688" lon="0.6023">
        <ele>109.70106</ele>
        <time>2021-08-22T06:55:43.066Z</time>
      </trkpt>
      <trkpt lat="44.1688" lon="0.60217">
        <ele>109.753147</ele>
        <time>2021-08-22T06:55:45.065Z</time>
      </trkpt>
      <trkpt lat="44.16879" lon="0.60204">
        <ele>109.806234</ele>
        <time>2021-08-22T06:55:47.069Z</time>
      </trkpt>
      <trkpt lat="44.16878" lon="0.60191">
        <ele>109.85904</ele>
        <time>2021-08-22T06:55:49.071Z</time>
      </trkpt>
      <trkpt lat="44.16876" lon="0.60178">
        <ele>109.912009</ele>
        <time>2021-08-22T06:55:51.066Z</time>
      </trkpt>
      <trkpt lat="44.16873" lon="0.60166">
        <ele>109.963681</ele>
        <time>2021-08-22T06:55:53.065Z</time>
      </trkpt>
      <trkpt lat="44.16869" lon="0.60154">
        <ele>110.015125</ele>
        <time>2021-08-22T06:55:55.069Z</time>
      </trkpt>
      <trkpt lat="44.16864" lon="0.60143">
        <ele>110.066141</ele>
        <time>2021-08-22T06:55:57.069Z</time>
      </trkpt>
      <trkpt lat="44.1686" lon="0.60132">
        <ele>110.117337</ele>
        <time>2021-08-22T06:55:59.071Z</time>
      </trkpt>
      <trkpt lat="44.16857" lon="0.6012">
        <ele>110.169009</ele>
        <time>2021-08-22T06:56:01.059Z</time>
      </trkpt>
      <trkpt lat="44.16854" lon="0.60108">
        <ele>110.220514</ele>
        <time>2021-08-22T06:56:03.083Z</time>
      </trkpt>
      <trkpt lat="44.16852" lon="0.60096">
        <ele>110.271802</ele>
        <time>2021-08-22T06:56:05.064Z</time>
      </trkpt>
      <trkpt lat="44.16847" lon="0.60084">
        <ele>110.324221</ele>
        <time>2021-08-22T06:56:07.074Z</time>
      </trkpt>
      <trkpt lat="44.16843" lon="0.60072">
        <ele>110.378398</ele>
        <time>2021-08-22T06:56:09.063Z</time>
      </trkpt>
      <trkpt lat="44.16838" lon="0.60061">
        <ele>110.431091</ele>
        <time>2021-08-22T06:56:11.067Z</time>
      </trkpt>
      <trkpt lat="44.16833" lon="0.60051">
        <ele>110.482232</ele>
        <time>2021-08-22T06:56:13.071Z</time>
      </trkpt>
      <trkpt lat="44.16827" lon="0.60041">
        <ele>110.533069</ele>
        <time>2021-08-22T06:56:15.067Z</time>
      </trkpt>
      <trkpt lat="44.16818" lon="0.60028">
        <ele>110.605314</ele>
        <time>2021-08-22T06:56:18.069Z</time>
      </trkpt>
      <trkpt lat="44.16812" lon="0.60013">
        <ele>110.674863</ele>
        <time>2021-08-22T06:56:21.067Z</time>
      </trkpt>
      <trkpt lat="44.16807" lon="0.59997">
        <ele>110.681992</ele>
        <time>2021-08-22T06:56:24.066Z</time>
      </trkpt>
      <trkpt lat="44.16802" lon="0.59981">
        <ele>110.662721</ele>
        <time>2021-08-22T06:56:27.072Z</time>
      </trkpt>
      <trkpt lat="44.16797" lon="0.5997">
        <ele>110.648849</ele>
        <time>2021-08-22T06:56:29.058Z</time>
      </trkpt>
      <trkpt lat="44.16792" lon="0.59959">
        <ele>110.635185</ele>
        <time>2021-08-22T06:56:31.064Z</time>
      </trkpt>
      <trkpt lat="44.16787" lon="0.59942">
        <ele>110.615723</ele>
        <time>2021-08-22T06:56:34.073Z</time>
      </trkpt>
      <trkpt lat="44.16792" lon="0.59927">
        <ele>110.597634</ele>
        <time>2021-08-22T06:56:37.057Z</time>
      </trkpt>
      <trkpt lat="44.16788" lon="0.5991">
        <ele>110.579234</ele>
        <time>2021-08-22T06:56:40.072Z</time>
      </trkpt>
      <trkpt lat="44.16783" lon="0.59898">
        <ele>110.565104</ele>
        <time>2021-08-22T06:56:42.072Z</time>
      </trkpt>
      <trkpt lat="44.1678" lon="0.59887">
        <ele>110.551513</ele>
        <time>2021-08-22T06:56:44.062Z</time>
      </trkpt>
      <trkpt lat="44.16776" lon="0.59869">
        <ele>110.532026</ele>
        <time>2021-08-22T06:56:47.063Z</time>
      </trkpt>
      <trkpt lat="44.16774" lon="0.59857">
        <ele>110.518395</ele>
        <time>2021-08-22T06:56:49.059Z</time>
      </trkpt>
      <trkpt lat="44.16772" lon="0.59844">
        <ele>110.504937</ele>
        <time>2021-08-22T06:56:51.055Z</time>
      </trkpt>
      <trkpt lat="44.1677" lon="0.59832">
        <ele>110.490921</ele>
        <time>2021-08-22T06:56:53.061Z</time>
      </trkpt>
      <trkpt lat="44.16768" lon="0.59819">
        <ele>110.477034</ele>
        <time>2021-08-22T06:56:55.062Z</time>
      </trkpt>
      <trkpt lat="44.16767" lon="0.59805">
        <ele>110.462815</ele>
        <time>2021-08-22T06:56:57.060Z</time>
      </trkpt>
      <trkpt lat="44.16767" lon="0.59792">
        <ele>110.44895</ele>
        <time>2021-08-22T06:56:59.073Z</time>
      </trkpt>
      <trkpt lat="44.16766" lon="0.59779">
        <ele>110.434943</ele>
        <time>2021-08-22T06:57:01.064Z</time>
      </trkpt>
      <trkpt lat="44.16765" lon="0.59766">
        <ele>110.448319</ele>
        <time>2021-08-22T06:57:03.064Z</time>
      </trkpt>
      <trkpt lat="44.16765" lon="0.59754">
        <ele>110.48817</ele>
        <time>2021-08-22T06:57:05.062Z</time>
      </trkpt>
      <trkpt lat="44.16764" lon="0.59741">
        <ele>110.528968</ele>
        <time>2021-08-22T06:57:07.060Z</time>
      </trkpt>
      <trkpt lat="44.16764" lon="0.59728">
        <ele>110.570082</ele>
        <time>2021-08-22T06:57:09.065Z</time>
      </trkpt>
      <trkpt lat="44.16764" lon="0.59715">
        <ele>110.609894</ele>
        <time>2021-08-22T06:57:11.051Z</time>
      </trkpt>
      <trkpt lat="44.16763" lon="0.59697">
        <ele>110.668705</ele>
        <time>2021-08-22T06:57:14.067Z</time>
      </trkpt>
      <trkpt lat="44.16763" lon="0.59684">
        <ele>110.709486</ele>
        <time>2021-08-22T06:57:16.070Z</time>
      </trkpt>
      <trkpt lat="44.16763" lon="0.59665">
        <ele>110.767624</ele>
        <time>2021-08-22T06:57:19.062Z</time>
      </trkpt>
      <trkpt lat="44.16755" lon="0.59652">
        <ele>110.82086</ele>
        <time>2021-08-22T06:57:22.070Z</time>
      </trkpt>
      <trkpt lat="44.16749" lon="0.59639">
        <ele>110.871442</ele>
        <time>2021-08-22T06:57:25.071Z</time>
      </trkpt>
      <trkpt lat="44.16749" lon="0.59626">
        <ele>110.911591</ele>
        <time>2021-08-22T06:57:27.065Z</time>
      </trkpt>
      <trkpt lat="44.16749" lon="0.59613">
        <ele>110.952726</ele>
        <time>2021-08-22T06:57:29.063Z</time>
      </trkpt>
      <trkpt lat="44.16748" lon="0.596">
        <ele>110.994268</ele>
        <time>2021-08-22T06:57:31.069Z</time>
      </trkpt>
      <trkpt lat="44.16747" lon="0.59588">
        <ele>111.034637</ele>
        <time>2021-08-22T06:57:33.061Z</time>
      </trkpt>
      <trkpt lat="44.16745" lon="0.59575">
        <ele>111.07437</ele>
        <time>2021-08-22T06:57:35.071Z</time>
      </trkpt>
      <trkpt lat="44.16743" lon="0.59557">
        <ele>111.133934</ele>
        <time>2021-08-22T06:57:38.061Z</time>
      </trkpt>
      <trkpt lat="44.16741" lon="0.59544">
        <ele>111.174307</ele>
        <time>2021-08-22T06:57:40.057Z</time>
      </trkpt>
      <trkpt lat="44.16739" lon="0.59532">
        <ele>111.214584</ele>
        <time>2021-08-22T06:57:42.062Z</time>
      </trkpt>
      <trkpt lat="44.16736" lon="0.5952">
        <ele>111.251914</ele>
        <time>2021-08-22T06:57:44.069Z</time>
      </trkpt>
      <trkpt lat="44.16733" lon="0.59502">
        <ele>111.306092</ele>
        <time>2021-08-22T06:57:47.065Z</time>
      </trkpt>
      <trkpt lat="44.16728" lon="0.59484">
        <ele>111.358974</ele>
        <time>2021-08-22T06:57:50.062Z</time>
      </trkpt>
      <trkpt lat="44.16724" lon="0.59467">
        <ele>111.412812</ele>
        <time>2021-08-22T06:57:53.067Z</time>
      </trkpt>
      <trkpt lat="44.1672" lon="0.5945">
        <ele>111.464875</ele>
        <time>2021-08-22T06:57:56.072Z</time>
      </trkpt>
      <trkpt lat="44.16715" lon="0.59432">
        <ele>111.518984</ele>
        <time>2021-08-22T06:57:59.067Z</time>
      </trkpt>
      <trkpt lat="44.16711" lon="0.59415">
        <ele>111.572542</ele>
        <time>2021-08-22T06:58:02.071Z</time>
      </trkpt>
      <trkpt lat="44.16706" lon="0.59397">
        <ele>111.627076</ele>
        <time>2021-08-22T06:58:05.066Z</time>
      </trkpt>
      <trkpt lat="44.16704" lon="0.59379">
        <ele>111.680045</ele>
        <time>2021-08-22T06:58:08.069Z</time>
      </trkpt>
      <trkpt lat="44.16709" lon="0.59362">
        <ele>111.732678</ele>
        <time>2021-08-22T06:58:11.057Z</time>
      </trkpt>
      <trkpt lat="44.16713" lon="0.59345">
        <ele>111.783808</ele>
        <time>2021-08-22T06:58:14.067Z</time>
      </trkpt>
      <trkpt lat="44.16721" lon="0.59332">
        <ele>111.833144</ele>
        <time>2021-08-22T06:58:17.069Z</time>
      </trkpt>
      <trkpt lat="44.16721" lon="0.59319">
        <ele>111.872816</ele>
        <time>2021-08-22T06:58:21.057Z</time>
      </trkpt>
      <trkpt lat="44.16715" lon="0.59304">
        <ele>111.921539</ele>
        <time>2021-08-22T06:58:24.052Z</time>
      </trkpt>
      <trkpt lat="44.16706" lon="0.59296">
        <ele>111.968412</ele>
        <time>2021-08-22T06:58:27.059Z</time>
      </trkpt>
      <trkpt lat="44.16696" lon="0.59289">
        <ele>112.016236</ele>
        <time>2021-08-22T06:58:30.055Z</time>
      </trkpt>
      <trkpt lat="44.16688" lon="0.59278">
        <ele>112.064312</ele>
        <time>2021-08-22T06:58:33.057Z</time>
      </trkpt>
      <trkpt lat="44.16682" lon="0.59264">
        <ele>112.115156</ele>
        <time>2021-08-22T06:58:36.062Z</time>
      </trkpt>
      <trkpt lat="44.16679" lon="0.59248">
        <ele>112.165706</ele>
        <time>2021-08-22T06:58:39.064Z</time>
      </trkpt>
      <trkpt lat="44.1668" lon="0.59231">
        <ele>112.219003</ele>
        <time>2021-08-22T06:58:42.065Z</time>
      </trkpt>
      <trkpt lat="44.16684" lon="0.59215">
        <ele>112.272125</ele>
        <time>2021-08-22T06:58:45.056Z</time>
      </trkpt>
      <trkpt lat="44.16691" lon="0.59201">
        <ele>112.325192</ele>
        <time>2021-08-22T06:58:48.053Z</time>
      </trkpt>
      <trkpt lat="44.16696" lon="0.59186">
        <ele>112.377059</ele>
        <time>2021-08-22T06:58:51.075Z</time>
      </trkpt>
      <trkpt lat="44.16693" lon="0.59171">
        <ele>112.426979</ele>
        <time>2021-08-22T06:58:54.058Z</time>
      </trkpt>
      <trkpt lat="44.16688" lon="0.59158">
        <ele>112.473976</ele>
        <time>2021-08-22T06:58:57.060Z</time>
      </trkpt>
      <trkpt lat="44.16683" lon="0.59144">
        <ele>112.520496</ele>
        <time>2021-08-22T06:59:00.074Z</time>
      </trkpt>
      <trkpt lat="44.16678" lon="0.59131">
        <ele>112.568651</ele>
        <time>2021-08-22T06:59:03.061Z</time>
      </trkpt>
      <trkpt lat="44.16674" lon="0.59116">
        <ele>112.617388</ele>
        <time>2021-08-22T06:59:06.064Z</time>
      </trkpt>
      <trkpt lat="44.16672" lon="0.59101">
        <ele>112.664835</ele>
        <time>2021-08-22T06:59:09.063Z</time>
      </trkpt>
      <trkpt lat="44.16674" lon="0.59087">
        <ele>112.711038</ele>
        <time>2021-08-22T06:59:12.075Z</time>
      </trkpt>
      <trkpt lat="44.16676" lon="0.59074">
        <ele>112.827299</ele>
        <time>2021-08-22T06:59:15.062Z</time>
      </trkpt>
      <trkpt lat="44.16672" lon="0.59062">
        <ele>112.987672</ele>
        <time>2021-08-22T06:59:18.061Z</time>
      </trkpt>
      <trkpt lat="44.16666" lon="0.59052">
        <ele>113.161128</ele>
        <time>2021-08-22T06:59:21.060Z</time>
      </trkpt>
      <trkpt lat="44.16665" lon="0.59038">
        <ele>113.335684</ele>
        <time>2021-08-22T06:59:24.061Z</time>
      </trkpt>
      <trkpt lat="44.16668" lon="0.59025">
        <ele>113.514564</ele>
        <time>2021-08-22T06:59:27.065Z</time>
      </trkpt>
      <trkpt lat="44.16671" lon="0.59011">
        <ele>113.700665</ele>
        <time>2021-08-22T06:59:30.071Z</time>
      </trkpt>
      <trkpt lat="44.16675" lon="0.58996">
        <ele>113.900259</ele>
        <time>2021-08-22T06:59:33.063Z</time>
      </trkpt>
      <trkpt lat="44.16677" lon="0.58981">
        <ele>114.105373</ele>
        <time>2021-08-22T06:59:36.070Z</time>
      </trkpt>
      <trkpt lat="44.16679" lon="0.58963">
        <ele>114.327331</ele>
        <time>2021-08-22T06:59:39.064Z</time>
      </trkpt>
      <trkpt lat="44.1668" lon="0.58946">
        <ele>114.550784</ele>
        <time>2021-08-22T06:59:42.063Z</time>
      </trkpt>
      <trkpt lat="44.16678" lon="0.58928">
        <ele>114.784646</ele>
        <time>2021-08-22T06:59:45.058Z</time>
      </trkpt>
      <trkpt lat="44.16675" lon="0.58911">
        <ele>115.00634</ele>
        <time>2021-08-22T06:59:48.062Z</time>
      </trkpt>
      <trkpt lat="44.16671" lon="0.58895">
        <ele>115.220053</ele>
        <time>2021-08-22T06:59:51.063Z</time>
      </trkpt>
      <trkpt lat="44.16667" lon="0.5888">
        <ele>115.43266</ele>
        <time>2021-08-22T06:59:54.064Z</time>
      </trkpt>
      <trkpt lat="44.16663" lon="0.58864">
        <ele>115.643566</ele>
        <time>2021-08-22T06:59:57.060Z</time>
      </trkpt>
      <trkpt lat="44.16666" lon="0.58849">
        <ele>115.836785</ele>
        <time>2021-08-22T07:00:00.090Z</time>
      </trkpt>
      <trkpt lat="44.16672" lon="0.58835">
        <ele>116.013341</ele>
        <time>2021-08-22T07:00:03.066Z</time>
      </trkpt>
      <trkpt lat="44.16673" lon="0.58818">
        <ele>116.163014</ele>
        <time>2021-08-22T07:00:06.075Z</time>
      </trkpt>
      <trkpt lat="44.16671" lon="0.58803">
        <ele>116.311155</ele>
        <time>2021-08-22T07:00:09.063Z</time>
      </trkpt>
      <trkpt lat="44.16666" lon="0.58788">
        <ele>116.456924</ele>
        <time>2021-08-22T07:00:12.072Z</time>
      </trkpt>
      <trkpt lat="44.16657" lon="0.58779">
        <ele>116.602592</ele>
        <time>2021-08-22T07:00:15.071Z</time>
      </trkpt>
      <trkpt lat="44.16645" lon="0.58775">
        <ele>116.760202</ele>
        <time>2021-08-22T07:00:18.067Z</time>
      </trkpt>
      <trkpt lat="44.16632" lon="0.58771">
        <ele>116.922785</ele>
        <time>2021-08-22T07:00:21.063Z</time>
      </trkpt>
      <trkpt lat="44.16621" lon="0.58762">
        <ele>117.088381</ele>
        <time>2021-08-22T07:00:24.067Z</time>
      </trkpt>
      <trkpt lat="44.16616" lon="0.58752">
        <ele>117.203807</ele>
        <time>2021-08-22T07:00:26.069Z</time>
      </trkpt>
      <trkpt lat="44.16609" lon="0.58736">
        <ele>117.370415</ele>
        <time>2021-08-22T07:00:29.059Z</time>
      </trkpt>
      <trkpt lat="44.16603" lon="0.58721">
        <ele>117.532823</ele>
        <time>2021-08-22T07:00:32.060Z</time>
      </trkpt>
      <trkpt lat="44.16598" lon="0.58704">
        <ele>117.698911</ele>
        <time>2021-08-22T07:00:35.062Z</time>
      </trkpt>
      <trkpt lat="44.16595" lon="0.58686">
        <ele>117.868915</ele>
        <time>2021-08-22T07:00:38.067Z</time>
      </trkpt>
      <trkpt lat="44.16593" lon="0.58674">
        <ele>117.983588</ele>
        <time>2021-08-22T07:00:40.071Z</time>
      </trkpt>
      <trkpt lat="44.1659" lon="0.58656">
        <ele>118.153827</ele>
        <time>2021-08-22T07:00:43.063Z</time>
      </trkpt>
      <trkpt lat="44.16586" lon="0.58644">
        <ele>118.26326</ele>
        <time>2021-08-22T07:00:45.059Z</time>
      </trkpt>
      <trkpt lat="44.16583" lon="0.58632">
        <ele>118.360732</ele>
        <time>2021-08-22T07:00:47.072Z</time>
      </trkpt>
      <trkpt lat="44.1658" lon="0.5862">
        <ele>118.458205</ele>
        <time>2021-08-22T07:00:49.068Z</time>
      </trkpt>
      <trkpt lat="44.16577" lon="0.58609">
        <ele>118.555027</ele>
        <time>2021-08-22T07:00:51.054Z</time>
      </trkpt>
      <trkpt lat="44.16572" lon="0.58592">
        <ele>118.695155</ele>
        <time>2021-08-22T07:00:54.062Z</time>
      </trkpt>
      <trkpt lat="44.16569" lon="0.5858">
        <ele>118.795889</ele>
        <time>2021-08-22T07:00:56.055Z</time>
      </trkpt>
      <trkpt lat="44.16566" lon="0.58567">
        <ele>118.895277</ele>
        <time>2021-08-22T07:00:58.054Z</time>
      </trkpt>
      <trkpt lat="44.16562" lon="0.58554">
        <ele>119.006708</ele>
        <time>2021-08-22T07:01:00.059Z</time>
      </trkpt>
      <trkpt lat="44.16557" lon="0.58543">
        <ele>119.105224</ele>
        <time>2021-08-22T07:01:02.066Z</time>
      </trkpt>
      <trkpt lat="44.16554" lon="0.58531">
        <ele>119.206354</ele>
        <time>2021-08-22T07:01:04.060Z</time>
      </trkpt>
      <trkpt lat="44.16551" lon="0.58518">
        <ele>119.310722</ele>
        <time>2021-08-22T07:01:06.069Z</time>
      </trkpt>
      <trkpt lat="44.16547" lon="0.58506">
        <ele>119.408581</ele>
        <time>2021-08-22T07:01:08.071Z</time>
      </trkpt>
      <trkpt lat="44.16544" lon="0.58494">
        <ele>119.50644</ele>
        <time>2021-08-22T07:01:10.059Z</time>
      </trkpt>
      <trkpt lat="44.16541" lon="0.58483">
        <ele>119.604299</ele>
        <time>2021-08-22T07:01:12.074Z</time>
      </trkpt>
      <trkpt lat="44.16538" lon="0.5847">
        <ele>119.705395</ele>
        <time>2021-08-22T07:01:14.070Z</time>
      </trkpt>
      <trkpt lat="44.16534" lon="0.58458">
        <ele>119.803651</ele>
        <time>2021-08-22T07:01:16.057Z</time>
      </trkpt>
      <trkpt lat="44.16529" lon="0.58441">
        <ele>119.946973</ele>
        <time>2021-08-22T07:01:19.063Z</time>
      </trkpt>
      <trkpt lat="44.16526" lon="0.58429">
        <ele>120.043724</ele>
        <time>2021-08-22T07:01:21.058Z</time>
      </trkpt>
      <trkpt lat="44.16523" lon="0.58418">
        <ele>120.141197</ele>
        <time>2021-08-22T07:01:23.054Z</time>
      </trkpt>
      <trkpt lat="44.1652" lon="0.58406">
        <ele>120.203721</ele>
        <time>2021-08-22T07:01:25.074Z</time>
      </trkpt>
      <trkpt lat="44.16515" lon="0.58388">
        <ele>120.279987</ele>
        <time>2021-08-22T07:01:28.070Z</time>
      </trkpt>
      <trkpt lat="44.1651" lon="0.58371">
        <ele>120.35552</ele>
        <time>2021-08-22T07:01:31.069Z</time>
      </trkpt>
      <trkpt lat="44.16507" lon="0.58359">
        <ele>120.406664</ele>
        <time>2021-08-22T07:01:33.061Z</time>
      </trkpt>
      <trkpt lat="44.16502" lon="0.58342">
        <ele>120.482576</ele>
        <time>2021-08-22T07:01:36.067Z</time>
      </trkpt>
      <trkpt lat="44.16497" lon="0.58325">
        <ele>120.559079</ele>
        <time>2021-08-22T07:01:39.064Z</time>
      </trkpt>
      <trkpt lat="44.16494" lon="0.58313">
        <ele>120.61133</ele>
        <time>2021-08-22T07:01:41.061Z</time>
      </trkpt>
      <trkpt lat="44.1649" lon="0.58301">
        <ele>120.66361</ele>
        <time>2021-08-22T07:01:43.063Z</time>
      </trkpt>
      <trkpt lat="44.16487" lon="0.58289">
        <ele>120.715889</ele>
        <time>2021-08-22T07:01:45.058Z</time>
      </trkpt>
      <trkpt lat="44.16483" lon="0.58277">
        <ele>120.769487</ele>
        <time>2021-08-22T07:01:47.064Z</time>
      </trkpt>
      <trkpt lat="44.1648" lon="0.58265">
        <ele>120.822121</ele>
        <time>2021-08-22T07:01:49.064Z</time>
      </trkpt>
      <trkpt lat="44.16477" lon="0.58253">
        <ele>120.874193</ele>
        <time>2021-08-22T07:01:51.065Z</time>
      </trkpt>
      <trkpt lat="44.16474" lon="0.58241">
        <ele>120.926062</ele>
        <time>2021-08-22T07:01:53.067Z</time>
      </trkpt>
      <trkpt lat="44.16471" lon="0.58229">
        <ele>120.977931</ele>
        <time>2021-08-22T07:01:55.067Z</time>
      </trkpt>
      <trkpt lat="44.16467" lon="0.58217">
        <ele>121.030424</ele>
        <time>2021-08-22T07:01:57.063Z</time>
      </trkpt>
      <trkpt lat="44.16464" lon="0.58205">
        <ele>121.081355</ele>
        <time>2021-08-22T07:01:59.068Z</time>
      </trkpt>
      <trkpt lat="44.16459" lon="0.58188">
        <ele>121.158028</ele>
        <time>2021-08-22T07:02:02.064Z</time>
      </trkpt>
      <trkpt lat="44.16454" lon="0.5817">
        <ele>121.331569</ele>
        <time>2021-08-22T07:02:05.060Z</time>
      </trkpt>
      <trkpt lat="44.1645" lon="0.58158">
        <ele>121.488704</ele>
        <time>2021-08-22T07:02:07.063Z</time>
      </trkpt>
      <trkpt lat="44.16447" lon="0.58146">
        <ele>121.645339</ele>
        <time>2021-08-22T07:02:09.062Z</time>
      </trkpt>
      <trkpt lat="44.16443" lon="0.58134">
        <ele>121.798183</ele>
        <time>2021-08-22T07:02:11.063Z</time>
      </trkpt>
      <trkpt lat="44.1644" lon="0.58122">
        <ele>121.953236</ele>
        <time>2021-08-22T07:02:13.063Z</time>
      </trkpt>
      <trkpt lat="44.16438" lon="0.58105">
        <ele>122.167418</ele>
        <time>2021-08-22T07:02:16.068Z</time>
      </trkpt>
      <trkpt lat="44.16435" lon="0.58089">
        <ele>122.366837</ele>
        <time>2021-08-22T07:02:19.067Z</time>
      </trkpt>
      <trkpt lat="44.16431" lon="0.58074">
        <ele>122.556138</ele>
        <time>2021-08-22T07:02:22.062Z</time>
      </trkpt>
      <trkpt lat="44.16429" lon="0.58056">
        <ele>122.767686</ele>
        <time>2021-08-22T07:02:25.061Z</time>
      </trkpt>
      <trkpt lat="44.16424" lon="0.5804">
        <ele>122.980521</ele>
        <time>2021-08-22T07:02:28.059Z</time>
      </trkpt>
      <trkpt lat="44.16418" lon="0.5803">
        <ele>123.134123</ele>
        <time>2021-08-22T07:02:30.071Z</time>
      </trkpt>
      <trkpt lat="44.16411" lon="0.58015">
        <ele>123.35381</ele>
        <time>2021-08-22T07:02:33.065Z</time>
      </trkpt>
      <trkpt lat="44.16406" lon="0.57998">
        <ele>123.567575</ele>
        <time>2021-08-22T07:02:36.060Z</time>
      </trkpt>
      <trkpt lat="44.16401" lon="0.57982">
        <ele>123.781976</ele>
        <time>2021-08-22T07:02:39.060Z</time>
      </trkpt>
      <trkpt lat="44.16395" lon="0.57967">
        <ele>123.988988</ele>
        <time>2021-08-22T07:02:42.069Z</time>
      </trkpt>
      <trkpt lat="44.16389" lon="0.57952">
        <ele>124.199376</ele>
        <time>2021-08-22T07:02:45.055Z</time>
      </trkpt>
      <trkpt lat="44.16382" lon="0.57936">
        <ele>124.319632</ele>
        <time>2021-08-22T07:02:48.045Z</time>
      </trkpt>
      <trkpt lat="44.16376" lon="0.57921">
        <ele>124.436265</ele>
        <time>2021-08-22T07:02:51.075Z</time>
      </trkpt>
      <trkpt lat="44.16368" lon="0.57906">
        <ele>124.55725</ele>
        <time>2021-08-22T07:02:54.062Z</time>
      </trkpt>
      <trkpt lat="44.1636" lon="0.57892">
        <ele>124.678859</ele>
        <time>2021-08-22T07:02:57.062Z</time>
      </trkpt>
      <trkpt lat="44.16352" lon="0.57878">
        <ele>124.797135</ele>
        <time>2021-08-22T07:03:00.084Z</time>
      </trkpt>
      <trkpt lat="44.16344" lon="0.57865">
        <ele>124.911602</ele>
        <time>2021-08-22T07:03:03.067Z</time>
      </trkpt>
      <trkpt lat="44.16335" lon="0.57854">
        <ele>125.025176</ele>
        <time>2021-08-22T07:03:06.059Z</time>
      </trkpt>
      <trkpt lat="44.16325" lon="0.57843">
        <ele>125.144694</ele>
        <time>2021-08-22T07:03:09.063Z</time>
      </trkpt>
      <trkpt lat="44.16315" lon="0.57832">
        <ele>125.264403</ele>
        <time>2021-08-22T07:03:12.063Z</time>
      </trkpt>
      <trkpt lat="44.16304" lon="0.57822">
        <ele>125.384287</ele>
        <time>2021-08-22T07:03:15.068Z</time>
      </trkpt>
      <trkpt lat="44.16294" lon="0.57812">
        <ele>125.502649</ele>
        <time>2021-08-22T07:03:18.066Z</time>
      </trkpt>
      <trkpt lat="44.16283" lon="0.57802">
        <ele>125.619865</ele>
        <time>2021-08-22T07:03:21.053Z</time>
      </trkpt>
      <trkpt lat="44.16273" lon="0.57793">
        <ele>125.732943</ele>
        <time>2021-08-22T07:03:24.070Z</time>
      </trkpt>
      <trkpt lat="44.16263" lon="0.57786">
        <ele>125.835667</ele>
        <time>2021-08-22T07:03:27.064Z</time>
      </trkpt>
      <trkpt lat="44.16251" lon="0.57781">
        <ele>125.90251</ele>
        <time>2021-08-22T07:03:30.065Z</time>
      </trkpt>
      <trkpt lat="44.1624" lon="0.57775">
        <ele>125.94787</ele>
        <time>2021-08-22T07:03:33.069Z</time>
      </trkpt>
      <trkpt lat="44.16228" lon="0.57778">
        <ele>125.991265</ele>
        <time>2021-08-22T07:03:36.064Z</time>
      </trkpt>
      <trkpt lat="44.16222" lon="0.57795">
        <ele>126.040792</ele>
        <time>2021-08-22T07:03:39.062Z</time>
      </trkpt>
      <trkpt lat="44.1622" lon="0.57808">
        <ele>126.07524</ele>
        <time>2021-08-22T07:03:41.066Z</time>
      </trkpt>
      <trkpt lat="44.16216" lon="0.57825">
        <ele>126.123937</ele>
        <time>2021-08-22T07:03:44.062Z</time>
      </trkpt>
      <trkpt lat="44.16213" lon="0.57837">
        <ele>126.157137</ele>
        <time>2021-08-22T07:03:46.068Z</time>
      </trkpt>
      <trkpt lat="44.16208" lon="0.57854">
        <ele>126.204973</ele>
        <time>2021-08-22T07:03:49.068Z</time>
      </trkpt>
      <trkpt lat="44.16202" lon="0.5787">
        <ele>126.251322</ele>
        <time>2021-08-22T07:03:52.073Z</time>
      </trkpt>
      <trkpt lat="44.16193" lon="0.57881">
        <ele>126.294929</ele>
        <time>2021-08-22T07:03:55.055Z</time>
      </trkpt>
      <trkpt lat="44.16182" lon="0.57875">
        <ele>126.340281</ele>
        <time>2021-08-22T07:03:58.058Z</time>
      </trkpt>
      <trkpt lat="44.1617" lon="0.57868">
        <ele>126.385388</ele>
        <time>2021-08-22T07:04:01.075Z</time>
      </trkpt>
      <trkpt lat="44.16159" lon="0.57862">
        <ele>126.430224</ele>
        <time>2021-08-22T07:04:04.060Z</time>
      </trkpt>
      <trkpt lat="44.16147" lon="0.57857">
        <ele>126.477049</ele>
        <time>2021-08-22T07:04:07.064Z</time>
      </trkpt>
      <trkpt lat="44.16138" lon="0.57852">
        <ele>126.510976</ele>
        <time>2021-08-22T07:04:09.057Z</time>
      </trkpt>
      <trkpt lat="44.16129" lon="0.57846">
        <ele>126.572369</ele>
        <time>2021-08-22T07:04:11.061Z</time>
      </trkpt>
      <trkpt lat="44.16121" lon="0.5784">
        <ele>126.66708</ele>
        <time>2021-08-22T07:04:13.070Z</time>
      </trkpt>
      <trkpt lat="44.16112" lon="0.57836">
        <ele>126.758943</ele>
        <time>2021-08-22T07:04:15.061Z</time>
      </trkpt>
      <trkpt lat="44.16104" lon="0.5783">
        <ele>126.852397</ele>
        <time>2021-08-22T07:04:17.065Z</time>
      </trkpt>
      <trkpt lat="44.16095" lon="0.57825">
        <ele>126.942545</ele>
        <time>2021-08-22T07:04:19.060Z</time>
      </trkpt>
      <trkpt lat="44.16084" lon="0.57816">
        <ele>127.070395</ele>
        <time>2021-08-22T07:04:22.066Z</time>
      </trkpt>
      <trkpt lat="44.16073" lon="0.57809">
        <ele>127.1928</ele>
        <time>2021-08-22T07:04:25.062Z</time>
      </trkpt>
      <trkpt lat="44.16062" lon="0.57802">
        <ele>127.312573</ele>
        <time>2021-08-22T07:04:28.067Z</time>
      </trkpt>
      <trkpt lat="44.16051" lon="0.57797">
        <ele>127.419117</ele>
        <time>2021-08-22T07:04:31.064Z</time>
      </trkpt>
      <trkpt lat="44.1604" lon="0.57793">
        <ele>127.535004</ele>
        <time>2021-08-22T07:04:34.059Z</time>
      </trkpt>
      <trkpt lat="44.16032" lon="0.57788">
        <ele>127.625546</ele>
        <time>2021-08-22T07:04:36.063Z</time>
      </trkpt>
      <trkpt lat="44.1602" lon="0.57783">
        <ele>127.743251</ele>
        <time>2021-08-22T07:04:39.065Z</time>
      </trkpt>
      <trkpt lat="44.1601" lon="0.57778">
        <ele>127.849548</ele>
        <time>2021-08-22T07:04:42.064Z</time>
      </trkpt>
      <trkpt lat="44.16" lon="0.57772">
        <ele>127.959874</ele>
        <time>2021-08-22T07:04:45.059Z</time>
      </trkpt>
      <trkpt lat="44.15988" lon="0.57765">
        <ele>128.086205</ele>
        <time>2021-08-22T07:04:48.059Z</time>
      </trkpt>
      <trkpt lat="44.15979" lon="0.57761">
        <ele>128.176406</ele>
        <time>2021-08-22T07:04:50.059Z</time>
      </trkpt>
      <trkpt lat="44.15967" lon="0.57756">
        <ele>128.303845</ele>
        <time>2021-08-22T07:04:53.061Z</time>
      </trkpt>
      <trkpt lat="44.15955" lon="0.57751">
        <ele>128.130299</ele>
        <time>2021-08-22T07:04:56.062Z</time>
      </trkpt>
      <trkpt lat="44.15944" lon="0.57747">
        <ele>127.964331</ele>
        <time>2021-08-22T07:04:59.064Z</time>
      </trkpt>
      <trkpt lat="44.15935" lon="0.57743">
        <ele>127.82187</ele>
        <time>2021-08-22T07:05:02.060Z</time>
      </trkpt>
      <trkpt lat="44.15924" lon="0.57739">
        <ele>127.652721</ele>
        <time>2021-08-22T07:05:05.072Z</time>
      </trkpt>
      <trkpt lat="44.15913" lon="0.57732">
        <ele>127.474602</ele>
        <time>2021-08-22T07:05:08.055Z</time>
      </trkpt>
      <trkpt lat="44.15902" lon="0.57724">
        <ele>127.287259</ele>
        <time>2021-08-22T07:05:11.050Z</time>
      </trkpt>
      <trkpt lat="44.15892" lon="0.57716">
        <ele>127.122784</ele>
        <time>2021-08-22T07:05:14.063Z</time>
      </trkpt>
      <trkpt lat="44.15882" lon="0.57706">
        <ele>126.940776</ele>
        <time>2021-08-22T07:05:17.070Z</time>
      </trkpt>
      <trkpt lat="44.15869" lon="0.57702">
        <ele>126.74515</ele>
        <time>2021-08-22T07:05:20.062Z</time>
      </trkpt>
      <trkpt lat="44.1586" lon="0.57698">
        <ele>126.600134</ele>
        <time>2021-08-22T07:05:22.067Z</time>
      </trkpt>
      <trkpt lat="44.15851" lon="0.57694">
        <ele>126.467952</ele>
        <time>2021-08-22T07:05:24.058Z</time>
      </trkpt>
      <trkpt lat="44.15842" lon="0.57688">
        <ele>126.316017</ele>
        <time>2021-08-22T07:05:26.065Z</time>
      </trkpt>
      <trkpt lat="44.1583" lon="0.57682">
        <ele>126.126377</ele>
        <time>2021-08-22T07:05:29.061Z</time>
      </trkpt>
      <trkpt lat="44.15817" lon="0.57676">
        <ele>125.928161</ele>
        <time>2021-08-22T07:05:32.061Z</time>
      </trkpt>
      <trkpt lat="44.15807" lon="0.57673">
        <ele>125.784305</ele>
        <time>2021-08-22T07:05:34.054Z</time>
      </trkpt>
      <trkpt lat="44.15795" lon="0.57673">
        <ele>125.908371</ele>
        <time>2021-08-22T07:05:37.065Z</time>
      </trkpt>
      <trkpt lat="44.15786" lon="0.57659">
        <ele>126.808527</ele>
        <time>2021-08-22T07:05:41.068Z</time>
      </trkpt>
      <trkpt lat="44.1578" lon="0.57647">
        <ele>127.524038</ele>
        <time>2021-08-22T07:05:43.059Z</time>
      </trkpt>
      <trkpt lat="44.15773" lon="0.57634">
        <ele>128.322556</ele>
        <time>2021-08-22T07:05:46.059Z</time>
      </trkpt>
      <trkpt lat="44.15767" lon="0.57621">
        <ele>129.076281</ele>
        <time>2021-08-22T07:05:50.066Z</time>
      </trkpt>
      <trkpt lat="44.15762" lon="0.57609">
        <ele>129.751416</ele>
        <time>2021-08-22T07:05:54.068Z</time>
      </trkpt>
      <trkpt lat="44.15756" lon="0.57595">
        <ele>130.543588</ele>
        <time>2021-08-22T07:05:58.067Z</time>
      </trkpt>
      <trkpt lat="44.15751" lon="0.57582">
        <ele>131.274419</ele>
        <time>2021-08-22T07:06:02.061Z</time>
      </trkpt>
      <trkpt lat="44.15745" lon="0.5757">
        <ele>131.962427</ele>
        <time>2021-08-22T07:06:06.068Z</time>
      </trkpt>
      <trkpt lat="44.15739" lon="0.57558">
        <ele>132.695376</ele>
        <time>2021-08-22T07:06:10.070Z</time>
      </trkpt>
      <trkpt lat="44.15734" lon="0.57547">
        <ele>133.314089</ele>
        <time>2021-08-22T07:06:13.062Z</time>
      </trkpt>
      <trkpt lat="44.15728" lon="0.57535">
        <ele>134.026032</ele>
        <time>2021-08-22T07:06:17.061Z</time>
      </trkpt>
      <trkpt lat="44.15722" lon="0.57524">
        <ele>134.674362</ele>
        <time>2021-08-22T07:06:20.072Z</time>
      </trkpt>
      <trkpt lat="44.15716" lon="0.57511">
        <ele>135.472897</ele>
        <time>2021-08-22T07:06:26.063Z</time>
      </trkpt>
      <trkpt lat="44.1571" lon="0.57499">
        <ele>136.149739</ele>
        <time>2021-08-22T07:06:33.057Z</time>
      </trkpt>
      <trkpt lat="44.15704" lon="0.57487">
        <ele>136.889075</ele>
        <time>2021-08-22T07:06:36.070Z</time>
      </trkpt>
      <trkpt lat="44.15699" lon="0.57475">
        <ele>137.55369</ele>
        <time>2021-08-22T07:06:41.055Z</time>
      </trkpt>
      <trkpt lat="44.15693" lon="0.57462">
        <ele>138.260177</ele>
        <time>2021-08-22T07:06:46.060Z</time>
      </trkpt>
      <trkpt lat="44.15688" lon="0.57451">
        <ele>138.807743</ele>
        <time>2021-08-22T07:06:50.055Z</time>
      </trkpt>
      <trkpt lat="44.15683" lon="0.5744">
        <ele>139.34478</ele>
        <time>2021-08-22T07:06:54.066Z</time>
      </trkpt>
      <trkpt lat="44.15678" lon="0.57427">
        <ele>139.991371</ele>
        <time>2021-08-22T07:06:59.071Z</time>
      </trkpt>
      <trkpt lat="44.15672" lon="0.57417">
        <ele>140.535989</ele>
        <time>2021-08-22T07:07:03.064Z</time>
      </trkpt>
      <trkpt lat="44.15667" lon="0.57404">
        <ele>141.173586</ele>
        <time>2021-08-22T07:07:13.080Z</time>
      </trkpt>
      <trkpt lat="44.15661" lon="0.57392">
        <ele>141.800715</ele>
        <time>2021-08-22T07:07:14.063Z</time>
      </trkpt>
      <trkpt lat="44.15655" lon="0.5738">
        <ele>142.411522</ele>
        <time>2021-08-22T07:07:19.059Z</time>
      </trkpt>
      <trkpt lat="44.1565" lon="0.57368">
        <ele>143.006954</ele>
        <time>2021-08-22T07:07:24.062Z</time>
      </trkpt>
      <trkpt lat="44.15645" lon="0.57356">
        <ele>143.573081</ele>
        <time>2021-08-22T07:07:29.061Z</time>
      </trkpt>
      <trkpt lat="44.15643" lon="0.57343">
        <ele>144.178584</ele>
        <time>2021-08-22T07:07:34.054Z</time>
      </trkpt>
      <trkpt lat="44.15646" lon="0.57328">
        <ele>144.840935</ele>
        <time>2021-08-22T07:07:39.067Z</time>
      </trkpt>
      <trkpt lat="44.1565" lon="0.57313">
        <ele>145.511362</ele>
        <time>2021-08-22T07:07:43.067Z</time>
      </trkpt>
      <trkpt lat="44.15652" lon="0.57296">
        <ele>146.262794</ele>
        <time>2021-08-22T07:07:46.061Z</time>
      </trkpt>
      <trkpt lat="44.15654" lon="0.57278">
        <ele>147.018437</ele>
        <time>2021-08-22T07:07:48.059Z</time>
      </trkpt>
      <trkpt lat="44.15657" lon="0.57256">
        <ele>147.972466</ele>
        <time>2021-08-22T07:07:50.077Z</time>
      </trkpt>
      <trkpt lat="44.15654" lon="0.57234">
        <ele>148.844306</ele>
        <time>2021-08-22T07:07:52.063Z</time>
      </trkpt>
      <trkpt lat="44.15646" lon="0.57217">
        <ele>149.487437</ele>
        <time>2021-08-22T07:07:54.065Z</time>
      </trkpt>
      <trkpt lat="44.15638" lon="0.57203">
        <ele>150.069267</ele>
        <time>2021-08-22T07:07:56.067Z</time>
      </trkpt>
      <trkpt lat="44.15631" lon="0.57191">
        <ele>150.55219</ele>
        <time>2021-08-22T07:07:58.067Z</time>
      </trkpt>
      <trkpt lat="44.15624" lon="0.57181">
        <ele>151.001712</ele>
        <time>2021-08-22T07:08:00.064Z</time>
      </trkpt>
      <trkpt lat="44.1562" lon="0.57165">
        <ele>151.530693</ele>
        <time>2021-08-22T07:08:03.063Z</time>
      </trkpt>
      <trkpt lat="44.15627" lon="0.57151">
        <ele>152.064438</ele>
        <time>2021-08-22T07:08:06.061Z</time>
      </trkpt>
      <trkpt lat="44.15631" lon="0.57138">
        <ele>152.511826</ele>
        <time>2021-08-22T07:08:09.060Z</time>
      </trkpt>
      <trkpt lat="44.15638" lon="0.57125">
        <ele>153.035412</ele>
        <time>2021-08-22T07:08:12.066Z</time>
      </trkpt>
      <trkpt lat="44.15642" lon="0.57113">
        <ele>153.462205</ele>
        <time>2021-08-22T07:08:15.061Z</time>
      </trkpt>
      <trkpt lat="44.15648" lon="0.57099">
        <ele>153.967499</ele>
        <time>2021-08-22T07:08:19.070Z</time>
      </trkpt>
      <trkpt lat="44.15654" lon="0.57088">
        <ele>154.401674</ele>
        <time>2021-08-22T07:08:23.066Z</time>
      </trkpt>
      <trkpt lat="44.15658" lon="0.57075">
        <ele>154.876876</ele>
        <time>2021-08-22T07:08:28.054Z</time>
      </trkpt>
      <trkpt lat="44.15661" lon="0.57062">
        <ele>155.317207</ele>
        <time>2021-08-22T07:08:33.070Z</time>
      </trkpt>
      <trkpt lat="44.15663" lon="0.57047">
        <ele>155.777026</ele>
        <time>2021-08-22T07:08:38.060Z</time>
      </trkpt>
      <trkpt lat="44.15664" lon="0.57035">
        <ele>156.179891</ele>
        <time>2021-08-22T07:08:42.046Z</time>
      </trkpt>
      <trkpt lat="44.15662" lon="0.57023">
        <ele>156.610083</ele>
        <time>2021-08-22T07:08:44.057Z</time>
      </trkpt>
      <trkpt lat="44.15664" lon="0.57009">
        <ele>157.809277</ele>
        <time>2021-08-22T07:08:50.064Z</time>
      </trkpt>
      <trkpt lat="44.15666" lon="0.56994">
        <ele>159.116406</ele>
        <time>2021-08-22T07:08:54.068Z</time>
      </trkpt>
      <trkpt lat="44.15667" lon="0.56979">
        <ele>160.497252</ele>
        <time>2021-08-22T07:08:59.063Z</time>
      </trkpt>
      <trkpt lat="44.15667" lon="0.56965">
        <ele>161.665338</ele>
        <time>2021-08-22T07:09:04.056Z</time>
      </trkpt>
      <trkpt lat="44.15672" lon="0.56953">
        <ele>162.893014</ele>
        <time>2021-08-22T07:09:10.089Z</time>
      </trkpt>
      <trkpt lat="44.1568" lon="0.56948">
        <ele>164.020092</ele>
        <time>2021-08-22T07:09:15.060Z</time>
      </trkpt>
      <trkpt lat="44.15691" lon="0.56946">
        <ele>165.376229</ele>
        <time>2021-08-22T07:09:19.048Z</time>
      </trkpt>
      <trkpt lat="44.157" lon="0.56946">
        <ele>166.514138</ele>
        <time>2021-08-22T07:09:25.072Z</time>
      </trkpt>
      <trkpt lat="44.15711" lon="0.56946">
        <ele>167.76414</ele>
        <time>2021-08-22T07:09:32.067Z</time>
      </trkpt>
      <trkpt lat="44.1572" lon="0.56948">
        <ele>168.899661</ele>
        <time>2021-08-22T07:09:39.070Z</time>
      </trkpt>
      <trkpt lat="44.15734" lon="0.56947">
        <ele>170.588992</ele>
        <time>2021-08-22T07:09:46.069Z</time>
      </trkpt>
      <trkpt lat="44.15743" lon="0.56948">
        <ele>171.801871</ele>
        <time>2021-08-22T07:09:56.075Z</time>
      </trkpt>
      <trkpt lat="44.15752" lon="0.56947">
        <ele>172.909909</ele>
        <time>2021-08-22T07:10:04.075Z</time>
      </trkpt>
      <trkpt lat="44.15762" lon="0.56949">
        <ele>174.119361</ele>
        <time>2021-08-22T07:10:13.059Z</time>
      </trkpt>
      <trkpt lat="44.15772" lon="0.56949">
        <ele>175.269538</ele>
        <time>2021-08-22T07:10:20.065Z</time>
      </trkpt>
      <trkpt lat="44.15781" lon="0.56947">
        <ele>176.434361</ele>
        <time>2021-08-22T07:10:25.060Z</time>
      </trkpt>
      <trkpt lat="44.15791" lon="0.56942">
        <ele>177.699766</ele>
        <time>2021-08-22T07:10:30.069Z</time>
      </trkpt>
      <trkpt lat="44.15799" lon="0.5693">
        <ele>178.597872</ele>
        <time>2021-08-22T07:10:34.061Z</time>
      </trkpt>
      <trkpt lat="44.15801" lon="0.56915">
        <ele>178.654261</ele>
        <time>2021-08-22T07:10:37.069Z</time>
      </trkpt>
      <trkpt lat="44.15799" lon="0.56902">
        <ele>178.704611</ele>
        <time>2021-08-22T07:10:40.070Z</time>
      </trkpt>
      <trkpt lat="44.15795" lon="0.56888">
        <ele>178.761032</ele>
        <time>2021-08-22T07:10:44.063Z</time>
      </trkpt>
      <trkpt lat="44.15791" lon="0.56875">
        <ele>178.815026</ele>
        <time>2021-08-22T07:10:48.072Z</time>
      </trkpt>
      <trkpt lat="44.15789" lon="0.56862">
        <ele>178.86549</ele>
        <time>2021-08-22T07:10:52.067Z</time>
      </trkpt>
      <trkpt lat="44.15787" lon="0.56849">
        <ele>178.915648</ele>
        <time>2021-08-22T07:10:56.067Z</time>
      </trkpt>
      <trkpt lat="44.15786" lon="0.56835">
        <ele>178.968734</ele>
        <time>2021-08-22T07:11:00.073Z</time>
      </trkpt>
      <trkpt lat="44.15785" lon="0.56822">
        <ele>179.019059</ele>
        <time>2021-08-22T07:11:04.072Z</time>
      </trkpt>
      <trkpt lat="44.15784" lon="0.56809">
        <ele>179.070781</ele>
        <time>2021-08-22T07:11:08.068Z</time>
      </trkpt>
      <trkpt lat="44.15783" lon="0.56795">
        <ele>179.123213</ele>
        <time>2021-08-22T07:11:12.066Z</time>
      </trkpt>
      <trkpt lat="44.15782" lon="0.56782">
        <ele>179.172626</ele>
        <time>2021-08-22T07:11:16.065Z</time>
      </trkpt>
      <trkpt lat="44.15782" lon="0.56769">
        <ele>179.221284</ele>
        <time>2021-08-22T07:11:20.065Z</time>
      </trkpt>
      <trkpt lat="44.15781" lon="0.56755">
        <ele>179.272583</ele>
        <time>2021-08-22T07:11:24.062Z</time>
      </trkpt>
      <trkpt lat="44.1578" lon="0.56741">
        <ele>179.326192</ele>
        <time>2021-08-22T07:11:28.068Z</time>
      </trkpt>
      <trkpt lat="44.15779" lon="0.56728">
        <ele>179.378584</ele>
        <time>2021-08-22T07:11:32.060Z</time>
      </trkpt>
      <trkpt lat="44.15779" lon="0.56715">
        <ele>179.426752</ele>
        <time>2021-08-22T07:11:36.070Z</time>
      </trkpt>
      <trkpt lat="44.15778" lon="0.56701">
        <ele>179.478806</ele>
        <time>2021-08-22T07:11:40.065Z</time>
      </trkpt>
      <trkpt lat="44.15777" lon="0.56689">
        <ele>179.642943</ele>
        <time>2021-08-22T07:11:43.060Z</time>
      </trkpt>
      <trkpt lat="44.15778" lon="0.56672">
        <ele>181.125341</ele>
        <time>2021-08-22T07:11:47.071Z</time>
      </trkpt>
      <trkpt lat="44.15777" lon="0.56659">
        <ele>182.292307</ele>
        <time>2021-08-22T07:11:50.076Z</time>
      </trkpt>
      <trkpt lat="44.15775" lon="0.56647">
        <ele>183.435128</ele>
        <time>2021-08-22T07:11:54.074Z</time>
      </trkpt>
      <trkpt lat="44.15775" lon="0.56634">
        <ele>184.567051</ele>
        <time>2021-08-22T07:11:58.069Z</time>
      </trkpt>
      <trkpt lat="44.15775" lon="0.56619">
        <ele>185.893927</ele>
        <time>2021-08-22T07:12:03.069Z</time>
      </trkpt>
      <trkpt lat="44.15776" lon="0.56605">
        <ele>187.168991</ele>
        <time>2021-08-22T07:12:08.074Z</time>
      </trkpt>
      <trkpt lat="44.15776" lon="0.56592">
        <ele>188.379167</ele>
        <time>2021-08-22T07:12:13.066Z</time>
      </trkpt>
      <trkpt lat="44.15776" lon="0.56578">
        <ele>189.589278</ele>
        <time>2021-08-22T07:12:18.068Z</time>
      </trkpt>
      <trkpt lat="44.15775" lon="0.56564">
        <ele>190.817889</ele>
        <time>2021-08-22T07:12:24.063Z</time>
      </trkpt>
      <trkpt lat="44.15776" lon="0.56551">
        <ele>191.983784</ele>
        <time>2021-08-22T07:12:30.072Z</time>
      </trkpt>
      <trkpt lat="44.15776" lon="0.56539">
        <ele>193.132849</ele>
        <time>2021-08-22T07:12:36.062Z</time>
      </trkpt>
      <trkpt lat="44.15776" lon="0.56526">
        <ele>194.289785</ele>
        <time>2021-08-22T07:12:42.074Z</time>
      </trkpt>
      <trkpt lat="44.15776" lon="0.56512">
        <ele>195.554235</ele>
        <time>2021-08-22T07:12:49.055Z</time>
      </trkpt>
      <trkpt lat="44.15777" lon="0.56498">
        <ele>196.739827</ele>
        <time>2021-08-22T07:12:56.071Z</time>
      </trkpt>
      <trkpt lat="44.15777" lon="0.56484">
        <ele>198.005264</ele>
        <time>2021-08-22T07:13:04.074Z</time>
      </trkpt>
      <trkpt lat="44.15778" lon="0.56471">
        <ele>199.246298</ele>
        <time>2021-08-22T07:13:12.067Z</time>
      </trkpt>
      <trkpt lat="44.15778" lon="0.56458">
        <ele>200.393731</ele>
        <time>2021-08-22T07:13:19.066Z</time>
      </trkpt>
      <trkpt lat="44.15778" lon="0.56445">
        <ele>201.577214</ele>
        <time>2021-08-22T07:13:26.070Z</time>
      </trkpt>
      <trkpt lat="44.15778" lon="0.56431">
        <ele>202.268515</ele>
        <time>2021-08-22T07:13:34.060Z</time>
      </trkpt>
      <trkpt lat="44.15782" lon="0.56418">
        <ele>202.669973</ele>
        <time>2021-08-22T07:13:42.059Z</time>
      </trkpt>
      <trkpt lat="44.15792" lon="0.56412">
        <ele>203.104723</ele>
        <time>2021-08-22T07:13:49.062Z</time>
      </trkpt>
      <trkpt lat="44.15801" lon="0.56412">
        <ele>203.481791</ele>
        <time>2021-08-22T07:13:53.057Z</time>
      </trkpt>
      <trkpt lat="44.15812" lon="0.5641">
        <ele>203.938366</ele>
        <time>2021-08-22T07:13:57.062Z</time>
      </trkpt>
      <trkpt lat="44.15824" lon="0.56409">
        <ele>204.406421</ele>
        <time>2021-08-22T07:14:01.063Z</time>
      </trkpt>
      <trkpt lat="44.15833" lon="0.56408">
        <ele>204.788088</ele>
        <time>2021-08-22T07:14:04.057Z</time>
      </trkpt>
      <trkpt lat="44.15844" lon="0.56406">
        <ele>205.233399</ele>
        <time>2021-08-22T07:14:08.068Z</time>
      </trkpt>
      <trkpt lat="44.15855" lon="0.56405">
        <ele>205.680273</ele>
        <time>2021-08-22T07:14:12.075Z</time>
      </trkpt>
      <trkpt lat="44.15866" lon="0.56406">
        <ele>206.143501</ele>
        <time>2021-08-22T07:14:16.084Z</time>
      </trkpt>
      <trkpt lat="44.15876" lon="0.56406">
        <ele>206.557046</ele>
        <time>2021-08-22T07:14:20.075Z</time>
      </trkpt>
      <trkpt lat="44.15886" lon="0.56407">
        <ele>206.987417</ele>
        <time>2021-08-22T07:14:24.070Z</time>
      </trkpt>
      <trkpt lat="44.15897" lon="0.56407">
        <ele>207.429618</ele>
        <time>2021-08-22T07:14:28.065Z</time>
      </trkpt>
      <trkpt lat="44.15907" lon="0.56409">
        <ele>207.817688</ele>
        <time>2021-08-22T07:14:32.068Z</time>
      </trkpt>
      <trkpt lat="44.15917" lon="0.56411">
        <ele>208.227669</ele>
        <time>2021-08-22T07:14:36.071Z</time>
      </trkpt>
      <trkpt lat="44.15928" lon="0.56412">
        <ele>208.688047</ele>
        <time>2021-08-22T07:14:40.071Z</time>
      </trkpt>
      <trkpt lat="44.15938" lon="0.56415">
        <ele>209.134888</ele>
        <time>2021-08-22T07:14:44.060Z</time>
      </trkpt>
      <trkpt lat="44.15948" lon="0.56419">
        <ele>209.235927</ele>
        <time>2021-08-22T07:14:48.062Z</time>
      </trkpt>
      <trkpt lat="44.15958" lon="0.56424">
        <ele>208.948811</ele>
        <time>2021-08-22T07:14:52.073Z</time>
      </trkpt>
      <trkpt lat="44.15967" lon="0.5643">
        <ele>208.688631</ele>
        <time>2021-08-22T07:14:55.078Z</time>
      </trkpt>
      <trkpt lat="44.15976" lon="0.56436">
        <ele>208.418045</ele>
        <time>2021-08-22T07:14:58.071Z</time>
      </trkpt>
      <trkpt lat="44.15985" lon="0.56441">
        <ele>208.135912</ele>
        <time>2021-08-22T07:15:01.085Z</time>
      </trkpt>
      <trkpt lat="44.15995" lon="0.56448">
        <ele>207.854737</ele>
        <time>2021-08-22T07:15:04.076Z</time>
      </trkpt>
      <trkpt lat="44.16004" lon="0.56454">
        <ele>207.575198</ele>
        <time>2021-08-22T07:15:07.076Z</time>
      </trkpt>
      <trkpt lat="44.16013" lon="0.56462">
        <ele>207.279017</ele>
        <time>2021-08-22T07:15:10.066Z</time>
      </trkpt>
      <trkpt lat="44.16022" lon="0.56473">
        <ele>206.957923</ele>
        <time>2021-08-22T07:15:13.088Z</time>
      </trkpt>
      <trkpt lat="44.16029" lon="0.56483">
        <ele>206.685834</ele>
        <time>2021-08-22T07:15:16.073Z</time>
      </trkpt>
      <trkpt lat="44.16039" lon="0.56485">
        <ele>206.417445</ele>
        <time>2021-08-22T07:15:20.072Z</time>
      </trkpt>
      <trkpt lat="44.16048" lon="0.56474">
        <ele>206.103749</ele>
        <time>2021-08-22T07:15:24.072Z</time>
      </trkpt>
      <trkpt lat="44.16057" lon="0.56471">
        <ele>205.83287</ele>
        <time>2021-08-22T07:15:27.068Z</time>
      </trkpt>
      <trkpt lat="44.16068" lon="0.56467">
        <ele>205.526453</ele>
        <time>2021-08-22T07:15:30.076Z</time>
      </trkpt>
      <trkpt lat="44.16069" lon="0.56453">
        <ele>205.260984</ele>
        <time>2021-08-22T07:15:33.069Z</time>
      </trkpt>
      <trkpt lat="44.16073" lon="0.5644">
        <ele>204.986609</ele>
        <time>2021-08-22T07:15:36.070Z</time>
      </trkpt>
      <trkpt lat="44.16083" lon="0.56428">
        <ele>204.638667</ele>
        <time>2021-08-22T07:15:39.077Z</time>
      </trkpt>
      <trkpt lat="44.16093" lon="0.56421">
        <ele>203.886394</ele>
        <time>2021-08-22T07:15:41.061Z</time>
      </trkpt>
      <trkpt lat="44.16103" lon="0.56416">
        <ele>202.766487</ele>
        <time>2021-08-22T07:15:43.071Z</time>
      </trkpt>
      <trkpt lat="44.16114" lon="0.56413">
        <ele>201.616113</ele>
        <time>2021-08-22T07:15:45.059Z</time>
      </trkpt>
      <trkpt lat="44.16125" lon="0.56407">
        <ele>200.334836</ele>
        <time>2021-08-22T07:15:47.066Z</time>
      </trkpt>
      <trkpt lat="44.16135" lon="0.56397">
        <ele>199.054572</ele>
        <time>2021-08-22T07:15:49.070Z</time>
      </trkpt>
      <trkpt lat="44.16144" lon="0.56387">
        <ele>197.923042</ele>
        <time>2021-08-22T07:15:51.071Z</time>
      </trkpt>
      <trkpt lat="44.16149" lon="0.5637">
        <ele>196.551718</ele>
        <time>2021-08-22T07:15:53.061Z</time>
      </trkpt>
      <trkpt lat="44.16153" lon="0.56354">
        <ele>195.262697</ele>
        <time>2021-08-22T07:15:55.069Z</time>
      </trkpt>
      <trkpt lat="44.16161" lon="0.56345">
        <ele>194.197938</ele>
        <time>2021-08-22T07:15:57.059Z</time>
      </trkpt>
      <trkpt lat="44.1617" lon="0.56339">
        <ele>193.131648</ele>
        <time>2021-08-22T07:15:59.054Z</time>
      </trkpt>
      <trkpt lat="44.16176" lon="0.56323">
        <ele>191.803095</ele>
        <time>2021-08-22T07:16:02.061Z</time>
      </trkpt>
      <trkpt lat="44.16179" lon="0.56308">
        <ele>190.623825</ele>
        <time>2021-08-22T07:16:04.069Z</time>
      </trkpt>
      <trkpt lat="44.16183" lon="0.5629">
        <ele>189.253679</ele>
        <time>2021-08-22T07:16:06.067Z</time>
      </trkpt>
      <trkpt lat="44.16185" lon="0.5627">
        <ele>187.762285</ele>
        <time>2021-08-22T07:16:08.066Z</time>
      </trkpt>
      <trkpt lat="44.16188" lon="0.56248">
        <ele>186.070999</ele>
        <time>2021-08-22T07:16:10.069Z</time>
      </trkpt>
      <trkpt lat="44.16191" lon="0.56224">
        <ele>183.935221</ele>
        <time>2021-08-22T07:16:12.065Z</time>
      </trkpt>
      <trkpt lat="44.16195" lon="0.56204">
        <ele>182.018641</ele>
        <time>2021-08-22T07:16:14.066Z</time>
      </trkpt>
      <trkpt lat="44.16199" lon="0.56183">
        <ele>180.065932</ele>
        <time>2021-08-22T07:16:16.064Z</time>
      </trkpt>
      <trkpt lat="44.16203" lon="0.5616">
        <ele>177.887926</ele>
        <time>2021-08-22T07:16:18.069Z</time>
      </trkpt>
      <trkpt lat="44.16207" lon="0.56136">
        <ele>175.597013</ele>
        <time>2021-08-22T07:16:20.067Z</time>
      </trkpt>
      <trkpt lat="44.1621" lon="0.56123">
        <ele>174.402163</ele>
        <time>2021-08-22T07:16:21.064Z</time>
      </trkpt>
      <trkpt lat="44.16212" lon="0.56111">
        <ele>173.184432</ele>
        <time>2021-08-22T07:16:22.067Z</time>
      </trkpt>
      <trkpt lat="44.16216" lon="0.56098">
        <ele>171.976628</ele>
        <time>2021-08-22T07:16:23.071Z</time>
      </trkpt>
      <trkpt lat="44.16219" lon="0.56087">
        <ele>170.791143</ele>
        <time>2021-08-22T07:16:24.079Z</time>
      </trkpt>
      <trkpt lat="44.16227" lon="0.56067">
        <ele>168.714606</ele>
        <time>2021-08-22T07:16:26.069Z</time>
      </trkpt>
      <trkpt lat="44.16236" lon="0.56056">
        <ele>167.236715</ele>
        <time>2021-08-22T07:16:28.067Z</time>
      </trkpt>
      <trkpt lat="44.16242" lon="0.56045">
        <ele>165.962885</ele>
        <time>2021-08-22T07:16:30.069Z</time>
      </trkpt>
      <trkpt lat="44.16239" lon="0.56025">
        <ele>164.02852</ele>
        <time>2021-08-22T07:16:32.062Z</time>
      </trkpt>
      <trkpt lat="44.16236" lon="0.56011">
        <ele>162.787202</ele>
        <time>2021-08-22T07:16:33.075Z</time>
      </trkpt>
      <trkpt lat="44.16233" lon="0.55996">
        <ele>162.603881</ele>
        <time>2021-08-22T07:16:34.067Z</time>
      </trkpt>
      <trkpt lat="44.16228" lon="0.55979">
        <ele>162.375965</ele>
        <time>2021-08-22T07:16:36.064Z</time>
      </trkpt>
      <trkpt lat="44.16239" lon="0.55981">
        <ele>162.182995</ele>
        <time>2021-08-22T07:16:41.066Z</time>
      </trkpt>
      <trkpt lat="44.16248" lon="0.55985">
        <ele>162.021195</ele>
        <time>2021-08-22T07:16:43.067Z</time>
      </trkpt>
      <trkpt lat="44.16255" lon="0.55994">
        <ele>161.857181</ele>
        <time>2021-08-22T07:16:46.068Z</time>
      </trkpt>
      <trkpt lat="44.16259" lon="0.56005">
        <ele>161.694974</ele>
        <time>2021-08-22T07:16:51.056Z</time>
      </trkpt>
      <trkpt lat="44.16265" lon="0.56017">
        <ele>161.519248</ele>
        <time>2021-08-22T07:16:56.060Z</time>
      </trkpt>
      <trkpt lat="44.16272" lon="0.56026">
        <ele>161.364738</ele>
        <time>2021-08-22T07:16:58.063Z</time>
      </trkpt>
      <trkpt lat="44.16276" lon="0.56039">
        <ele>161.198376</ele>
        <time>2021-08-22T07:17:04.062Z</time>
      </trkpt>
      <trkpt lat="44.16279" lon="0.56052">
        <ele>161.023732</ele>
        <time>2021-08-22T07:17:11.070Z</time>
      </trkpt>
      <trkpt lat="44.16295" lon="0.56082">
        <ele>160.564469</ele>
        <time>2021-08-22T07:19:23.058Z</time>
      </trkpt>
      <trkpt lat="44.16299" lon="0.56094">
        <ele>160.397555</ele>
        <time>2021-08-22T07:19:26.063Z</time>
      </trkpt>
      <trkpt lat="44.16311" lon="0.56096">
        <ele>160.19972</ele>
        <time>2021-08-22T07:19:30.076Z</time>
      </trkpt>
      <trkpt lat="44.16319" lon="0.56087">
        <ele>160.025742</ele>
        <time>2021-08-22T07:19:33.071Z</time>
      </trkpt>
      <trkpt lat="44.16326" lon="0.56077">
        <ele>159.847127</ele>
        <time>2021-08-22T07:19:36.066Z</time>
      </trkpt>
      <trkpt lat="44.16332" lon="0.56066">
        <ele>159.798631</ele>
        <time>2021-08-22T07:19:39.067Z</time>
      </trkpt>
      <trkpt lat="44.16338" lon="0.56054">
        <ele>160.073136</ele>
        <time>2021-08-22T07:19:42.063Z</time>
      </trkpt>
      <trkpt lat="44.16341" lon="0.56042">
        <ele>160.332357</ele>
        <time>2021-08-22T07:19:45.071Z</time>
      </trkpt>
      <trkpt lat="44.16347" lon="0.56032">
        <ele>160.5857</ele>
        <time>2021-08-22T07:19:48.076Z</time>
      </trkpt>
      <trkpt lat="44.16353" lon="0.56022">
        <ele>160.8348</ele>
        <time>2021-08-22T07:19:51.061Z</time>
      </trkpt>
      <trkpt lat="44.16359" lon="0.56011">
        <ele>161.093693</ele>
        <time>2021-08-22T07:19:54.071Z</time>
      </trkpt>
      <trkpt lat="44.16365" lon="0.56001">
        <ele>161.349186</ele>
        <time>2021-08-22T07:19:57.063Z</time>
      </trkpt>
      <trkpt lat="44.16371" lon="0.55991">
        <ele>161.601536</ele>
        <time>2021-08-22T07:20:00.075Z</time>
      </trkpt>
      <trkpt lat="44.16378" lon="0.55978">
        <ele>161.926874</ele>
        <time>2021-08-22T07:20:04.057Z</time>
      </trkpt>
      <trkpt lat="44.16383" lon="0.55966">
        <ele>162.205123</ele>
        <time>2021-08-22T07:20:07.061Z</time>
      </trkpt>
      <trkpt lat="44.1639" lon="0.55953">
        <ele>162.520853</ele>
        <time>2021-08-22T07:20:11.079Z</time>
      </trkpt>
      <trkpt lat="44.16396" lon="0.55941">
        <ele>162.80063</ele>
        <time>2021-08-22T07:20:15.073Z</time>
      </trkpt>
      <trkpt lat="44.16404" lon="0.55932">
        <ele>163.065811</ele>
        <time>2021-08-22T07:20:19.072Z</time>
      </trkpt>
      <trkpt lat="44.16413" lon="0.55926">
        <ele>163.355456</ele>
        <time>2021-08-22T07:20:23.074Z</time>
      </trkpt>
      <trkpt lat="44.16419" lon="0.55916">
        <ele>163.616498</ele>
        <time>2021-08-22T07:20:28.068Z</time>
      </trkpt>
      <trkpt lat="44.16427" lon="0.55905">
        <ele>163.902951</ele>
        <time>2021-08-22T07:20:31.069Z</time>
      </trkpt>
      <trkpt lat="44.16439" lon="0.559">
        <ele>164.243819</ele>
        <time>2021-08-22T07:20:34.077Z</time>
      </trkpt>
      <trkpt lat="44.16448" lon="0.55898">
        <ele>164.511634</ele>
        <time>2021-08-22T07:20:36.069Z</time>
      </trkpt>
      <trkpt lat="44.16459" lon="0.55896">
        <ele>163.841074</ele>
        <time>2021-08-22T07:20:38.087Z</time>
      </trkpt>
      <trkpt lat="44.1647" lon="0.55895">
        <ele>162.605334</ele>
        <time>2021-08-22T07:20:40.070Z</time>
      </trkpt>
      <trkpt lat="44.16481" lon="0.55886">
        <ele>161.194065</ele>
        <time>2021-08-22T07:20:43.072Z</time>
      </trkpt>
      <trkpt lat="44.16478" lon="0.55867">
        <ele>159.703675</ele>
        <time>2021-08-22T07:20:46.075Z</time>
      </trkpt>
      <trkpt lat="44.16474" lon="0.55856">
        <ele>158.665322</ele>
        <time>2021-08-22T07:20:48.069Z</time>
      </trkpt>
      <trkpt lat="44.16471" lon="0.55839">
        <ele>157.359374</ele>
        <time>2021-08-22T07:20:52.074Z</time>
      </trkpt>
      <trkpt lat="44.16469" lon="0.55827">
        <ele>156.313137</ele>
        <time>2021-08-22T07:20:55.066Z</time>
      </trkpt>
      <trkpt lat="44.16466" lon="0.55814">
        <ele>155.257037</ele>
        <time>2021-08-22T07:20:57.073Z</time>
      </trkpt>
      <trkpt lat="44.16459" lon="0.55797">
        <ele>153.679759</ele>
        <time>2021-08-22T07:20:59.068Z</time>
      </trkpt>
      <trkpt lat="44.16454" lon="0.55782">
        <ele>152.465251</ele>
        <time>2021-08-22T07:21:01.067Z</time>
      </trkpt>
      <trkpt lat="44.1645" lon="0.5577">
        <ele>151.365234</ele>
        <time>2021-08-22T07:21:04.064Z</time>
      </trkpt>
      <trkpt lat="44.16446" lon="0.55757">
        <ele>150.201256</ele>
        <time>2021-08-22T07:21:11.066Z</time>
      </trkpt>
      <trkpt lat="44.1644" lon="0.55741">
        <ele>148.837874</ele>
        <time>2021-08-22T07:21:15.070Z</time>
      </trkpt>
      <trkpt lat="44.16445" lon="0.55727">
        <ele>147.662072</ele>
        <time>2021-08-22T07:21:19.068Z</time>
      </trkpt>
      <trkpt lat="44.16458" lon="0.55723">
        <ele>146.140635</ele>
        <time>2021-08-22T07:21:22.067Z</time>
      </trkpt>
      <trkpt lat="44.16469" lon="0.55719">
        <ele>144.880178</ele>
        <time>2021-08-22T07:21:26.063Z</time>
      </trkpt>
      <trkpt lat="44.16481" lon="0.55715">
        <ele>144.660968</ele>
        <time>2021-08-22T07:21:29.063Z</time>
      </trkpt>
      <trkpt lat="44.16491" lon="0.55712">
        <ele>144.518914</ele>
        <time>2021-08-22T07:21:32.071Z</time>
      </trkpt>
      <trkpt lat="44.16503" lon="0.55712">
        <ele>144.365244</ele>
        <time>2021-08-22T07:21:36.064Z</time>
      </trkpt>
      <trkpt lat="44.16512" lon="0.5571">
        <ele>144.236801</ele>
        <time>2021-08-22T07:21:39.064Z</time>
      </trkpt>
      <trkpt lat="44.16522" lon="0.55708">
        <ele>144.106625</ele>
        <time>2021-08-22T07:21:42.067Z</time>
      </trkpt>
      <trkpt lat="44.16532" lon="0.55707">
        <ele>143.964801</ele>
        <time>2021-08-22T07:21:45.074Z</time>
      </trkpt>
      <trkpt lat="44.16544" lon="0.55705">
        <ele>143.805836</ele>
        <time>2021-08-22T07:21:48.072Z</time>
      </trkpt>
      <trkpt lat="44.16555" lon="0.55704">
        <ele>143.649089</ele>
        <time>2021-08-22T07:21:52.061Z</time>
      </trkpt>
      <trkpt lat="44.16565" lon="0.55702">
        <ele>143.521809</ele>
        <time>2021-08-22T07:21:55.070Z</time>
      </trkpt>
      <trkpt lat="44.16575" lon="0.557">
        <ele>143.382152</ele>
        <time>2021-08-22T07:21:58.072Z</time>
      </trkpt>
      <trkpt lat="44.16585" lon="0.55698">
        <ele>143.243065</ele>
        <time>2021-08-22T07:22:01.068Z</time>
      </trkpt>
      <trkpt lat="44.16595" lon="0.55696">
        <ele>143.111963</ele>
        <time>2021-08-22T07:22:05.072Z</time>
      </trkpt>
      <trkpt lat="44.16604" lon="0.55692">
        <ele>142.979802</ele>
        <time>2021-08-22T07:22:08.071Z</time>
      </trkpt>
      <trkpt lat="44.16616" lon="0.55689">
        <ele>142.825307</ele>
        <time>2021-08-22T07:22:11.065Z</time>
      </trkpt>
      <trkpt lat="44.16625" lon="0.55687">
        <ele>142.70145</ele>
        <time>2021-08-22T07:22:18.066Z</time>
      </trkpt>
      <trkpt lat="44.16635" lon="0.55686">
        <ele>142.566663</ele>
        <time>2021-08-22T07:22:23.059Z</time>
      </trkpt>
      <trkpt lat="44.16646" lon="0.55687">
        <ele>142.4102</ele>
        <time>2021-08-22T07:22:29.071Z</time>
      </trkpt>
      <trkpt lat="44.16655" lon="0.55691">
        <ele>142.744194</ele>
        <time>2021-08-22T07:22:36.063Z</time>
      </trkpt>
      <trkpt lat="44.16664" lon="0.55694">
        <ele>143.192328</ele>
        <time>2021-08-22T07:22:43.055Z</time>
      </trkpt>
      <trkpt lat="44.16672" lon="0.55702">
        <ele>143.633958</ele>
        <time>2021-08-22T07:22:50.065Z</time>
      </trkpt>
      <trkpt lat="44.16681" lon="0.55708">
        <ele>144.065663</ele>
        <time>2021-08-22T07:22:55.066Z</time>
      </trkpt>
      <trkpt lat="44.16691" lon="0.55712">
        <ele>144.530792</ele>
        <time>2021-08-22T07:22:59.062Z</time>
      </trkpt>
      <trkpt lat="44.167" lon="0.55718">
        <ele>145.014442</ele>
        <time>2021-08-22T07:23:03.070Z</time>
      </trkpt>
      <trkpt lat="44.16711" lon="0.55721">
        <ele>145.487548</ele>
        <time>2021-08-22T07:23:06.066Z</time>
      </trkpt>
      <trkpt lat="44.16719" lon="0.55726">
        <ele>145.917709</ele>
        <time>2021-08-22T07:23:13.073Z</time>
      </trkpt>
      <trkpt lat="44.16728" lon="0.55723">
        <ele>146.354398</ele>
        <time>2021-08-22T07:23:21.060Z</time>
      </trkpt>
      <trkpt lat="44.16738" lon="0.55719">
        <ele>146.797292</ele>
        <time>2021-08-22T07:23:30.065Z</time>
      </trkpt>
      <trkpt lat="44.16746" lon="0.55714">
        <ele>147.21257</ele>
        <time>2021-08-22T07:23:39.081Z</time>
      </trkpt>
      <trkpt lat="44.16755" lon="0.5571">
        <ele>147.646612</ele>
        <time>2021-08-22T07:23:44.064Z</time>
      </trkpt>
      <trkpt lat="44.16766" lon="0.55702">
        <ele>148.220545</ele>
        <time>2021-08-22T07:25:37.061Z</time>
      </trkpt>
      <trkpt lat="44.16776" lon="0.55695">
        <ele>148.69948</ele>
        <time>2021-08-22T07:25:42.061Z</time>
      </trkpt>
      <trkpt lat="44.16783" lon="0.55685">
        <ele>149.171843</ele>
        <time>2021-08-22T07:25:45.071Z</time>
      </trkpt>
      <trkpt lat="44.16791" lon="0.55675">
        <ele>149.669644</ele>
        <time>2021-08-22T07:25:48.068Z</time>
      </trkpt>
      <trkpt lat="44.168" lon="0.5567">
        <ele>150.09335</ele>
        <time>2021-08-22T07:25:51.072Z</time>
      </trkpt>
      <trkpt lat="44.1681" lon="0.55668">
        <ele>150.566247</ele>
        <time>2021-08-22T07:25:55.068Z</time>
      </trkpt>
      <trkpt lat="44.16819" lon="0.55663">
        <ele>150.744287</ele>
        <time>2021-08-22T07:25:58.065Z</time>
      </trkpt>
      <trkpt lat="44.16829" lon="0.55657">
        <ele>150.925213</ele>
        <time>2021-08-22T07:26:01.069Z</time>
      </trkpt>
      <trkpt lat="44.16839" lon="0.55654">
        <ele>151.108779</ele>
        <time>2021-08-22T07:26:05.059Z</time>
      </trkpt>
      <trkpt lat="44.1685" lon="0.55652">
        <ele>151.296328</ele>
        <time>2021-08-22T07:26:09.057Z</time>
      </trkpt>
      <trkpt lat="44.16859" lon="0.55647">
        <ele>151.462327</ele>
        <time>2021-08-22T07:26:12.073Z</time>
      </trkpt>
      <trkpt lat="44.16868" lon="0.5564">
        <ele>151.646257</ele>
        <time>2021-08-22T07:26:15.065Z</time>
      </trkpt>
      <trkpt lat="44.16877" lon="0.55634">
        <ele>151.813207</ele>
        <time>2021-08-22T07:26:17.068Z</time>
      </trkpt>
      <trkpt lat="44.16889" lon="0.55629">
        <ele>152.027992</ele>
        <time>2021-08-22T07:26:20.065Z</time>
      </trkpt>
      <trkpt lat="44.169" lon="0.55628">
        <ele>152.212675</ele>
        <time>2021-08-22T07:26:23.066Z</time>
      </trkpt>
      <trkpt lat="44.1691" lon="0.55627">
        <ele>152.385899</ele>
        <time>2021-08-22T07:26:27.088Z</time>
      </trkpt>
      <trkpt lat="44.16919" lon="0.55623">
        <ele>152.549549</ele>
        <time>2021-08-22T07:26:32.063Z</time>
      </trkpt>
      <trkpt lat="44.16928" lon="0.55614">
        <ele>152.74304</ele>
        <time>2021-08-22T07:26:36.067Z</time>
      </trkpt>
      <trkpt lat="44.16935" lon="0.55599">
        <ele>152.954075</ele>
        <time>2021-08-22T07:26:39.067Z</time>
      </trkpt>
      <trkpt lat="44.16944" lon="0.55582">
        <ele>153.225345</ele>
        <time>2021-08-22T07:26:41.061Z</time>
      </trkpt>
      <trkpt lat="44.16952" lon="0.55572">
        <ele>153.394506</ele>
        <time>2021-08-22T07:26:42.061Z</time>
      </trkpt>
      <trkpt lat="44.16959" lon="0.55564">
        <ele>153.560671</ele>
        <time>2021-08-22T07:26:43.060Z</time>
      </trkpt>
      <trkpt lat="44.16972" lon="0.55549">
        <ele>152.668117</ele>
        <time>2021-08-22T07:26:45.072Z</time>
      </trkpt>
      <trkpt lat="44.16985" lon="0.55535">
        <ele>151.030099</ele>
        <time>2021-08-22T07:26:47.089Z</time>
      </trkpt>
      <trkpt lat="44.16999" lon="0.55523">
        <ele>149.425027</ele>
        <time>2021-08-22T07:26:49.068Z</time>
      </trkpt>
      <trkpt lat="44.1698" lon="0.55516">
        <ele>147.493132</ele>
        <time>2021-08-22T07:27:27.073Z</time>
      </trkpt>
      <trkpt lat="44.16968" lon="0.55519">
        <ele>146.236986</ele>
        <time>2021-08-22T07:27:30.072Z</time>
      </trkpt>
      <trkpt lat="44.16956" lon="0.55522">
        <ele>145.030574</ele>
        <time>2021-08-22T07:27:32.065Z</time>
      </trkpt>
      <trkpt lat="44.16943" lon="0.55523">
        <ele>143.736397</ele>
        <time>2021-08-22T07:27:34.067Z</time>
      </trkpt>
      <trkpt lat="44.16932" lon="0.55525">
        <ele>142.579959</ele>
        <time>2021-08-22T07:27:36.065Z</time>
      </trkpt>
      <trkpt lat="44.16919" lon="0.55529">
        <ele>141.284484</ele>
        <time>2021-08-22T07:27:38.065Z</time>
      </trkpt>
      <trkpt lat="44.16906" lon="0.55535">
        <ele>139.897433</ele>
        <time>2021-08-22T07:27:40.067Z</time>
      </trkpt>
      <trkpt lat="44.16895" lon="0.5554">
        <ele>138.736639</ele>
        <time>2021-08-22T07:27:42.069Z</time>
      </trkpt>
      <trkpt lat="44.16885" lon="0.55542">
        <ele>137.698796</ele>
        <time>2021-08-22T07:27:44.065Z</time>
      </trkpt>
      <trkpt lat="44.16871" lon="0.5554">
        <ele>136.364173</ele>
        <time>2021-08-22T07:27:46.077Z</time>
      </trkpt>
      <trkpt lat="44.16858" lon="0.55538">
        <ele>134.665212</ele>
        <time>2021-08-22T07:27:48.072Z</time>
      </trkpt>
      <trkpt lat="44.16846" lon="0.55533">
        <ele>132.834069</ele>
        <time>2021-08-22T07:27:50.065Z</time>
      </trkpt>
      <trkpt lat="44.16836" lon="0.5552">
        <ele>130.797201</ele>
        <time>2021-08-22T07:27:52.075Z</time>
      </trkpt>
      <trkpt lat="44.16826" lon="0.55505">
        <ele>128.750151</ele>
        <time>2021-08-22T07:27:54.071Z</time>
      </trkpt>
      <trkpt lat="44.16824" lon="0.5549">
        <ele>127.06314</ele>
        <time>2021-08-22T07:27:56.068Z</time>
      </trkpt>
      <trkpt lat="44.16827" lon="0.55475">
        <ele>125.401609</ele>
        <time>2021-08-22T07:27:59.067Z</time>
      </trkpt>
      <trkpt lat="44.16836" lon="0.5547">
        <ele>124.017734</ele>
        <time>2021-08-22T07:28:02.057Z</time>
      </trkpt>
      <trkpt lat="44.16845" lon="0.55469">
        <ele>122.648735</ele>
        <time>2021-08-22T07:28:07.076Z</time>
      </trkpt>
      <trkpt lat="44.16856" lon="0.55471">
        <ele>121.026658</ele>
        <time>2021-08-22T07:28:12.079Z</time>
      </trkpt>
      <trkpt lat="44.16866" lon="0.55469">
        <ele>119.649255</ele>
        <time>2021-08-22T07:28:14.073Z</time>
      </trkpt>
      <trkpt lat="44.16876" lon="0.55469">
        <ele>118.151228</ele>
        <time>2021-08-22T07:28:17.062Z</time>
      </trkpt>
      <trkpt lat="44.16885" lon="0.55468">
        <ele>116.778666</ele>
        <time>2021-08-22T07:28:21.061Z</time>
      </trkpt>
      <trkpt lat="44.16895" lon="0.55463">
        <ele>115.297923</ele>
        <time>2021-08-22T07:28:25.070Z</time>
      </trkpt>
      <trkpt lat="44.16905" lon="0.55458">
        <ele>113.761789</ele>
        <time>2021-08-22T07:28:29.067Z</time>
      </trkpt>
      <trkpt lat="44.16916" lon="0.55452">
        <ele>111.967859</ele>
        <time>2021-08-22T07:28:33.066Z</time>
      </trkpt>
      <trkpt lat="44.16926" lon="0.55447">
        <ele>110.383549</ele>
        <time>2021-08-22T07:28:36.065Z</time>
      </trkpt>
      <trkpt lat="44.16937" lon="0.55442">
        <ele>109.368797</ele>
        <time>2021-08-22T07:28:40.063Z</time>
      </trkpt>
      <trkpt lat="44.16948" lon="0.55438">
        <ele>109.665473</ele>
        <time>2021-08-22T07:28:44.064Z</time>
      </trkpt>
      <trkpt lat="44.16958" lon="0.55435">
        <ele>109.950989</ele>
        <time>2021-08-22T07:28:47.067Z</time>
      </trkpt>
      <trkpt lat="44.16971" lon="0.55432">
        <ele>110.287314</ele>
        <time>2021-08-22T07:28:50.076Z</time>
      </trkpt>
      <trkpt lat="44.16981" lon="0.55426">
        <ele>110.588921</ele>
        <time>2021-08-22T07:28:54.065Z</time>
      </trkpt>
      <trkpt lat="44.1699" lon="0.55419">
        <ele>110.868153</ele>
        <time>2021-08-22T07:28:57.073Z</time>
      </trkpt>
      <trkpt lat="44.17002" lon="0.55415">
        <ele>111.193402</ele>
        <time>2021-08-22T07:29:00.069Z</time>
      </trkpt>
      <trkpt lat="44.17014" lon="0.55415">
        <ele>111.494843</ele>
        <time>2021-08-22T07:29:03.064Z</time>
      </trkpt>
      <trkpt lat="44.17024" lon="0.55416">
        <ele>111.766365</ele>
        <time>2021-08-22T07:29:07.063Z</time>
      </trkpt>
      <trkpt lat="44.17033" lon="0.55421">
        <ele>112.033673</ele>
        <time>2021-08-22T07:29:12.063Z</time>
      </trkpt>
      <trkpt lat="44.17043" lon="0.55423">
        <ele>112.291241</ele>
        <time>2021-08-22T07:29:15.073Z</time>
      </trkpt>
      <trkpt lat="44.17056" lon="0.5542">
        <ele>112.644927</ele>
        <time>2021-08-22T07:29:18.072Z</time>
      </trkpt>
      <trkpt lat="44.17065" lon="0.55419">
        <ele>112.890072</ele>
        <time>2021-08-22T07:29:21.073Z</time>
      </trkpt>
      <trkpt lat="44.17075" lon="0.5542">
        <ele>113.171089</ele>
        <time>2021-08-22T07:29:25.061Z</time>
      </trkpt>
      <trkpt lat="44.17085" lon="0.55428">
        <ele>113.473311</ele>
        <time>2021-08-22T07:29:29.064Z</time>
      </trkpt>
      <trkpt lat="44.17093" lon="0.55436">
        <ele>113.730297</ele>
        <time>2021-08-22T07:29:32.073Z</time>
      </trkpt>
      <trkpt lat="44.17103" lon="0.55444">
        <ele>114.028138</ele>
        <time>2021-08-22T07:29:35.071Z</time>
      </trkpt>
      <trkpt lat="44.17114" lon="0.55449">
        <ele>114.107619</ele>
        <time>2021-08-22T07:29:38.067Z</time>
      </trkpt>
      <trkpt lat="44.17124" lon="0.55454">
        <ele>114.154927</ele>
        <time>2021-08-22T07:29:41.068Z</time>
      </trkpt>
      <trkpt lat="44.17134" lon="0.55461">
        <ele>114.205221</ele>
        <time>2021-08-22T07:29:45.071Z</time>
      </trkpt>
      <trkpt lat="44.17144" lon="0.55469">
        <ele>114.260176</ele>
        <time>2021-08-22T07:29:49.077Z</time>
      </trkpt>
      <trkpt lat="44.17155" lon="0.55472">
        <ele>114.307945</ele>
        <time>2021-08-22T07:29:52.076Z</time>
      </trkpt>
      <trkpt lat="44.17165" lon="0.55474">
        <ele>114.356976</ele>
        <time>2021-08-22T07:29:56.068Z</time>
      </trkpt>
      <trkpt lat="44.17175" lon="0.55481">
        <ele>114.407683</ele>
        <time>2021-08-22T07:30:00.068Z</time>
      </trkpt>
      <trkpt lat="44.17185" lon="0.55489">
        <ele>114.45628</ele>
        <time>2021-08-22T07:30:03.057Z</time>
      </trkpt>
      <trkpt lat="44.17194" lon="0.55498">
        <ele>114.508345</ele>
        <time>2021-08-22T07:30:06.063Z</time>
      </trkpt>
      <trkpt lat="44.17206" lon="0.55509">
        <ele>114.572684</ele>
        <time>2021-08-22T07:30:09.067Z</time>
      </trkpt>
      <trkpt lat="44.17213" lon="0.55517">
        <ele>114.615943</ele>
        <time>2021-08-22T07:30:11.067Z</time>
      </trkpt>
      <trkpt lat="44.17221" lon="0.55525">
        <ele>114.660385</ele>
        <time>2021-08-22T07:30:13.065Z</time>
      </trkpt>
      <trkpt lat="44.1723" lon="0.55533">
        <ele>114.709254</ele>
        <time>2021-08-22T07:30:15.066Z</time>
      </trkpt>
      <trkpt lat="44.17239" lon="0.5554">
        <ele>114.756786</ele>
        <time>2021-08-22T07:30:17.062Z</time>
      </trkpt>
      <trkpt lat="44.17247" lon="0.55548">
        <ele>114.798625</ele>
        <time>2021-08-22T07:30:19.076Z</time>
      </trkpt>
      <trkpt lat="44.17256" lon="0.55558">
        <ele>114.853025</ele>
        <time>2021-08-22T07:30:22.061Z</time>
      </trkpt>
      <trkpt lat="44.17266" lon="0.55568">
        <ele>114.942396</ele>
        <time>2021-08-22T07:30:25.069Z</time>
      </trkpt>
      <trkpt lat="44.17277" lon="0.55576">
        <ele>115.062121</ele>
        <time>2021-08-22T07:30:28.057Z</time>
      </trkpt>
      <trkpt lat="44.17287" lon="0.55586">
        <ele>115.182603</ele>
        <time>2021-08-22T07:30:31.067Z</time>
      </trkpt>
      <trkpt lat="44.17298" lon="0.55596">
        <ele>115.308616</ele>
        <time>2021-08-22T07:30:34.068Z</time>
      </trkpt>
      <trkpt lat="44.17307" lon="0.55609">
        <ele>115.43071</ele>
        <time>2021-08-22T07:30:37.066Z</time>
      </trkpt>
      <trkpt lat="44.17314" lon="0.55621">
        <ele>115.538678</ele>
        <time>2021-08-22T07:30:40.072Z</time>
      </trkpt>
      <trkpt lat="44.17316" lon="0.55637">
        <ele>115.651164</ele>
        <time>2021-08-22T07:30:44.062Z</time>
      </trkpt>
      <trkpt lat="44.17321" lon="0.55653">
        <ele>115.765497</ele>
        <time>2021-08-22T07:30:48.067Z</time>
      </trkpt>
      <trkpt lat="44.17324" lon="0.55664">
        <ele>115.851878</ele>
        <time>2021-08-22T07:30:51.073Z</time>
      </trkpt>
      <trkpt lat="44.17328" lon="0.55676">
        <ele>115.942335</ele>
        <time>2021-08-22T07:30:55.076Z</time>
      </trkpt>
      <trkpt lat="44.17331" lon="0.5569">
        <ele>116.040541</ele>
        <time>2021-08-22T07:30:59.067Z</time>
      </trkpt>
      <trkpt lat="44.17335" lon="0.55703">
        <ele>116.140985</ele>
        <time>2021-08-22T07:31:03.072Z</time>
      </trkpt>
      <trkpt lat="44.17338" lon="0.55719">
        <ele>116.251361</ele>
        <time>2021-08-22T07:31:07.067Z</time>
      </trkpt>
      <trkpt lat="44.17345" lon="0.5573">
        <ele>116.357083</ele>
        <time>2021-08-22T07:31:11.068Z</time>
      </trkpt>
      <trkpt lat="44.17354" lon="0.55721">
        <ele>116.462592</ele>
        <time>2021-08-22T07:31:15.069Z</time>
      </trkpt>
      <trkpt lat="44.17361" lon="0.55707">
        <ele>116.584689</ele>
        <time>2021-08-22T07:31:18.068Z</time>
      </trkpt>
      <trkpt lat="44.17369" lon="0.55692">
        <ele>116.4095</ele>
        <time>2021-08-22T07:31:21.068Z</time>
      </trkpt>
      <trkpt lat="44.17375" lon="0.55681">
        <ele>116.239912</ele>
        <time>2021-08-22T07:31:24.066Z</time>
      </trkpt>
      <trkpt lat="44.17382" lon="0.55669">
        <ele>116.043466</ele>
        <time>2021-08-22T07:31:29.066Z</time>
      </trkpt>
      <trkpt lat="44.17388" lon="0.55654">
        <ele>115.829019</ele>
        <time>2021-08-22T07:31:32.082Z</time>
      </trkpt>
      <trkpt lat="44.17393" lon="0.55641">
        <ele>115.645734</ele>
        <time>2021-08-22T07:31:34.068Z</time>
      </trkpt>
      <trkpt lat="44.17399" lon="0.55627">
        <ele>115.448883</ele>
        <time>2021-08-22T07:31:36.083Z</time>
      </trkpt>
      <trkpt lat="44.17406" lon="0.55613">
        <ele>115.241074</ele>
        <time>2021-08-22T07:31:38.072Z</time>
      </trkpt>
      <trkpt lat="44.17412" lon="0.55598">
        <ele>115.025705</ele>
        <time>2021-08-22T07:31:40.077Z</time>
      </trkpt>
      <trkpt lat="44.17419" lon="0.55583">
        <ele>114.813979</ele>
        <time>2021-08-22T07:31:42.067Z</time>
      </trkpt>
      <trkpt lat="44.17424" lon="0.5557">
        <ele>114.623972</ele>
        <time>2021-08-22T07:31:44.067Z</time>
      </trkpt>
      <trkpt lat="44.17428" lon="0.55557">
        <ele>114.455914</ele>
        <time>2021-08-22T07:31:46.072Z</time>
      </trkpt>
      <trkpt lat="44.17426" lon="0.55541">
        <ele>114.247452</ele>
        <time>2021-08-22T07:31:49.067Z</time>
      </trkpt>
      <trkpt lat="44.1742" lon="0.55531">
        <ele>114.091037</ele>
        <time>2021-08-22T07:31:51.067Z</time>
      </trkpt>
      <trkpt lat="44.17415" lon="0.55519">
        <ele>113.926126</ele>
        <time>2021-08-22T07:31:53.069Z</time>
      </trkpt>
      <trkpt lat="44.17414" lon="0.55506">
        <ele>113.764934</ele>
        <time>2021-08-22T07:31:55.071Z</time>
      </trkpt>
      <trkpt lat="44.17416" lon="0.55494">
        <ele>113.608391</ele>
        <time>2021-08-22T07:31:57.081Z</time>
      </trkpt>
      <trkpt lat="44.17421" lon="0.55477">
        <ele>113.647475</ele>
        <time>2021-08-22T07:32:00.078Z</time>
      </trkpt>
      <trkpt lat="44.17426" lon="0.55461">
        <ele>113.902755</ele>
        <time>2021-08-22T07:32:03.074Z</time>
      </trkpt>
      <trkpt lat="44.17429" lon="0.55445">
        <ele>114.155269</ele>
        <time>2021-08-22T07:32:06.076Z</time>
      </trkpt>
      <trkpt lat="44.17429" lon="0.55428">
        <ele>114.405464</ele>
        <time>2021-08-22T07:32:09.068Z</time>
      </trkpt>
      <trkpt lat="44.17427" lon="0.55411">
        <ele>114.648137</ele>
        <time>2021-08-22T07:32:12.076Z</time>
      </trkpt>
      <trkpt lat="44.17426" lon="0.55397">
        <ele>114.851861</ele>
        <time>2021-08-22T07:32:15.074Z</time>
      </trkpt>
      <trkpt lat="44.17425" lon="0.55384">
        <ele>115.050175</ele>
        <time>2021-08-22T07:32:18.075Z</time>
      </trkpt>
      <trkpt lat="44.17426" lon="0.55369">
        <ele>115.263916</ele>
        <time>2021-08-22T07:32:21.068Z</time>
      </trkpt>
      <trkpt lat="44.17429" lon="0.55354">
        <ele>115.491151</ele>
        <time>2021-08-22T07:32:24.076Z</time>
      </trkpt>
      <trkpt lat="44.1743" lon="0.55339">
        <ele>115.718473</ele>
        <time>2021-08-22T07:32:27.068Z</time>
      </trkpt>
      <trkpt lat="44.17431" lon="0.55325">
        <ele>115.920489</ele>
        <time>2021-08-22T07:32:30.074Z</time>
      </trkpt>
      <trkpt lat="44.1743" lon="0.55312">
        <ele>116.115411</ele>
        <time>2021-08-22T07:32:33.073Z</time>
      </trkpt>
      <trkpt lat="44.17427" lon="0.55297">
        <ele>116.343283</ele>
        <time>2021-08-22T07:32:36.067Z</time>
      </trkpt>
      <trkpt lat="44.1742" lon="0.55284">
        <ele>116.572854</ele>
        <time>2021-08-22T07:32:39.069Z</time>
      </trkpt>
      <trkpt lat="44.17415" lon="0.55272">
        <ele>116.781934</ele>
        <time>2021-08-22T07:32:42.076Z</time>
      </trkpt>
      <trkpt lat="44.1741" lon="0.55259">
        <ele>117.002939</ele>
        <time>2021-08-22T07:32:45.070Z</time>
      </trkpt>
      <trkpt lat="44.17404" lon="0.55246">
        <ele>117.22511</ele>
        <time>2021-08-22T07:32:48.071Z</time>
      </trkpt>
      <trkpt lat="44.17398" lon="0.55233">
        <ele>117.446192</ele>
        <time>2021-08-22T07:32:51.077Z</time>
      </trkpt>
      <trkpt lat="44.17392" lon="0.55219">
        <ele>117.671666</ele>
        <time>2021-08-22T07:32:54.072Z</time>
      </trkpt>
      <trkpt lat="44.17386" lon="0.55207">
        <ele>117.883763</ele>
        <time>2021-08-22T07:32:57.071Z</time>
      </trkpt>
      <trkpt lat="44.17382" lon="0.55194">
        <ele>118.077028</ele>
        <time>2021-08-22T07:33:00.072Z</time>
      </trkpt>
      <trkpt lat="44.17382" lon="0.5518">
        <ele>118.283289</ele>
        <time>2021-08-22T07:33:03.081Z</time>
      </trkpt>
      <trkpt lat="44.17384" lon="0.55167">
        <ele>118.467697</ele>
        <time>2021-08-22T07:33:06.076Z</time>
      </trkpt>
      <trkpt lat="44.17387" lon="0.55152">
        <ele>118.698554</ele>
        <time>2021-08-22T07:33:10.070Z</time>
      </trkpt>
      <trkpt lat="44.17397" lon="0.55145">
        <ele>118.907338</ele>
        <time>2021-08-22T07:33:14.072Z</time>
      </trkpt>
      <trkpt lat="44.17407" lon="0.55143">
        <ele>119.12365</ele>
        <time>2021-08-22T07:33:17.063Z</time>
      </trkpt>
      <trkpt lat="44.17419" lon="0.5514">
        <ele>119.359161</ele>
        <time>2021-08-22T07:33:20.068Z</time>
      </trkpt>
      <trkpt lat="44.17431" lon="0.55137">
        <ele>119.594926</ele>
        <time>2021-08-22T07:33:23.063Z</time>
      </trkpt>
      <trkpt lat="44.17443" lon="0.55134">
        <ele>119.830438</ele>
        <time>2021-08-22T07:33:26.076Z</time>
      </trkpt>
      <trkpt lat="44.17455" lon="0.55131">
        <ele>120.072571</ele>
        <time>2021-08-22T07:33:29.074Z</time>
      </trkpt>
      <trkpt lat="44.17466" lon="0.55126">
        <ele>120.310073</ele>
        <time>2021-08-22T07:33:32.073Z</time>
      </trkpt>
      <trkpt lat="44.17477" lon="0.55119">
        <ele>120.546109</ele>
        <time>2021-08-22T07:33:35.071Z</time>
      </trkpt>
      <trkpt lat="44.17487" lon="0.55108">
        <ele>120.778936</ele>
        <time>2021-08-22T07:33:38.078Z</time>
      </trkpt>
      <trkpt lat="44.17496" lon="0.55098">
        <ele>120.947874</ele>
        <time>2021-08-22T07:33:41.080Z</time>
      </trkpt>
      <trkpt lat="44.17505" lon="0.55086">
        <ele>121.120375</ele>
        <time>2021-08-22T07:33:44.066Z</time>
      </trkpt>
      <trkpt lat="44.17513" lon="0.55073">
        <ele>121.299354</ele>
        <time>2021-08-22T07:33:47.076Z</time>
      </trkpt>
      <trkpt lat="44.17515" lon="0.55058">
        <ele>121.454001</ele>
        <time>2021-08-22T07:33:50.072Z</time>
      </trkpt>
      <trkpt lat="44.17508" lon="0.55045">
        <ele>121.628223</ele>
        <time>2021-08-22T07:33:53.075Z</time>
      </trkpt>
      <trkpt lat="44.17502" lon="0.55031">
        <ele>121.791624</ele>
        <time>2021-08-22T07:33:56.073Z</time>
      </trkpt>
      <trkpt lat="44.17496" lon="0.55019">
        <ele>121.947521</ele>
        <time>2021-08-22T07:33:59.070Z</time>
      </trkpt>
      <trkpt lat="44.17489" lon="0.55005">
        <ele>122.114377</ele>
        <time>2021-08-22T07:34:02.062Z</time>
      </trkpt>
      <trkpt lat="44.17482" lon="0.54991">
        <ele>122.296101</ele>
        <time>2021-08-22T07:34:05.075Z</time>
      </trkpt>
      <trkpt lat="44.17475" lon="0.54977">
        <ele>122.469601</ele>
        <time>2021-08-22T07:34:08.075Z</time>
      </trkpt>
      <trkpt lat="44.17469" lon="0.54964">
        <ele>122.633846</ele>
        <time>2021-08-22T07:34:11.078Z</time>
      </trkpt>
      <trkpt lat="44.17462" lon="0.5495">
        <ele>122.800566</ele>
        <time>2021-08-22T07:34:14.076Z</time>
      </trkpt>
      <trkpt lat="44.17456" lon="0.54938">
        <ele>122.956565</ele>
        <time>2021-08-22T07:34:17.079Z</time>
      </trkpt>
      <trkpt lat="44.17449" lon="0.54925">
        <ele>123.114943</ele>
        <time>2021-08-22T07:34:20.088Z</time>
      </trkpt>
      <trkpt lat="44.17443" lon="0.54912">
        <ele>123.280846</ele>
        <time>2021-08-22T07:34:23.070Z</time>
      </trkpt>
      <trkpt lat="44.17437" lon="0.54899">
        <ele>123.464838</ele>
        <time>2021-08-22T07:34:26.081Z</time>
      </trkpt>
      <trkpt lat="44.1743" lon="0.54886">
        <ele>123.651151</ele>
        <time>2021-08-22T07:34:29.076Z</time>
      </trkpt>
      <trkpt lat="44.17424" lon="0.54874">
        <ele>123.837609</ele>
        <time>2021-08-22T07:34:32.081Z</time>
      </trkpt>
      <trkpt lat="44.17418" lon="0.54861">
        <ele>124.02902</ele>
        <time>2021-08-22T07:34:35.077Z</time>
      </trkpt>
      <trkpt lat="44.17412" lon="0.54847">
        <ele>124.227431</ele>
        <time>2021-08-22T07:34:38.076Z</time>
      </trkpt>
      <trkpt lat="44.17405" lon="0.54834">
        <ele>124.423746</ele>
        <time>2021-08-22T07:34:41.072Z</time>
      </trkpt>
      <trkpt lat="44.17399" lon="0.54821">
        <ele>124.620116</ele>
        <time>2021-08-22T07:34:44.074Z</time>
      </trkpt>
      <trkpt lat="44.17394" lon="0.54807">
        <ele>124.80521</ele>
        <time>2021-08-22T07:34:47.074Z</time>
      </trkpt>
      <trkpt lat="44.17393" lon="0.54792">
        <ele>124.989765</ele>
        <time>2021-08-22T07:34:50.080Z</time>
      </trkpt>
      <trkpt lat="44.17396" lon="0.54777">
        <ele>125.174609</ele>
        <time>2021-08-22T07:34:53.072Z</time>
      </trkpt>
      <trkpt lat="44.17401" lon="0.54763">
        <ele>125.367463</ele>
        <time>2021-08-22T07:34:56.072Z</time>
      </trkpt>
      <trkpt lat="44.17406" lon="0.5475">
        <ele>125.55913</ele>
        <time>2021-08-22T07:34:59.080Z</time>
      </trkpt>
      <trkpt lat="44.17411" lon="0.54737">
        <ele>125.742471</ele>
        <time>2021-08-22T07:35:02.077Z</time>
      </trkpt>
      <trkpt lat="44.17416" lon="0.54724">
        <ele>125.909882</ele>
        <time>2021-08-22T07:35:05.071Z</time>
      </trkpt>
      <trkpt lat="44.1741" lon="0.54714">
        <ele>126.06638</ele>
        <time>2021-08-22T07:35:09.066Z</time>
      </trkpt>
      <trkpt lat="44.17403" lon="0.54704">
        <ele>126.24418</ele>
        <time>2021-08-22T07:35:14.071Z</time>
      </trkpt>
      <trkpt lat="44.17397" lon="0.54693">
        <ele>126.466642</ele>
        <time>2021-08-22T07:35:18.075Z</time>
      </trkpt>
      <trkpt lat="44.17392" lon="0.54682">
        <ele>127.492541</ele>
        <time>2021-08-22T07:35:22.080Z</time>
      </trkpt>
      <trkpt lat="44.17386" lon="0.54669">
        <ele>128.646174</ele>
        <time>2021-08-22T07:35:27.070Z</time>
      </trkpt>
      <trkpt lat="44.1738" lon="0.54658">
        <ele>129.696251</ele>
        <time>2021-08-22T07:35:31.071Z</time>
      </trkpt>
      <trkpt lat="44.17374" lon="0.54646">
        <ele>130.745958</ele>
        <time>2021-08-22T07:35:35.076Z</time>
      </trkpt>
      <trkpt lat="44.17368" lon="0.54636">
        <ele>131.688212</ele>
        <time>2021-08-22T07:35:39.076Z</time>
      </trkpt>
      <trkpt lat="44.17361" lon="0.54624">
        <ele>132.840859</ele>
        <time>2021-08-22T07:35:44.075Z</time>
      </trkpt>
      <trkpt lat="44.17355" lon="0.54613">
        <ele>133.91019</ele>
        <time>2021-08-22T07:35:48.071Z</time>
      </trkpt>
      <trkpt lat="44.17349" lon="0.54603">
        <ele>134.845508</ele>
        <time>2021-08-22T07:35:52.072Z</time>
      </trkpt>
      <trkpt lat="44.17343" lon="0.54593">
        <ele>135.811624</ele>
        <time>2021-08-22T07:35:56.071Z</time>
      </trkpt>
      <trkpt lat="44.17336" lon="0.54581">
        <ele>136.965433</ele>
        <time>2021-08-22T07:36:01.066Z</time>
      </trkpt>
      <trkpt lat="44.17331" lon="0.54571">
        <ele>137.896161</ele>
        <time>2021-08-22T07:36:05.077Z</time>
      </trkpt>
      <trkpt lat="44.17324" lon="0.54559">
        <ele>139.006803</ele>
        <time>2021-08-22T07:36:10.071Z</time>
      </trkpt>
      <trkpt lat="44.17317" lon="0.54547">
        <ele>140.129188</ele>
        <time>2021-08-22T07:36:15.072Z</time>
      </trkpt>
      <trkpt lat="44.17312" lon="0.54536">
        <ele>141.136449</ele>
        <time>2021-08-22T07:36:20.069Z</time>
      </trkpt>
      <trkpt lat="44.17306" lon="0.54526">
        <ele>142.069159</ele>
        <time>2021-08-22T07:36:25.063Z</time>
      </trkpt>
      <trkpt lat="44.173" lon="0.54515">
        <ele>143.143209</ele>
        <time>2021-08-22T07:36:31.072Z</time>
      </trkpt>
      <trkpt lat="44.17294" lon="0.54505">
        <ele>144.091269</ele>
        <time>2021-08-22T07:36:36.073Z</time>
      </trkpt>
      <trkpt lat="44.17275" lon="0.54507">
        <ele>145.991026</ele>
        <time>2021-08-22T07:36:58.075Z</time>
      </trkpt>
      <trkpt lat="44.17261" lon="0.54518">
        <ele>147.590494</ele>
        <time>2021-08-22T07:37:16.066Z</time>
      </trkpt>
      <trkpt lat="44.17253" lon="0.54524">
        <ele>148.523709</ele>
        <time>2021-08-22T07:37:21.074Z</time>
      </trkpt>
      <trkpt lat="44.17243" lon="0.54531">
        <ele>149.601426</ele>
        <time>2021-08-22T07:37:26.069Z</time>
      </trkpt>
      <trkpt lat="44.17233" lon="0.54537">
        <ele>150.712093</ele>
        <time>2021-08-22T07:37:30.085Z</time>
      </trkpt>
      <trkpt lat="44.17223" lon="0.54544">
        <ele>151.783547</ele>
        <time>2021-08-22T07:37:34.066Z</time>
      </trkpt>
      <trkpt lat="44.17214" lon="0.54551">
        <ele>152.856753</ele>
        <time>2021-08-22T07:37:38.073Z</time>
      </trkpt>
      <trkpt lat="44.17205" lon="0.54555">
        <ele>153.833147</ele>
        <time>2021-08-22T07:37:42.079Z</time>
      </trkpt>
      <trkpt lat="44.17193" lon="0.54558">
        <ele>155.05201</ele>
        <time>2021-08-22T07:37:46.069Z</time>
      </trkpt>
      <trkpt lat="44.17183" lon="0.54559">
        <ele>156.012972</ele>
        <time>2021-08-22T07:37:48.059Z</time>
      </trkpt>
      <trkpt lat="44.17173" lon="0.54556">
        <ele>156.99402</ele>
        <time>2021-08-22T07:37:52.075Z</time>
      </trkpt>
      <trkpt lat="44.17164" lon="0.5455">
        <ele>158.071598</ele>
        <time>2021-08-22T07:37:57.063Z</time>
      </trkpt>
      <trkpt lat="44.17156" lon="0.54541">
        <ele>159.051279</ele>
        <time>2021-08-22T07:38:02.071Z</time>
      </trkpt>
      <trkpt lat="44.1715" lon="0.54529">
        <ele>160.091882</ele>
        <time>2021-08-22T07:38:08.062Z</time>
      </trkpt>
      <trkpt lat="44.17142" lon="0.5452">
        <ele>161.098208</ele>
        <time>2021-08-22T07:38:11.084Z</time>
      </trkpt>
      <trkpt lat="44.17139" lon="0.54507">
        <ele>162.083668</ele>
        <time>2021-08-22T07:38:18.073Z</time>
      </trkpt>
      <trkpt lat="44.17135" lon="0.54493">
        <ele>162.884264</ele>
        <time>2021-08-22T07:38:24.068Z</time>
      </trkpt>
      <trkpt lat="44.17132" lon="0.54481">
        <ele>162.797543</ele>
        <time>2021-08-22T07:38:28.066Z</time>
      </trkpt>
      <trkpt lat="44.17131" lon="0.54467">
        <ele>162.706159</ele>
        <time>2021-08-22T07:38:32.071Z</time>
      </trkpt>
      <trkpt lat="44.17129" lon="0.54455">
        <ele>162.620372</ele>
        <time>2021-08-22T07:38:36.067Z</time>
      </trkpt>
      <trkpt lat="44.17129" lon="0.54441">
        <ele>162.523766</ele>
        <time>2021-08-22T07:38:40.075Z</time>
      </trkpt>
      <trkpt lat="44.1713" lon="0.54426">
        <ele>162.421437</ele>
        <time>2021-08-22T07:38:44.062Z</time>
      </trkpt>
      <trkpt lat="44.17131" lon="0.54411">
        <ele>162.319175</ele>
        <time>2021-08-22T07:38:49.075Z</time>
      </trkpt>
      <trkpt lat="44.17132" lon="0.54395">
        <ele>162.209458</ele>
        <time>2021-08-22T07:38:53.065Z</time>
      </trkpt>
      <trkpt lat="44.17133" lon="0.54382">
        <ele>162.114558</ele>
        <time>2021-08-22T07:38:56.073Z</time>
      </trkpt>
      <trkpt lat="44.17133" lon="0.54366">
        <ele>162.009087</ele>
        <time>2021-08-22T07:38:59.068Z</time>
      </trkpt>
      <trkpt lat="44.17134" lon="0.5435">
        <ele>161.89773</ele>
        <time>2021-08-22T07:39:03.073Z</time>
      </trkpt>
      <trkpt lat="44.17136" lon="0.54336">
        <ele>161.803187</ele>
        <time>2021-08-22T07:39:06.069Z</time>
      </trkpt>
      <trkpt lat="44.17137" lon="0.54319">
        <ele>161.683885</ele>
        <time>2021-08-22T07:39:09.072Z</time>
      </trkpt>
      <trkpt lat="44.17136" lon="0.54303">
        <ele>161.572873</ele>
        <time>2021-08-22T07:39:11.066Z</time>
      </trkpt>
      <trkpt lat="44.17135" lon="0.54284">
        <ele>161.445261</ele>
        <time>2021-08-22T07:39:13.067Z</time>
      </trkpt>
      <trkpt lat="44.17134" lon="0.54263">
        <ele>161.299739</ele>
        <time>2021-08-22T07:39:15.070Z</time>
      </trkpt>
      <trkpt lat="44.17131" lon="0.54242">
        <ele>161.36628</ele>
        <time>2021-08-22T07:39:17.068Z</time>
      </trkpt>
      <trkpt lat="44.17126" lon="0.54224">
        <ele>161.964935</ele>
        <time>2021-08-22T07:39:19.071Z</time>
      </trkpt>
      <trkpt lat="44.17121" lon="0.54206">
        <ele>162.562115</ele>
        <time>2021-08-22T07:39:21.075Z</time>
      </trkpt>
      <trkpt lat="44.17116" lon="0.54188">
        <ele>163.151931</ele>
        <time>2021-08-22T07:39:23.067Z</time>
      </trkpt>
      <trkpt lat="44.17111" lon="0.54171">
        <ele>163.731041</ele>
        <time>2021-08-22T07:39:25.074Z</time>
      </trkpt>
      <trkpt lat="44.17105" lon="0.54156">
        <ele>164.248489</ele>
        <time>2021-08-22T07:39:27.071Z</time>
      </trkpt>
      <trkpt lat="44.17099" lon="0.54146">
        <ele>164.673899</ele>
        <time>2021-08-22T07:39:29.072Z</time>
      </trkpt>
      <trkpt lat="44.17092" lon="0.54137">
        <ele>165.074999</ele>
        <time>2021-08-22T07:39:31.067Z</time>
      </trkpt>
      <trkpt lat="44.17087" lon="0.54122">
        <ele>165.606965</ele>
        <time>2021-08-22T07:39:34.068Z</time>
      </trkpt>
      <trkpt lat="44.17086" lon="0.54107">
        <ele>166.067393</ele>
        <time>2021-08-22T07:39:37.064Z</time>
      </trkpt>
      <trkpt lat="44.17087" lon="0.54094">
        <ele>166.474853</ele>
        <time>2021-08-22T07:39:40.060Z</time>
      </trkpt>
      <trkpt lat="44.17086" lon="0.54078">
        <ele>166.960773</ele>
        <time>2021-08-22T07:39:44.070Z</time>
      </trkpt>
      <trkpt lat="44.17087" lon="0.54058">
        <ele>167.585079</ele>
        <time>2021-08-22T07:39:48.085Z</time>
      </trkpt>
      <trkpt lat="44.17094" lon="0.5405">
        <ele>167.977777</ele>
        <time>2021-08-22T07:39:52.073Z</time>
      </trkpt>
      <trkpt lat="44.17103" lon="0.54044">
        <ele>168.411639</ele>
        <time>2021-08-22T07:39:56.077Z</time>
      </trkpt>
      <trkpt lat="44.17113" lon="0.54037">
        <ele>168.903796</ele>
        <time>2021-08-22T07:40:02.072Z</time>
      </trkpt>
      <trkpt lat="44.1712" lon="0.54029">
        <ele>169.887095</ele>
        <time>2021-08-22T07:40:08.074Z</time>
      </trkpt>
      <trkpt lat="44.17118" lon="0.54015">
        <ele>171.182965</ele>
        <time>2021-08-22T07:40:15.073Z</time>
      </trkpt>
      <trkpt lat="44.17115" lon="0.54002">
        <ele>172.445974</ele>
        <time>2021-08-22T07:40:21.072Z</time>
      </trkpt>
      <trkpt lat="44.17111" lon="0.53989">
        <ele>173.73309</ele>
        <time>2021-08-22T07:40:27.071Z</time>
      </trkpt>
      <trkpt lat="44.17107" lon="0.53974">
        <ele>175.11573</ele>
        <time>2021-08-22T07:40:33.073Z</time>
      </trkpt>
      <trkpt lat="44.17105" lon="0.53962">
        <ele>176.253564</ele>
        <time>2021-08-22T07:40:38.076Z</time>
      </trkpt>
      <trkpt lat="44.17102" lon="0.53949">
        <ele>177.508559</ele>
        <time>2021-08-22T07:40:44.073Z</time>
      </trkpt>
      <trkpt lat="44.17099" lon="0.53936">
        <ele>178.728694</ele>
        <time>2021-08-22T07:40:50.070Z</time>
      </trkpt>
      <trkpt lat="44.17095" lon="0.53924">
        <ele>179.950841</ele>
        <time>2021-08-22T07:40:56.076Z</time>
      </trkpt>
      <trkpt lat="44.17091" lon="0.5391">
        <ele>181.261519</ele>
        <time>2021-08-22T07:41:01.078Z</time>
      </trkpt>
      <trkpt lat="44.17087" lon="0.53898">
        <ele>182.515537</ele>
        <time>2021-08-22T07:41:07.076Z</time>
      </trkpt>
      <trkpt lat="44.17084" lon="0.53886">
        <ele>183.689026</ele>
        <time>2021-08-22T07:41:13.066Z</time>
      </trkpt>
      <trkpt lat="44.1708" lon="0.53872">
        <ele>184.977444</ele>
        <time>2021-08-22T07:41:20.072Z</time>
      </trkpt>
      <trkpt lat="44.17078" lon="0.53856">
        <ele>186.476017</ele>
        <time>2021-08-22T07:41:25.068Z</time>
      </trkpt>
      <trkpt lat="44.17076" lon="0.53842">
        <ele>187.752053</ele>
        <time>2021-08-22T07:41:31.062Z</time>
      </trkpt>
      <trkpt lat="44.17072" lon="0.53827">
        <ele>189.258472</ele>
        <time>2021-08-22T07:41:38.064Z</time>
      </trkpt>
      <trkpt lat="44.17071" lon="0.53814">
        <ele>190.432023</ele>
        <time>2021-08-22T07:41:43.076Z</time>
      </trkpt>
      <trkpt lat="44.17071" lon="0.53799">
        <ele>191.716671</ele>
        <time>2021-08-22T07:41:49.067Z</time>
      </trkpt>
      <trkpt lat="44.1707" lon="0.53786">
        <ele>192.121819</ele>
        <time>2021-08-22T07:41:55.070Z</time>
      </trkpt>
      <trkpt lat="44.17068" lon="0.53773">
        <ele>192.530656</ele>
        <time>2021-08-22T07:42:00.069Z</time>
      </trkpt>
      <trkpt lat="44.17066" lon="0.53761">
        <ele>192.921805</ele>
        <time>2021-08-22T07:42:07.064Z</time>
      </trkpt>
      <trkpt lat="44.17066" lon="0.53746">
        <ele>193.378982</ele>
        <time>2021-08-22T07:42:13.068Z</time>
      </trkpt>
      <trkpt lat="44.17065" lon="0.53733">
        <ele>193.782262</ele>
        <time>2021-08-22T07:42:17.070Z</time>
      </trkpt>
      <trkpt lat="44.17064" lon="0.53718">
        <ele>194.243697</ele>
        <time>2021-08-22T07:42:23.077Z</time>
      </trkpt>
      <trkpt lat="44.17064" lon="0.53704">
        <ele>194.67678</ele>
        <time>2021-08-22T07:42:28.072Z</time>
      </trkpt>
      <trkpt lat="44.17064" lon="0.5369">
        <ele>195.089283</ele>
        <time>2021-08-22T07:42:33.075Z</time>
      </trkpt>
      <trkpt lat="44.17065" lon="0.53677">
        <ele>195.505216</ele>
        <time>2021-08-22T07:42:38.076Z</time>
      </trkpt>
      <trkpt lat="44.17065" lon="0.53664">
        <ele>195.910184</ele>
        <time>2021-08-22T07:42:44.073Z</time>
      </trkpt>
      <trkpt lat="44.17064" lon="0.5365">
        <ele>196.329172</ele>
        <time>2021-08-22T07:42:51.070Z</time>
      </trkpt>
      <trkpt lat="44.17062" lon="0.53637">
        <ele>196.74995</ele>
        <time>2021-08-22T07:42:59.074Z</time>
      </trkpt>
      <trkpt lat="44.1706" lon="0.53625">
        <ele>197.137449</ele>
        <time>2021-08-22T07:43:06.072Z</time>
      </trkpt>
      <trkpt lat="44.17056" lon="0.53612">
        <ele>197.561905</ele>
        <time>2021-08-22T07:43:12.078Z</time>
      </trkpt>
      <trkpt lat="44.17054" lon="0.53598">
        <ele>197.990806</ele>
        <time>2021-08-22T07:43:20.075Z</time>
      </trkpt>
      <trkpt lat="44.1705" lon="0.53586">
        <ele>198.40119</ele>
        <time>2021-08-22T07:43:29.076Z</time>
      </trkpt>
      <trkpt lat="44.1705" lon="0.53573">
        <ele>198.794074</ele>
        <time>2021-08-22T07:43:47.077Z</time>
      </trkpt>
      <trkpt lat="44.17047" lon="0.53585">
        <ele>199.178213</ele>
        <time>2021-08-22T07:44:12.082Z</time>
      </trkpt>
      <trkpt lat="44.17052" lon="0.53573">
        <ele>199.120589</ele>
        <time>2021-08-22T07:44:43.079Z</time>
      </trkpt>
      <trkpt lat="44.17049" lon="0.53555">
        <ele>198.226428</ele>
        <time>2021-08-22T07:52:36.085Z</time>
      </trkpt>
      <trkpt lat="44.17045" lon="0.53539">
        <ele>197.458583</ele>
        <time>2021-08-22T07:52:39.064Z</time>
      </trkpt>
      <trkpt lat="44.17041" lon="0.53523">
        <ele>196.653259</ele>
        <time>2021-08-22T07:52:41.072Z</time>
      </trkpt>
      <trkpt lat="44.17035" lon="0.53502">
        <ele>195.571373</ele>
        <time>2021-08-22T07:52:43.074Z</time>
      </trkpt>
      <trkpt lat="44.17031" lon="0.53489">
        <ele>194.938306</ele>
        <time>2021-08-22T07:52:44.075Z</time>
      </trkpt>
      <trkpt lat="44.17027" lon="0.53477">
        <ele>194.303618</ele>
        <time>2021-08-22T07:52:45.078Z</time>
      </trkpt>
      <trkpt lat="44.17023" lon="0.53464">
        <ele>193.654242</ele>
        <time>2021-08-22T07:52:46.084Z</time>
      </trkpt>
      <trkpt lat="44.1702" lon="0.53452">
        <ele>193.049433</ele>
        <time>2021-08-22T07:52:47.079Z</time>
      </trkpt>
      <trkpt lat="44.17012" lon="0.5343">
        <ele>191.886393</ele>
        <time>2021-08-22T07:52:49.086Z</time>
      </trkpt>
      <trkpt lat="44.17004" lon="0.5341">
        <ele>190.842933</ele>
        <time>2021-08-22T07:52:51.075Z</time>
      </trkpt>
      <trkpt lat="44.16996" lon="0.53391">
        <ele>189.781742</ele>
        <time>2021-08-22T07:52:53.079Z</time>
      </trkpt>
      <trkpt lat="44.16993" lon="0.53379">
        <ele>189.186001</ele>
        <time>2021-08-22T07:52:54.071Z</time>
      </trkpt>
      <trkpt lat="44.1699" lon="0.53366">
        <ele>188.534376</ele>
        <time>2021-08-22T07:52:55.071Z</time>
      </trkpt>
      <trkpt lat="44.16987" lon="0.53352">
        <ele>187.869908</ele>
        <time>2021-08-22T07:52:56.073Z</time>
      </trkpt>
      <trkpt lat="44.16984" lon="0.53338">
        <ele>186.656137</ele>
        <time>2021-08-22T07:52:57.073Z</time>
      </trkpt>
      <trkpt lat="44.16981" lon="0.53324">
        <ele>185.223886</ele>
        <time>2021-08-22T07:52:58.064Z</time>
      </trkpt>
      <trkpt lat="44.16979" lon="0.53311">
        <ele>183.87362</ele>
        <time>2021-08-22T07:52:59.070Z</time>
      </trkpt>
      <trkpt lat="44.16974" lon="0.5329">
        <ele>181.640779</ele>
        <time>2021-08-22T07:53:01.068Z</time>
      </trkpt>
      <trkpt lat="44.16972" lon="0.53274">
        <ele>180.058152</ele>
        <time>2021-08-22T07:53:03.071Z</time>
      </trkpt>
      <trkpt lat="44.16976" lon="0.53262">
        <ele>178.727441</ele>
        <time>2021-08-22T07:53:05.067Z</time>
      </trkpt>
      <trkpt lat="44.16984" lon="0.53252">
        <ele>177.279047</ele>
        <time>2021-08-22T07:53:07.070Z</time>
      </trkpt>
      <trkpt lat="44.16992" lon="0.53241">
        <ele>175.728571</ele>
        <time>2021-08-22T07:53:09.069Z</time>
      </trkpt>
      <trkpt lat="44.16999" lon="0.53227">
        <ele>173.975687</ele>
        <time>2021-08-22T07:53:11.064Z</time>
      </trkpt>
      <trkpt lat="44.17007" lon="0.5321">
        <ele>171.970653</ele>
        <time>2021-08-22T07:53:13.063Z</time>
      </trkpt>
      <trkpt lat="44.17017" lon="0.53191">
        <ele>169.657826</ele>
        <time>2021-08-22T07:53:15.078Z</time>
      </trkpt>
      <trkpt lat="44.17024" lon="0.53175">
        <ele>167.766665</ele>
        <time>2021-08-22T07:53:17.067Z</time>
      </trkpt>
      <trkpt lat="44.17029" lon="0.53164">
        <ele>166.456511</ele>
        <time>2021-08-22T07:53:19.073Z</time>
      </trkpt>
      <trkpt lat="44.17034" lon="0.53152">
        <ele>165.083859</ele>
        <time>2021-08-22T07:53:21.062Z</time>
      </trkpt>
      <trkpt lat="44.17042" lon="0.53141">
        <ele>163.536353</ele>
        <time>2021-08-22T07:53:25.070Z</time>
      </trkpt>
      <trkpt lat="44.17051" lon="0.53129">
        <ele>161.936268</ele>
        <time>2021-08-22T07:53:28.067Z</time>
      </trkpt>
      <trkpt lat="44.17058" lon="0.5312">
        <ele>160.843827</ele>
        <time>2021-08-22T07:53:30.065Z</time>
      </trkpt>
      <trkpt lat="44.17068" lon="0.53112">
        <ele>159.499693</ele>
        <time>2021-08-22T07:53:32.067Z</time>
      </trkpt>
      <trkpt lat="44.17081" lon="0.53104">
        <ele>157.912822</ele>
        <time>2021-08-22T07:53:34.074Z</time>
      </trkpt>
      <trkpt lat="44.17096" lon="0.53097">
        <ele>156.150864</ele>
        <time>2021-08-22T07:53:36.070Z</time>
      </trkpt>
      <trkpt lat="44.17113" lon="0.53094">
        <ele>154.182385</ele>
        <time>2021-08-22T07:53:38.068Z</time>
      </trkpt>
      <trkpt lat="44.17131" lon="0.53095">
        <ele>152.195962</ele>
        <time>2021-08-22T07:53:40.067Z</time>
      </trkpt>
      <trkpt lat="44.17147" lon="0.53097">
        <ele>150.35369</ele>
        <time>2021-08-22T07:53:42.066Z</time>
      </trkpt>
      <trkpt lat="44.17161" lon="0.53102">
        <ele>148.803668</ele>
        <time>2021-08-22T07:53:44.073Z</time>
      </trkpt>
      <trkpt lat="44.17171" lon="0.53101">
        <ele>147.652418</ele>
        <time>2021-08-22T07:53:46.076Z</time>
      </trkpt>
      <trkpt lat="44.17178" lon="0.53088">
        <ele>146.284255</ele>
        <time>2021-08-22T07:53:48.074Z</time>
      </trkpt>
      <trkpt lat="44.17181" lon="0.53061">
        <ele>144.100994</ele>
        <time>2021-08-22T07:53:50.066Z</time>
      </trkpt>
      <trkpt lat="44.17182" lon="0.53045">
        <ele>142.763658</ele>
        <time>2021-08-22T07:53:51.062Z</time>
      </trkpt>
      <trkpt lat="44.17182" lon="0.53027">
        <ele>141.80337</ele>
        <time>2021-08-22T07:53:52.066Z</time>
      </trkpt>
      <trkpt lat="44.17182" lon="0.53009">
        <ele>141.005103</ele>
        <time>2021-08-22T07:53:53.069Z</time>
      </trkpt>
      <trkpt lat="44.17183" lon="0.5299">
        <ele>140.20608</ele>
        <time>2021-08-22T07:53:54.069Z</time>
      </trkpt>
      <trkpt lat="44.17184" lon="0.52973">
        <ele>139.428708</ele>
        <time>2021-08-22T07:53:55.074Z</time>
      </trkpt>
      <trkpt lat="44.17185" lon="0.52955">
        <ele>138.663108</ele>
        <time>2021-08-22T07:53:56.068Z</time>
      </trkpt>
      <trkpt lat="44.17186" lon="0.52938">
        <ele>137.923081</ele>
        <time>2021-08-22T07:53:57.066Z</time>
      </trkpt>
      <trkpt lat="44.17189" lon="0.52922">
        <ele>137.199033</ele>
        <time>2021-08-22T07:53:58.070Z</time>
      </trkpt>
      <trkpt lat="44.17192" lon="0.52907">
        <ele>136.537907</ele>
        <time>2021-08-22T07:53:59.063Z</time>
      </trkpt>
      <trkpt lat="44.17193" lon="0.52893">
        <ele>135.938643</ele>
        <time>2021-08-22T07:54:00.067Z</time>
      </trkpt>
      <trkpt lat="44.17192" lon="0.5288">
        <ele>135.372289</ele>
        <time>2021-08-22T07:54:01.069Z</time>
      </trkpt>
      <trkpt lat="44.1719" lon="0.52868">
        <ele>134.808484</ele>
        <time>2021-08-22T07:54:02.065Z</time>
      </trkpt>
      <trkpt lat="44.17185" lon="0.52845">
        <ele>133.785229</ele>
        <time>2021-08-22T07:54:04.065Z</time>
      </trkpt>
      <trkpt lat="44.1718" lon="0.52827">
        <ele>132.942232</ele>
        <time>2021-08-22T07:54:06.074Z</time>
      </trkpt>
      <trkpt lat="44.17177" lon="0.52811">
        <ele>132.225089</ele>
        <time>2021-08-22T07:54:08.075Z</time>
      </trkpt>
      <trkpt lat="44.17176" lon="0.52798">
        <ele>131.640872</ele>
        <time>2021-08-22T07:54:10.065Z</time>
      </trkpt>
      <trkpt lat="44.17177" lon="0.52781">
        <ele>131.907449</ele>
        <time>2021-08-22T07:54:13.078Z</time>
      </trkpt>
      <trkpt lat="44.17182" lon="0.52769">
        <ele>132.44345</ele>
        <time>2021-08-22T07:54:16.074Z</time>
      </trkpt>
      <trkpt lat="44.17193" lon="0.52763">
        <ele>133.033338</ele>
        <time>2021-08-22T07:54:20.072Z</time>
      </trkpt>
      <trkpt lat="44.17202" lon="0.52759">
        <ele>133.53479</ele>
        <time>2021-08-22T07:54:24.076Z</time>
      </trkpt>
      <trkpt lat="44.17211" lon="0.52754">
        <ele>134.039904</ele>
        <time>2021-08-22T07:54:29.066Z</time>
      </trkpt>
      <trkpt lat="44.17221" lon="0.52749">
        <ele>134.629408</ele>
        <time>2021-08-22T07:54:35.075Z</time>
      </trkpt>
      <trkpt lat="44.17232" lon="0.52746">
        <ele>135.211472</ele>
        <time>2021-08-22T07:54:39.063Z</time>
      </trkpt>
      <trkpt lat="44.17241" lon="0.52744">
        <ele>135.693169</ele>
        <time>2021-08-22T07:54:43.077Z</time>
      </trkpt>
      <trkpt lat="44.17251" lon="0.52744">
        <ele>136.184153</ele>
        <time>2021-08-22T07:54:47.072Z</time>
      </trkpt>
      <trkpt lat="44.1726" lon="0.52746">
        <ele>136.71025</ele>
        <time>2021-08-22T07:54:51.072Z</time>
      </trkpt>
      <trkpt lat="44.1727" lon="0.52746">
        <ele>137.238344</ele>
        <time>2021-08-22T07:54:55.072Z</time>
      </trkpt>
      <trkpt lat="44.1728" lon="0.52747">
        <ele>137.750511</ele>
        <time>2021-08-22T07:54:59.077Z</time>
      </trkpt>
      <trkpt lat="44.17291" lon="0.52746">
        <ele>138.326905</ele>
        <time>2021-08-22T07:55:03.079Z</time>
      </trkpt>
      <trkpt lat="44.17301" lon="0.52744">
        <ele>138.835258</ele>
        <time>2021-08-22T07:55:06.063Z</time>
      </trkpt>
      <trkpt lat="44.1731" lon="0.5274">
        <ele>139.33067</ele>
        <time>2021-08-22T07:55:09.064Z</time>
      </trkpt>
      <trkpt lat="44.1732" lon="0.52735">
        <ele>139.915185</ele>
        <time>2021-08-22T07:55:13.069Z</time>
      </trkpt>
      <trkpt lat="44.17328" lon="0.5273">
        <ele>140.398678</ele>
        <time>2021-08-22T07:55:16.069Z</time>
      </trkpt>
      <trkpt lat="44.17337" lon="0.52725">
        <ele>140.884913</ele>
        <time>2021-08-22T07:55:19.071Z</time>
      </trkpt>
      <trkpt lat="44.17348" lon="0.5272">
        <ele>140.724997</ele>
        <time>2021-08-22T07:55:23.070Z</time>
      </trkpt>
      <trkpt lat="44.17358" lon="0.52716">
        <ele>140.530642</ele>
        <time>2021-08-22T07:55:26.068Z</time>
      </trkpt>
      <trkpt lat="44.17372" lon="0.52718">
        <ele>140.277664</ele>
        <time>2021-08-22T07:55:29.072Z</time>
      </trkpt>
      <trkpt lat="44.17382" lon="0.52723">
        <ele>140.077285</ele>
        <time>2021-08-22T07:55:31.062Z</time>
      </trkpt>
      <trkpt lat="44.17393" lon="0.52728">
        <ele>139.854186</ele>
        <time>2021-08-22T07:55:33.062Z</time>
      </trkpt>
      <trkpt lat="44.17405" lon="0.52729">
        <ele>139.629334</ele>
        <time>2021-08-22T07:55:35.064Z</time>
      </trkpt>
      <trkpt lat="44.17419" lon="0.52729">
        <ele>139.356464</ele>
        <time>2021-08-22T07:55:37.070Z</time>
      </trkpt>
      <trkpt lat="44.17436" lon="0.52733">
        <ele>139.032883</ele>
        <time>2021-08-22T07:55:39.065Z</time>
      </trkpt>
      <trkpt lat="44.17445" lon="0.52737">
        <ele>138.854726</ele>
        <time>2021-08-22T07:55:40.064Z</time>
      </trkpt>
      <trkpt lat="44.17454" lon="0.52744">
        <ele>138.67459</ele>
        <time>2021-08-22T07:55:41.069Z</time>
      </trkpt>
      <trkpt lat="44.17462" lon="0.52751">
        <ele>138.495963</ele>
        <time>2021-08-22T07:55:42.065Z</time>
      </trkpt>
      <trkpt lat="44.1747" lon="0.52758">
        <ele>138.310669</ele>
        <time>2021-08-22T07:55:43.082Z</time>
      </trkpt>
      <trkpt lat="44.17478" lon="0.52766">
        <ele>138.122299</ele>
        <time>2021-08-22T07:55:44.062Z</time>
      </trkpt>
      <trkpt lat="44.17486" lon="0.52774">
        <ele>137.939939</ele>
        <time>2021-08-22T07:55:45.093Z</time>
      </trkpt>
      <trkpt lat="44.17495" lon="0.52779">
        <ele>137.765263</ele>
        <time>2021-08-22T07:55:46.085Z</time>
      </trkpt>
      <trkpt lat="44.17511" lon="0.5278">
        <ele>137.507211</ele>
        <time>2021-08-22T07:55:48.072Z</time>
      </trkpt>
      <trkpt lat="44.17526" lon="0.52777">
        <ele>137.389013</ele>
        <time>2021-08-22T07:55:50.082Z</time>
      </trkpt>
      <trkpt lat="44.1754" lon="0.52773">
        <ele>137.285774</ele>
        <time>2021-08-22T07:55:52.086Z</time>
      </trkpt>
      <trkpt lat="44.1755" lon="0.52768">
        <ele>137.20044</ele>
        <time>2021-08-22T07:55:54.080Z</time>
      </trkpt>
      <trkpt lat="44.17559" lon="0.52764">
        <ele>137.12993</ele>
        <time>2021-08-22T07:55:56.083Z</time>
      </trkpt>
      <trkpt lat="44.17572" lon="0.5276">
        <ele>137.029222</ele>
        <time>2021-08-22T07:55:59.086Z</time>
      </trkpt>
      <trkpt lat="44.17583" lon="0.52761">
        <ele>136.940449</ele>
        <time>2021-08-22T07:56:02.075Z</time>
      </trkpt>
      <trkpt lat="44.17594" lon="0.52764">
        <ele>136.85327</ele>
        <time>2021-08-22T07:56:05.082Z</time>
      </trkpt>
      <trkpt lat="44.17605" lon="0.52769">
        <ele>136.765273</ele>
        <time>2021-08-22T07:56:08.085Z</time>
      </trkpt>
      <trkpt lat="44.17616" lon="0.52772">
        <ele>136.677699</ele>
        <time>2021-08-22T07:56:11.082Z</time>
      </trkpt>
      <trkpt lat="44.17628" lon="0.52777">
        <ele>136.582566</ele>
        <time>2021-08-22T07:56:14.112Z</time>
      </trkpt>
      <trkpt lat="44.1764" lon="0.52781">
        <ele>136.48459</ele>
        <time>2021-08-22T07:56:17.086Z</time>
      </trkpt>
      <trkpt lat="44.17649" lon="0.52785">
        <ele>136.411155</ele>
        <time>2021-08-22T07:56:19.070Z</time>
      </trkpt>
      <trkpt lat="44.17659" lon="0.52788">
        <ele>136.33534</ele>
        <time>2021-08-22T07:56:21.088Z</time>
      </trkpt>
      <trkpt lat="44.17669" lon="0.52792">
        <ele>136.253543</ele>
        <time>2021-08-22T07:56:23.078Z</time>
      </trkpt>
      <trkpt lat="44.1768" lon="0.52795">
        <ele>136.169233</ele>
        <time>2021-08-22T07:56:25.096Z</time>
      </trkpt>
      <trkpt lat="44.17691" lon="0.52799">
        <ele>137.65893</ele>
        <time>2021-08-22T07:56:27.088Z</time>
      </trkpt>
      <trkpt lat="44.17702" lon="0.52803">
        <ele>139.283151</ele>
        <time>2021-08-22T07:56:29.087Z</time>
      </trkpt>
      <trkpt lat="44.17712" lon="0.52806">
        <ele>140.619565</ele>
        <time>2021-08-22T07:56:31.071Z</time>
      </trkpt>
      <trkpt lat="44.1772" lon="0.52808">
        <ele>141.907334</ele>
        <time>2021-08-22T07:56:34.077Z</time>
      </trkpt>
      <trkpt lat="44.17718" lon="0.52794">
        <ele>143.440947</ele>
        <time>2021-08-22T07:57:58.071Z</time>
      </trkpt>
      <trkpt lat="44.17711" lon="0.52784">
        <ele>144.840224</ele>
        <time>2021-08-22T07:58:03.064Z</time>
      </trkpt>
      <trkpt lat="44.17706" lon="0.52772">
        <ele>146.332659</ele>
        <time>2021-08-22T07:58:09.076Z</time>
      </trkpt>
      <trkpt lat="44.177" lon="0.52762">
        <ele>147.659924</ele>
        <time>2021-08-22T07:58:12.080Z</time>
      </trkpt>
      <trkpt lat="44.17698" lon="0.52748">
        <ele>149.130458</ele>
        <time>2021-08-22T07:58:18.069Z</time>
      </trkpt>
      <trkpt lat="44.17696" lon="0.52735">
        <ele>150.509525</ele>
        <time>2021-08-22T07:58:23.071Z</time>
      </trkpt>
      <trkpt lat="44.17693" lon="0.52723">
        <ele>151.828004</ele>
        <time>2021-08-22T07:58:31.068Z</time>
      </trkpt>
      <trkpt lat="44.17687" lon="0.52711">
        <ele>153.260677</ele>
        <time>2021-08-22T07:58:39.069Z</time>
      </trkpt>
      <trkpt lat="44.17681" lon="0.52702">
        <ele>154.590736</ele>
        <time>2021-08-22T07:58:46.072Z</time>
      </trkpt>
      <trkpt lat="44.17675" lon="0.52692">
        <ele>155.893095</ele>
        <time>2021-08-22T07:58:53.068Z</time>
      </trkpt>
      <trkpt lat="44.17669" lon="0.52682">
        <ele>157.228296</ele>
        <time>2021-08-22T07:59:00.061Z</time>
      </trkpt>
      <trkpt lat="44.17666" lon="0.52669">
        <ele>158.57945</ele>
        <time>2021-08-22T07:59:09.072Z</time>
      </trkpt>
      <trkpt lat="44.17665" lon="0.52656">
        <ele>159.931374</ele>
        <time>2021-08-22T07:59:17.074Z</time>
      </trkpt>
      <trkpt lat="44.17662" lon="0.5264">
        <ele>161.699535</ele>
        <time>2021-08-22T07:59:26.069Z</time>
      </trkpt>
      <trkpt lat="44.17661" lon="0.52627">
        <ele>162.780208</ele>
        <time>2021-08-22T07:59:37.069Z</time>
      </trkpt>
      <trkpt lat="44.17659" lon="0.52613">
        <ele>163.884641</ele>
        <time>2021-08-22T07:59:46.077Z</time>
      </trkpt>
      <trkpt lat="44.17657" lon="0.52598">
        <ele>165.153224</ele>
        <time>2021-08-22T07:59:53.061Z</time>
      </trkpt>
      <trkpt lat="44.17659" lon="0.52586">
        <ele>166.196706</ele>
        <time>2021-08-22T08:00:02.062Z</time>
      </trkpt>
      <trkpt lat="44.17661" lon="0.52572">
        <ele>167.331632</ele>
        <time>2021-08-22T08:00:10.071Z</time>
      </trkpt>
      <trkpt lat="44.17665" lon="0.52559">
        <ele>168.41831</ele>
        <time>2021-08-22T08:00:18.065Z</time>
      </trkpt>
      <trkpt lat="44.17668" lon="0.52546">
        <ele>169.531694</ele>
        <time>2021-08-22T08:00:26.074Z</time>
      </trkpt>
      <trkpt lat="44.17672" lon="0.52533">
        <ele>170.695726</ele>
        <time>2021-08-22T08:00:33.072Z</time>
      </trkpt>
      <trkpt lat="44.17675" lon="0.52521">
        <ele>171.737796</ele>
        <time>2021-08-22T08:00:40.067Z</time>
      </trkpt>
      <trkpt lat="44.17676" lon="0.52507">
        <ele>172.854586</ele>
        <time>2021-08-22T08:00:48.071Z</time>
      </trkpt>
      <trkpt lat="44.17677" lon="0.52493">
        <ele>174.015767</ele>
        <time>2021-08-22T08:00:56.071Z</time>
      </trkpt>
      <trkpt lat="44.17677" lon="0.5248">
        <ele>175.085118</ele>
        <time>2021-08-22T08:01:03.064Z</time>
      </trkpt>
      <trkpt lat="44.17678" lon="0.52467">
        <ele>176.164503</ele>
        <time>2021-08-22T08:01:10.070Z</time>
      </trkpt>
      <trkpt lat="44.17678" lon="0.52453">
        <ele>177.274877</ele>
        <time>2021-08-22T08:01:17.074Z</time>
      </trkpt>
      <trkpt lat="44.17679" lon="0.52438">
        <ele>178.450899</ele>
        <time>2021-08-22T08:01:24.069Z</time>
      </trkpt>
      <trkpt lat="44.17679" lon="0.52425">
        <ele>179.570282</ele>
        <time>2021-08-22T08:01:31.067Z</time>
      </trkpt>
      <trkpt lat="44.1768" lon="0.52411">
        <ele>180.665721</ele>
        <time>2021-08-22T08:01:38.074Z</time>
      </trkpt>
      <trkpt lat="44.17681" lon="0.52398">
        <ele>181.712293</ele>
        <time>2021-08-22T08:01:45.081Z</time>
      </trkpt>
      <trkpt lat="44.17682" lon="0.52384">
        <ele>182.650778</ele>
        <time>2021-08-22T08:01:53.067Z</time>
      </trkpt>
      <trkpt lat="44.17683" lon="0.52371">
        <ele>183.452008</ele>
        <time>2021-08-22T08:02:00.072Z</time>
      </trkpt>
      <trkpt lat="44.17685" lon="0.52358">
        <ele>184.225598</ele>
        <time>2021-08-22T08:02:06.070Z</time>
      </trkpt>
      <trkpt lat="44.17686" lon="0.52345">
        <ele>184.985964</ele>
        <time>2021-08-22T08:02:13.068Z</time>
      </trkpt>
      <trkpt lat="44.17688" lon="0.52331">
        <ele>185.784017</ele>
        <time>2021-08-22T08:02:20.074Z</time>
      </trkpt>
      <trkpt lat="44.17688" lon="0.52318">
        <ele>186.570539</ele>
        <time>2021-08-22T08:02:26.076Z</time>
      </trkpt>
      <trkpt lat="44.17687" lon="0.52305">
        <ele>187.334853</ele>
        <time>2021-08-22T08:02:33.076Z</time>
      </trkpt>
      <trkpt lat="44.17687" lon="0.52291">
        <ele>188.127185</ele>
        <time>2021-08-22T08:02:40.070Z</time>
      </trkpt>
      <trkpt lat="44.17687" lon="0.52277">
        <ele>188.947931</ele>
        <time>2021-08-22T08:02:48.074Z</time>
      </trkpt>
      <trkpt lat="44.1769" lon="0.52263">
        <ele>189.795792</ele>
        <time>2021-08-22T08:02:55.067Z</time>
      </trkpt>
      <trkpt lat="44.17695" lon="0.52252">
        <ele>190.569081</ele>
        <time>2021-08-22T08:03:01.069Z</time>
      </trkpt>
      <trkpt lat="44.177" lon="0.5224">
        <ele>191.363983</ele>
        <time>2021-08-22T08:03:07.067Z</time>
      </trkpt>
      <trkpt lat="44.17706" lon="0.52227">
        <ele>192.246314</ele>
        <time>2021-08-22T08:03:13.069Z</time>
      </trkpt>
      <trkpt lat="44.1771" lon="0.52213">
        <ele>193.140436</ele>
        <time>2021-08-22T08:03:18.073Z</time>
      </trkpt>
      <trkpt lat="44.17714" lon="0.52201">
        <ele>193.907405</ele>
        <time>2021-08-22T08:03:22.066Z</time>
      </trkpt>
      <trkpt lat="44.17716" lon="0.52188">
        <ele>194.69409</ele>
        <time>2021-08-22T08:03:26.061Z</time>
      </trkpt>
      <trkpt lat="44.17718" lon="0.52174">
        <ele>195.497308</ele>
        <time>2021-08-22T08:03:30.063Z</time>
      </trkpt>
      <trkpt lat="44.17719" lon="0.5216">
        <ele>196.358121</ele>
        <time>2021-08-22T08:03:34.074Z</time>
      </trkpt>
      <trkpt lat="44.17719" lon="0.52145">
        <ele>196.941246</ele>
        <time>2021-08-22T08:03:38.069Z</time>
      </trkpt>
      <trkpt lat="44.17719" lon="0.5213">
        <ele>197.245062</ele>
        <time>2021-08-22T08:03:42.074Z</time>
      </trkpt>
      <trkpt lat="44.17718" lon="0.52114">
        <ele>197.579215</ele>
        <time>2021-08-22T08:03:45.065Z</time>
      </trkpt>
      <trkpt lat="44.17718" lon="0.52098">
        <ele>197.92291</ele>
        <time>2021-08-22T08:03:49.066Z</time>
      </trkpt>
      <trkpt lat="44.17719" lon="0.52082">
        <ele>198.252008</ele>
        <time>2021-08-22T08:03:53.068Z</time>
      </trkpt>
      <trkpt lat="44.17716" lon="0.52067">
        <ele>198.586639</ele>
        <time>2021-08-22T08:03:57.081Z</time>
      </trkpt>
      <trkpt lat="44.17715" lon="0.52054">
        <ele>198.856024</ele>
        <time>2021-08-22T08:04:00.096Z</time>
      </trkpt>
      <trkpt lat="44.17712" lon="0.52041">
        <ele>199.143137</ele>
        <time>2021-08-22T08:04:03.079Z</time>
      </trkpt>
      <trkpt lat="44.1771" lon="0.52029">
        <ele>199.410395</ele>
        <time>2021-08-22T08:04:06.068Z</time>
      </trkpt>
      <trkpt lat="44.17709" lon="0.52012">
        <ele>199.759261</ele>
        <time>2021-08-22T08:04:10.071Z</time>
      </trkpt>
      <trkpt lat="44.1771" lon="0.51999">
        <ele>200.039423</ele>
        <time>2021-08-22T08:04:13.073Z</time>
      </trkpt>
      <trkpt lat="44.17713" lon="0.51986">
        <ele>200.330655</ele>
        <time>2021-08-22T08:04:16.063Z</time>
      </trkpt>
      <trkpt lat="44.17715" lon="0.51972">
        <ele>200.631401</ele>
        <time>2021-08-22T08:04:19.079Z</time>
      </trkpt>
      <trkpt lat="44.17719" lon="0.51958">
        <ele>200.941298</ele>
        <time>2021-08-22T08:04:22.073Z</time>
      </trkpt>
      <trkpt lat="44.17723" lon="0.51945">
        <ele>201.239975</ele>
        <time>2021-08-22T08:04:25.074Z</time>
      </trkpt>
      <trkpt lat="44.17727" lon="0.51932">
        <ele>201.540144</ele>
        <time>2021-08-22T08:04:28.072Z</time>
      </trkpt>
      <trkpt lat="44.17731" lon="0.51919">
        <ele>201.843877</ele>
        <time>2021-08-22T08:04:31.069Z</time>
      </trkpt>
      <trkpt lat="44.17735" lon="0.51907">
        <ele>202.2121</ele>
        <time>2021-08-22T08:04:34.062Z</time>
      </trkpt>
      <trkpt lat="44.17739" lon="0.51893">
        <ele>202.98564</ele>
        <time>2021-08-22T08:04:38.079Z</time>
      </trkpt>
      <trkpt lat="44.17744" lon="0.51879">
        <ele>203.732891</ele>
        <time>2021-08-22T08:04:42.074Z</time>
      </trkpt>
      <trkpt lat="44.1775" lon="0.51865">
        <ele>204.563393</ele>
        <time>2021-08-22T08:04:46.070Z</time>
      </trkpt>
      <trkpt lat="44.17756" lon="0.51852">
        <ele>205.35</ele>
        <time>2021-08-22T08:04:50.072Z</time>
      </trkpt>
      <trkpt lat="44.17762" lon="0.51839">
        <ele>206.172479</ele>
        <time>2021-08-22T08:04:54.059Z</time>
      </trkpt>
      <trkpt lat="44.17769" lon="0.51826">
        <ele>206.962292</ele>
        <time>2021-08-22T08:04:58.064Z</time>
      </trkpt>
      <trkpt lat="44.17773" lon="0.51814">
        <ele>207.650875</ele>
        <time>2021-08-22T08:05:02.068Z</time>
      </trkpt>
      <trkpt lat="44.17775" lon="0.51799">
        <ele>208.409406</ele>
        <time>2021-08-22T08:05:07.073Z</time>
      </trkpt>
      <trkpt lat="44.17771" lon="0.51786">
        <ele>209.120635</ele>
        <time>2021-08-22T08:05:11.051Z</time>
      </trkpt>
      <trkpt lat="44.17764" lon="0.51776">
        <ele>209.853569</ele>
        <time>2021-08-22T08:05:15.073Z</time>
      </trkpt>
      <trkpt lat="44.17759" lon="0.51764">
        <ele>210.547166</ele>
        <time>2021-08-22T08:05:21.070Z</time>
      </trkpt>
      <trkpt lat="44.17759" lon="0.51751">
        <ele>211.195278</ele>
        <time>2021-08-22T08:05:26.067Z</time>
      </trkpt>
      <trkpt lat="44.17763" lon="0.51737">
        <ele>211.928912</ele>
        <time>2021-08-22T08:05:31.068Z</time>
      </trkpt>
      <trkpt lat="44.17766" lon="0.51723">
        <ele>212.707771</ele>
        <time>2021-08-22T08:05:36.069Z</time>
      </trkpt>
      <trkpt lat="44.17769" lon="0.5171">
        <ele>213.411259</ele>
        <time>2021-08-22T08:05:40.065Z</time>
      </trkpt>
      <trkpt lat="44.17773" lon="0.51696">
        <ele>214.157037</ele>
        <time>2021-08-22T08:05:44.071Z</time>
      </trkpt>
      <trkpt lat="44.17776" lon="0.51683">
        <ele>214.745288</ele>
        <time>2021-08-22T08:05:48.071Z</time>
      </trkpt>
      <trkpt lat="44.17778" lon="0.51671">
        <ele>214.681405</ele>
        <time>2021-08-22T08:05:53.074Z</time>
      </trkpt>
      <trkpt lat="44.17779" lon="0.51658">
        <ele>214.612906</ele>
        <time>2021-08-22T08:06:00.074Z</time>
      </trkpt>
      <trkpt lat="44.17778" lon="0.51644">
        <ele>214.54293</ele>
        <time>2021-08-22T08:06:14.072Z</time>
      </trkpt>
      <trkpt lat="44.17783" lon="0.5163">
        <ele>214.467528</ele>
        <time>2021-08-22T08:06:21.075Z</time>
      </trkpt>
      <trkpt lat="44.17784" lon="0.51616">
        <ele>214.396541</ele>
        <time>2021-08-22T08:06:28.064Z</time>
      </trkpt>
      <trkpt lat="44.17774" lon="0.51611">
        <ele>214.325597</ele>
        <time>2021-08-22T08:06:34.061Z</time>
      </trkpt>
      <trkpt lat="44.17772" lon="0.51599">
        <ele>214.261906</ele>
        <time>2021-08-22T08:06:40.063Z</time>
      </trkpt>
      <trkpt lat="44.17773" lon="0.51585">
        <ele>214.192092</ele>
        <time>2021-08-22T08:06:44.064Z</time>
      </trkpt>
      <trkpt lat="44.17769" lon="0.51572">
        <ele>214.116713</ele>
        <time>2021-08-22T08:06:49.065Z</time>
      </trkpt>
      <trkpt lat="44.17759" lon="0.51566">
        <ele>214.03899</ele>
        <time>2021-08-22T08:06:54.072Z</time>
      </trkpt>
      <trkpt lat="44.17751" lon="0.51572">
        <ele>213.972385</ele>
        <time>2021-08-22T08:07:00.069Z</time>
      </trkpt>
      <trkpt lat="44.17745" lon="0.51583">
        <ele>213.904817</ele>
        <time>2021-08-22T08:07:06.064Z</time>
      </trkpt>
      <trkpt lat="44.17739" lon="0.51593">
        <ele>213.837216</ele>
        <time>2021-08-22T08:07:13.067Z</time>
      </trkpt>
      <trkpt lat="44.17729" lon="0.51591">
        <ele>213.768817</ele>
        <time>2021-08-22T08:07:17.073Z</time>
      </trkpt>
      <trkpt lat="44.17722" lon="0.51602">
        <ele>213.695568</ele>
        <time>2021-08-22T08:07:23.064Z</time>
      </trkpt>
      <trkpt lat="44.17723" lon="0.51617">
        <ele>213.621599</ele>
        <time>2021-08-22T08:07:28.065Z</time>
      </trkpt>
      <trkpt lat="44.17723" lon="0.51631">
        <ele>213.5471</ele>
        <time>2021-08-22T08:07:33.069Z</time>
      </trkpt>
      <trkpt lat="44.17724" lon="0.51619">
        <ele>213.475454</ele>
        <time>2021-08-22T08:07:55.073Z</time>
      </trkpt>
      <trkpt lat="44.17725" lon="0.51604">
        <ele>212.812417</ele>
        <time>2021-08-22T08:07:58.064Z</time>
      </trkpt>
      <trkpt lat="44.17727" lon="0.51591">
        <ele>212.162282</ele>
        <time>2021-08-22T08:08:02.062Z</time>
      </trkpt>
      <trkpt lat="44.17722" lon="0.51579">
        <ele>211.506324</ele>
        <time>2021-08-22T08:08:08.065Z</time>
      </trkpt>
      <trkpt lat="44.17711" lon="0.51572">
        <ele>210.724862</ele>
        <time>2021-08-22T08:08:12.062Z</time>
      </trkpt>
      <trkpt lat="44.177" lon="0.51571">
        <ele>210.02307</ele>
        <time>2021-08-22T08:08:18.067Z</time>
      </trkpt>
      <trkpt lat="44.17692" lon="0.51581">
        <ele>209.320374</ele>
        <time>2021-08-22T08:08:22.072Z</time>
      </trkpt>
      <trkpt lat="44.17684" lon="0.51595">
        <ele>208.51487</ele>
        <time>2021-08-22T08:08:25.063Z</time>
      </trkpt>
      <trkpt lat="44.17678" lon="0.51605">
        <ele>207.859886</ele>
        <time>2021-08-22T08:08:27.070Z</time>
      </trkpt>
      <trkpt lat="44.17671" lon="0.51615">
        <ele>207.183892</ele>
        <time>2021-08-22T08:08:29.071Z</time>
      </trkpt>
      <trkpt lat="44.17663" lon="0.51626">
        <ele>206.495588</ele>
        <time>2021-08-22T08:08:31.073Z</time>
      </trkpt>
      <trkpt lat="44.17655" lon="0.51637">
        <ele>205.759364</ele>
        <time>2021-08-22T08:08:33.061Z</time>
      </trkpt>
      <trkpt lat="44.17645" lon="0.51645">
        <ele>204.977243</ele>
        <time>2021-08-22T08:08:35.070Z</time>
      </trkpt>
      <trkpt lat="44.17633" lon="0.51652">
        <ele>204.153427</ele>
        <time>2021-08-22T08:08:37.070Z</time>
      </trkpt>
      <trkpt lat="44.1762" lon="0.51657">
        <ele>203.284946</ele>
        <time>2021-08-22T08:08:39.072Z</time>
      </trkpt>
      <trkpt lat="44.17607" lon="0.51663">
        <ele>202.396325</ele>
        <time>2021-08-22T08:08:41.066Z</time>
      </trkpt>
      <trkpt lat="44.17595" lon="0.51668">
        <ele>201.680586</ele>
        <time>2021-08-22T08:08:43.066Z</time>
      </trkpt>
      <trkpt lat="44.17583" lon="0.51674">
        <ele>201.514582</ele>
        <time>2021-08-22T08:08:45.061Z</time>
      </trkpt>
      <trkpt lat="44.17571" lon="0.5168">
        <ele>201.355537</ele>
        <time>2021-08-22T08:08:47.060Z</time>
      </trkpt>
      <trkpt lat="44.1756" lon="0.51686">
        <ele>201.199888</ele>
        <time>2021-08-22T08:08:49.065Z</time>
      </trkpt>
      <trkpt lat="44.1755" lon="0.51692">
        <ele>201.056787</ele>
        <time>2021-08-22T08:08:51.067Z</time>
      </trkpt>
      <trkpt lat="44.17541" lon="0.51699">
        <ele>200.926917</ele>
        <time>2021-08-22T08:08:53.068Z</time>
      </trkpt>
      <trkpt lat="44.17533" lon="0.51706">
        <ele>200.802633</ele>
        <time>2021-08-22T08:08:55.059Z</time>
      </trkpt>
      <trkpt lat="44.17525" lon="0.51713">
        <ele>200.68333</ele>
        <time>2021-08-22T08:08:57.066Z</time>
      </trkpt>
      <trkpt lat="44.17516" lon="0.51725">
        <ele>200.517288</ele>
        <time>2021-08-22T08:09:00.069Z</time>
      </trkpt>
      <trkpt lat="44.17507" lon="0.51738">
        <ele>200.355806</ele>
        <time>2021-08-22T08:09:03.070Z</time>
      </trkpt>
      <trkpt lat="44.17499" lon="0.51749">
        <ele>200.213071</ele>
        <time>2021-08-22T08:09:06.071Z</time>
      </trkpt>
      <trkpt lat="44.17491" lon="0.5176">
        <ele>200.063119</ele>
        <time>2021-08-22T08:09:09.066Z</time>
      </trkpt>
      <trkpt lat="44.17482" lon="0.5177">
        <ele>199.91233</ele>
        <time>2021-08-22T08:09:12.074Z</time>
      </trkpt>
      <trkpt lat="44.17472" lon="0.51777">
        <ele>199.764549</ele>
        <time>2021-08-22T08:09:15.075Z</time>
      </trkpt>
      <trkpt lat="44.17462" lon="0.51783">
        <ele>199.628841</ele>
        <time>2021-08-22T08:09:18.071Z</time>
      </trkpt>
      <trkpt lat="44.17452" lon="0.51789">
        <ele>199.490859</ele>
        <time>2021-08-22T08:09:21.067Z</time>
      </trkpt>
      <trkpt lat="44.17443" lon="0.51795">
        <ele>199.458634</ele>
        <time>2021-08-22T08:09:24.073Z</time>
      </trkpt>
      <trkpt lat="44.17434" lon="0.518">
        <ele>199.777812</ele>
        <time>2021-08-22T08:09:27.072Z</time>
      </trkpt>
      <trkpt lat="44.17424" lon="0.51805">
        <ele>200.118096</ele>
        <time>2021-08-22T08:09:30.070Z</time>
      </trkpt>
      <trkpt lat="44.17412" lon="0.51806">
        <ele>200.466679</ele>
        <time>2021-08-22T08:09:33.067Z</time>
      </trkpt>
      <trkpt lat="44.17401" lon="0.51804">
        <ele>200.825415</ele>
        <time>2021-08-22T08:09:36.083Z</time>
      </trkpt>
      <trkpt lat="44.1739" lon="0.51802">
        <ele>201.18265</ele>
        <time>2021-08-22T08:09:39.072Z</time>
      </trkpt>
      <trkpt lat="44.17379" lon="0.51799">
        <ele>201.542021</ele>
        <time>2021-08-22T08:09:42.080Z</time>
      </trkpt>
      <trkpt lat="44.17367" lon="0.51795">
        <ele>201.902925</ele>
        <time>2021-08-22T08:09:45.075Z</time>
      </trkpt>
      <trkpt lat="44.17356" lon="0.51791">
        <ele>202.260015</ele>
        <time>2021-08-22T08:09:48.074Z</time>
      </trkpt>
      <trkpt lat="44.17345" lon="0.51787">
        <ele>202.613278</ele>
        <time>2021-08-22T08:09:51.072Z</time>
      </trkpt>
      <trkpt lat="44.17334" lon="0.51783">
        <ele>202.965063</ele>
        <time>2021-08-22T08:09:54.070Z</time>
      </trkpt>
      <trkpt lat="44.17324" lon="0.5178">
        <ele>203.306785</ele>
        <time>2021-08-22T08:09:57.071Z</time>
      </trkpt>
      <trkpt lat="44.17313" lon="0.51778">
        <ele>203.645759</ele>
        <time>2021-08-22T08:10:00.080Z</time>
      </trkpt>
      <trkpt lat="44.17303" lon="0.51777">
        <ele>203.971761</ele>
        <time>2021-08-22T08:10:03.072Z</time>
      </trkpt>
      <trkpt lat="44.17293" lon="0.51777">
        <ele>204.281761</ele>
        <time>2021-08-22T08:10:06.074Z</time>
      </trkpt>
      <trkpt lat="44.17283" lon="0.51775">
        <ele>204.594652</ele>
        <time>2021-08-22T08:10:09.069Z</time>
      </trkpt>
      <trkpt lat="44.17273" lon="0.51773">
        <ele>204.913455</ele>
        <time>2021-08-22T08:10:12.074Z</time>
      </trkpt>
      <trkpt lat="44.17263" lon="0.51771">
        <ele>205.00238</ele>
        <time>2021-08-22T08:10:15.073Z</time>
      </trkpt>
      <trkpt lat="44.17251" lon="0.51767">
        <ele>204.962856</ele>
        <time>2021-08-22T08:10:18.076Z</time>
      </trkpt>
      <trkpt lat="44.17242" lon="0.51761">
        <ele>204.932141</ele>
        <time>2021-08-22T08:10:20.073Z</time>
      </trkpt>
      <trkpt lat="44.17234" lon="0.51752">
        <ele>204.899084</ele>
        <time>2021-08-22T08:10:22.070Z</time>
      </trkpt>
      <trkpt lat="44.17226" lon="0.5174">
        <ele>204.862441</ele>
        <time>2021-08-22T08:10:24.067Z</time>
      </trkpt>
      <trkpt lat="44.17219" lon="0.51728">
        <ele>204.826502</ele>
        <time>2021-08-22T08:10:26.069Z</time>
      </trkpt>
      <trkpt lat="44.17212" lon="0.51716">
        <ele>204.79084</ele>
        <time>2021-08-22T08:10:28.073Z</time>
      </trkpt>
      <trkpt lat="44.17202" lon="0.51707">
        <ele>204.753889</ele>
        <time>2021-08-22T08:10:30.068Z</time>
      </trkpt>
      <trkpt lat="44.17191" lon="0.51702">
        <ele>204.714747</ele>
        <time>2021-08-22T08:10:32.073Z</time>
      </trkpt>
      <trkpt lat="44.17178" lon="0.517">
        <ele>204.67487</ele>
        <time>2021-08-22T08:10:34.082Z</time>
      </trkpt>
      <trkpt lat="44.17166" lon="0.51698">
        <ele>204.636083</ele>
        <time>2021-08-22T08:10:36.070Z</time>
      </trkpt>
      <trkpt lat="44.17154" lon="0.51698">
        <ele>204.597412</ele>
        <time>2021-08-22T08:10:38.082Z</time>
      </trkpt>
      <trkpt lat="44.17143" lon="0.51698">
        <ele>204.561313</ele>
        <time>2021-08-22T08:10:40.069Z</time>
      </trkpt>
      <trkpt lat="44.17132" lon="0.51697">
        <ele>204.52585</ele>
        <time>2021-08-22T08:10:42.069Z</time>
      </trkpt>
      <trkpt lat="44.17121" lon="0.51697">
        <ele>204.491349</ele>
        <time>2021-08-22T08:10:44.076Z</time>
      </trkpt>
      <trkpt lat="44.1711" lon="0.51697">
        <ele>204.457154</ele>
        <time>2021-08-22T08:10:46.073Z</time>
      </trkpt>
      <trkpt lat="44.17099" lon="0.51696">
        <ele>204.567627</ele>
        <time>2021-08-22T08:10:48.074Z</time>
      </trkpt>
      <trkpt lat="44.17089" lon="0.51696">
        <ele>204.717319</ele>
        <time>2021-08-22T08:10:50.085Z</time>
      </trkpt>
      <trkpt lat="44.17078" lon="0.51695">
        <ele>204.860317</ele>
        <time>2021-08-22T08:10:52.073Z</time>
      </trkpt>
      <trkpt lat="44.17069" lon="0.51694">
        <ele>204.994946</ele>
        <time>2021-08-22T08:10:54.070Z</time>
      </trkpt>
      <trkpt lat="44.17056" lon="0.51692">
        <ele>205.169295</ele>
        <time>2021-08-22T08:10:57.065Z</time>
      </trkpt>
      <trkpt lat="44.17046" lon="0.51691">
        <ele>205.322287</ele>
        <time>2021-08-22T08:11:00.072Z</time>
      </trkpt>
      <trkpt lat="44.17034" lon="0.5169">
        <ele>205.485119</ele>
        <time>2021-08-22T08:11:03.073Z</time>
      </trkpt>
      <trkpt lat="44.17022" lon="0.51688">
        <ele>205.646473</ele>
        <time>2021-08-22T08:11:06.071Z</time>
      </trkpt>
      <trkpt lat="44.17012" lon="0.51687">
        <ele>205.788075</ele>
        <time>2021-08-22T08:11:09.072Z</time>
      </trkpt>
      <trkpt lat="44.17002" lon="0.51687">
        <ele>205.92654</ele>
        <time>2021-08-22T08:11:12.068Z</time>
      </trkpt>
      <trkpt lat="44.16993" lon="0.51689">
        <ele>206.060246</ele>
        <time>2021-08-22T08:11:15.066Z</time>
      </trkpt>
      <trkpt lat="44.16983" lon="0.51692">
        <ele>206.200563</ele>
        <time>2021-08-22T08:11:18.070Z</time>
      </trkpt>
      <trkpt lat="44.16973" lon="0.51696">
        <ele>206.343529</ele>
        <time>2021-08-22T08:11:21.074Z</time>
      </trkpt>
      <trkpt lat="44.16963" lon="0.51701">
        <ele>206.495233</ele>
        <time>2021-08-22T08:11:24.073Z</time>
      </trkpt>
      <trkpt lat="44.16953" lon="0.51705">
        <ele>206.647725</ele>
        <time>2021-08-22T08:11:27.069Z</time>
      </trkpt>
      <trkpt lat="44.16943" lon="0.51709">
        <ele>206.785769</ele>
        <time>2021-08-22T08:11:30.080Z</time>
      </trkpt>
      <trkpt lat="44.16934" lon="0.51713">
        <ele>206.926182</ele>
        <time>2021-08-22T08:11:33.074Z</time>
      </trkpt>
      <trkpt lat="44.16924" lon="0.51717">
        <ele>207.02817</ele>
        <time>2021-08-22T08:11:36.074Z</time>
      </trkpt>
      <trkpt lat="44.16914" lon="0.51722">
        <ele>207.121943</ele>
        <time>2021-08-22T08:11:39.076Z</time>
      </trkpt>
      <trkpt lat="44.16903" lon="0.51727">
        <ele>207.225171</ele>
        <time>2021-08-22T08:11:42.076Z</time>
      </trkpt>
      <trkpt lat="44.1689" lon="0.51733">
        <ele>207.337652</ele>
        <time>2021-08-22T08:11:45.068Z</time>
      </trkpt>
      <trkpt lat="44.16878" lon="0.51739">
        <ele>207.448093</ele>
        <time>2021-08-22T08:11:48.074Z</time>
      </trkpt>
      <trkpt lat="44.16867" lon="0.51746">
        <ele>207.556761</ele>
        <time>2021-08-22T08:11:51.073Z</time>
      </trkpt>
      <trkpt lat="44.16854" lon="0.51752">
        <ele>207.675415</ele>
        <time>2021-08-22T08:11:54.070Z</time>
      </trkpt>
      <trkpt lat="44.16845" lon="0.51757">
        <ele>207.757279</ele>
        <time>2021-08-22T08:11:56.077Z</time>
      </trkpt>
      <trkpt lat="44.16836" lon="0.51761">
        <ele>207.838926</ele>
        <time>2021-08-22T08:11:58.065Z</time>
      </trkpt>
      <trkpt lat="44.16827" lon="0.51765">
        <ele>207.926026</ele>
        <time>2021-08-22T08:12:00.064Z</time>
      </trkpt>
      <trkpt lat="44.16818" lon="0.51768">
        <ele>208.008953</ele>
        <time>2021-08-22T08:12:02.075Z</time>
      </trkpt>
      <trkpt lat="44.16808" lon="0.51772">
        <ele>208.093547</ele>
        <time>2021-08-22T08:12:04.081Z</time>
      </trkpt>
      <trkpt lat="44.16799" lon="0.51777">
        <ele>208.180745</ele>
        <time>2021-08-22T08:12:06.062Z</time>
      </trkpt>
      <trkpt lat="44.16789" lon="0.51781">
        <ele>208.269373</ele>
        <time>2021-08-22T08:12:08.065Z</time>
      </trkpt>
      <trkpt lat="44.16779" lon="0.51786">
        <ele>208.361498</ele>
        <time>2021-08-22T08:12:10.073Z</time>
      </trkpt>
      <trkpt lat="44.16769" lon="0.51791">
        <ele>208.452653</ele>
        <time>2021-08-22T08:12:12.070Z</time>
      </trkpt>
      <trkpt lat="44.16759" lon="0.51795">
        <ele>208.547753</ele>
        <time>2021-08-22T08:12:14.096Z</time>
      </trkpt>
      <trkpt lat="44.1675" lon="0.51799">
        <ele>208.689037</ele>
        <time>2021-08-22T08:12:16.074Z</time>
      </trkpt>
      <trkpt lat="44.1674" lon="0.51804">
        <ele>208.832978</ele>
        <time>2021-08-22T08:12:18.077Z</time>
      </trkpt>
      <trkpt lat="44.16731" lon="0.51809">
        <ele>208.977021</ele>
        <time>2021-08-22T08:12:20.074Z</time>
      </trkpt>
      <trkpt lat="44.16722" lon="0.51815">
        <ele>209.116605</ele>
        <time>2021-08-22T08:12:22.076Z</time>
      </trkpt>
      <trkpt lat="44.16713" lon="0.5182">
        <ele>209.253132</ele>
        <time>2021-08-22T08:12:24.071Z</time>
      </trkpt>
      <trkpt lat="44.16704" lon="0.51826">
        <ele>209.39393</ele>
        <time>2021-08-22T08:12:26.077Z</time>
      </trkpt>
      <trkpt lat="44.16696" lon="0.51832">
        <ele>209.524633</ele>
        <time>2021-08-22T08:12:28.073Z</time>
      </trkpt>
      <trkpt lat="44.16684" lon="0.51841">
        <ele>209.712491</ele>
        <time>2021-08-22T08:12:31.071Z</time>
      </trkpt>
      <trkpt lat="44.16673" lon="0.51851">
        <ele>209.895117</ele>
        <time>2021-08-22T08:12:34.070Z</time>
      </trkpt>
      <trkpt lat="44.16663" lon="0.5186">
        <ele>210.070283</ele>
        <time>2021-08-22T08:12:37.069Z</time>
      </trkpt>
      <trkpt lat="44.16652" lon="0.51869">
        <ele>210.242512</ele>
        <time>2021-08-22T08:12:40.071Z</time>
      </trkpt>
      <trkpt lat="44.16642" lon="0.51878">
        <ele>210.413541</ele>
        <time>2021-08-22T08:12:43.077Z</time>
      </trkpt>
      <trkpt lat="44.16631" lon="0.51887">
        <ele>210.596317</ele>
        <time>2021-08-22T08:12:46.074Z</time>
      </trkpt>
      <trkpt lat="44.1662" lon="0.51897">
        <ele>210.781349</ele>
        <time>2021-08-22T08:12:49.074Z</time>
      </trkpt>
      <trkpt lat="44.16608" lon="0.51906">
        <ele>210.965176</ele>
        <time>2021-08-22T08:12:52.078Z</time>
      </trkpt>
      <trkpt lat="44.16597" lon="0.51915">
        <ele>211.076459</ele>
        <time>2021-08-22T08:12:55.067Z</time>
      </trkpt>
      <trkpt lat="44.16588" lon="0.5192">
        <ele>211.086815</ele>
        <time>2021-08-22T08:12:57.069Z</time>
      </trkpt>
      <trkpt lat="44.16578" lon="0.51925">
        <ele>211.097607</ele>
        <time>2021-08-22T08:12:59.080Z</time>
      </trkpt>
      <trkpt lat="44.16568" lon="0.51929">
        <ele>211.108853</ele>
        <time>2021-08-22T08:13:01.073Z</time>
      </trkpt>
      <trkpt lat="44.16557" lon="0.51932">
        <ele>211.120972</ele>
        <time>2021-08-22T08:13:03.068Z</time>
      </trkpt>
      <trkpt lat="44.16545" lon="0.51933">
        <ele>211.133801</ele>
        <time>2021-08-22T08:13:05.080Z</time>
      </trkpt>
      <trkpt lat="44.16533" lon="0.51934">
        <ele>211.146475</ele>
        <time>2021-08-22T08:13:07.069Z</time>
      </trkpt>
      <trkpt lat="44.16522" lon="0.51933">
        <ele>211.159177</ele>
        <time>2021-08-22T08:13:09.075Z</time>
      </trkpt>
      <trkpt lat="44.16511" lon="0.51931">
        <ele>211.170666</ele>
        <time>2021-08-22T08:13:11.075Z</time>
      </trkpt>
      <trkpt lat="44.16501" lon="0.51928">
        <ele>211.18116</ele>
        <time>2021-08-22T08:13:13.076Z</time>
      </trkpt>
      <trkpt lat="44.16492" lon="0.51924">
        <ele>211.191208</ele>
        <time>2021-08-22T08:13:15.065Z</time>
      </trkpt>
      <trkpt lat="44.16483" lon="0.51921">
        <ele>211.20111</ele>
        <time>2021-08-22T08:13:17.070Z</time>
      </trkpt>
      <trkpt lat="44.16474" lon="0.51918">
        <ele>211.211448</ele>
        <time>2021-08-22T08:13:19.073Z</time>
      </trkpt>
      <trkpt lat="44.16465" lon="0.51914">
        <ele>211.221888</ele>
        <time>2021-08-22T08:13:21.071Z</time>
      </trkpt>
      <trkpt lat="44.16455" lon="0.5191">
        <ele>211.232481</ele>
        <time>2021-08-22T08:13:23.063Z</time>
      </trkpt>
      <trkpt lat="44.16446" lon="0.51905">
        <ele>211.243045</ele>
        <time>2021-08-22T08:13:25.071Z</time>
      </trkpt>
      <trkpt lat="44.16437" lon="0.51901">
        <ele>211.25371</ele>
        <time>2021-08-22T08:13:27.069Z</time>
      </trkpt>
      <trkpt lat="44.16428" lon="0.51897">
        <ele>211.249116</ele>
        <time>2021-08-22T08:13:29.076Z</time>
      </trkpt>
      <trkpt lat="44.16415" lon="0.519">
        <ele>211.05126</ele>
        <time>2021-08-22T08:13:32.076Z</time>
      </trkpt>
      <trkpt lat="44.16404" lon="0.51907">
        <ele>210.867716</ele>
        <time>2021-08-22T08:13:35.066Z</time>
      </trkpt>
      <trkpt lat="44.16395" lon="0.51911">
        <ele>210.712549</ele>
        <time>2021-08-22T08:13:38.067Z</time>
      </trkpt>
      <trkpt lat="44.16385" lon="0.51913">
        <ele>210.556304</ele>
        <time>2021-08-22T08:13:41.063Z</time>
      </trkpt>
      <trkpt lat="44.16375" lon="0.51914">
        <ele>210.393385</ele>
        <time>2021-08-22T08:13:44.072Z</time>
      </trkpt>
      <trkpt lat="44.16363" lon="0.51914">
        <ele>210.21394</ele>
        <time>2021-08-22T08:13:47.073Z</time>
      </trkpt>
      <trkpt lat="44.16351" lon="0.51913">
        <ele>210.021818</ele>
        <time>2021-08-22T08:13:50.074Z</time>
      </trkpt>
      <trkpt lat="44.16338" lon="0.51912">
        <ele>209.815085</ele>
        <time>2021-08-22T08:13:53.071Z</time>
      </trkpt>
      <trkpt lat="44.16325" lon="0.5191">
        <ele>209.621737</ele>
        <time>2021-08-22T08:13:55.071Z</time>
      </trkpt>
      <trkpt lat="44.16312" lon="0.51909">
        <ele>209.415478</ele>
        <time>2021-08-22T08:13:57.083Z</time>
      </trkpt>
      <trkpt lat="44.16298" lon="0.51908">
        <ele>209.195377</ele>
        <time>2021-08-22T08:13:59.070Z</time>
      </trkpt>
      <trkpt lat="44.16282" lon="0.51909">
        <ele>208.943752</ele>
        <time>2021-08-22T08:14:01.074Z</time>
      </trkpt>
      <trkpt lat="44.16273" lon="0.51912">
        <ele>208.799452</ele>
        <time>2021-08-22T08:14:02.070Z</time>
      </trkpt>
      <trkpt lat="44.16263" lon="0.51915">
        <ele>208.646744</ele>
        <time>2021-08-22T08:14:03.068Z</time>
      </trkpt>
      <trkpt lat="44.16254" lon="0.5192">
        <ele>208.494128</ele>
        <time>2021-08-22T08:14:04.073Z</time>
      </trkpt>
      <trkpt lat="44.16246" lon="0.51927">
        <ele>207.923853</ele>
        <time>2021-08-22T08:14:05.066Z</time>
      </trkpt>
      <trkpt lat="44.16232" lon="0.5194">
        <ele>206.558309</ele>
        <time>2021-08-22T08:14:07.071Z</time>
      </trkpt>
      <trkpt lat="44.16218" lon="0.51951">
        <ele>205.267194</ele>
        <time>2021-08-22T08:14:09.072Z</time>
      </trkpt>
      <trkpt lat="44.16204" lon="0.51962">
        <ele>203.9495</ele>
        <time>2021-08-22T08:14:11.073Z</time>
      </trkpt>
      <trkpt lat="44.1619" lon="0.51972">
        <ele>202.719627</ele>
        <time>2021-08-22T08:14:13.080Z</time>
      </trkpt>
      <trkpt lat="44.16178" lon="0.51981">
        <ele>201.59208</ele>
        <time>2021-08-22T08:14:15.075Z</time>
      </trkpt>
      <trkpt lat="44.16164" lon="0.5199">
        <ele>200.380287</ele>
        <time>2021-08-22T08:14:17.089Z</time>
      </trkpt>
      <trkpt lat="44.1615" lon="0.51997">
        <ele>199.220974</ele>
        <time>2021-08-22T08:14:19.070Z</time>
      </trkpt>
      <trkpt lat="44.16141" lon="0.52006">
        <ele>198.321127</ele>
        <time>2021-08-22T08:14:21.085Z</time>
      </trkpt>
      <trkpt lat="44.16133" lon="0.52013">
        <ele>197.533063</ele>
        <time>2021-08-22T08:14:23.073Z</time>
      </trkpt>
      <trkpt lat="44.16122" lon="0.5202">
        <ele>196.577961</ele>
        <time>2021-08-22T08:14:25.076Z</time>
      </trkpt>
      <trkpt lat="44.16109" lon="0.52028">
        <ele>195.47522</ele>
        <time>2021-08-22T08:14:27.075Z</time>
      </trkpt>
      <trkpt lat="44.16096" lon="0.52036">
        <ele>194.28266</ele>
        <time>2021-08-22T08:14:29.074Z</time>
      </trkpt>
      <trkpt lat="44.16081" lon="0.52044">
        <ele>192.731905</ele>
        <time>2021-08-22T08:14:31.079Z</time>
      </trkpt>
      <trkpt lat="44.16065" lon="0.52053">
        <ele>190.907807</ele>
        <time>2021-08-22T08:14:33.078Z</time>
      </trkpt>
      <trkpt lat="44.16049" lon="0.52064">
        <ele>189.024841</ele>
        <time>2021-08-22T08:14:35.072Z</time>
      </trkpt>
      <trkpt lat="44.1604" lon="0.52069">
        <ele>188.019188</ele>
        <time>2021-08-22T08:14:36.086Z</time>
      </trkpt>
      <trkpt lat="44.1603" lon="0.52074">
        <ele>186.981673</ele>
        <time>2021-08-22T08:14:37.071Z</time>
      </trkpt>
      <trkpt lat="44.16021" lon="0.52079">
        <ele>185.898225</ele>
        <time>2021-08-22T08:14:38.070Z</time>
      </trkpt>
      <trkpt lat="44.16011" lon="0.52085">
        <ele>184.756625</ele>
        <time>2021-08-22T08:14:39.071Z</time>
      </trkpt>
      <trkpt lat="44.16" lon="0.52091">
        <ele>183.558141</ele>
        <time>2021-08-22T08:14:40.070Z</time>
      </trkpt>
      <trkpt lat="44.1599" lon="0.52097">
        <ele>182.374998</ele>
        <time>2021-08-22T08:14:41.069Z</time>
      </trkpt>
      <trkpt lat="44.15979" lon="0.52102">
        <ele>181.173338</ele>
        <time>2021-08-22T08:14:42.066Z</time>
      </trkpt>
      <trkpt lat="44.15968" lon="0.52107">
        <ele>180.018493</ele>
        <time>2021-08-22T08:14:43.070Z</time>
      </trkpt>
      <trkpt lat="44.15959" lon="0.52112">
        <ele>179.009392</ele>
        <time>2021-08-22T08:14:44.069Z</time>
      </trkpt>
      <trkpt lat="44.15944" lon="0.52119">
        <ele>177.370848</ele>
        <time>2021-08-22T08:14:46.068Z</time>
      </trkpt>
      <trkpt lat="44.15934" lon="0.5213">
        <ele>175.989772</ele>
        <time>2021-08-22T08:14:48.071Z</time>
      </trkpt>
      <trkpt lat="44.15925" lon="0.52139">
        <ele>175.766165</ele>
        <time>2021-08-22T08:14:50.062Z</time>
      </trkpt>
      <trkpt lat="44.15914" lon="0.52142">
        <ele>177.223007</ele>
        <time>2021-08-22T08:14:53.078Z</time>
      </trkpt>
      <trkpt lat="44.15904" lon="0.52141">
        <ele>178.509815</ele>
        <time>2021-08-22T08:14:57.079Z</time>
      </trkpt>
      <trkpt lat="44.15894" lon="0.52139">
        <ele>179.903873</ele>
        <time>2021-08-22T08:15:02.065Z</time>
      </trkpt>
      <trkpt lat="44.15883" lon="0.52138">
        <ele>181.270094</ele>
        <time>2021-08-22T08:15:08.071Z</time>
      </trkpt>
      <trkpt lat="44.15873" lon="0.52137">
        <ele>182.530526</ele>
        <time>2021-08-22T08:15:14.064Z</time>
      </trkpt>
      <trkpt lat="44.15864" lon="0.52137">
        <ele>183.790028</ele>
        <time>2021-08-22T08:15:18.082Z</time>
      </trkpt>
      <trkpt lat="44.15855" lon="0.52133">
        <ele>184.995761</ele>
        <time>2021-08-22T08:15:24.068Z</time>
      </trkpt>
      <trkpt lat="44.15846" lon="0.52129">
        <ele>186.23796</ele>
        <time>2021-08-22T08:15:31.061Z</time>
      </trkpt>
      <trkpt lat="44.15836" lon="0.52123">
        <ele>187.547386</ele>
        <time>2021-08-22T08:15:39.076Z</time>
      </trkpt>
      <trkpt lat="44.15827" lon="0.52119">
        <ele>188.795012</ele>
        <time>2021-08-22T08:15:46.070Z</time>
      </trkpt>
      <trkpt lat="44.15819" lon="0.52114">
        <ele>190.006247</ele>
        <time>2021-08-22T08:15:52.070Z</time>
      </trkpt>
      <trkpt lat="44.1581" lon="0.52111">
        <ele>191.203317</ele>
        <time>2021-08-22T08:15:57.062Z</time>
      </trkpt>
      <trkpt lat="44.15802" lon="0.52104">
        <ele>192.43562</ele>
        <time>2021-08-22T08:16:05.072Z</time>
      </trkpt>
      <trkpt lat="44.15792" lon="0.521">
        <ele>193.707593</ele>
        <time>2021-08-22T08:16:14.073Z</time>
      </trkpt>
      <trkpt lat="44.15783" lon="0.52096">
        <ele>194.949075</ele>
        <time>2021-08-22T08:16:23.065Z</time>
      </trkpt>
      <trkpt lat="44.15774" lon="0.52092">
        <ele>196.157145</ele>
        <time>2021-08-22T08:16:32.068Z</time>
      </trkpt>
      <trkpt lat="44.15765" lon="0.52089">
        <ele>197.360611</ele>
        <time>2021-08-22T08:16:40.067Z</time>
      </trkpt>
      <trkpt lat="44.15756" lon="0.52085">
        <ele>198.556534</ele>
        <time>2021-08-22T08:16:46.070Z</time>
      </trkpt>
      <trkpt lat="44.15748" lon="0.5208">
        <ele>199.141826</ele>
        <time>2021-08-22T08:16:53.066Z</time>
      </trkpt>
      <trkpt lat="44.15739" lon="0.52074">
        <ele>199.772044</ele>
        <time>2021-08-22T08:17:03.067Z</time>
      </trkpt>
      <trkpt lat="44.1573" lon="0.52068">
        <ele>200.356755</ele>
        <time>2021-08-22T08:17:10.064Z</time>
      </trkpt>
      <trkpt lat="44.15722" lon="0.52063">
        <ele>200.925442</ele>
        <time>2021-08-22T08:17:16.063Z</time>
      </trkpt>
      <trkpt lat="44.15713" lon="0.52056">
        <ele>201.520606</ele>
        <time>2021-08-22T08:17:21.066Z</time>
      </trkpt>
      <trkpt lat="44.15707" lon="0.52046">
        <ele>202.100359</ele>
        <time>2021-08-22T08:17:26.072Z</time>
      </trkpt>
      <trkpt lat="44.15704" lon="0.52032">
        <ele>202.708189</ele>
        <time>2021-08-22T08:17:31.066Z</time>
      </trkpt>
      <trkpt lat="44.15699" lon="0.52021">
        <ele>203.315733</ele>
        <time>2021-08-22T08:17:36.061Z</time>
      </trkpt>
      <trkpt lat="44.15693" lon="0.52007">
        <ele>204.03705</ele>
        <time>2021-08-22T08:17:41.064Z</time>
      </trkpt>
      <trkpt lat="44.15684" lon="0.51999">
        <ele>204.669656</ele>
        <time>2021-08-22T08:17:47.080Z</time>
      </trkpt>
      <trkpt lat="44.15675" lon="0.51991">
        <ele>205.335224</ele>
        <time>2021-08-22T08:17:52.064Z</time>
      </trkpt>
      <trkpt lat="44.15667" lon="0.51981">
        <ele>205.969306</ele>
        <time>2021-08-22T08:17:57.069Z</time>
      </trkpt>
      <trkpt lat="44.15659" lon="0.51973">
        <ele>206.55991</ele>
        <time>2021-08-22T08:18:01.063Z</time>
      </trkpt>
      <trkpt lat="44.1565" lon="0.51963">
        <ele>207.260281</ele>
        <time>2021-08-22T08:18:05.068Z</time>
      </trkpt>
      <trkpt lat="44.15642" lon="0.51954">
        <ele>207.900735</ele>
        <time>2021-08-22T08:18:09.069Z</time>
      </trkpt>
      <trkpt lat="44.15634" lon="0.51945">
        <ele>208.544131</ele>
        <time>2021-08-22T08:18:12.064Z</time>
      </trkpt>
      <trkpt lat="44.15626" lon="0.51937">
        <ele>209.114468</ele>
        <time>2021-08-22T08:18:16.063Z</time>
      </trkpt>
      <trkpt lat="44.15619" lon="0.51928">
        <ele>209.503782</ele>
        <time>2021-08-22T08:18:20.070Z</time>
      </trkpt>
      <trkpt lat="44.15611" lon="0.51918">
        <ele>208.950374</ele>
        <time>2021-08-22T08:18:24.076Z</time>
      </trkpt>
      <trkpt lat="44.15604" lon="0.5191">
        <ele>208.489828</ele>
        <time>2021-08-22T08:18:27.081Z</time>
      </trkpt>
      <trkpt lat="44.15596" lon="0.51901">
        <ele>207.967193</ele>
        <time>2021-08-22T08:18:31.081Z</time>
      </trkpt>
      <trkpt lat="44.15589" lon="0.5189">
        <ele>207.455302</ele>
        <time>2021-08-22T08:18:35.072Z</time>
      </trkpt>
      <trkpt lat="44.15581" lon="0.51881">
        <ele>206.949224</ele>
        <time>2021-08-22T08:18:39.077Z</time>
      </trkpt>
      <trkpt lat="44.15576" lon="0.51867">
        <ele>206.409139</ele>
        <time>2021-08-22T08:18:44.064Z</time>
      </trkpt>
      <trkpt lat="44.15569" lon="0.51859">
        <ele>205.95404</ele>
        <time>2021-08-22T08:18:48.076Z</time>
      </trkpt>
      <trkpt lat="44.15548" lon="0.51862">
        <ele>204.903733</ele>
        <time>2021-08-22T08:19:51.089Z</time>
      </trkpt>
      <trkpt lat="44.1554" lon="0.5187">
        <ele>204.404227</ele>
        <time>2021-08-22T08:19:58.064Z</time>
      </trkpt>
      <trkpt lat="44.15532" lon="0.5188">
        <ele>203.865061</ele>
        <time>2021-08-22T08:20:00.072Z</time>
      </trkpt>
      <trkpt lat="44.15521" lon="0.51891">
        <ele>203.192277</ele>
        <time>2021-08-22T08:20:02.085Z</time>
      </trkpt>
      <trkpt lat="44.15508" lon="0.51903">
        <ele>202.417556</ele>
        <time>2021-08-22T08:20:04.070Z</time>
      </trkpt>
      <trkpt lat="44.15494" lon="0.51916">
        <ele>201.581672</ele>
        <time>2021-08-22T08:20:06.069Z</time>
      </trkpt>
      <trkpt lat="44.15487" lon="0.51924">
        <ele>201.130637</ele>
        <time>2021-08-22T08:20:07.073Z</time>
      </trkpt>
      <trkpt lat="44.15479" lon="0.51932">
        <ele>200.659643</ele>
        <time>2021-08-22T08:20:08.079Z</time>
      </trkpt>
      <trkpt lat="44.15471" lon="0.51939">
        <ele>199.61749</ele>
        <time>2021-08-22T08:20:09.073Z</time>
      </trkpt>
      <trkpt lat="44.15462" lon="0.51947">
        <ele>198.441708</ele>
        <time>2021-08-22T08:20:10.077Z</time>
      </trkpt>
      <trkpt lat="44.15452" lon="0.51956">
        <ele>197.184129</ele>
        <time>2021-08-22T08:20:11.077Z</time>
      </trkpt>
      <trkpt lat="44.15442" lon="0.51964">
        <ele>195.911826</ele>
        <time>2021-08-22T08:20:12.081Z</time>
      </trkpt>
      <trkpt lat="44.15431" lon="0.51972">
        <ele>194.63777</ele>
        <time>2021-08-22T08:20:13.072Z</time>
      </trkpt>
      <trkpt lat="44.15421" lon="0.5198">
        <ele>193.338996</ele>
        <time>2021-08-22T08:20:14.071Z</time>
      </trkpt>
      <trkpt lat="44.15411" lon="0.51989">
        <ele>192.047874</ele>
        <time>2021-08-22T08:20:15.073Z</time>
      </trkpt>
      <trkpt lat="44.15401" lon="0.51998">
        <ele>190.743475</ele>
        <time>2021-08-22T08:20:16.076Z</time>
      </trkpt>
      <trkpt lat="44.1539" lon="0.52007">
        <ele>189.429933</ele>
        <time>2021-08-22T08:20:17.080Z</time>
      </trkpt>
      <trkpt lat="44.1538" lon="0.52016">
        <ele>188.156205</ele>
        <time>2021-08-22T08:20:18.080Z</time>
      </trkpt>
      <trkpt lat="44.15371" lon="0.52024">
        <ele>186.913097</ele>
        <time>2021-08-22T08:20:19.074Z</time>
      </trkpt>
      <trkpt lat="44.15361" lon="0.52032">
        <ele>185.73225</ele>
        <time>2021-08-22T08:20:20.081Z</time>
      </trkpt>
      <trkpt lat="44.15352" lon="0.5204">
        <ele>184.612484</ele>
        <time>2021-08-22T08:20:21.073Z</time>
      </trkpt>
      <trkpt lat="44.15344" lon="0.52046">
        <ele>183.549543</ele>
        <time>2021-08-22T08:20:22.081Z</time>
      </trkpt>
      <trkpt lat="44.15335" lon="0.52051">
        <ele>182.532721</ele>
        <time>2021-08-22T08:20:23.078Z</time>
      </trkpt>
      <trkpt lat="44.15318" lon="0.52054">
        <ele>181.360122</ele>
        <time>2021-08-22T08:20:25.080Z</time>
      </trkpt>
      <trkpt lat="44.15305" lon="0.52049">
        <ele>181.827685</ele>
        <time>2021-08-22T08:20:27.070Z</time>
      </trkpt>
      <trkpt lat="44.15293" lon="0.5204">
        <ele>182.259787</ele>
        <time>2021-08-22T08:20:29.079Z</time>
      </trkpt>
      <trkpt lat="44.15282" lon="0.52038">
        <ele>182.64188</ele>
        <time>2021-08-22T08:20:31.074Z</time>
      </trkpt>
      <trkpt lat="44.15272" lon="0.52038">
        <ele>182.983439</ele>
        <time>2021-08-22T08:20:33.071Z</time>
      </trkpt>
      <trkpt lat="44.15259" lon="0.52042">
        <ele>183.397722</ele>
        <time>2021-08-22T08:20:36.073Z</time>
      </trkpt>
      <trkpt lat="44.15249" lon="0.52047">
        <ele>183.765182</ele>
        <time>2021-08-22T08:20:39.072Z</time>
      </trkpt>
      <trkpt lat="44.15239" lon="0.52053">
        <ele>184.136657</ele>
        <time>2021-08-22T08:20:42.077Z</time>
      </trkpt>
      <trkpt lat="44.15229" lon="0.52058">
        <ele>184.486948</ele>
        <time>2021-08-22T08:20:45.070Z</time>
      </trkpt>
      <trkpt lat="44.1522" lon="0.52063">
        <ele>184.79027</ele>
        <time>2021-08-22T08:20:48.073Z</time>
      </trkpt>
      <trkpt lat="44.15211" lon="0.52067">
        <ele>185.119348</ele>
        <time>2021-08-22T08:20:52.075Z</time>
      </trkpt>
      <trkpt lat="44.15202" lon="0.52071">
        <ele>185.433595</ele>
        <time>2021-08-22T08:20:56.093Z</time>
      </trkpt>
      <trkpt lat="44.15193" lon="0.52075">
        <ele>185.748126</ele>
        <time>2021-08-22T08:21:01.076Z</time>
      </trkpt>
      <trkpt lat="44.15185" lon="0.52081">
        <ele>186.050052</ele>
        <time>2021-08-22T08:21:06.071Z</time>
      </trkpt>
      <trkpt lat="44.15175" lon="0.52086">
        <ele>186.383917</ele>
        <time>2021-08-22T08:21:13.078Z</time>
      </trkpt>
      <trkpt lat="44.15167" lon="0.52091">
        <ele>186.68522</ele>
        <time>2021-08-22T08:21:21.078Z</time>
      </trkpt>
      <trkpt lat="44.15158" lon="0.52095">
        <ele>187.005753</ele>
        <time>2021-08-22T08:21:29.071Z</time>
      </trkpt>
      <trkpt lat="44.15149" lon="0.521">
        <ele>187.566067</ele>
        <time>2021-08-22T08:21:36.086Z</time>
      </trkpt>
      <trkpt lat="44.1514" lon="0.52103">
        <ele>188.3516</ele>
        <time>2021-08-22T08:21:43.069Z</time>
      </trkpt>
      <trkpt lat="44.1513" lon="0.52108">
        <ele>189.250069</ele>
        <time>2021-08-22T08:21:50.070Z</time>
      </trkpt>
      <trkpt lat="44.15121" lon="0.52113">
        <ele>190.148467</ele>
        <time>2021-08-22T08:21:56.072Z</time>
      </trkpt>
      <trkpt lat="44.15112" lon="0.52118">
        <ele>190.953391</ele>
        <time>2021-08-22T08:22:01.066Z</time>
      </trkpt>
      <trkpt lat="44.15103" lon="0.52122">
        <ele>191.752345</ele>
        <time>2021-08-22T08:22:06.073Z</time>
      </trkpt>
      <trkpt lat="44.15094" lon="0.52126">
        <ele>192.553182</ele>
        <time>2021-08-22T08:22:11.070Z</time>
      </trkpt>
      <trkpt lat="44.15085" lon="0.52131">
        <ele>193.356042</ele>
        <time>2021-08-22T08:22:16.066Z</time>
      </trkpt>
      <trkpt lat="44.15076" lon="0.52136">
        <ele>194.234771</ele>
        <time>2021-08-22T08:22:21.075Z</time>
      </trkpt>
      <trkpt lat="44.15066" lon="0.52141">
        <ele>195.123777</ele>
        <time>2021-08-22T08:22:26.077Z</time>
      </trkpt>
      <trkpt lat="44.15057" lon="0.52146">
        <ele>195.975484</ele>
        <time>2021-08-22T08:22:31.077Z</time>
      </trkpt>
      <trkpt lat="44.15048" lon="0.5215">
        <ele>196.766854</ele>
        <time>2021-08-22T08:22:36.074Z</time>
      </trkpt>
      <trkpt lat="44.15039" lon="0.52155">
        <ele>197.659435</ele>
        <time>2021-08-22T08:22:42.072Z</time>
      </trkpt>
      <trkpt lat="44.15029" lon="0.5216">
        <ele>198.530157</ele>
        <time>2021-08-22T08:22:48.090Z</time>
      </trkpt>
      <trkpt lat="44.1502" lon="0.52165">
        <ele>199.396398</ele>
        <time>2021-08-22T08:22:55.087Z</time>
      </trkpt>
      <trkpt lat="44.15011" lon="0.5217">
        <ele>200.237593</ele>
        <time>2021-08-22T08:23:01.069Z</time>
      </trkpt>
      <trkpt lat="44.15001" lon="0.52176">
        <ele>201.17575</ele>
        <time>2021-08-22T08:23:08.078Z</time>
      </trkpt>
      <trkpt lat="44.14991" lon="0.52182">
        <ele>202.100345</ele>
        <time>2021-08-22T08:23:28.070Z</time>
      </trkpt>
      <trkpt lat="44.14979" lon="0.52188">
        <ele>202.721698</ele>
        <time>2021-08-22T08:23:32.080Z</time>
      </trkpt>
      <trkpt lat="44.1497" lon="0.52192">
        <ele>202.840272</ele>
        <time>2021-08-22T08:23:35.074Z</time>
      </trkpt>
      <trkpt lat="44.1496" lon="0.52196">
        <ele>202.981952</ele>
        <time>2021-08-22T08:23:38.073Z</time>
      </trkpt>
      <trkpt lat="44.14948" lon="0.52201">
        <ele>203.130372</ele>
        <time>2021-08-22T08:23:41.070Z</time>
      </trkpt>
      <trkpt lat="44.14939" lon="0.52206">
        <ele>203.245416</ele>
        <time>2021-08-22T08:23:43.071Z</time>
      </trkpt>
      <trkpt lat="44.1493" lon="0.52209">
        <ele>203.363556</ele>
        <time>2021-08-22T08:23:45.071Z</time>
      </trkpt>
      <trkpt lat="44.14919" lon="0.52213">
        <ele>203.511495</ele>
        <time>2021-08-22T08:23:48.071Z</time>
      </trkpt>
      <trkpt lat="44.14909" lon="0.52216">
        <ele>203.638979</ele>
        <time>2021-08-22T08:23:51.071Z</time>
      </trkpt>
      <trkpt lat="44.149" lon="0.52219">
        <ele>203.751676</ele>
        <time>2021-08-22T08:23:54.072Z</time>
      </trkpt>
      <trkpt lat="44.1489" lon="0.52223">
        <ele>203.87875</ele>
        <time>2021-08-22T08:23:59.073Z</time>
      </trkpt>
      <trkpt lat="44.14878" lon="0.52228">
        <ele>204.04304</ele>
        <time>2021-08-22T08:24:04.076Z</time>
      </trkpt>
      <trkpt lat="44.14868" lon="0.52231">
        <ele>204.160032</ele>
        <time>2021-08-22T08:24:08.069Z</time>
      </trkpt>
      <trkpt lat="44.14858" lon="0.52238">
        <ele>204.304605</ele>
        <time>2021-08-22T08:24:12.073Z</time>
      </trkpt>
      <trkpt lat="44.14848" lon="0.52246">
        <ele>204.444884</ele>
        <time>2021-08-22T08:24:16.064Z</time>
      </trkpt>
      <trkpt lat="44.1484" lon="0.52251">
        <ele>204.561718</ele>
        <time>2021-08-22T08:24:19.074Z</time>
      </trkpt>
      <trkpt lat="44.1483" lon="0.52258">
        <ele>204.693658</ele>
        <time>2021-08-22T08:24:23.079Z</time>
      </trkpt>
      <trkpt lat="44.14822" lon="0.52264">
        <ele>204.81655</ele>
        <time>2021-08-22T08:24:27.074Z</time>
      </trkpt>
      <trkpt lat="44.14812" lon="0.5227">
        <ele>204.791525</ele>
        <time>2021-08-22T08:24:31.071Z</time>
      </trkpt>
      <trkpt lat="44.14803" lon="0.52273">
        <ele>204.586089</ele>
        <time>2021-08-22T08:24:35.081Z</time>
      </trkpt>
      <trkpt lat="44.14794" lon="0.52275">
        <ele>204.380761</ele>
        <time>2021-08-22T08:24:39.073Z</time>
      </trkpt>
      <trkpt lat="44.14784" lon="0.52277">
        <ele>204.146989</ele>
        <time>2021-08-22T08:24:44.062Z</time>
      </trkpt>
      <trkpt lat="44.14777" lon="0.52285">
        <ele>203.935075</ele>
        <time>2021-08-22T08:24:48.067Z</time>
      </trkpt>
      <trkpt lat="44.14777" lon="0.52302">
        <ele>203.668696</ele>
        <time>2021-08-22T08:24:51.072Z</time>
      </trkpt>
      <trkpt lat="44.14778" lon="0.52316">
        <ele>203.443891</ele>
        <time>2021-08-22T08:24:53.075Z</time>
      </trkpt>
      <trkpt lat="44.1478" lon="0.52335">
        <ele>203.128072</ele>
        <time>2021-08-22T08:24:56.081Z</time>
      </trkpt>
      <trkpt lat="44.14781" lon="0.52355">
        <ele>202.805281</ele>
        <time>2021-08-22T08:24:58.068Z</time>
      </trkpt>
      <trkpt lat="44.14778" lon="0.52376">
        <ele>202.459573</ele>
        <time>2021-08-22T08:25:00.073Z</time>
      </trkpt>
      <trkpt lat="44.14775" lon="0.52398">
        <ele>202.097974</ele>
        <time>2021-08-22T08:25:02.078Z</time>
      </trkpt>
      <trkpt lat="44.14771" lon="0.52421">
        <ele>201.719059</ele>
        <time>2021-08-22T08:25:04.076Z</time>
      </trkpt>
      <trkpt lat="44.14767" lon="0.52445">
        <ele>201.327354</ele>
        <time>2021-08-22T08:25:06.075Z</time>
      </trkpt>
      <trkpt lat="44.14764" lon="0.52469">
        <ele>200.924093</ele>
        <time>2021-08-22T08:25:08.084Z</time>
      </trkpt>
      <trkpt lat="44.14761" lon="0.52494">
        <ele>200.037616</ele>
        <time>2021-08-22T08:25:10.070Z</time>
      </trkpt>
      <trkpt lat="44.14758" lon="0.52517">
        <ele>199.087733</ele>
        <time>2021-08-22T08:25:12.080Z</time>
      </trkpt>
      <trkpt lat="44.14756" lon="0.52537">
        <ele>198.28635</ele>
        <time>2021-08-22T08:25:14.074Z</time>
      </trkpt>
      <trkpt lat="44.14753" lon="0.52556">
        <ele>197.534337</ele>
        <time>2021-08-22T08:25:16.074Z</time>
      </trkpt>
      <trkpt lat="44.14751" lon="0.52574">
        <ele>196.785727</ele>
        <time>2021-08-22T08:25:18.077Z</time>
      </trkpt>
      <trkpt lat="44.14749" lon="0.52592">
        <ele>196.067355</ele>
        <time>2021-08-22T08:25:20.072Z</time>
      </trkpt>
      <trkpt lat="44.14747" lon="0.52609">
        <ele>195.353733</ele>
        <time>2021-08-22T08:25:22.079Z</time>
      </trkpt>
      <trkpt lat="44.14745" lon="0.52627">
        <ele>194.653327</ele>
        <time>2021-08-22T08:25:24.076Z</time>
      </trkpt>
      <trkpt lat="44.14744" lon="0.52643">
        <ele>193.988787</ele>
        <time>2021-08-22T08:25:26.071Z</time>
      </trkpt>
      <trkpt lat="44.14745" lon="0.5266">
        <ele>193.305066</ele>
        <time>2021-08-22T08:25:28.064Z</time>
      </trkpt>
      <trkpt lat="44.14748" lon="0.52677">
        <ele>192.607347</ele>
        <time>2021-08-22T08:25:30.069Z</time>
      </trkpt>
      <trkpt lat="44.14752" lon="0.52691">
        <ele>192.031679</ele>
        <time>2021-08-22T08:25:32.071Z</time>
      </trkpt>
      <trkpt lat="44.14756" lon="0.52702">
        <ele>191.501767</ele>
        <time>2021-08-22T08:25:34.083Z</time>
      </trkpt>
      <trkpt lat="44.14762" lon="0.52713">
        <ele>190.963291</ele>
        <time>2021-08-22T08:25:36.071Z</time>
      </trkpt>
      <trkpt lat="44.14769" lon="0.52725">
        <ele>190.457062</ele>
        <time>2021-08-22T08:25:38.074Z</time>
      </trkpt>
      <trkpt lat="44.14777" lon="0.52736">
        <ele>190.004793</ele>
        <time>2021-08-22T08:25:40.070Z</time>
      </trkpt>
      <trkpt lat="44.14784" lon="0.52748">
        <ele>189.500577</ele>
        <time>2021-08-22T08:25:42.080Z</time>
      </trkpt>
      <trkpt lat="44.14793" lon="0.52763">
        <ele>188.932395</ele>
        <time>2021-08-22T08:25:44.074Z</time>
      </trkpt>
      <trkpt lat="44.14801" lon="0.52777">
        <ele>188.381504</ele>
        <time>2021-08-22T08:25:46.075Z</time>
      </trkpt>
      <trkpt lat="44.14807" lon="0.52791">
        <ele>187.868776</ele>
        <time>2021-08-22T08:25:48.076Z</time>
      </trkpt>
      <trkpt lat="44.14812" lon="0.52807">
        <ele>187.324383</ele>
        <time>2021-08-22T08:25:50.075Z</time>
      </trkpt>
      <trkpt lat="44.14819" lon="0.52824">
        <ele>186.755218</ele>
        <time>2021-08-22T08:25:52.073Z</time>
      </trkpt>
      <trkpt lat="44.14826" lon="0.5284">
        <ele>186.15883</ele>
        <time>2021-08-22T08:25:54.072Z</time>
      </trkpt>
      <trkpt lat="44.14834" lon="0.52858">
        <ele>185.51059</ele>
        <time>2021-08-22T08:25:56.086Z</time>
      </trkpt>
      <trkpt lat="44.1484" lon="0.52876">
        <ele>184.887851</ele>
        <time>2021-08-22T08:25:58.075Z</time>
      </trkpt>
      <trkpt lat="44.14846" lon="0.52894">
        <ele>184.295571</ele>
        <time>2021-08-22T08:26:00.071Z</time>
      </trkpt>
      <trkpt lat="44.14852" lon="0.52913">
        <ele>183.67811</ele>
        <time>2021-08-22T08:26:02.075Z</time>
      </trkpt>
      <trkpt lat="44.14855" lon="0.52934">
        <ele>182.900392</ele>
        <time>2021-08-22T08:26:04.084Z</time>
      </trkpt>
      <trkpt lat="44.14858" lon="0.52958">
        <ele>181.744149</ele>
        <time>2021-08-22T08:26:06.082Z</time>
      </trkpt>
      <trkpt lat="44.14862" lon="0.52983">
        <ele>180.545706</ele>
        <time>2021-08-22T08:26:08.076Z</time>
      </trkpt>
      <trkpt lat="44.14865" lon="0.52995">
        <ele>179.918349</ele>
        <time>2021-08-22T08:26:09.063Z</time>
      </trkpt>
      <trkpt lat="44.14869" lon="0.53007">
        <ele>179.278947</ele>
        <time>2021-08-22T08:26:10.071Z</time>
      </trkpt>
      <trkpt lat="44.14873" lon="0.53019">
        <ele>178.624336</ele>
        <time>2021-08-22T08:26:11.075Z</time>
      </trkpt>
      <trkpt lat="44.14878" lon="0.53031">
        <ele>177.997313</ele>
        <time>2021-08-22T08:26:12.081Z</time>
      </trkpt>
      <trkpt lat="44.14887" lon="0.53052">
        <ele>176.817088</ele>
        <time>2021-08-22T08:26:14.078Z</time>
      </trkpt>
      <trkpt lat="44.14896" lon="0.53071">
        <ele>175.706251</ele>
        <time>2021-08-22T08:26:16.078Z</time>
      </trkpt>
      <trkpt lat="44.14904" lon="0.53092">
        <ele>174.561984</ele>
        <time>2021-08-22T08:26:18.067Z</time>
      </trkpt>
      <trkpt lat="44.14908" lon="0.53103">
        <ele>173.957912</ele>
        <time>2021-08-22T08:26:19.076Z</time>
      </trkpt>
      <trkpt lat="44.14912" lon="0.53115">
        <ele>173.348113</ele>
        <time>2021-08-22T08:26:20.071Z</time>
      </trkpt>
      <trkpt lat="44.14916" lon="0.53126">
        <ele>172.743903</ele>
        <time>2021-08-22T08:26:21.069Z</time>
      </trkpt>
      <trkpt lat="44.1492" lon="0.53138">
        <ele>172.126542</ele>
        <time>2021-08-22T08:26:22.073Z</time>
      </trkpt>
      <trkpt lat="44.14923" lon="0.5315">
        <ele>171.495976</ele>
        <time>2021-08-22T08:26:23.075Z</time>
      </trkpt>
      <trkpt lat="44.14927" lon="0.53163">
        <ele>170.805494</ele>
        <time>2021-08-22T08:26:24.075Z</time>
      </trkpt>
      <trkpt lat="44.14931" lon="0.53175">
        <ele>170.037708</ele>
        <time>2021-08-22T08:26:25.075Z</time>
      </trkpt>
      <trkpt lat="44.14935" lon="0.53188">
        <ele>169.261737</ele>
        <time>2021-08-22T08:26:26.073Z</time>
      </trkpt>
      <trkpt lat="44.14939" lon="0.53201">
        <ele>168.48888</ele>
        <time>2021-08-22T08:26:27.070Z</time>
      </trkpt>
      <trkpt lat="44.14943" lon="0.53214">
        <ele>167.73577</ele>
        <time>2021-08-22T08:26:28.072Z</time>
      </trkpt>
      <trkpt lat="44.14947" lon="0.53226">
        <ele>166.985007</ele>
        <time>2021-08-22T08:26:29.075Z</time>
      </trkpt>
      <trkpt lat="44.1495" lon="0.53238">
        <ele>166.246698</ele>
        <time>2021-08-22T08:26:30.073Z</time>
      </trkpt>
      <trkpt lat="44.14954" lon="0.5325">
        <ele>165.523678</ele>
        <time>2021-08-22T08:26:31.084Z</time>
      </trkpt>
      <trkpt lat="44.14958" lon="0.53262">
        <ele>164.803668</ele>
        <time>2021-08-22T08:26:32.078Z</time>
      </trkpt>
      <trkpt lat="44.14961" lon="0.53274">
        <ele>164.097433</ele>
        <time>2021-08-22T08:26:33.075Z</time>
      </trkpt>
      <trkpt lat="44.14964" lon="0.53286">
        <ele>163.401727</ele>
        <time>2021-08-22T08:26:34.076Z</time>
      </trkpt>
      <trkpt lat="44.14967" lon="0.53309">
        <ele>162.090932</ele>
        <time>2021-08-22T08:26:36.078Z</time>
      </trkpt>
      <trkpt lat="44.14968" lon="0.53331">
        <ele>160.886124</ele>
        <time>2021-08-22T08:26:38.083Z</time>
      </trkpt>
      <trkpt lat="44.1497" lon="0.53353">
        <ele>159.691732</ele>
        <time>2021-08-22T08:26:40.079Z</time>
      </trkpt>
      <trkpt lat="44.14971" lon="0.53372">
        <ele>158.596599</ele>
        <time>2021-08-22T08:26:42.088Z</time>
      </trkpt>
      <trkpt lat="44.14972" lon="0.53385">
        <ele>157.867331</ele>
        <time>2021-08-22T08:26:44.066Z</time>
      </trkpt>
      <trkpt lat="44.14975" lon="0.53402">
        <ele>156.906602</ele>
        <time>2021-08-22T08:26:47.072Z</time>
      </trkpt>
      <trkpt lat="44.14978" lon="0.53416">
        <ele>156.079212</ele>
        <time>2021-08-22T08:26:49.073Z</time>
      </trkpt>
      <trkpt lat="44.1498" lon="0.5343">
        <ele>155.256474</ele>
        <time>2021-08-22T08:26:51.070Z</time>
      </trkpt>
      <trkpt lat="44.14982" lon="0.53445">
        <ele>154.392069</ele>
        <time>2021-08-22T08:26:53.075Z</time>
      </trkpt>
      <trkpt lat="44.14984" lon="0.53464">
        <ele>153.326219</ele>
        <time>2021-08-22T08:26:55.069Z</time>
      </trkpt>
      <trkpt lat="44.14987" lon="0.53485">
        <ele>152.130949</ele>
        <time>2021-08-22T08:26:57.071Z</time>
      </trkpt>
      <trkpt lat="44.14989" lon="0.53507">
        <ele>150.897811</ele>
        <time>2021-08-22T08:26:59.101Z</time>
      </trkpt>
      <trkpt lat="44.14993" lon="0.53527">
        <ele>149.704123</ele>
        <time>2021-08-22T08:27:01.075Z</time>
      </trkpt>
      <trkpt lat="44.14996" lon="0.53545">
        <ele>148.676856</ele>
        <time>2021-08-22T08:27:03.070Z</time>
      </trkpt>
      <trkpt lat="44.14998" lon="0.53558">
        <ele>147.926224</ele>
        <time>2021-08-22T08:27:05.072Z</time>
      </trkpt>
      <trkpt lat="44.14998" lon="0.53575">
        <ele>146.926684</ele>
        <time>2021-08-22T08:27:08.063Z</time>
      </trkpt>
      <trkpt lat="44.14992" lon="0.5359">
        <ele>145.946774</ele>
        <time>2021-08-22T08:27:11.074Z</time>
      </trkpt>
      <trkpt lat="44.14985" lon="0.53601">
        <ele>145.149949</ele>
        <time>2021-08-22T08:27:14.068Z</time>
      </trkpt>
      <trkpt lat="44.14981" lon="0.53631">
        <ele>143.408129</ele>
        <time>2021-08-22T08:28:38.071Z</time>
      </trkpt>
      <trkpt lat="44.14981" lon="0.53645">
        <ele>143.014859</ele>
        <time>2021-08-22T08:28:42.086Z</time>
      </trkpt>
      <trkpt lat="44.14984" lon="0.53661">
        <ele>142.825279</ele>
        <time>2021-08-22T08:28:46.086Z</time>
      </trkpt>
      <trkpt lat="44.14987" lon="0.53673">
        <ele>142.679297</ele>
        <time>2021-08-22T08:28:49.093Z</time>
      </trkpt>
      <trkpt lat="44.14993" lon="0.53682">
        <ele>142.53316</ele>
        <time>2021-08-22T08:28:52.092Z</time>
      </trkpt>
      <trkpt lat="44.15002" lon="0.53687">
        <ele>142.376878</ele>
        <time>2021-08-22T08:28:56.084Z</time>
      </trkpt>
      <trkpt lat="44.15012" lon="0.53687">
        <ele>142.215472</ele>
        <time>2021-08-22T08:29:00.077Z</time>
      </trkpt>
      <trkpt lat="44.15017" lon="0.53699">
        <ele>142.056676</ele>
        <time>2021-08-22T08:29:03.081Z</time>
      </trkpt>
      <trkpt lat="44.15022" lon="0.53716">
        <ele>141.843699</ele>
        <time>2021-08-22T08:29:06.077Z</time>
      </trkpt>
      <trkpt lat="44.15022" lon="0.53734">
        <ele>141.631875</ele>
        <time>2021-08-22T08:29:09.070Z</time>
      </trkpt>
      <trkpt lat="44.15021" lon="0.53749">
        <ele>141.464093</ele>
        <time>2021-08-22T08:29:11.091Z</time>
      </trkpt>
      <trkpt lat="44.15018" lon="0.53764">
        <ele>141.280571</ele>
        <time>2021-08-22T08:29:13.080Z</time>
      </trkpt>
      <trkpt lat="44.15013" lon="0.53778">
        <ele>141.099945</ele>
        <time>2021-08-22T08:29:15.083Z</time>
      </trkpt>
      <trkpt lat="44.15008" lon="0.53789">
        <ele>140.951188</ele>
        <time>2021-08-22T08:29:17.083Z</time>
      </trkpt>
      <trkpt lat="44.15003" lon="0.53802">
        <ele>140.775523</ele>
        <time>2021-08-22T08:29:21.091Z</time>
      </trkpt>
      <trkpt lat="44.14998" lon="0.53813">
        <ele>140.624916</ele>
        <time>2021-08-22T08:29:24.091Z</time>
      </trkpt>
      <trkpt lat="44.14989" lon="0.53822">
        <ele>140.446866</ele>
        <time>2021-08-22T08:29:27.079Z</time>
      </trkpt>
      <trkpt lat="44.14978" lon="0.53828">
        <ele>140.261393</ele>
        <time>2021-08-22T08:29:30.089Z</time>
      </trkpt>
      <trkpt lat="44.14968" lon="0.53833">
        <ele>140.66863</ele>
        <time>2021-08-22T08:29:33.091Z</time>
      </trkpt>
      <trkpt lat="44.14959" lon="0.53839">
        <ele>141.253884</ele>
        <time>2021-08-22T08:29:36.086Z</time>
      </trkpt>
      <trkpt lat="44.1495" lon="0.53846">
        <ele>141.847636</ele>
        <time>2021-08-22T08:29:39.088Z</time>
      </trkpt>
      <trkpt lat="44.1494" lon="0.53854">
        <ele>142.523563</ele>
        <time>2021-08-22T08:29:43.086Z</time>
      </trkpt>
      <trkpt lat="44.14932" lon="0.5386">
        <ele>143.050778</ele>
        <time>2021-08-22T08:29:46.071Z</time>
      </trkpt>
      <trkpt lat="44.14922" lon="0.53869">
        <ele>143.736357</ele>
        <time>2021-08-22T08:29:50.085Z</time>
      </trkpt>
      <trkpt lat="44.14914" lon="0.53877">
        <ele>144.289495</ele>
        <time>2021-08-22T08:29:54.090Z</time>
      </trkpt>
      <trkpt lat="44.14909" lon="0.53889">
        <ele>144.883962</ele>
        <time>2021-08-22T08:29:59.085Z</time>
      </trkpt>
      <trkpt lat="44.14908" lon="0.53903">
        <ele>145.474854</ele>
        <time>2021-08-22T08:30:05.072Z</time>
      </trkpt>
      <trkpt lat="44.1491" lon="0.53918">
        <ele>146.088697</ele>
        <time>2021-08-22T08:30:11.079Z</time>
      </trkpt>
      <trkpt lat="44.14913" lon="0.53932">
        <ele>146.697642</ele>
        <time>2021-08-22T08:30:15.079Z</time>
      </trkpt>
      <trkpt lat="44.14917" lon="0.53948">
        <ele>147.407833</ele>
        <time>2021-08-22T08:30:21.086Z</time>
      </trkpt>
      <trkpt lat="44.1492" lon="0.53963">
        <ele>148.037896</ele>
        <time>2021-08-22T08:30:26.085Z</time>
      </trkpt>
      <trkpt lat="44.14923" lon="0.53977">
        <ele>148.645157</ele>
        <time>2021-08-22T08:30:31.081Z</time>
      </trkpt>
      <trkpt lat="44.14926" lon="0.5399">
        <ele>149.226868</ele>
        <time>2021-08-22T08:30:36.079Z</time>
      </trkpt>
      <trkpt lat="44.1493" lon="0.54003">
        <ele>149.828499</ele>
        <time>2021-08-22T08:30:40.081Z</time>
      </trkpt>
      <trkpt lat="44.14934" lon="0.54015">
        <ele>150.363023</ele>
        <time>2021-08-22T08:30:44.079Z</time>
      </trkpt>
      <trkpt lat="44.14938" lon="0.5403">
        <ele>150.811509</ele>
        <time>2021-08-22T08:30:48.094Z</time>
      </trkpt>
      <trkpt lat="44.14937" lon="0.54044">
        <ele>151.101758</ele>
        <time>2021-08-22T08:30:52.073Z</time>
      </trkpt>
      <trkpt lat="44.14935" lon="0.54057">
        <ele>151.360743</ele>
        <time>2021-08-22T08:30:59.080Z</time>
      </trkpt>
      <trkpt lat="44.14936" lon="0.54069">
        <ele>151.619284</ele>
        <time>2021-08-22T08:31:05.063Z</time>
      </trkpt>
      <trkpt lat="44.14937" lon="0.54082">
        <ele>151.873314</ele>
        <time>2021-08-22T08:31:08.071Z</time>
      </trkpt>
      <trkpt lat="44.1494" lon="0.54098">
        <ele>152.197724</ele>
        <time>2021-08-22T08:31:11.070Z</time>
      </trkpt>
      <trkpt lat="44.14944" lon="0.54115">
        <ele>152.565335</ele>
        <time>2021-08-22T08:31:14.078Z</time>
      </trkpt>
      <trkpt lat="44.14951" lon="0.54128">
        <ele>152.885825</ele>
        <time>2021-08-22T08:31:17.076Z</time>
      </trkpt>
      <trkpt lat="44.14957" lon="0.54141">
        <ele>153.199003</ele>
        <time>2021-08-22T08:31:20.069Z</time>
      </trkpt>
      <trkpt lat="44.14961" lon="0.54154">
        <ele>153.486544</ele>
        <time>2021-08-22T08:31:23.090Z</time>
      </trkpt>
      <trkpt lat="44.14965" lon="0.54166">
        <ele>153.749814</ele>
        <time>2021-08-22T08:31:26.068Z</time>
      </trkpt>
      <trkpt lat="44.14967" lon="0.54181">
        <ele>154.068245</ele>
        <time>2021-08-22T08:31:30.071Z</time>
      </trkpt>
      <trkpt lat="44.14979" lon="0.542">
        <ele>154.560194</ele>
        <time>2021-08-22T08:31:34.079Z</time>
      </trkpt>
      <trkpt lat="44.14986" lon="0.54211">
        <ele>154.863714</ele>
        <time>2021-08-22T08:31:36.080Z</time>
      </trkpt>
      <trkpt lat="44.14993" lon="0.54229">
        <ele>155.275849</ele>
        <time>2021-08-22T08:31:39.077Z</time>
      </trkpt>
      <trkpt lat="44.14997" lon="0.54249">
        <ele>155.644517</ele>
        <time>2021-08-22T08:31:41.065Z</time>
      </trkpt>
      <trkpt lat="44.15001" lon="0.54267">
        <ele>154.846835</ele>
        <time>2021-08-22T08:31:43.085Z</time>
      </trkpt>
      <trkpt lat="44.15006" lon="0.54278">
        <ele>154.273349</ele>
        <time>2021-08-22T08:31:45.069Z</time>
      </trkpt>
      <trkpt lat="44.15015" lon="0.54285">
        <ele>153.651728</ele>
        <time>2021-08-22T08:31:48.063Z</time>
      </trkpt>
      <trkpt lat="44.15023" lon="0.54292">
        <ele>153.122127</ele>
        <time>2021-08-22T08:31:51.065Z</time>
      </trkpt>
      <trkpt lat="44.15031" lon="0.54307">
        <ele>152.350972</ele>
        <time>2021-08-22T08:31:55.071Z</time>
      </trkpt>
      <trkpt lat="44.15036" lon="0.54322">
        <ele>151.652788</ele>
        <time>2021-08-22T08:31:58.060Z</time>
      </trkpt>
      <trkpt lat="44.1504" lon="0.54334">
        <ele>151.096032</ele>
        <time>2021-08-22T08:32:00.064Z</time>
      </trkpt>
      <trkpt lat="44.15046" lon="0.54347">
        <ele>150.431176</ele>
        <time>2021-08-22T08:32:02.050Z</time>
      </trkpt>
      <trkpt lat="44.15049" lon="0.54362">
        <ele>149.780483</ele>
        <time>2021-08-22T08:32:04.062Z</time>
      </trkpt>
      <trkpt lat="44.15049" lon="0.54377">
        <ele>149.163318</ele>
        <time>2021-08-22T08:32:06.065Z</time>
      </trkpt>
      <trkpt lat="44.15048" lon="0.54391">
        <ele>148.566914</ele>
        <time>2021-08-22T08:32:08.063Z</time>
      </trkpt>
      <trkpt lat="44.15051" lon="0.5441">
        <ele>147.765258</ele>
        <time>2021-08-22T08:32:11.070Z</time>
      </trkpt>
      <trkpt lat="44.15054" lon="0.54424">
        <ele>147.154075</ele>
        <time>2021-08-22T08:32:13.063Z</time>
      </trkpt>
      <trkpt lat="44.15055" lon="0.54439">
        <ele>146.50586</ele>
        <time>2021-08-22T08:32:15.072Z</time>
      </trkpt>
      <trkpt lat="44.15057" lon="0.54454">
        <ele>145.881018</ele>
        <time>2021-08-22T08:32:17.069Z</time>
      </trkpt>
      <trkpt lat="44.1506" lon="0.54471">
        <ele>145.168199</ele>
        <time>2021-08-22T08:32:19.066Z</time>
      </trkpt>
      <trkpt lat="44.15063" lon="0.54486">
        <ele>145.375199</ele>
        <time>2021-08-22T08:32:21.062Z</time>
      </trkpt>
      <trkpt lat="44.15064" lon="0.54503">
        <ele>145.618691</ele>
        <time>2021-08-22T08:32:23.069Z</time>
      </trkpt>
      <trkpt lat="44.15064" lon="0.54517">
        <ele>145.816573</ele>
        <time>2021-08-22T08:32:25.058Z</time>
      </trkpt>
      <trkpt lat="44.15065" lon="0.54531">
        <ele>146.012736</ele>
        <time>2021-08-22T08:32:27.071Z</time>
      </trkpt>
      <trkpt lat="44.15067" lon="0.54547">
        <ele>146.241485</ele>
        <time>2021-08-22T08:32:29.068Z</time>
      </trkpt>
      <trkpt lat="44.15068" lon="0.54563">
        <ele>146.476271</ele>
        <time>2021-08-22T08:32:31.065Z</time>
      </trkpt>
      <trkpt lat="44.15068" lon="0.54577">
        <ele>146.675525</ele>
        <time>2021-08-22T08:32:33.078Z</time>
      </trkpt>
      <trkpt lat="44.15069" lon="0.54591">
        <ele>146.882093</ele>
        <time>2021-08-22T08:32:35.062Z</time>
      </trkpt>
      <trkpt lat="44.15072" lon="0.54607">
        <ele>147.112566</ele>
        <time>2021-08-22T08:32:37.070Z</time>
      </trkpt>
      <trkpt lat="44.15076" lon="0.5462">
        <ele>147.317773</ele>
        <time>2021-08-22T08:32:39.069Z</time>
      </trkpt>
      <trkpt lat="44.15081" lon="0.54637">
        <ele>147.574267</ele>
        <time>2021-08-22T08:32:42.068Z</time>
      </trkpt>
      <trkpt lat="44.15085" lon="0.54656">
        <ele>147.849022</ele>
        <time>2021-08-22T08:32:45.070Z</time>
      </trkpt>
      <trkpt lat="44.15084" lon="0.54671">
        <ele>148.063055</ele>
        <time>2021-08-22T08:32:47.072Z</time>
      </trkpt>
      <trkpt lat="44.15074" lon="0.54679">
        <ele>148.300375</ele>
        <time>2021-08-22T08:32:50.068Z</time>
      </trkpt>
      <trkpt lat="44.15063" lon="0.54682">
        <ele>148.51132</ele>
        <time>2021-08-22T08:32:53.069Z</time>
      </trkpt>
      <trkpt lat="44.15055" lon="0.54688">
        <ele>148.697173</ele>
        <time>2021-08-22T08:32:56.075Z</time>
      </trkpt>
      <trkpt lat="44.15044" lon="0.5469">
        <ele>149.824344</ele>
        <time>2021-08-22T08:33:01.072Z</time>
      </trkpt>
      <trkpt lat="44.15033" lon="0.54693">
        <ele>150.996989</ele>
        <time>2021-08-22T08:33:06.075Z</time>
      </trkpt>
      <trkpt lat="44.15023" lon="0.54696">
        <ele>152.084106</ele>
        <time>2021-08-22T08:33:12.085Z</time>
      </trkpt>
      <trkpt lat="44.15014" lon="0.54699">
        <ele>153.158284</ele>
        <time>2021-08-22T08:33:19.073Z</time>
      </trkpt>
      <trkpt lat="44.15004" lon="0.54702">
        <ele>154.266761</ele>
        <time>2021-08-22T08:33:26.075Z</time>
      </trkpt>
      <trkpt lat="44.14994" lon="0.54704">
        <ele>155.316075</ele>
        <time>2021-08-22T08:33:34.085Z</time>
      </trkpt>
      <trkpt lat="44.14984" lon="0.54706">
        <ele>156.398893</ele>
        <time>2021-08-22T08:33:42.082Z</time>
      </trkpt>
      <trkpt lat="44.14975" lon="0.5471">
        <ele>157.497919</ele>
        <time>2021-08-22T08:33:50.077Z</time>
      </trkpt>
      <trkpt lat="44.14965" lon="0.54713">
        <ele>158.556259</ele>
        <time>2021-08-22T08:33:59.067Z</time>
      </trkpt>
      <trkpt lat="44.14961" lon="0.54725">
        <ele>159.606287</ele>
        <time>2021-08-22T08:34:07.070Z</time>
      </trkpt>
      <trkpt lat="44.14963" lon="0.54738">
        <ele>160.594156</ele>
        <time>2021-08-22T08:34:12.074Z</time>
      </trkpt>
      <trkpt lat="44.14962" lon="0.54752">
        <ele>161.687386</ele>
        <time>2021-08-22T08:34:17.077Z</time>
      </trkpt>
      <trkpt lat="44.14962" lon="0.54766">
        <ele>162.819604</ele>
        <time>2021-08-22T08:34:22.067Z</time>
      </trkpt>
      <trkpt lat="44.14962" lon="0.5478">
        <ele>163.913646</ele>
        <time>2021-08-22T08:34:27.074Z</time>
      </trkpt>
      <trkpt lat="44.14962" lon="0.54793">
        <ele>164.930195</ele>
        <time>2021-08-22T08:34:31.079Z</time>
      </trkpt>
      <trkpt lat="44.1496" lon="0.54806">
        <ele>165.913559</ele>
        <time>2021-08-22T08:34:35.073Z</time>
      </trkpt>
      <trkpt lat="44.14958" lon="0.5482">
        <ele>167.042636</ele>
        <time>2021-08-22T08:34:39.063Z</time>
      </trkpt>
      <trkpt lat="44.14956" lon="0.54834">
        <ele>168.159445</ele>
        <time>2021-08-22T08:34:43.066Z</time>
      </trkpt>
      <trkpt lat="44.14957" lon="0.5485">
        <ele>168.216331</ele>
        <time>2021-08-22T08:34:46.079Z</time>
      </trkpt>
      <trkpt lat="44.14957" lon="0.54863">
        <ele>168.145296</ele>
        <time>2021-08-22T08:34:48.070Z</time>
      </trkpt>
      <trkpt lat="44.14957" lon="0.54881">
        <ele>168.050817</ele>
        <time>2021-08-22T08:34:51.071Z</time>
      </trkpt>
      <trkpt lat="44.14955" lon="0.54898">
        <ele>167.958062</ele>
        <time>2021-08-22T08:34:54.073Z</time>
      </trkpt>
      <trkpt lat="44.14953" lon="0.54916">
        <ele>167.862558</ele>
        <time>2021-08-22T08:34:57.063Z</time>
      </trkpt>
      <trkpt lat="44.14951" lon="0.54933">
        <ele>167.769981</ele>
        <time>2021-08-22T08:35:00.073Z</time>
      </trkpt>
      <trkpt lat="44.14949" lon="0.54947">
        <ele>167.688845</ele>
        <time>2021-08-22T08:35:03.072Z</time>
      </trkpt>
      <trkpt lat="44.14947" lon="0.54961">
        <ele>167.612947</ele>
        <time>2021-08-22T08:35:06.074Z</time>
      </trkpt>
      <trkpt lat="44.14946" lon="0.54975">
        <ele>167.538534</ele>
        <time>2021-08-22T08:35:09.066Z</time>
      </trkpt>
      <trkpt lat="44.14948" lon="0.54991">
        <ele>167.45305</ele>
        <time>2021-08-22T08:35:12.071Z</time>
      </trkpt>
      <trkpt lat="44.1495" lon="0.55009">
        <ele>167.356329</ele>
        <time>2021-08-22T08:35:15.074Z</time>
      </trkpt>
      <trkpt lat="44.14953" lon="0.55022">
        <ele>167.284015</ele>
        <time>2021-08-22T08:35:17.072Z</time>
      </trkpt>
      <trkpt lat="44.14954" lon="0.55038">
        <ele>167.200226</ele>
        <time>2021-08-22T08:35:19.089Z</time>
      </trkpt>
      <trkpt lat="44.14955" lon="0.55054">
        <ele>167.113765</ele>
        <time>2021-08-22T08:35:21.070Z</time>
      </trkpt>
      <trkpt lat="44.14953" lon="0.55071">
        <ele>167.024126</ele>
        <time>2021-08-22T08:35:23.076Z</time>
      </trkpt>
      <trkpt lat="44.14951" lon="0.55088">
        <ele>166.735343</ele>
        <time>2021-08-22T08:35:25.072Z</time>
      </trkpt>
      <trkpt lat="44.14948" lon="0.55107">
        <ele>165.774535</ele>
        <time>2021-08-22T08:35:27.077Z</time>
      </trkpt>
      <trkpt lat="44.14946" lon="0.55127">
        <ele>164.775446</ele>
        <time>2021-08-22T08:35:29.083Z</time>
      </trkpt>
      <trkpt lat="44.14944" lon="0.55148">
        <ele>163.758786</ele>
        <time>2021-08-22T08:35:31.075Z</time>
      </trkpt>
      <trkpt lat="44.14944" lon="0.5517">
        <ele>162.660699</ele>
        <time>2021-08-22T08:35:33.071Z</time>
      </trkpt>
      <trkpt lat="44.14945" lon="0.55183">
        <ele>162.038613</ele>
        <time>2021-08-22T08:35:34.071Z</time>
      </trkpt>
      <trkpt lat="44.14946" lon="0.55197">
        <ele>161.369252</ele>
        <time>2021-08-22T08:35:35.072Z</time>
      </trkpt>
      <trkpt lat="44.14945" lon="0.55211">
        <ele>160.651669</ele>
        <time>2021-08-22T08:35:36.072Z</time>
      </trkpt>
      <trkpt lat="44.14945" lon="0.55228">
        <ele>159.851308</ele>
        <time>2021-08-22T08:35:37.077Z</time>
      </trkpt>
      <trkpt lat="44.14945" lon="0.55245">
        <ele>159.006709</ele>
        <time>2021-08-22T08:35:38.076Z</time>
      </trkpt>
      <trkpt lat="44.14946" lon="0.55263">
        <ele>158.121837</ele>
        <time>2021-08-22T08:35:39.077Z</time>
      </trkpt>
      <trkpt lat="44.14947" lon="0.55282">
        <ele>157.205721</ele>
        <time>2021-08-22T08:35:40.081Z</time>
      </trkpt>
      <trkpt lat="44.14948" lon="0.55299">
        <ele>156.383677</ele>
        <time>2021-08-22T08:35:41.074Z</time>
      </trkpt>
      <trkpt lat="44.14949" lon="0.55313">
        <ele>155.707524</ele>
        <time>2021-08-22T08:35:42.076Z</time>
      </trkpt>
      <trkpt lat="44.14951" lon="0.55333">
        <ele>154.682401</ele>
        <time>2021-08-22T08:35:44.069Z</time>
      </trkpt>
      <trkpt lat="44.1495" lon="0.5535">
        <ele>153.396078</ele>
        <time>2021-08-22T08:35:46.069Z</time>
      </trkpt>
      <trkpt lat="44.14945" lon="0.55369">
        <ele>151.90496</ele>
        <time>2021-08-22T08:35:48.071Z</time>
      </trkpt>
      <trkpt lat="44.14938" lon="0.55387">
        <ele>150.38494</ele>
        <time>2021-08-22T08:35:50.073Z</time>
      </trkpt>
      <trkpt lat="44.1493" lon="0.55404">
        <ele>148.934858</ele>
        <time>2021-08-22T08:35:52.080Z</time>
      </trkpt>
      <trkpt lat="44.14923" lon="0.5542">
        <ele>147.499182</ele>
        <time>2021-08-22T08:35:54.068Z</time>
      </trkpt>
      <trkpt lat="44.14914" lon="0.55435">
        <ele>146.075597</ele>
        <time>2021-08-22T08:35:56.086Z</time>
      </trkpt>
      <trkpt lat="44.14906" lon="0.55446">
        <ele>144.848226</ele>
        <time>2021-08-22T08:35:58.069Z</time>
      </trkpt>
      <trkpt lat="44.149" lon="0.55459">
        <ele>143.73737</ele>
        <time>2021-08-22T08:36:00.068Z</time>
      </trkpt>
      <trkpt lat="44.14905" lon="0.55476">
        <ele>142.448734</ele>
        <time>2021-08-22T08:36:02.074Z</time>
      </trkpt>
      <trkpt lat="44.14912" lon="0.5549">
        <ele>141.128048</ele>
        <time>2021-08-22T08:36:04.072Z</time>
      </trkpt>
      <trkpt lat="44.14918" lon="0.555">
        <ele>140.161668</ele>
        <time>2021-08-22T08:36:06.074Z</time>
      </trkpt>
      <trkpt lat="44.14925" lon="0.55512">
        <ele>139.087639</ele>
        <time>2021-08-22T08:36:10.083Z</time>
      </trkpt>
      <trkpt lat="44.14929" lon="0.55524">
        <ele>138.029117</ele>
        <time>2021-08-22T08:36:14.077Z</time>
      </trkpt>
      <trkpt lat="44.14935" lon="0.55538">
        <ele>136.879107</ele>
        <time>2021-08-22T08:36:16.085Z</time>
      </trkpt>
      <trkpt lat="44.14943" lon="0.55555">
        <ele>135.766067</ele>
        <time>2021-08-22T08:36:18.073Z</time>
      </trkpt>
      <trkpt lat="44.14951" lon="0.55574">
        <ele>135.031284</ele>
        <time>2021-08-22T08:36:20.072Z</time>
      </trkpt>
      <trkpt lat="44.14957" lon="0.55593">
        <ele>134.336881</ele>
        <time>2021-08-22T08:36:22.082Z</time>
      </trkpt>
      <trkpt lat="44.1496" lon="0.55609">
        <ele>133.782576</ele>
        <time>2021-08-22T08:36:24.066Z</time>
      </trkpt>
      <trkpt lat="44.14962" lon="0.55622">
        <ele>133.332509</ele>
        <time>2021-08-22T08:36:26.078Z</time>
      </trkpt>
      <trkpt lat="44.14966" lon="0.55636">
        <ele>132.829691</ele>
        <time>2021-08-22T08:36:29.069Z</time>
      </trkpt>
      <trkpt lat="44.14969" lon="0.5565">
        <ele>132.326036</ele>
        <time>2021-08-22T08:36:33.071Z</time>
      </trkpt>
      <trkpt lat="44.1497" lon="0.55665">
        <ele>131.815956</ele>
        <time>2021-08-22T08:36:39.071Z</time>
      </trkpt>
      <trkpt lat="44.14972" lon="0.55681">
        <ele>131.29122</ele>
        <time>2021-08-22T08:36:41.072Z</time>
      </trkpt>
      <trkpt lat="44.14981" lon="0.55691">
        <ele>130.756055</ele>
        <time>2021-08-22T08:36:44.067Z</time>
      </trkpt>
      <trkpt lat="44.1499" lon="0.55694">
        <ele>130.287005</ele>
        <time>2021-08-22T08:36:47.077Z</time>
      </trkpt>
      <trkpt lat="44.14997" lon="0.55707">
        <ele>129.740916</ele>
        <time>2021-08-22T08:36:50.073Z</time>
      </trkpt>
      <trkpt lat="44.15005" lon="0.55721">
        <ele>129.137381</ele>
        <time>2021-08-22T08:36:53.085Z</time>
      </trkpt>
      <trkpt lat="44.15014" lon="0.5574">
        <ele>128.392179</ele>
        <time>2021-08-22T08:36:56.070Z</time>
      </trkpt>
      <trkpt lat="44.15022" lon="0.55753">
        <ele>127.81292</ele>
        <time>2021-08-22T08:37:00.077Z</time>
      </trkpt>
      <trkpt lat="44.15027" lon="0.55767">
        <ele>128.123674</ele>
        <time>2021-08-22T08:37:04.083Z</time>
      </trkpt>
      <trkpt lat="44.15021" lon="0.55778">
        <ele>128.552597</ele>
        <time>2021-08-22T08:37:08.073Z</time>
      </trkpt>
      <trkpt lat="44.15011" lon="0.55781">
        <ele>129.022805</ele>
        <time>2021-08-22T08:37:11.070Z</time>
      </trkpt>
      <trkpt lat="44.15003" lon="0.55787">
        <ele>129.471846</ele>
        <time>2021-08-22T08:37:14.079Z</time>
      </trkpt>
      <trkpt lat="44.14993" lon="0.55794">
        <ele>129.963548</ele>
        <time>2021-08-22T08:37:17.080Z</time>
      </trkpt>
      <trkpt lat="44.14984" lon="0.55801">
        <ele>130.4675</ele>
        <time>2021-08-22T08:37:20.074Z</time>
      </trkpt>
      <trkpt lat="44.14975" lon="0.55807">
        <ele>130.882513</ele>
        <time>2021-08-22T08:37:23.077Z</time>
      </trkpt>
      <trkpt lat="44.14965" lon="0.55813">
        <ele>131.405924</ele>
        <time>2021-08-22T08:37:27.075Z</time>
      </trkpt>
      <trkpt lat="44.14955" lon="0.55821">
        <ele>131.93592</ele>
        <time>2021-08-22T08:37:31.080Z</time>
      </trkpt>
      <trkpt lat="44.14948" lon="0.55832">
        <ele>132.422609</ele>
        <time>2021-08-22T08:37:35.070Z</time>
      </trkpt>
      <trkpt lat="44.14941" lon="0.55841">
        <ele>132.847829</ele>
        <time>2021-08-22T08:37:39.065Z</time>
      </trkpt>
      <trkpt lat="44.14932" lon="0.55848">
        <ele>133.340622</ele>
        <time>2021-08-22T08:37:43.075Z</time>
      </trkpt>
      <trkpt lat="44.14922" lon="0.55856">
        <ele>133.877506</ele>
        <time>2021-08-22T08:37:47.071Z</time>
      </trkpt>
      <trkpt lat="44.14913" lon="0.55866">
        <ele>134.384799</ele>
        <time>2021-08-22T08:37:51.072Z</time>
      </trkpt>
      <trkpt lat="44.14905" lon="0.55875">
        <ele>134.856198</ele>
        <time>2021-08-22T08:37:55.077Z</time>
      </trkpt>
      <trkpt lat="44.14898" lon="0.55883">
        <ele>135.271156</ele>
        <time>2021-08-22T08:37:58.080Z</time>
      </trkpt>
      <trkpt lat="44.14889" lon="0.55891">
        <ele>135.781622</ele>
        <time>2021-08-22T08:38:02.067Z</time>
      </trkpt>
      <trkpt lat="44.1488" lon="0.55899">
        <ele>136.200041</ele>
        <time>2021-08-22T08:38:06.071Z</time>
      </trkpt>
      <trkpt lat="44.14873" lon="0.55909">
        <ele>136.544841</ele>
        <time>2021-08-22T08:38:10.073Z</time>
      </trkpt>
      <trkpt lat="44.14867" lon="0.55921">
        <ele>136.924595</ele>
        <time>2021-08-22T08:38:16.068Z</time>
      </trkpt>
      <trkpt lat="44.14862" lon="0.55932">
        <ele>137.26032</ele>
        <time>2021-08-22T08:38:24.068Z</time>
      </trkpt>
      <trkpt lat="44.14856" lon="0.55942">
        <ele>137.583209</ele>
        <time>2021-08-22T08:38:32.076Z</time>
      </trkpt>
      <trkpt lat="44.14847" lon="0.5595">
        <ele>137.942931</ele>
        <time>2021-08-22T08:38:39.076Z</time>
      </trkpt>
      <trkpt lat="44.14831" lon="0.55962">
        <ele>138.603057</ele>
        <time>2021-08-22T08:43:38.075Z</time>
      </trkpt>
      <trkpt lat="44.14822" lon="0.55966">
        <ele>138.928959</ele>
        <time>2021-08-22T08:43:48.070Z</time>
      </trkpt>
      <trkpt lat="44.1481" lon="0.55969">
        <ele>139.337909</ele>
        <time>2021-08-22T08:43:53.072Z</time>
      </trkpt>
      <trkpt lat="44.14799" lon="0.55972">
        <ele>139.731168</ele>
        <time>2021-08-22T08:43:55.077Z</time>
      </trkpt>
      <trkpt lat="44.14786" lon="0.55969">
        <ele>140.203686</ele>
        <time>2021-08-22T08:43:57.080Z</time>
      </trkpt>
      <trkpt lat="44.14772" lon="0.55959">
        <ele>140.77219</ele>
        <time>2021-08-22T08:43:59.086Z</time>
      </trkpt>
      <trkpt lat="44.14758" lon="0.5595">
        <ele>141.291653</ele>
        <time>2021-08-22T08:44:01.076Z</time>
      </trkpt>
      <trkpt lat="44.14746" lon="0.55949">
        <ele>141.722655</ele>
        <time>2021-08-22T08:44:03.075Z</time>
      </trkpt>
      <trkpt lat="44.14735" lon="0.55953">
        <ele>142.109309</ele>
        <time>2021-08-22T08:44:05.078Z</time>
      </trkpt>
      <trkpt lat="44.14727" lon="0.55957">
        <ele>142.267544</ele>
        <time>2021-08-22T08:44:07.073Z</time>
      </trkpt>
      <trkpt lat="44.14715" lon="0.55958">
        <ele>142.192942</ele>
        <time>2021-08-22T08:44:10.074Z</time>
      </trkpt>
      <trkpt lat="44.14704" lon="0.55959">
        <ele>142.12253</ele>
        <time>2021-08-22T08:44:13.079Z</time>
      </trkpt>
      <trkpt lat="44.14693" lon="0.55959">
        <ele>142.055906</ele>
        <time>2021-08-22T08:44:16.072Z</time>
      </trkpt>
      <trkpt lat="44.14682" lon="0.55958">
        <ele>141.988586</ele>
        <time>2021-08-22T08:44:19.075Z</time>
      </trkpt>
      <trkpt lat="44.14672" lon="0.55958">
        <ele>141.920059</ele>
        <time>2021-08-22T08:44:22.076Z</time>
      </trkpt>
      <trkpt lat="44.14661" lon="0.55957">
        <ele>141.855797</ele>
        <time>2021-08-22T08:44:25.072Z</time>
      </trkpt>
      <trkpt lat="44.1465" lon="0.55958">
        <ele>141.782067</ele>
        <time>2021-08-22T08:44:29.071Z</time>
      </trkpt>
      <trkpt lat="44.1464" lon="0.55961">
        <ele>141.722885</ele>
        <time>2021-08-22T08:44:32.074Z</time>
      </trkpt>
      <trkpt lat="44.1463" lon="0.55963">
        <ele>141.657797</ele>
        <time>2021-08-22T08:44:36.073Z</time>
      </trkpt>
      <trkpt lat="44.1462" lon="0.55966">
        <ele>141.589438</ele>
        <time>2021-08-22T08:44:39.077Z</time>
      </trkpt>
      <trkpt lat="44.14609" lon="0.55972">
        <ele>141.515784</ele>
        <time>2021-08-22T08:44:43.081Z</time>
      </trkpt>
      <trkpt lat="44.146" lon="0.55975">
        <ele>141.456504</ele>
        <time>2021-08-22T08:44:46.077Z</time>
      </trkpt>
      <trkpt lat="44.14588" lon="0.55982">
        <ele>141.38135</ele>
        <time>2021-08-22T08:44:49.078Z</time>
      </trkpt>
      <trkpt lat="44.14579" lon="0.55988">
        <ele>141.313895</ele>
        <time>2021-08-22T08:44:52.085Z</time>
      </trkpt>
      <trkpt lat="44.1457" lon="0.55991">
        <ele>141.256859</ele>
        <time>2021-08-22T08:44:55.082Z</time>
      </trkpt>
      <trkpt lat="44.14559" lon="0.55995">
        <ele>141.183696</ele>
        <time>2021-08-22T08:44:59.070Z</time>
      </trkpt>
      <trkpt lat="44.14548" lon="0.55998">
        <ele>141.252658</ele>
        <time>2021-08-22T08:45:04.076Z</time>
      </trkpt>
      <trkpt lat="44.14538" lon="0.56001">
        <ele>141.378127</ele>
        <time>2021-08-22T08:45:09.086Z</time>
      </trkpt>
      <trkpt lat="44.14529" lon="0.56006">
        <ele>141.504929</ele>
        <time>2021-08-22T08:45:15.070Z</time>
      </trkpt>
      <trkpt lat="44.14519" lon="0.56013">
        <ele>141.636956</ele>
        <time>2021-08-22T08:45:22.073Z</time>
      </trkpt>
      <trkpt lat="44.14511" lon="0.56019">
        <ele>141.756927</ele>
        <time>2021-08-22T08:45:27.082Z</time>
      </trkpt>
      <trkpt lat="44.14503" lon="0.56026">
        <ele>141.876872</ele>
        <time>2021-08-22T08:45:31.076Z</time>
      </trkpt>
      <trkpt lat="44.14494" lon="0.56032">
        <ele>141.999475</ele>
        <time>2021-08-22T08:45:36.082Z</time>
      </trkpt>
      <trkpt lat="44.14486" lon="0.56039">
        <ele>142.122688</ele>
        <time>2021-08-22T08:45:40.072Z</time>
      </trkpt>
      <trkpt lat="44.14475" lon="0.56051">
        <ele>142.285074</ele>
        <time>2021-08-22T08:45:43.070Z</time>
      </trkpt>
      <trkpt lat="44.14466" lon="0.56063">
        <ele>142.44727</ele>
        <time>2021-08-22T08:45:45.079Z</time>
      </trkpt>
      <trkpt lat="44.14455" lon="0.56078">
        <ele>142.639462</ele>
        <time>2021-08-22T08:45:47.071Z</time>
      </trkpt>
      <trkpt lat="44.1444" lon="0.56088">
        <ele>142.843388</ele>
        <time>2021-08-22T08:45:49.084Z</time>
      </trkpt>
      <trkpt lat="44.14424" lon="0.5609">
        <ele>143.053236</ele>
        <time>2021-08-22T08:45:51.080Z</time>
      </trkpt>
      <trkpt lat="44.14414" lon="0.5609">
        <ele>143.177086</ele>
        <time>2021-08-22T08:45:52.088Z</time>
      </trkpt>
      <trkpt lat="44.14405" lon="0.56088">
        <ele>143.291196</ele>
        <time>2021-08-22T08:45:53.068Z</time>
      </trkpt>
      <trkpt lat="44.14388" lon="0.56084">
        <ele>143.763802</ele>
        <time>2021-08-22T08:45:55.080Z</time>
      </trkpt>
      <trkpt lat="44.14373" lon="0.5608">
        <ele>144.52219</ele>
        <time>2021-08-22T08:45:57.079Z</time>
      </trkpt>
      <trkpt lat="44.1436" lon="0.56077">
        <ele>145.229427</ele>
        <time>2021-08-22T08:45:59.074Z</time>
      </trkpt>
      <trkpt lat="44.14347" lon="0.56074">
        <ele>145.874402</ele>
        <time>2021-08-22T08:46:01.078Z</time>
      </trkpt>
      <trkpt lat="44.14336" lon="0.56071">
        <ele>146.416545</ele>
        <time>2021-08-22T08:46:03.073Z</time>
      </trkpt>
      <trkpt lat="44.14327" lon="0.56069">
        <ele>146.889676</ele>
        <time>2021-08-22T08:46:05.074Z</time>
      </trkpt>
      <trkpt lat="44.14315" lon="0.56065">
        <ele>147.484168</ele>
        <time>2021-08-22T08:46:08.073Z</time>
      </trkpt>
      <trkpt lat="44.14306" lon="0.56062">
        <ele>147.945806</ele>
        <time>2021-08-22T08:46:11.073Z</time>
      </trkpt>
      <trkpt lat="44.14297" lon="0.56059">
        <ele>148.445528</ele>
        <time>2021-08-22T08:46:15.076Z</time>
      </trkpt>
      <trkpt lat="44.14288" lon="0.56054">
        <ele>148.917674</ele>
        <time>2021-08-22T08:46:20.079Z</time>
      </trkpt>
      <trkpt lat="44.14279" lon="0.56047">
        <ele>149.400064</ele>
        <time>2021-08-22T08:46:24.075Z</time>
      </trkpt>
      <trkpt lat="44.14272" lon="0.56038">
        <ele>149.908243</ele>
        <time>2021-08-22T08:46:29.082Z</time>
      </trkpt>
      <trkpt lat="44.14263" lon="0.5603">
        <ele>150.431792</ele>
        <time>2021-08-22T08:46:34.072Z</time>
      </trkpt>
      <trkpt lat="44.14254" lon="0.56023">
        <ele>150.940461</ele>
        <time>2021-08-22T08:46:38.078Z</time>
      </trkpt>
      <trkpt lat="44.14245" lon="0.56016">
        <ele>151.480444</ele>
        <time>2021-08-22T08:46:42.072Z</time>
      </trkpt>
      <trkpt lat="44.14233" lon="0.56012">
        <ele>152.057078</ele>
        <time>2021-08-22T08:46:46.075Z</time>
      </trkpt>
      <trkpt lat="44.14226" lon="0.5602">
        <ele>152.46129</ele>
        <time>2021-08-22T08:46:50.068Z</time>
      </trkpt>
      <trkpt lat="44.14224" lon="0.56034">
        <ele>152.666972</ele>
        <time>2021-08-22T08:46:54.074Z</time>
      </trkpt>
      <trkpt lat="44.14223" lon="0.56046">
        <ele>152.854883</ele>
        <time>2021-08-22T08:46:58.080Z</time>
      </trkpt>
      <trkpt lat="44.14221" lon="0.56059">
        <ele>153.051029</ele>
        <time>2021-08-22T08:47:02.080Z</time>
      </trkpt>
      <trkpt lat="44.1422" lon="0.56073">
        <ele>153.259288</ele>
        <time>2021-08-22T08:47:06.084Z</time>
      </trkpt>
      <trkpt lat="44.14217" lon="0.56089">
        <ele>153.505523</ele>
        <time>2021-08-22T08:47:10.072Z</time>
      </trkpt>
      <trkpt lat="44.14214" lon="0.56101">
        <ele>153.699363</ele>
        <time>2021-08-22T08:47:13.065Z</time>
      </trkpt>
      <trkpt lat="44.14211" lon="0.56114">
        <ele>153.898864</ele>
        <time>2021-08-22T08:47:16.073Z</time>
      </trkpt>
      <trkpt lat="44.14207" lon="0.56129">
        <ele>154.131305</ele>
        <time>2021-08-22T08:47:20.068Z</time>
      </trkpt>
      <trkpt lat="44.14204" lon="0.56143">
        <ele>154.353924</ele>
        <time>2021-08-22T08:47:24.078Z</time>
      </trkpt>
      <trkpt lat="44.14199" lon="0.56157">
        <ele>154.58691</ele>
        <time>2021-08-22T08:47:28.075Z</time>
      </trkpt>
      <trkpt lat="44.14193" lon="0.56171">
        <ele>154.832572</ele>
        <time>2021-08-22T08:47:32.073Z</time>
      </trkpt>
      <trkpt lat="44.14182" lon="0.56174">
        <ele>155.05974</ele>
        <time>2021-08-22T08:47:36.073Z</time>
      </trkpt>
      <trkpt lat="44.14171" lon="0.56174">
        <ele>155.286385</ele>
        <time>2021-08-22T08:47:41.069Z</time>
      </trkpt>
      <trkpt lat="44.14161" lon="0.56175">
        <ele>155.499809</ele>
        <time>2021-08-22T08:47:46.073Z</time>
      </trkpt>
      <trkpt lat="44.14154" lon="0.56184">
        <ele>155.707188</ele>
        <time>2021-08-22T08:47:51.073Z</time>
      </trkpt>
      <trkpt lat="44.14151" lon="0.56203">
        <ele>155.987844</ele>
        <time>2021-08-22T08:47:54.074Z</time>
      </trkpt>
      <trkpt lat="44.14149" lon="0.5622">
        <ele>155.993082</ele>
        <time>2021-08-22T08:47:56.076Z</time>
      </trkpt>
      <trkpt lat="44.14148" lon="0.56237">
        <ele>155.572928</ele>
        <time>2021-08-22T08:47:58.075Z</time>
      </trkpt>
      <trkpt lat="44.14147" lon="0.56256">
        <ele>155.127787</ele>
        <time>2021-08-22T08:48:00.076Z</time>
      </trkpt>
      <trkpt lat="44.14145" lon="0.56276">
        <ele>154.655213</ele>
        <time>2021-08-22T08:48:02.073Z</time>
      </trkpt>
      <trkpt lat="44.14146" lon="0.56297">
        <ele>154.168572</ele>
        <time>2021-08-22T08:48:04.071Z</time>
      </trkpt>
      <trkpt lat="44.14148" lon="0.56318">
        <ele>153.671825</ele>
        <time>2021-08-22T08:48:06.072Z</time>
      </trkpt>
      <trkpt lat="44.14153" lon="0.56336">
        <ele>153.213935</ele>
        <time>2021-08-22T08:48:08.072Z</time>
      </trkpt>
      <trkpt lat="44.14156" lon="0.5635">
        <ele>152.875487</ele>
        <time>2021-08-22T08:48:10.073Z</time>
      </trkpt>
      <trkpt lat="44.14154" lon="0.56362">
        <ele>152.577917</ele>
        <time>2021-08-22T08:48:12.072Z</time>
      </trkpt>
      <trkpt lat="44.14146" lon="0.56371">
        <ele>152.235556</ele>
        <time>2021-08-22T08:48:14.068Z</time>
      </trkpt>
      <trkpt lat="44.14139" lon="0.56381">
        <ele>151.909539</ele>
        <time>2021-08-22T08:48:16.072Z</time>
      </trkpt>
      <trkpt lat="44.14133" lon="0.56392">
        <ele>151.603868</ele>
        <time>2021-08-22T08:48:18.085Z</time>
      </trkpt>
      <trkpt lat="44.14127" lon="0.56403">
        <ele>151.281188</ele>
        <time>2021-08-22T08:48:20.073Z</time>
      </trkpt>
      <trkpt lat="44.14122" lon="0.56415">
        <ele>150.944328</ele>
        <time>2021-08-22T08:48:22.076Z</time>
      </trkpt>
      <trkpt lat="44.14117" lon="0.56427">
        <ele>150.628336</ele>
        <time>2021-08-22T08:48:24.074Z</time>
      </trkpt>
      <trkpt lat="44.14112" lon="0.56437">
        <ele>150.320933</ele>
        <time>2021-08-22T08:48:26.083Z</time>
      </trkpt>
      <trkpt lat="44.14106" lon="0.56448">
        <ele>150.268853</ele>
        <time>2021-08-22T08:48:28.080Z</time>
      </trkpt>
      <trkpt lat="44.14101" lon="0.56458">
        <ele>150.282245</ele>
        <time>2021-08-22T08:48:30.072Z</time>
      </trkpt>
      <trkpt lat="44.14096" lon="0.56469">
        <ele>150.295549</ele>
        <time>2021-08-22T08:48:32.080Z</time>
      </trkpt>
      <trkpt lat="44.14091" lon="0.56481">
        <ele>150.310279</ele>
        <time>2021-08-22T08:48:34.069Z</time>
      </trkpt>
      <trkpt lat="44.14086" lon="0.56497">
        <ele>150.328288</ele>
        <time>2021-08-22T08:48:36.078Z</time>
      </trkpt>
      <trkpt lat="44.14083" lon="0.56518">
        <ele>150.351484</ele>
        <time>2021-08-22T08:48:38.068Z</time>
      </trkpt>
      <trkpt lat="44.14084" lon="0.56542">
        <ele>150.376299</ele>
        <time>2021-08-22T08:48:40.070Z</time>
      </trkpt>
      <trkpt lat="44.14084" lon="0.56564">
        <ele>150.399498</ele>
        <time>2021-08-22T08:48:42.078Z</time>
      </trkpt>
      <trkpt lat="44.14079" lon="0.56583">
        <ele>150.420647</ele>
        <time>2021-08-22T08:48:44.070Z</time>
      </trkpt>
      <trkpt lat="44.1407" lon="0.56597">
        <ele>150.440298</ele>
        <time>2021-08-22T08:48:46.071Z</time>
      </trkpt>
      <trkpt lat="44.14061" lon="0.56606">
        <ele>150.456889</ele>
        <time>2021-08-22T08:48:48.074Z</time>
      </trkpt>
      <trkpt lat="44.14052" lon="0.56615">
        <ele>150.472495</ele>
        <time>2021-08-22T08:48:50.070Z</time>
      </trkpt>
      <trkpt lat="44.14044" lon="0.56622">
        <ele>150.486492</ele>
        <time>2021-08-22T08:48:52.067Z</time>
      </trkpt>
      <trkpt lat="44.14032" lon="0.5663">
        <ele>150.505711</ele>
        <time>2021-08-22T08:48:55.070Z</time>
      </trkpt>
      <trkpt lat="44.14021" lon="0.5664">
        <ele>150.621191</ele>
        <time>2021-08-22T08:48:58.066Z</time>
      </trkpt>
      <trkpt lat="44.14011" lon="0.56647">
        <ele>151.141253</ele>
        <time>2021-08-22T08:49:01.071Z</time>
      </trkpt>
      <trkpt lat="44.14001" lon="0.56655">
        <ele>151.672527</ele>
        <time>2021-08-22T08:49:04.074Z</time>
      </trkpt>
      <trkpt lat="44.13992" lon="0.56663">
        <ele>152.152507</ele>
        <time>2021-08-22T08:49:07.076Z</time>
      </trkpt>
      <trkpt lat="44.13983" lon="0.56672">
        <ele>152.68777</ele>
        <time>2021-08-22T08:49:10.073Z</time>
      </trkpt>
      <trkpt lat="44.13974" lon="0.5668">
        <ele>153.17423</ele>
        <time>2021-08-22T08:49:13.075Z</time>
      </trkpt>
      <trkpt lat="44.13965" lon="0.56688">
        <ele>153.664303</ele>
        <time>2021-08-22T08:49:16.076Z</time>
      </trkpt>
      <trkpt lat="44.13957" lon="0.56696">
        <ele>154.133825</ele>
        <time>2021-08-22T08:49:19.078Z</time>
      </trkpt>
      <trkpt lat="44.13947" lon="0.56704">
        <ele>154.632393</ele>
        <time>2021-08-22T08:49:22.069Z</time>
      </trkpt>
      <trkpt lat="44.13938" lon="0.56711">
        <ele>155.108241</ele>
        <time>2021-08-22T08:49:25.077Z</time>
      </trkpt>
      <trkpt lat="44.13929" lon="0.5672">
        <ele>155.643408</ele>
        <time>2021-08-22T08:49:28.074Z</time>
      </trkpt>
      <trkpt lat="44.13918" lon="0.5673">
        <ele>156.246966</ele>
        <time>2021-08-22T08:49:31.077Z</time>
      </trkpt>
      <trkpt lat="44.13907" lon="0.56741">
        <ele>156.843025</ele>
        <time>2021-08-22T08:49:34.072Z</time>
      </trkpt>
      <trkpt lat="44.13899" lon="0.56752">
        <ele>157.357952</ele>
        <time>2021-08-22T08:49:37.077Z</time>
      </trkpt>
      <trkpt lat="44.13894" lon="0.56764">
        <ele>157.841704</ele>
        <time>2021-08-22T08:49:40.072Z</time>
      </trkpt>
      <trkpt lat="44.1389" lon="0.56778">
        <ele>158.324908</ele>
        <time>2021-08-22T08:49:43.072Z</time>
      </trkpt>
      <trkpt lat="44.13887" lon="0.56793">
        <ele>158.881545</ele>
        <time>2021-08-22T08:49:46.070Z</time>
      </trkpt>
      <trkpt lat="44.13884" lon="0.56806">
        <ele>159.736652</ele>
        <time>2021-08-22T08:49:49.073Z</time>
      </trkpt>
      <trkpt lat="44.13882" lon="0.56818">
        <ele>160.539354</ele>
        <time>2021-08-22T08:49:53.075Z</time>
      </trkpt>
      <trkpt lat="44.13878" lon="0.56829">
        <ele>161.347662</ele>
        <time>2021-08-22T08:49:58.083Z</time>
      </trkpt>
      <trkpt lat="44.13873" lon="0.5684">
        <ele>162.155388</ele>
        <time>2021-08-22T08:50:03.068Z</time>
      </trkpt>
      <trkpt lat="44.13866" lon="0.56849">
        <ele>162.989217</ele>
        <time>2021-08-22T08:50:09.071Z</time>
      </trkpt>
      <trkpt lat="44.1386" lon="0.56859">
        <ele>163.813767</ele>
        <time>2021-08-22T08:50:15.072Z</time>
      </trkpt>
      <trkpt lat="44.13855" lon="0.56871">
        <ele>164.69678</ele>
        <time>2021-08-22T08:50:22.072Z</time>
      </trkpt>
      <trkpt lat="44.13848" lon="0.5688">
        <ele>165.578478</ele>
        <time>2021-08-22T08:50:28.074Z</time>
      </trkpt>
      <trkpt lat="44.13842" lon="0.5689">
        <ele>166.383797</ele>
        <time>2021-08-22T08:50:33.074Z</time>
      </trkpt>
      <trkpt lat="44.13835" lon="0.569">
        <ele>167.303371</ele>
        <time>2021-08-22T08:50:38.077Z</time>
      </trkpt>
      <trkpt lat="44.13827" lon="0.56909">
        <ele>168.215095</ele>
        <time>2021-08-22T08:50:44.079Z</time>
      </trkpt>
      <trkpt lat="44.13818" lon="0.56918">
        <ele>169.171867</ele>
        <time>2021-08-22T08:50:50.073Z</time>
      </trkpt>
      <trkpt lat="44.13809" lon="0.56925">
        <ele>170.081238</ele>
        <time>2021-08-22T08:50:55.069Z</time>
      </trkpt>
      <trkpt lat="44.138" lon="0.56933">
        <ele>171.015518</ele>
        <time>2021-08-22T08:51:01.073Z</time>
      </trkpt>
      <trkpt lat="44.13792" lon="0.56939">
        <ele>171.848927</ele>
        <time>2021-08-22T08:51:06.078Z</time>
      </trkpt>
      <trkpt lat="44.13783" lon="0.56947">
        <ele>172.78029</ele>
        <time>2021-08-22T08:51:12.073Z</time>
      </trkpt>
      <trkpt lat="44.13775" lon="0.56955">
        <ele>173.675275</ele>
        <time>2021-08-22T08:51:18.074Z</time>
      </trkpt>
      <trkpt lat="44.13766" lon="0.56962">
        <ele>174.502539</ele>
        <time>2021-08-22T08:51:24.075Z</time>
      </trkpt>
      <trkpt lat="44.13759" lon="0.5697">
        <ele>175.419473</ele>
        <time>2021-08-22T08:51:31.074Z</time>
      </trkpt>
      <trkpt lat="44.13751" lon="0.5698">
        <ele>176.385418</ele>
        <time>2021-08-22T08:51:37.070Z</time>
      </trkpt>
      <trkpt lat="44.13744" lon="0.56991">
        <ele>177.324133</ele>
        <time>2021-08-22T08:51:43.077Z</time>
      </trkpt>
      <trkpt lat="44.13738" lon="0.57">
        <ele>178.159745</ele>
        <time>2021-08-22T08:51:49.071Z</time>
      </trkpt>
      <trkpt lat="44.13732" lon="0.57011">
        <ele>179.021019</ele>
        <time>2021-08-22T08:51:55.065Z</time>
      </trkpt>
      <trkpt lat="44.13726" lon="0.57022">
        <ele>179.949913</ele>
        <time>2021-08-22T08:52:01.072Z</time>
      </trkpt>
      <trkpt lat="44.1372" lon="0.57032">
        <ele>180.805732</ele>
        <time>2021-08-22T08:52:07.071Z</time>
      </trkpt>
      <trkpt lat="44.13713" lon="0.57042">
        <ele>181.725417</ele>
        <time>2021-08-22T08:52:13.077Z</time>
      </trkpt>
      <trkpt lat="44.13706" lon="0.57052">
        <ele>182.631067</ele>
        <time>2021-08-22T08:52:19.067Z</time>
      </trkpt>
      <trkpt lat="44.13699" lon="0.57061">
        <ele>183.52725</ele>
        <time>2021-08-22T08:52:25.081Z</time>
      </trkpt>
      <trkpt lat="44.13691" lon="0.5707">
        <ele>184.496114</ele>
        <time>2021-08-22T08:52:31.072Z</time>
      </trkpt>
      <trkpt lat="44.13684" lon="0.57079">
        <ele>185.380097</ele>
        <time>2021-08-22T08:52:37.076Z</time>
      </trkpt>
      <trkpt lat="44.13675" lon="0.57087">
        <ele>186.343564</ele>
        <time>2021-08-22T08:52:44.074Z</time>
      </trkpt>
      <trkpt lat="44.13667" lon="0.57096">
        <ele>187.288513</ele>
        <time>2021-08-22T08:52:50.083Z</time>
      </trkpt>
      <trkpt lat="44.13659" lon="0.57103">
        <ele>188.131844</ele>
        <time>2021-08-22T08:52:55.076Z</time>
      </trkpt>
      <trkpt lat="44.13651" lon="0.57112">
        <ele>189.054762</ele>
        <time>2021-08-22T08:53:01.075Z</time>
      </trkpt>
      <trkpt lat="44.13644" lon="0.57121">
        <ele>189.942043</ele>
        <time>2021-08-22T08:53:08.065Z</time>
      </trkpt>
      <trkpt lat="44.13636" lon="0.5713">
        <ele>190.911977</ele>
        <time>2021-08-22T08:53:15.072Z</time>
      </trkpt>
      <trkpt lat="44.13629" lon="0.57139">
        <ele>191.702599</ele>
        <time>2021-08-22T08:53:20.065Z</time>
      </trkpt>
      <trkpt lat="44.13622" lon="0.57148">
        <ele>192.465006</ele>
        <time>2021-08-22T08:53:26.065Z</time>
      </trkpt>
      <trkpt lat="44.13616" lon="0.57159">
        <ele>193.23504</ele>
        <time>2021-08-22T08:53:33.070Z</time>
      </trkpt>
      <trkpt lat="44.1361" lon="0.57169">
        <ele>193.996151</ele>
        <time>2021-08-22T08:53:39.067Z</time>
      </trkpt>
      <trkpt lat="44.13604" lon="0.57181">
        <ele>194.788643</ele>
        <time>2021-08-22T08:53:45.077Z</time>
      </trkpt>
      <trkpt lat="44.136" lon="0.57194">
        <ele>195.593374</ele>
        <time>2021-08-22T08:53:52.079Z</time>
      </trkpt>
      <trkpt lat="44.13596" lon="0.57205">
        <ele>196.32589</ele>
        <time>2021-08-22T08:54:00.066Z</time>
      </trkpt>
      <trkpt lat="44.13593" lon="0.57218">
        <ele>197.069478</ele>
        <time>2021-08-22T08:54:07.076Z</time>
      </trkpt>
      <trkpt lat="44.13592" lon="0.57231">
        <ele>197.871238</ele>
        <time>2021-08-22T08:54:15.069Z</time>
      </trkpt>
      <trkpt lat="44.13589" lon="0.57244">
        <ele>198.655152</ele>
        <time>2021-08-22T08:54:23.070Z</time>
      </trkpt>
      <trkpt lat="44.13586" lon="0.57257">
        <ele>199.395312</ele>
        <time>2021-08-22T08:54:30.065Z</time>
      </trkpt>
      <trkpt lat="44.13583" lon="0.57269">
        <ele>200.107194</ele>
        <time>2021-08-22T08:54:36.074Z</time>
      </trkpt>
      <trkpt lat="44.13581" lon="0.57281">
        <ele>200.834247</ele>
        <time>2021-08-22T08:54:42.076Z</time>
      </trkpt>
      <trkpt lat="44.13579" lon="0.57294">
        <ele>201.588857</ele>
        <time>2021-08-22T08:54:48.069Z</time>
      </trkpt>
      <trkpt lat="44.13576" lon="0.57307">
        <ele>202.335967</ele>
        <time>2021-08-22T08:54:54.071Z</time>
      </trkpt>
      <trkpt lat="44.13574" lon="0.57319">
        <ele>203.096955</ele>
        <time>2021-08-22T08:55:00.065Z</time>
      </trkpt>
      <trkpt lat="44.13571" lon="0.57333">
        <ele>203.892154</ele>
        <time>2021-08-22T08:55:06.073Z</time>
      </trkpt>
      <trkpt lat="44.13568" lon="0.57347">
        <ele>204.741106</ele>
        <time>2021-08-22T08:55:12.069Z</time>
      </trkpt>
      <trkpt lat="44.13565" lon="0.57359">
        <ele>205.476703</ele>
        <time>2021-08-22T08:55:17.077Z</time>
      </trkpt>
      <trkpt lat="44.13563" lon="0.57373">
        <ele>205.96578</ele>
        <time>2021-08-22T08:55:22.070Z</time>
      </trkpt>
      <trkpt lat="44.1356" lon="0.57387">
        <ele>206.475005</ele>
        <time>2021-08-22T08:55:27.075Z</time>
      </trkpt>
      <trkpt lat="44.13557" lon="0.57401">
        <ele>206.987812</ele>
        <time>2021-08-22T08:55:32.076Z</time>
      </trkpt>
      <trkpt lat="44.13553" lon="0.57416">
        <ele>207.52378</ele>
        <time>2021-08-22T08:55:37.070Z</time>
      </trkpt>
      <trkpt lat="44.1355" lon="0.57431">
        <ele>208.064455</ele>
        <time>2021-08-22T08:55:42.098Z</time>
      </trkpt>
      <trkpt lat="44.13547" lon="0.57446">
        <ele>208.594853</ele>
        <time>2021-08-22T08:55:47.069Z</time>
      </trkpt>
      <trkpt lat="44.13545" lon="0.57458">
        <ele>209.035105</ele>
        <time>2021-08-22T08:55:51.078Z</time>
      </trkpt>
      <trkpt lat="44.13543" lon="0.57471">
        <ele>209.473019</ele>
        <time>2021-08-22T08:55:55.062Z</time>
      </trkpt>
      <trkpt lat="44.1354" lon="0.57485">
        <ele>209.995774</ele>
        <time>2021-08-22T08:56:00.075Z</time>
      </trkpt>
      <trkpt lat="44.13536" lon="0.57499">
        <ele>210.505532</ele>
        <time>2021-08-22T08:56:05.082Z</time>
      </trkpt>
      <trkpt lat="44.13534" lon="0.57513">
        <ele>210.998452</ele>
        <time>2021-08-22T08:56:10.072Z</time>
      </trkpt>
      <trkpt lat="44.13531" lon="0.57526">
        <ele>211.447135</ele>
        <time>2021-08-22T08:56:15.074Z</time>
      </trkpt>
      <trkpt lat="44.13528" lon="0.5754">
        <ele>211.956614</ele>
        <time>2021-08-22T08:56:21.075Z</time>
      </trkpt>
      <trkpt lat="44.13526" lon="0.57554">
        <ele>212.451355</ele>
        <time>2021-08-22T08:56:27.072Z</time>
      </trkpt>
      <trkpt lat="44.1352" lon="0.57566">
        <ele>212.932736</ele>
        <time>2021-08-22T08:56:33.083Z</time>
      </trkpt>
      <trkpt lat="44.13514" lon="0.57575">
        <ele>213.390538</ele>
        <time>2021-08-22T08:56:39.069Z</time>
      </trkpt>
      <trkpt lat="44.13509" lon="0.57586">
        <ele>213.840659</ele>
        <time>2021-08-22T08:56:45.079Z</time>
      </trkpt>
      <trkpt lat="44.13514" lon="0.57597">
        <ele>214.239716</ele>
        <time>2021-08-22T08:56:51.070Z</time>
      </trkpt>
      <trkpt lat="44.13523" lon="0.57592">
        <ele>214.546999</ele>
        <time>2021-08-22T08:56:59.072Z</time>
      </trkpt>
      <trkpt lat="44.13532" lon="0.57586">
        <ele>214.846168</ele>
        <time>2021-08-22T08:57:06.074Z</time>
      </trkpt>
      <trkpt lat="44.1354" lon="0.5758">
        <ele>215.148127</ele>
        <time>2021-08-22T08:57:13.073Z</time>
      </trkpt>
      <trkpt lat="44.13548" lon="0.57574">
        <ele>215.448977</ele>
        <time>2021-08-22T08:57:18.078Z</time>
      </trkpt>
      <trkpt lat="44.13557" lon="0.57566">
        <ele>215.784745</ele>
        <time>2021-08-22T08:57:23.074Z</time>
      </trkpt>
      <trkpt lat="44.13566" lon="0.5756">
        <ele>216.083943</ele>
        <time>2021-08-22T08:57:27.077Z</time>
      </trkpt>
      <trkpt lat="44.13575" lon="0.57551">
        <ele>216.430131</ele>
        <time>2021-08-22T08:57:31.073Z</time>
      </trkpt>
      <trkpt lat="44.13583" lon="0.57543">
        <ele>216.764526</ele>
        <time>2021-08-22T08:57:35.080Z</time>
      </trkpt>
      <trkpt lat="44.13593" lon="0.57534">
        <ele>217.140847</ele>
        <time>2021-08-22T08:57:39.068Z</time>
      </trkpt>
      <trkpt lat="44.13601" lon="0.57527">
        <ele>217.437579</ele>
        <time>2021-08-22T08:57:42.078Z</time>
      </trkpt>
      <trkpt lat="44.13609" lon="0.57519">
        <ele>217.736937</ele>
        <time>2021-08-22T08:57:45.073Z</time>
      </trkpt>
      <trkpt lat="44.13618" lon="0.57512">
        <ele>218.062911</ele>
        <time>2021-08-22T08:57:48.075Z</time>
      </trkpt>
      <trkpt lat="44.13627" lon="0.57505">
        <ele>218.392134</ele>
        <time>2021-08-22T08:57:51.077Z</time>
      </trkpt>
      <trkpt lat="44.13636" lon="0.57498">
        <ele>218.734541</ele>
        <time>2021-08-22T08:57:54.081Z</time>
      </trkpt>
      <trkpt lat="44.13646" lon="0.5749">
        <ele>219.083868</ele>
        <time>2021-08-22T08:57:57.066Z</time>
      </trkpt>
      <trkpt lat="44.13655" lon="0.57482">
        <ele>219.433195</ele>
        <time>2021-08-22T08:58:00.075Z</time>
      </trkpt>
      <trkpt lat="44.13664" lon="0.57474">
        <ele>219.778628</ele>
        <time>2021-08-22T08:58:03.079Z</time>
      </trkpt>
      <trkpt lat="44.13673" lon="0.57466">
        <ele>219.867732</ele>
        <time>2021-08-22T08:58:06.078Z</time>
      </trkpt>
      <trkpt lat="44.13683" lon="0.57458">
        <ele>219.895113</ele>
        <time>2021-08-22T08:58:09.073Z</time>
      </trkpt>
      <trkpt lat="44.13692" lon="0.57453">
        <ele>219.920795</ele>
        <time>2021-08-22T08:58:12.080Z</time>
      </trkpt>
      <trkpt lat="44.137" lon="0.57447">
        <ele>219.945084</ele>
        <time>2021-08-22T08:58:15.077Z</time>
      </trkpt>
      <trkpt lat="44.1371" lon="0.5744">
        <ele>219.97233</ele>
        <time>2021-08-22T08:58:18.077Z</time>
      </trkpt>
      <trkpt lat="44.1372" lon="0.57433">
        <ele>220.002252</ele>
        <time>2021-08-22T08:58:21.065Z</time>
      </trkpt>
      <trkpt lat="44.1373" lon="0.57426">
        <ele>220.031213</ele>
        <time>2021-08-22T08:58:24.079Z</time>
      </trkpt>
      <trkpt lat="44.1374" lon="0.5742">
        <ele>220.059636</ele>
        <time>2021-08-22T08:58:27.074Z</time>
      </trkpt>
      <trkpt lat="44.13752" lon="0.57413">
        <ele>220.092267</ele>
        <time>2021-08-22T08:58:30.074Z</time>
      </trkpt>
      <trkpt lat="44.13763" lon="0.57405">
        <ele>220.125291</ele>
        <time>2021-08-22T08:58:33.073Z</time>
      </trkpt>
      <trkpt lat="44.13772" lon="0.57401">
        <ele>220.149521</ele>
        <time>2021-08-22T08:58:35.073Z</time>
      </trkpt>
      <trkpt lat="44.13781" lon="0.57395">
        <ele>220.175395</ele>
        <time>2021-08-22T08:58:37.088Z</time>
      </trkpt>
      <trkpt lat="44.13791" lon="0.57391">
        <ele>220.202472</ele>
        <time>2021-08-22T08:58:39.069Z</time>
      </trkpt>
      <trkpt lat="44.13801" lon="0.57387">
        <ele>220.227528</ele>
        <time>2021-08-22T08:58:41.073Z</time>
      </trkpt>
      <trkpt lat="44.1381" lon="0.57382">
        <ele>220.252094</ele>
        <time>2021-08-22T08:58:43.083Z</time>
      </trkpt>
      <trkpt lat="44.13818" lon="0.57378">
        <ele>220.275504</ele>
        <time>2021-08-22T08:58:45.078Z</time>
      </trkpt>
      <trkpt lat="44.13831" lon="0.57373">
        <ele>220.309105</ele>
        <time>2021-08-22T08:58:48.074Z</time>
      </trkpt>
      <trkpt lat="44.13843" lon="0.57368">
        <ele>219.93017</ele>
        <time>2021-08-22T08:58:51.071Z</time>
      </trkpt>
      <trkpt lat="44.13856" lon="0.57363">
        <ele>219.53222</ele>
        <time>2021-08-22T08:58:54.068Z</time>
      </trkpt>
      <trkpt lat="44.13865" lon="0.57359">
        <ele>219.243186</ele>
        <time>2021-08-22T08:58:56.070Z</time>
      </trkpt>
      <trkpt lat="44.13875" lon="0.57356">
        <ele>218.951304</ele>
        <time>2021-08-22T08:58:58.072Z</time>
      </trkpt>
      <trkpt lat="44.13885" lon="0.57352">
        <ele>218.645147</ele>
        <time>2021-08-22T08:59:00.060Z</time>
      </trkpt>
      <trkpt lat="44.13896" lon="0.57348">
        <ele>218.314475</ele>
        <time>2021-08-22T08:59:02.083Z</time>
      </trkpt>
      <trkpt lat="44.13906" lon="0.57344">
        <ele>217.990068</ele>
        <time>2021-08-22T08:59:04.080Z</time>
      </trkpt>
      <trkpt lat="44.13917" lon="0.5734">
        <ele>217.665624</ele>
        <time>2021-08-22T08:59:06.075Z</time>
      </trkpt>
      <trkpt lat="44.13928" lon="0.57334">
        <ele>217.319087</ele>
        <time>2021-08-22T08:59:08.066Z</time>
      </trkpt>
      <trkpt lat="44.1394" lon="0.57326">
        <ele>216.933532</ele>
        <time>2021-08-22T08:59:10.072Z</time>
      </trkpt>
      <trkpt lat="44.13951" lon="0.57317">
        <ele>216.54918</ele>
        <time>2021-08-22T08:59:12.077Z</time>
      </trkpt>
      <trkpt lat="44.13961" lon="0.57307">
        <ele>216.181321</ele>
        <time>2021-08-22T08:59:14.066Z</time>
      </trkpt>
      <trkpt lat="44.13971" lon="0.57298">
        <ele>215.828033</ele>
        <time>2021-08-22T08:59:16.074Z</time>
      </trkpt>
      <trkpt lat="44.1398" lon="0.57287">
        <ele>215.474448</ele>
        <time>2021-08-22T08:59:18.074Z</time>
      </trkpt>
      <trkpt lat="44.13989" lon="0.57278">
        <ele>215.130492</ele>
        <time>2021-08-22T08:59:20.080Z</time>
      </trkpt>
      <trkpt lat="44.13999" lon="0.57268">
        <ele>214.827479</ele>
        <time>2021-08-22T08:59:22.074Z</time>
      </trkpt>
      <trkpt lat="44.14008" lon="0.57258">
        <ele>214.559257</ele>
        <time>2021-08-22T08:59:24.074Z</time>
      </trkpt>
      <trkpt lat="44.14017" lon="0.57249">
        <ele>214.285197</ele>
        <time>2021-08-22T08:59:26.076Z</time>
      </trkpt>
      <trkpt lat="44.14026" lon="0.57239">
        <ele>214.014863</ele>
        <time>2021-08-22T08:59:28.079Z</time>
      </trkpt>
      <trkpt lat="44.14034" lon="0.57229">
        <ele>213.752214</ele>
        <time>2021-08-22T08:59:30.081Z</time>
      </trkpt>
      <trkpt lat="44.14043" lon="0.57219">
        <ele>213.488491</ele>
        <time>2021-08-22T08:59:32.076Z</time>
      </trkpt>
      <trkpt lat="44.14052" lon="0.57209">
        <ele>213.216019</ele>
        <time>2021-08-22T08:59:34.071Z</time>
      </trkpt>
      <trkpt lat="44.14061" lon="0.57199">
        <ele>212.935431</ele>
        <time>2021-08-22T08:59:36.073Z</time>
      </trkpt>
      <trkpt lat="44.14071" lon="0.57189">
        <ele>212.653826</ele>
        <time>2021-08-22T08:59:38.074Z</time>
      </trkpt>
      <trkpt lat="44.14081" lon="0.5718">
        <ele>212.369456</ele>
        <time>2021-08-22T08:59:40.079Z</time>
      </trkpt>
      <trkpt lat="44.14091" lon="0.57171">
        <ele>212.083016</ele>
        <time>2021-08-22T08:59:42.077Z</time>
      </trkpt>
      <trkpt lat="44.14101" lon="0.57161">
        <ele>211.800537</ele>
        <time>2021-08-22T08:59:44.067Z</time>
      </trkpt>
      <trkpt lat="44.14111" lon="0.57152">
        <ele>211.518865</ele>
        <time>2021-08-22T08:59:46.073Z</time>
      </trkpt>
      <trkpt lat="44.1412" lon="0.57144">
        <ele>211.242825</ele>
        <time>2021-08-22T08:59:48.072Z</time>
      </trkpt>
      <trkpt lat="44.1413" lon="0.57135">
        <ele>210.967206</ele>
        <time>2021-08-22T08:59:50.075Z</time>
      </trkpt>
      <trkpt lat="44.14141" lon="0.57124">
        <ele>210.727485</ele>
        <time>2021-08-22T08:59:52.080Z</time>
      </trkpt>
      <trkpt lat="44.14152" lon="0.57113">
        <ele>210.778452</ele>
        <time>2021-08-22T08:59:54.079Z</time>
      </trkpt>
      <trkpt lat="44.14162" lon="0.57103">
        <ele>210.824929</ele>
        <time>2021-08-22T08:59:56.077Z</time>
      </trkpt>
      <trkpt lat="44.14171" lon="0.57094">
        <ele>210.868454</ele>
        <time>2021-08-22T08:59:58.072Z</time>
      </trkpt>
      <trkpt lat="44.14181" lon="0.57086">
        <ele>210.911179</ele>
        <time>2021-08-22T09:00:00.078Z</time>
      </trkpt>
      <trkpt lat="44.14191" lon="0.57079">
        <ele>210.953831</ele>
        <time>2021-08-22T09:00:02.070Z</time>
      </trkpt>
      <trkpt lat="44.14201" lon="0.57073">
        <ele>210.993864</ele>
        <time>2021-08-22T09:00:04.068Z</time>
      </trkpt>
      <trkpt lat="44.1421" lon="0.57067">
        <ele>211.031909</ele>
        <time>2021-08-22T09:00:06.066Z</time>
      </trkpt>
      <trkpt lat="44.14219" lon="0.57062">
        <ele>211.068457</ele>
        <time>2021-08-22T09:00:08.079Z</time>
      </trkpt>
      <trkpt lat="44.14228" lon="0.57058">
        <ele>211.104073</ele>
        <time>2021-08-22T09:00:10.074Z</time>
      </trkpt>
      <trkpt lat="44.14237" lon="0.57053">
        <ele>211.139429</ele>
        <time>2021-08-22T09:00:12.075Z</time>
      </trkpt>
      <trkpt lat="44.14246" lon="0.57049">
        <ele>211.175526</ele>
        <time>2021-08-22T09:00:14.073Z</time>
      </trkpt>
      <trkpt lat="44.14259" lon="0.57043">
        <ele>211.227573</ele>
        <time>2021-08-22T09:00:17.073Z</time>
      </trkpt>
      <trkpt lat="44.14269" lon="0.57038">
        <ele>211.267094</ele>
        <time>2021-08-22T09:00:19.076Z</time>
      </trkpt>
      <trkpt lat="44.14279" lon="0.57033">
        <ele>211.30795</ele>
        <time>2021-08-22T09:00:21.071Z</time>
      </trkpt>
      <trkpt lat="44.14288" lon="0.57028">
        <ele>211.344552</ele>
        <time>2021-08-22T09:00:23.074Z</time>
      </trkpt>
      <trkpt lat="44.14301" lon="0.57021">
        <ele>211.396234</ele>
        <time>2021-08-22T09:00:26.079Z</time>
      </trkpt>
      <trkpt lat="44.14312" lon="0.57013">
        <ele>211.801563</ele>
        <time>2021-08-22T09:00:29.067Z</time>
      </trkpt>
      <trkpt lat="44.14323" lon="0.57004">
        <ele>212.200706</ele>
        <time>2021-08-22T09:00:32.069Z</time>
      </trkpt>
      <trkpt lat="44.14334" lon="0.56995">
        <ele>212.600711</ele>
        <time>2021-08-22T09:00:35.072Z</time>
      </trkpt>
      <trkpt lat="44.14345" lon="0.56987">
        <ele>212.991145</ele>
        <time>2021-08-22T09:00:38.077Z</time>
      </trkpt>
      <trkpt lat="44.14356" lon="0.56979">
        <ele>213.379481</ele>
        <time>2021-08-22T09:00:41.075Z</time>
      </trkpt>
      <trkpt lat="44.14367" lon="0.56971">
        <ele>213.756141</ele>
        <time>2021-08-22T09:00:44.073Z</time>
      </trkpt>
      <trkpt lat="44.14378" lon="0.56964">
        <ele>214.122303</ele>
        <time>2021-08-22T09:00:47.086Z</time>
      </trkpt>
      <trkpt lat="44.14388" lon="0.56958">
        <ele>214.491623</ele>
        <time>2021-08-22T09:00:50.072Z</time>
      </trkpt>
      <trkpt lat="44.14398" lon="0.56952">
        <ele>214.821094</ele>
        <time>2021-08-22T09:00:53.070Z</time>
      </trkpt>
      <trkpt lat="44.14407" lon="0.56948">
        <ele>215.118971</ele>
        <time>2021-08-22T09:00:56.077Z</time>
      </trkpt>
      <trkpt lat="44.14416" lon="0.56941">
        <ele>215.422013</ele>
        <time>2021-08-22T09:00:59.073Z</time>
      </trkpt>
      <trkpt lat="44.14425" lon="0.56933">
        <ele>215.753479</ele>
        <time>2021-08-22T09:01:02.076Z</time>
      </trkpt>
      <trkpt lat="44.14432" lon="0.56924">
        <ele>216.06002</ele>
        <time>2021-08-22T09:01:05.088Z</time>
      </trkpt>
      <trkpt lat="44.14439" lon="0.56914">
        <ele>216.378167</ele>
        <time>2021-08-22T09:01:08.080Z</time>
      </trkpt>
      <trkpt lat="44.14447" lon="0.56903">
        <ele>216.741327</ele>
        <time>2021-08-22T09:01:11.079Z</time>
      </trkpt>
      <trkpt lat="44.14455" lon="0.56893">
        <ele>217.00351</ele>
        <time>2021-08-22T09:01:14.073Z</time>
      </trkpt>
      <trkpt lat="44.14464" lon="0.56898">
        <ele>216.853829</ele>
        <time>2021-08-22T09:01:18.075Z</time>
      </trkpt>
      <trkpt lat="44.14469" lon="0.56909">
        <ele>216.710468</ele>
        <time>2021-08-22T09:01:26.066Z</time>
      </trkpt>
      <trkpt lat="44.14474" lon="0.5692">
        <ele>216.559803</ele>
        <time>2021-08-22T09:01:37.067Z</time>
      </trkpt>
      <trkpt lat="44.14484" lon="0.56924">
        <ele>216.399209</ele>
        <time>2021-08-22T09:01:43.067Z</time>
      </trkpt>
      <trkpt lat="44.14494" lon="0.56926">
        <ele>216.250937</ele>
        <time>2021-08-22T09:01:47.071Z</time>
      </trkpt>
      <trkpt lat="44.14505" lon="0.56928">
        <ele>216.076448</ele>
        <time>2021-08-22T09:01:51.074Z</time>
      </trkpt>
      <trkpt lat="44.14514" lon="0.5693">
        <ele>215.929219</ele>
        <time>2021-08-22T09:01:54.077Z</time>
      </trkpt>
      <trkpt lat="44.14525" lon="0.56932">
        <ele>215.756672</ele>
        <time>2021-08-22T09:01:57.068Z</time>
      </trkpt>
      <trkpt lat="44.14536" lon="0.56935">
        <ele>215.592196</ele>
        <time>2021-08-22T09:02:00.069Z</time>
      </trkpt>
      <trkpt lat="44.14548" lon="0.56937">
        <ele>215.408617</ele>
        <time>2021-08-22T09:02:03.073Z</time>
      </trkpt>
      <trkpt lat="44.14561" lon="0.5694">
        <ele>215.20704</ele>
        <time>2021-08-22T09:02:06.076Z</time>
      </trkpt>
      <trkpt lat="44.1457" lon="0.56941">
        <ele>215.067217</ele>
        <time>2021-08-22T09:02:08.070Z</time>
      </trkpt>
      <trkpt lat="44.14579" lon="0.56942">
        <ele>214.91825</ele>
        <time>2021-08-22T09:02:10.070Z</time>
      </trkpt>
      <trkpt lat="44.14589" lon="0.56943">
        <ele>214.765897</ele>
        <time>2021-08-22T09:02:12.079Z</time>
      </trkpt>
      <trkpt lat="44.14599" lon="0.56945">
        <ele>214.605358</ele>
        <time>2021-08-22T09:02:14.077Z</time>
      </trkpt>
      <trkpt lat="44.14612" lon="0.56948">
        <ele>214.41328</ele>
        <time>2021-08-22T09:02:16.082Z</time>
      </trkpt>
      <trkpt lat="44.14626" lon="0.56951">
        <ele>213.888728</ele>
        <time>2021-08-22T09:02:18.078Z</time>
      </trkpt>
      <trkpt lat="44.14643" lon="0.56956">
        <ele>212.339661</ele>
        <time>2021-08-22T09:02:20.083Z</time>
      </trkpt>
      <trkpt lat="44.14656" lon="0.56961">
        <ele>211.070081</ele>
        <time>2021-08-22T09:02:22.078Z</time>
      </trkpt>
      <trkpt lat="44.14667" lon="0.56965">
        <ele>209.985189</ele>
        <time>2021-08-22T09:02:24.091Z</time>
      </trkpt>
      <trkpt lat="44.1468" lon="0.56969">
        <ele>208.731429</ele>
        <time>2021-08-22T09:02:26.058Z</time>
      </trkpt>
      <trkpt lat="44.14695" lon="0.56973">
        <ele>207.350423</ele>
        <time>2021-08-22T09:02:28.069Z</time>
      </trkpt>
      <trkpt lat="44.14711" lon="0.56973">
        <ele>205.827576</ele>
        <time>2021-08-22T09:02:30.079Z</time>
      </trkpt>
      <trkpt lat="44.14728" lon="0.56969">
        <ele>204.246833</ele>
        <time>2021-08-22T09:02:32.068Z</time>
      </trkpt>
      <trkpt lat="44.14742" lon="0.56969">
        <ele>202.983716</ele>
        <time>2021-08-22T09:02:34.070Z</time>
      </trkpt>
      <trkpt lat="44.14751" lon="0.56975">
        <ele>202.068988</ele>
        <time>2021-08-22T09:02:36.076Z</time>
      </trkpt>
      <trkpt lat="44.1476" lon="0.56984">
        <ele>201.006259</ele>
        <time>2021-08-22T09:02:38.075Z</time>
      </trkpt>
      <trkpt lat="44.1477" lon="0.56997">
        <ele>199.770845</ele>
        <time>2021-08-22T09:02:40.081Z</time>
      </trkpt>
      <trkpt lat="44.14777" lon="0.57014">
        <ele>198.398037</ele>
        <time>2021-08-22T09:02:42.073Z</time>
      </trkpt>
      <trkpt lat="44.14784" lon="0.57033">
        <ele>197.03341</ele>
        <time>2021-08-22T09:02:44.071Z</time>
      </trkpt>
      <trkpt lat="44.14791" lon="0.5705">
        <ele>195.840813</ele>
        <time>2021-08-22T09:02:46.066Z</time>
      </trkpt>
      <trkpt lat="44.14798" lon="0.57067">
        <ele>194.605923</ele>
        <time>2021-08-22T09:02:48.073Z</time>
      </trkpt>
      <trkpt lat="44.14806" lon="0.57085">
        <ele>193.29212</ele>
        <time>2021-08-22T09:02:50.076Z</time>
      </trkpt>
      <trkpt lat="44.14814" lon="0.57103">
        <ele>191.937419</ele>
        <time>2021-08-22T09:02:52.088Z</time>
      </trkpt>
      <trkpt lat="44.14823" lon="0.5712">
        <ele>190.671305</ele>
        <time>2021-08-22T09:02:54.068Z</time>
      </trkpt>
      <trkpt lat="44.14832" lon="0.57135">
        <ele>189.390315</ele>
        <time>2021-08-22T09:02:56.074Z</time>
      </trkpt>
      <trkpt lat="44.14843" lon="0.5715">
        <ele>188.118541</ele>
        <time>2021-08-22T09:02:58.077Z</time>
      </trkpt>
      <trkpt lat="44.14852" lon="0.57163">
        <ele>186.945198</ele>
        <time>2021-08-22T09:03:00.076Z</time>
      </trkpt>
      <trkpt lat="44.14859" lon="0.57172">
        <ele>186.092082</ele>
        <time>2021-08-22T09:03:02.084Z</time>
      </trkpt>
      <trkpt lat="44.14866" lon="0.57183">
        <ele>185.20328</ele>
        <time>2021-08-22T09:03:05.074Z</time>
      </trkpt>
      <trkpt lat="44.14873" lon="0.57194">
        <ele>184.305965</ele>
        <time>2021-08-22T09:03:08.078Z</time>
      </trkpt>
      <trkpt lat="44.14881" lon="0.57207">
        <ele>183.259239</ele>
        <time>2021-08-22T09:03:11.080Z</time>
      </trkpt>
      <trkpt lat="44.14887" lon="0.57217">
        <ele>182.407757</ele>
        <time>2021-08-22T09:03:13.075Z</time>
      </trkpt>
      <trkpt lat="44.14894" lon="0.57228">
        <ele>181.9484</ele>
        <time>2021-08-22T09:03:15.080Z</time>
      </trkpt>
      <trkpt lat="44.14902" lon="0.5724">
        <ele>182.006891</ele>
        <time>2021-08-22T09:03:17.082Z</time>
      </trkpt>
      <trkpt lat="44.1491" lon="0.57252">
        <ele>182.06413</ele>
        <time>2021-08-22T09:03:19.079Z</time>
      </trkpt>
      <trkpt lat="44.14917" lon="0.57264">
        <ele>182.118552</ele>
        <time>2021-08-22T09:03:21.072Z</time>
      </trkpt>
      <trkpt lat="44.14924" lon="0.57276">
        <ele>182.171407</ele>
        <time>2021-08-22T09:03:23.078Z</time>
      </trkpt>
      <trkpt lat="44.14931" lon="0.57289">
        <ele>182.228339</ele>
        <time>2021-08-22T09:03:26.072Z</time>
      </trkpt>
      <trkpt lat="44.14924" lon="0.57298">
        <ele>182.276139</ele>
        <time>2021-08-22T09:03:30.071Z</time>
      </trkpt>
      <trkpt lat="44.14915" lon="0.57304">
        <ele>182.326104</ele>
        <time>2021-08-22T09:03:33.066Z</time>
      </trkpt>
      <trkpt lat="44.14904" lon="0.5731">
        <ele>182.383451</ele>
        <time>2021-08-22T09:03:37.078Z</time>
      </trkpt>
      <trkpt lat="44.14893" lon="0.57317">
        <ele>182.441865</ele>
        <time>2021-08-22T09:03:40.070Z</time>
      </trkpt>
      <trkpt lat="44.14885" lon="0.57322">
        <ele>182.48784</ele>
        <time>2021-08-22T09:03:44.080Z</time>
      </trkpt>
      <trkpt lat="44.14876" lon="0.57328">
        <ele>182.533332</ele>
        <time>2021-08-22T09:03:47.079Z</time>
      </trkpt>
      <trkpt lat="44.14867" lon="0.57334">
        <ele>182.583017</ele>
        <time>2021-08-22T09:03:51.083Z</time>
      </trkpt>
      <trkpt lat="44.1486" lon="0.57347">
        <ele>182.640807</ele>
        <time>2021-08-22T09:03:54.073Z</time>
      </trkpt>
      <trkpt lat="44.14855" lon="0.57361">
        <ele>182.695938</ele>
        <time>2021-08-22T09:03:56.070Z</time>
      </trkpt>
      <trkpt lat="44.14845" lon="0.57372">
        <ele>182.756444</ele>
        <time>2021-08-22T09:03:58.063Z</time>
      </trkpt>
      <trkpt lat="44.14831" lon="0.57378">
        <ele>182.397316</ele>
        <time>2021-08-22T09:04:00.078Z</time>
      </trkpt>
      <trkpt lat="44.14816" lon="0.57386">
        <ele>181.208619</ele>
        <time>2021-08-22T09:04:02.075Z</time>
      </trkpt>
      <trkpt lat="44.14805" lon="0.57394">
        <ele>180.268266</ele>
        <time>2021-08-22T09:04:04.068Z</time>
      </trkpt>
      <trkpt lat="44.14798" lon="0.57403">
        <ele>179.598423</ele>
        <time>2021-08-22T09:04:06.072Z</time>
      </trkpt>
      <trkpt lat="44.14794" lon="0.57419">
        <ele>178.705821</ele>
        <time>2021-08-22T09:04:08.069Z</time>
      </trkpt>
      <trkpt lat="44.14786" lon="0.57438">
        <ele>177.509027</ele>
        <time>2021-08-22T09:04:10.067Z</time>
      </trkpt>
      <trkpt lat="44.14774" lon="0.57453">
        <ele>176.366682</ele>
        <time>2021-08-22T09:04:12.074Z</time>
      </trkpt>
      <trkpt lat="44.14765" lon="0.57469">
        <ele>175.247347</ele>
        <time>2021-08-22T09:04:14.079Z</time>
      </trkpt>
      <trkpt lat="44.1476" lon="0.57486">
        <ele>174.292064</ele>
        <time>2021-08-22T09:04:16.087Z</time>
      </trkpt>
      <trkpt lat="44.1476" lon="0.575">
        <ele>173.543847</ele>
        <time>2021-08-22T09:04:18.066Z</time>
      </trkpt>
      <trkpt lat="44.14764" lon="0.57512">
        <ele>172.830649</ele>
        <time>2021-08-22T09:04:21.073Z</time>
      </trkpt>
      <trkpt lat="44.14776" lon="0.57516">
        <ele>171.940798</ele>
        <time>2021-08-22T09:04:24.075Z</time>
      </trkpt>
      <trkpt lat="44.14784" lon="0.57522">
        <ele>171.231295</ele>
        <time>2021-08-22T09:04:26.074Z</time>
      </trkpt>
      <trkpt lat="44.14792" lon="0.5753">
        <ele>170.48505</ele>
        <time>2021-08-22T09:04:28.071Z</time>
      </trkpt>
      <trkpt lat="44.14802" lon="0.57537">
        <ele>169.674578</ele>
        <time>2021-08-22T09:04:30.067Z</time>
      </trkpt>
      <trkpt lat="44.14816" lon="0.57541">
        <ele>168.495248</ele>
        <time>2021-08-22T09:04:32.066Z</time>
      </trkpt>
      <trkpt lat="44.14833" lon="0.57544">
        <ele>167.082624</ele>
        <time>2021-08-22T09:04:34.074Z</time>
      </trkpt>
      <trkpt lat="44.14849" lon="0.57548">
        <ele>165.820448</ele>
        <time>2021-08-22T09:04:36.069Z</time>
      </trkpt>
      <trkpt lat="44.14858" lon="0.57549">
        <ele>165.062333</ele>
        <time>2021-08-22T09:04:37.070Z</time>
      </trkpt>
      <trkpt lat="44.14875" lon="0.57554">
        <ele>163.634364</ele>
        <time>2021-08-22T09:04:39.068Z</time>
      </trkpt>
      <trkpt lat="44.14891" lon="0.57562">
        <ele>162.216522</ele>
        <time>2021-08-22T09:04:41.069Z</time>
      </trkpt>
      <trkpt lat="44.14902" lon="0.57569">
        <ele>161.261558</ele>
        <time>2021-08-22T09:04:43.071Z</time>
      </trkpt>
      <trkpt lat="44.1491" lon="0.57578">
        <ele>160.389679</ele>
        <time>2021-08-22T09:04:46.069Z</time>
      </trkpt>
      <trkpt lat="44.14919" lon="0.57587">
        <ele>159.524665</ele>
        <time>2021-08-22T09:04:48.067Z</time>
      </trkpt>
      <trkpt lat="44.14929" lon="0.57596">
        <ele>158.501208</ele>
        <time>2021-08-22T09:04:50.074Z</time>
      </trkpt>
      <trkpt lat="44.14939" lon="0.57604">
        <ele>157.594472</ele>
        <time>2021-08-22T09:04:52.080Z</time>
      </trkpt>
      <trkpt lat="44.1495" lon="0.57611">
        <ele>156.567597</ele>
        <time>2021-08-22T09:04:54.065Z</time>
      </trkpt>
      <trkpt lat="44.1496" lon="0.5762">
        <ele>155.602607</ele>
        <time>2021-08-22T09:04:56.069Z</time>
      </trkpt>
      <trkpt lat="44.14968" lon="0.57631">
        <ele>154.692504</ele>
        <time>2021-08-22T09:04:58.068Z</time>
      </trkpt>
      <trkpt lat="44.14976" lon="0.57644">
        <ele>154.212113</ele>
        <time>2021-08-22T09:05:00.070Z</time>
      </trkpt>
      <trkpt lat="44.14981" lon="0.57659">
        <ele>153.740399</ele>
        <time>2021-08-22T09:05:02.069Z</time>
      </trkpt>
      <trkpt lat="44.14983" lon="0.57676">
        <ele>153.27909</ele>
        <time>2021-08-22T09:05:04.063Z</time>
      </trkpt>
      <trkpt lat="44.14984" lon="0.57696">
        <ele>152.70673</ele>
        <time>2021-08-22T09:05:06.068Z</time>
      </trkpt>
      <trkpt lat="44.14989" lon="0.57717">
        <ele>152.101055</ele>
        <time>2021-08-22T09:05:08.070Z</time>
      </trkpt>
      <trkpt lat="44.14998" lon="0.57736">
        <ele>151.476659</ele>
        <time>2021-08-22T09:05:10.059Z</time>
      </trkpt>
      <trkpt lat="44.15001" lon="0.57756">
        <ele>150.909415</ele>
        <time>2021-08-22T09:05:12.070Z</time>
      </trkpt>
      <trkpt lat="44.15003" lon="0.57775">
        <ele>150.349676</ele>
        <time>2021-08-22T09:05:14.069Z</time>
      </trkpt>
      <trkpt lat="44.15006" lon="0.57795">
        <ele>149.798453</ele>
        <time>2021-08-22T09:05:16.067Z</time>
      </trkpt>
      <trkpt lat="44.1501" lon="0.57817">
        <ele>149.172382</ele>
        <time>2021-08-22T09:05:18.072Z</time>
      </trkpt>
      <trkpt lat="44.15011" lon="0.57841">
        <ele>148.502721</ele>
        <time>2021-08-22T09:05:20.073Z</time>
      </trkpt>
      <trkpt lat="44.15015" lon="0.57863">
        <ele>147.861411</ele>
        <time>2021-08-22T09:05:22.071Z</time>
      </trkpt>
      <trkpt lat="44.15024" lon="0.57879">
        <ele>147.589456</ele>
        <time>2021-08-22T09:05:24.062Z</time>
      </trkpt>
      <trkpt lat="44.15036" lon="0.57891">
        <ele>147.424535</ele>
        <time>2021-08-22T09:05:26.062Z</time>
      </trkpt>
      <trkpt lat="44.15051" lon="0.579">
        <ele>147.245315</ele>
        <time>2021-08-22T09:05:28.072Z</time>
      </trkpt>
      <trkpt lat="44.15066" lon="0.57908">
        <ele>147.064117</ele>
        <time>2021-08-22T09:05:30.066Z</time>
      </trkpt>
      <trkpt lat="44.15082" lon="0.57914">
        <ele>146.876131</ele>
        <time>2021-08-22T09:05:32.072Z</time>
      </trkpt>
      <trkpt lat="44.15097" lon="0.57918">
        <ele>146.705225</ele>
        <time>2021-08-22T09:05:34.066Z</time>
      </trkpt>
      <trkpt lat="44.1511" lon="0.57919">
        <ele>146.547792</ele>
        <time>2021-08-22T09:05:36.061Z</time>
      </trkpt>
      <trkpt lat="44.15123" lon="0.57922">
        <ele>146.402054</ele>
        <time>2021-08-22T09:05:38.066Z</time>
      </trkpt>
      <trkpt lat="44.15138" lon="0.57927">
        <ele>146.229295</ele>
        <time>2021-08-22T09:05:40.060Z</time>
      </trkpt>
      <trkpt lat="44.15153" lon="0.57936">
        <ele>146.045828</ele>
        <time>2021-08-22T09:05:42.081Z</time>
      </trkpt>
      <trkpt lat="44.15168" lon="0.57941">
        <ele>145.874959</ele>
        <time>2021-08-22T09:05:44.071Z</time>
      </trkpt>
      <trkpt lat="44.15183" lon="0.57938">
        <ele>145.703429</ele>
        <time>2021-08-22T09:05:46.070Z</time>
      </trkpt>
      <trkpt lat="44.15198" lon="0.57932">
        <ele>145.277081</ele>
        <time>2021-08-22T09:05:48.066Z</time>
      </trkpt>
      <trkpt lat="44.15208" lon="0.57935">
        <ele>144.964298</ele>
        <time>2021-08-22T09:05:50.073Z</time>
      </trkpt>
      <trkpt lat="44.15216" lon="0.57947">
        <ele>144.609881</ele>
        <time>2021-08-22T09:05:53.066Z</time>
      </trkpt>
      <trkpt lat="44.15237" lon="0.57941">
        <ele>143.965982</ele>
        <time>2021-08-22T09:08:06.087Z</time>
      </trkpt>
      <trkpt lat="44.15247" lon="0.57938">
        <ele>143.637012</ele>
        <time>2021-08-22T09:08:09.077Z</time>
      </trkpt>
      <trkpt lat="44.1526" lon="0.57934">
        <ele>143.250792</ele>
        <time>2021-08-22T09:08:12.080Z</time>
      </trkpt>
      <trkpt lat="44.15269" lon="0.57931">
        <ele>142.946966</ele>
        <time>2021-08-22T09:08:14.065Z</time>
      </trkpt>
      <trkpt lat="44.15278" lon="0.57929">
        <ele>142.668273</ele>
        <time>2021-08-22T09:08:16.085Z</time>
      </trkpt>
      <trkpt lat="44.15287" lon="0.57926">
        <ele>142.388277</ele>
        <time>2021-08-22T09:08:18.085Z</time>
      </trkpt>
      <trkpt lat="44.15297" lon="0.57923">
        <ele>142.096933</ele>
        <time>2021-08-22T09:08:20.074Z</time>
      </trkpt>
      <trkpt lat="44.15307" lon="0.57918">
        <ele>141.778645</ele>
        <time>2021-08-22T09:08:22.089Z</time>
      </trkpt>
      <trkpt lat="44.15317" lon="0.57913">
        <ele>141.443596</ele>
        <time>2021-08-22T09:08:24.095Z</time>
      </trkpt>
      <trkpt lat="44.15327" lon="0.57905">
        <ele>141.105159</ele>
        <time>2021-08-22T09:08:26.073Z</time>
      </trkpt>
      <trkpt lat="44.15337" lon="0.57897">
        <ele>140.757098</ele>
        <time>2021-08-22T09:08:28.077Z</time>
      </trkpt>
      <trkpt lat="44.15347" lon="0.57892">
        <ele>140.426829</ele>
        <time>2021-08-22T09:08:30.080Z</time>
      </trkpt>
      <trkpt lat="44.15356" lon="0.57888">
        <ele>140.153131</ele>
        <time>2021-08-22T09:08:33.076Z</time>
      </trkpt>
      <trkpt lat="44.15367" lon="0.57886">
        <ele>139.889818</ele>
        <time>2021-08-22T09:08:36.057Z</time>
      </trkpt>
      <trkpt lat="44.15378" lon="0.57885">
        <ele>139.639244</ele>
        <time>2021-08-22T09:08:39.074Z</time>
      </trkpt>
      <trkpt lat="44.15387" lon="0.57882">
        <ele>139.400233</ele>
        <time>2021-08-22T09:08:42.077Z</time>
      </trkpt>
      <trkpt lat="44.15396" lon="0.57875">
        <ele>139.180637</ele>
        <time>2021-08-22T09:08:45.069Z</time>
      </trkpt>
      <trkpt lat="44.15407" lon="0.5787">
        <ele>138.90454</ele>
        <time>2021-08-22T09:08:49.069Z</time>
      </trkpt>
      <trkpt lat="44.15417" lon="0.57864">
        <ele>138.628893</ele>
        <time>2021-08-22T09:08:52.069Z</time>
      </trkpt>
      <trkpt lat="44.15428" lon="0.57855">
        <ele>138.339062</ele>
        <time>2021-08-22T09:08:55.073Z</time>
      </trkpt>
      <trkpt lat="44.15437" lon="0.57843">
        <ele>138.041101</ele>
        <time>2021-08-22T09:08:58.080Z</time>
      </trkpt>
      <trkpt lat="44.15449" lon="0.57836">
        <ele>137.738119</ele>
        <time>2021-08-22T09:09:01.076Z</time>
      </trkpt>
      <trkpt lat="44.15458" lon="0.57833">
        <ele>137.520969</ele>
        <time>2021-08-22T09:09:03.071Z</time>
      </trkpt>
      <trkpt lat="44.1547" lon="0.57829">
        <ele>137.236755</ele>
        <time>2021-08-22T09:09:06.068Z</time>
      </trkpt>
      <trkpt lat="44.15481" lon="0.57825">
        <ele>136.964422</ele>
        <time>2021-08-22T09:09:09.074Z</time>
      </trkpt>
      <trkpt lat="44.1549" lon="0.57822">
        <ele>136.734986</ele>
        <time>2021-08-22T09:09:11.068Z</time>
      </trkpt>
      <trkpt lat="44.15501" lon="0.57818">
        <ele>136.469624</ele>
        <time>2021-08-22T09:09:13.075Z</time>
      </trkpt>
      <trkpt lat="44.15511" lon="0.57814">
        <ele>136.23241</ele>
        <time>2021-08-22T09:09:15.068Z</time>
      </trkpt>
      <trkpt lat="44.1552" lon="0.57808">
        <ele>136.00171</ele>
        <time>2021-08-22T09:09:17.067Z</time>
      </trkpt>
      <trkpt lat="44.15529" lon="0.57802">
        <ele>135.697496</ele>
        <time>2021-08-22T09:09:19.067Z</time>
      </trkpt>
      <trkpt lat="44.15541" lon="0.57799">
        <ele>135.330679</ele>
        <time>2021-08-22T09:09:22.067Z</time>
      </trkpt>
      <trkpt lat="44.15552" lon="0.57808">
        <ele>134.946319</ele>
        <time>2021-08-22T09:09:25.066Z</time>
      </trkpt>
      <trkpt lat="44.1556" lon="0.57822">
        <ele>134.574666</ele>
        <time>2021-08-22T09:09:28.071Z</time>
      </trkpt>
      <trkpt lat="44.15572" lon="0.57819">
        <ele>134.230226</ele>
        <time>2021-08-22T09:09:31.062Z</time>
      </trkpt>
      <trkpt lat="44.15581" lon="0.57811">
        <ele>133.914285</ele>
        <time>2021-08-22T09:09:33.079Z</time>
      </trkpt>
      <trkpt lat="44.15589" lon="0.57803">
        <ele>133.630195</ele>
        <time>2021-08-22T09:09:35.066Z</time>
      </trkpt>
      <trkpt lat="44.15597" lon="0.57797">
        <ele>133.352729</ele>
        <time>2021-08-22T09:09:37.073Z</time>
      </trkpt>
      <trkpt lat="44.15606" lon="0.5779">
        <ele>133.039351</ele>
        <time>2021-08-22T09:09:39.066Z</time>
      </trkpt>
      <trkpt lat="44.15615" lon="0.57783">
        <ele>132.724235</ele>
        <time>2021-08-22T09:09:41.074Z</time>
      </trkpt>
      <trkpt lat="44.15625" lon="0.57776">
        <ele>132.400455</ele>
        <time>2021-08-22T09:09:43.063Z</time>
      </trkpt>
      <trkpt lat="44.15633" lon="0.57769">
        <ele>132.103201</ele>
        <time>2021-08-22T09:09:45.070Z</time>
      </trkpt>
      <trkpt lat="44.15645" lon="0.57762">
        <ele>131.728429</ele>
        <time>2021-08-22T09:09:47.074Z</time>
      </trkpt>
      <trkpt lat="44.15655" lon="0.57756">
        <ele>131.409924</ele>
        <time>2021-08-22T09:09:49.073Z</time>
      </trkpt>
      <trkpt lat="44.15663" lon="0.57749">
        <ele>131.109022</ele>
        <time>2021-08-22T09:09:51.072Z</time>
      </trkpt>
      <trkpt lat="44.15673" lon="0.57741">
        <ele>130.784678</ele>
        <time>2021-08-22T09:09:53.068Z</time>
      </trkpt>
      <trkpt lat="44.15681" lon="0.57735">
        <ele>130.527879</ele>
        <time>2021-08-22T09:09:55.067Z</time>
      </trkpt>
      <trkpt lat="44.1569" lon="0.57729">
        <ele>130.339094</ele>
        <time>2021-08-22T09:09:57.069Z</time>
      </trkpt>
      <trkpt lat="44.15704" lon="0.57722">
        <ele>130.035327</ele>
        <time>2021-08-22T09:10:00.079Z</time>
      </trkpt>
      <trkpt lat="44.15717" lon="0.57713">
        <ele>129.760255</ele>
        <time>2021-08-22T09:10:03.068Z</time>
      </trkpt>
      <trkpt lat="44.15726" lon="0.57709">
        <ele>129.578452</ele>
        <time>2021-08-22T09:10:05.071Z</time>
      </trkpt>
      <trkpt lat="44.15738" lon="0.57704">
        <ele>129.329658</ele>
        <time>2021-08-22T09:10:08.069Z</time>
      </trkpt>
      <trkpt lat="44.15751" lon="0.57696">
        <ele>129.041289</ele>
        <time>2021-08-22T09:10:11.068Z</time>
      </trkpt>
      <trkpt lat="44.1576" lon="0.5769">
        <ele>128.848968</ele>
        <time>2021-08-22T09:10:13.073Z</time>
      </trkpt>
      <trkpt lat="44.1577" lon="0.57683">
        <ele>128.625103</ele>
        <time>2021-08-22T09:10:16.061Z</time>
      </trkpt>
      <trkpt lat="44.15779" lon="0.57678">
        <ele>128.445752</ele>
        <time>2021-08-22T09:10:18.065Z</time>
      </trkpt>
      <trkpt lat="44.15787" lon="0.57672">
        <ele>128.261748</ele>
        <time>2021-08-22T09:10:20.074Z</time>
      </trkpt>
      <trkpt lat="44.15798" lon="0.5767">
        <ele>128.047985</ele>
        <time>2021-08-22T09:10:22.069Z</time>
      </trkpt>
      <trkpt lat="44.15809" lon="0.57673">
        <ele>127.81875</ele>
        <time>2021-08-22T09:10:24.063Z</time>
      </trkpt>
      <trkpt lat="44.15819" lon="0.57677">
        <ele>127.614233</ele>
        <time>2021-08-22T09:10:26.076Z</time>
      </trkpt>
      <trkpt lat="44.15829" lon="0.57681">
        <ele>127.418482</ele>
        <time>2021-08-22T09:10:28.069Z</time>
      </trkpt>
      <trkpt lat="44.15838" lon="0.57685">
        <ele>127.229893</ele>
        <time>2021-08-22T09:10:30.076Z</time>
      </trkpt>
      <trkpt lat="44.15847" lon="0.57688">
        <ele>127.048762</ele>
        <time>2021-08-22T09:10:32.072Z</time>
      </trkpt>
      <trkpt lat="44.15856" lon="0.5769">
        <ele>126.962637</ele>
        <time>2021-08-22T09:10:34.072Z</time>
      </trkpt>
      <trkpt lat="44.15865" lon="0.57693">
        <ele>126.878307</ele>
        <time>2021-08-22T09:10:36.070Z</time>
      </trkpt>
      <trkpt lat="44.15876" lon="0.57701">
        <ele>126.763083</ele>
        <time>2021-08-22T09:10:39.066Z</time>
      </trkpt>
      <trkpt lat="44.15886" lon="0.57711">
        <ele>126.650172</ele>
        <time>2021-08-22T09:10:42.066Z</time>
      </trkpt>
      <trkpt lat="44.15896" lon="0.5772">
        <ele>126.53879</ele>
        <time>2021-08-22T09:10:45.063Z</time>
      </trkpt>
      <trkpt lat="44.15907" lon="0.57729">
        <ele>126.424356</ele>
        <time>2021-08-22T09:10:48.070Z</time>
      </trkpt>
      <trkpt lat="44.1592" lon="0.57737">
        <ele>126.292149</ele>
        <time>2021-08-22T09:10:51.067Z</time>
      </trkpt>
      <trkpt lat="44.15928" lon="0.57742">
        <ele>126.208635</ele>
        <time>2021-08-22T09:10:53.068Z</time>
      </trkpt>
      <trkpt lat="44.1594" lon="0.57746">
        <ele>126.092845</ele>
        <time>2021-08-22T09:10:56.068Z</time>
      </trkpt>
      <trkpt lat="44.1595" lon="0.57748">
        <ele>126.004473</ele>
        <time>2021-08-22T09:10:58.066Z</time>
      </trkpt>
      <trkpt lat="44.15959" lon="0.57751">
        <ele>125.914139</ele>
        <time>2021-08-22T09:11:00.064Z</time>
      </trkpt>
      <trkpt lat="44.15969" lon="0.57755">
        <ele>125.820022</ele>
        <time>2021-08-22T09:11:02.070Z</time>
      </trkpt>
      <trkpt lat="44.15979" lon="0.5776">
        <ele>125.7246</ele>
        <time>2021-08-22T09:11:04.066Z</time>
      </trkpt>
      <trkpt lat="44.15987" lon="0.57765">
        <ele>125.641169</ele>
        <time>2021-08-22T09:11:06.069Z</time>
      </trkpt>
      <trkpt lat="44.15998" lon="0.57772">
        <ele>125.533434</ele>
        <time>2021-08-22T09:11:09.073Z</time>
      </trkpt>
      <trkpt lat="44.16006" lon="0.57777">
        <ele>125.447712</ele>
        <time>2021-08-22T09:11:11.070Z</time>
      </trkpt>
      <trkpt lat="44.16016" lon="0.57782">
        <ele>125.305977</ele>
        <time>2021-08-22T09:11:13.074Z</time>
      </trkpt>
      <trkpt lat="44.16027" lon="0.57787">
        <ele>125.097809</ele>
        <time>2021-08-22T09:11:15.069Z</time>
      </trkpt>
      <trkpt lat="44.16036" lon="0.57791">
        <ele>124.9102</ele>
        <time>2021-08-22T09:11:17.069Z</time>
      </trkpt>
      <trkpt lat="44.16045" lon="0.57795">
        <ele>124.736845</ele>
        <time>2021-08-22T09:11:19.079Z</time>
      </trkpt>
      <trkpt lat="44.16055" lon="0.57801">
        <ele>124.537929</ele>
        <time>2021-08-22T09:11:21.066Z</time>
      </trkpt>
      <trkpt lat="44.16066" lon="0.57808">
        <ele>124.311951</ele>
        <time>2021-08-22T09:11:23.071Z</time>
      </trkpt>
      <trkpt lat="44.16076" lon="0.57815">
        <ele>124.087996</ele>
        <time>2021-08-22T09:11:25.070Z</time>
      </trkpt>
      <trkpt lat="44.16086" lon="0.57822">
        <ele>123.883714</ele>
        <time>2021-08-22T09:11:27.072Z</time>
      </trkpt>
      <trkpt lat="44.16095" lon="0.57827">
        <ele>123.691551</ele>
        <time>2021-08-22T09:11:29.076Z</time>
      </trkpt>
      <trkpt lat="44.16108" lon="0.57834">
        <ele>123.442276</ele>
        <time>2021-08-22T09:11:32.071Z</time>
      </trkpt>
      <trkpt lat="44.1612" lon="0.5784">
        <ele>123.197619</ele>
        <time>2021-08-22T09:11:35.070Z</time>
      </trkpt>
      <trkpt lat="44.16131" lon="0.57849">
        <ele>122.943896</ele>
        <time>2021-08-22T09:11:38.067Z</time>
      </trkpt>
      <trkpt lat="44.1614" lon="0.57855">
        <ele>122.773226</ele>
        <time>2021-08-22T09:11:40.073Z</time>
      </trkpt>
      <trkpt lat="44.16148" lon="0.57861">
        <ele>122.596335</ele>
        <time>2021-08-22T09:11:42.077Z</time>
      </trkpt>
      <trkpt lat="44.16158" lon="0.57865">
        <ele>122.405594</ele>
        <time>2021-08-22T09:11:44.074Z</time>
      </trkpt>
      <trkpt lat="44.16166" lon="0.5787">
        <ele>122.223955</ele>
        <time>2021-08-22T09:11:46.076Z</time>
      </trkpt>
      <trkpt lat="44.16176" lon="0.57875">
        <ele>122.041236</ele>
        <time>2021-08-22T09:11:48.074Z</time>
      </trkpt>
      <trkpt lat="44.16186" lon="0.5788">
        <ele>121.89919</ele>
        <time>2021-08-22T09:11:51.075Z</time>
      </trkpt>
      <trkpt lat="44.16195" lon="0.57869">
        <ele>121.771592</ele>
        <time>2021-08-22T09:11:54.078Z</time>
      </trkpt>
      <trkpt lat="44.16203" lon="0.57854">
        <ele>121.632848</ele>
        <time>2021-08-22T09:11:57.065Z</time>
      </trkpt>
      <trkpt lat="44.16209" lon="0.5784">
        <ele>121.505242</ele>
        <time>2021-08-22T09:12:00.067Z</time>
      </trkpt>
      <trkpt lat="44.16214" lon="0.57825">
        <ele>121.383211</ele>
        <time>2021-08-22T09:12:03.072Z</time>
      </trkpt>
      <trkpt lat="44.16219" lon="0.5781">
        <ele>121.257412</ele>
        <time>2021-08-22T09:12:06.069Z</time>
      </trkpt>
      <trkpt lat="44.16224" lon="0.57797">
        <ele>121.144945</ele>
        <time>2021-08-22T09:12:09.087Z</time>
      </trkpt>
      <trkpt lat="44.16229" lon="0.57786">
        <ele>121.042822</ele>
        <time>2021-08-22T09:12:12.072Z</time>
      </trkpt>
      <trkpt lat="44.16239" lon="0.57787">
        <ele>120.936572</ele>
        <time>2021-08-22T09:12:15.072Z</time>
      </trkpt>
      <trkpt lat="44.1625" lon="0.57795">
        <ele>120.802282</ele>
        <time>2021-08-22T09:12:18.080Z</time>
      </trkpt>
      <trkpt lat="44.16257" lon="0.57804">
        <ele>120.70065</ele>
        <time>2021-08-22T09:12:20.076Z</time>
      </trkpt>
      <trkpt lat="44.16266" lon="0.57815">
        <ele>120.57853</ele>
        <time>2021-08-22T09:12:23.074Z</time>
      </trkpt>
      <trkpt lat="44.16278" lon="0.57822">
        <ele>120.437321</ele>
        <time>2021-08-22T09:12:26.070Z</time>
      </trkpt>
      <trkpt lat="44.16287" lon="0.57829">
        <ele>120.330114</ele>
        <time>2021-08-22T09:12:28.076Z</time>
      </trkpt>
      <trkpt lat="44.16295" lon="0.57837">
        <ele>120.221652</ele>
        <time>2021-08-22T09:12:30.068Z</time>
      </trkpt>
      <trkpt lat="44.16303" lon="0.57846">
        <ele>120.112972</ele>
        <time>2021-08-22T09:12:32.079Z</time>
      </trkpt>
      <trkpt lat="44.16311" lon="0.57856">
        <ele>120.255541</ele>
        <time>2021-08-22T09:12:34.076Z</time>
      </trkpt>
      <trkpt lat="44.16318" lon="0.57864">
        <ele>120.462383</ele>
        <time>2021-08-22T09:12:36.079Z</time>
      </trkpt>
      <trkpt lat="44.16325" lon="0.57878">
        <ele>120.735195</ele>
        <time>2021-08-22T09:12:39.080Z</time>
      </trkpt>
      <trkpt lat="44.16322" lon="0.57892">
        <ele>120.967875</ele>
        <time>2021-08-22T09:12:41.081Z</time>
      </trkpt>
      <trkpt lat="44.16318" lon="0.57906">
        <ele>121.208713</ele>
        <time>2021-08-22T09:12:43.094Z</time>
      </trkpt>
      <trkpt lat="44.16314" lon="0.57919">
        <ele>121.432935</ele>
        <time>2021-08-22T09:12:45.073Z</time>
      </trkpt>
      <trkpt lat="44.16311" lon="0.57932">
        <ele>121.645921</ele>
        <time>2021-08-22T09:12:47.088Z</time>
      </trkpt>
      <trkpt lat="44.16306" lon="0.57949">
        <ele>121.941921</ele>
        <time>2021-08-22T09:12:50.087Z</time>
      </trkpt>
      <trkpt lat="44.16299" lon="0.5796">
        <ele>122.179717</ele>
        <time>2021-08-22T09:12:53.081Z</time>
      </trkpt>
      <trkpt lat="44.16293" lon="0.57974">
        <ele>122.432386</ele>
        <time>2021-08-22T09:12:56.066Z</time>
      </trkpt>
      <trkpt lat="44.16292" lon="0.57989">
        <ele>122.677756</ele>
        <time>2021-08-22T09:12:59.072Z</time>
      </trkpt>
      <trkpt lat="44.16291" lon="0.58003">
        <ele>122.90277</ele>
        <time>2021-08-22T09:13:02.086Z</time>
      </trkpt>
      <trkpt lat="44.16288" lon="0.58018">
        <ele>123.154167</ele>
        <time>2021-08-22T09:13:05.083Z</time>
      </trkpt>
      <trkpt lat="44.16284" lon="0.58034">
        <ele>123.410017</ele>
        <time>2021-08-22T09:13:08.066Z</time>
      </trkpt>
      <trkpt lat="44.16282" lon="0.5805">
        <ele>123.682979</ele>
        <time>2021-08-22T09:13:11.085Z</time>
      </trkpt>
      <trkpt lat="44.16279" lon="0.58066">
        <ele>123.936372</ele>
        <time>2021-08-22T09:13:14.081Z</time>
      </trkpt>
      <trkpt lat="44.16277" lon="0.58079">
        <ele>124.227746</ele>
        <time>2021-08-22T09:13:17.068Z</time>
      </trkpt>
      <trkpt lat="44.16274" lon="0.58093">
        <ele>124.724889</ele>
        <time>2021-08-22T09:13:21.070Z</time>
      </trkpt>
      <trkpt lat="44.1627" lon="0.58108">
        <ele>125.255017</ele>
        <time>2021-08-22T09:13:26.065Z</time>
      </trkpt>
      <trkpt lat="44.16267" lon="0.58125">
        <ele>125.850954</ele>
        <time>2021-08-22T09:13:29.074Z</time>
      </trkpt>
      <trkpt lat="44.16265" lon="0.5814">
        <ele>126.332329</ele>
        <time>2021-08-22T09:13:33.067Z</time>
      </trkpt>
      <trkpt lat="44.16262" lon="0.58153">
        <ele>126.798616</ele>
        <time>2021-08-22T09:13:38.073Z</time>
      </trkpt>
      <trkpt lat="44.1626" lon="0.58166">
        <ele>127.268055</ele>
        <time>2021-08-22T09:13:43.076Z</time>
      </trkpt>
      <trkpt lat="44.16258" lon="0.5818">
        <ele>127.737529</ele>
        <time>2021-08-22T09:13:48.081Z</time>
      </trkpt>
      <trkpt lat="44.16257" lon="0.58196">
        <ele>128.263131</ele>
        <time>2021-08-22T09:13:53.070Z</time>
      </trkpt>
      <trkpt lat="44.1626" lon="0.58211">
        <ele>128.802907</ele>
        <time>2021-08-22T09:13:56.069Z</time>
      </trkpt>
      <trkpt lat="44.16261" lon="0.58224">
        <ele>129.236545</ele>
        <time>2021-08-22T09:13:58.070Z</time>
      </trkpt>
      <trkpt lat="44.16259" lon="0.58242">
        <ele>129.866866</ele>
        <time>2021-08-22T09:14:01.077Z</time>
      </trkpt>
      <trkpt lat="44.16258" lon="0.58256">
        <ele>130.3093</ele>
        <time>2021-08-22T09:14:03.073Z</time>
      </trkpt>
      <trkpt lat="44.16257" lon="0.58268">
        <ele>130.737459</ele>
        <time>2021-08-22T09:14:05.074Z</time>
      </trkpt>
      <trkpt lat="44.16256" lon="0.58287">
        <ele>131.371333</ele>
        <time>2021-08-22T09:14:08.072Z</time>
      </trkpt>
      <trkpt lat="44.16255" lon="0.583">
        <ele>131.812502</ele>
        <time>2021-08-22T09:14:10.068Z</time>
      </trkpt>
      <trkpt lat="44.16254" lon="0.58313">
        <ele>132.258793</ele>
        <time>2021-08-22T09:14:12.069Z</time>
      </trkpt>
      <trkpt lat="44.16254" lon="0.58327">
        <ele>132.627653</ele>
        <time>2021-08-22T09:14:14.077Z</time>
      </trkpt>
      <trkpt lat="44.16254" lon="0.58341">
        <ele>132.886573</ele>
        <time>2021-08-22T09:14:16.075Z</time>
      </trkpt>
      <trkpt lat="44.16253" lon="0.58355">
        <ele>133.154995</ele>
        <time>2021-08-22T09:14:18.071Z</time>
      </trkpt>
      <trkpt lat="44.16251" lon="0.58368">
        <ele>133.404395</ele>
        <time>2021-08-22T09:14:20.070Z</time>
      </trkpt>
      <trkpt lat="44.16242" lon="0.58377">
        <ele>133.681322</ele>
        <time>2021-08-22T09:14:23.077Z</time>
      </trkpt>
      <trkpt lat="44.16235" lon="0.58388">
        <ele>133.961791</ele>
        <time>2021-08-22T09:14:30.072Z</time>
      </trkpt>
      <trkpt lat="44.16234" lon="0.58405">
        <ele>134.27675</ele>
        <time>2021-08-22T09:14:34.077Z</time>
      </trkpt>
      <trkpt lat="44.16235" lon="0.58419">
        <ele>134.537728</ele>
        <time>2021-08-22T09:14:37.081Z</time>
      </trkpt>
      <trkpt lat="44.16231" lon="0.58432">
        <ele>134.802558</ele>
        <time>2021-08-22T09:14:40.070Z</time>
      </trkpt>
      <trkpt lat="44.16225" lon="0.58442">
        <ele>135.050703</ele>
        <time>2021-08-22T09:14:43.074Z</time>
      </trkpt>
      <trkpt lat="44.16224" lon="0.58456">
        <ele>135.319728</ele>
        <time>2021-08-22T09:14:47.077Z</time>
      </trkpt>
      <trkpt lat="44.16223" lon="0.58468">
        <ele>135.552921</ele>
        <time>2021-08-22T09:14:50.078Z</time>
      </trkpt>
      <trkpt lat="44.16222" lon="0.58483">
        <ele>135.816836</ele>
        <time>2021-08-22T09:14:51.077Z</time>
      </trkpt>
      <trkpt lat="44.16222" lon="0.58499">
        <ele>136.122322</ele>
        <time>2021-08-22T09:14:54.078Z</time>
      </trkpt>
      <trkpt lat="44.16221" lon="0.58513">
        <ele>136.39266</ele>
        <time>2021-08-22T09:14:58.077Z</time>
      </trkpt>
      <trkpt lat="44.16218" lon="0.58527">
        <ele>136.653142</ele>
        <time>2021-08-22T09:15:03.076Z</time>
      </trkpt>
      <trkpt lat="44.16215" lon="0.58539">
        <ele>136.896003</ele>
        <time>2021-08-22T09:15:06.073Z</time>
      </trkpt>
      <trkpt lat="44.16214" lon="0.58554">
        <ele>137.171786</ele>
        <time>2021-08-22T09:15:09.071Z</time>
      </trkpt>
      <trkpt lat="44.16215" lon="0.58569">
        <ele>136.653084</ele>
        <time>2021-08-22T09:15:12.077Z</time>
      </trkpt>
      <trkpt lat="44.16217" lon="0.58582">
        <ele>136.164968</ele>
        <time>2021-08-22T09:15:15.063Z</time>
      </trkpt>
      <trkpt lat="44.16217" lon="0.58601">
        <ele>135.474263</ele>
        <time>2021-08-22T09:15:18.078Z</time>
      </trkpt>
      <trkpt lat="44.16215" lon="0.58618">
        <ele>134.831282</ele>
        <time>2021-08-22T09:15:21.075Z</time>
      </trkpt>
      <trkpt lat="44.16212" lon="0.58633">
        <ele>134.266394</ele>
        <time>2021-08-22T09:15:24.074Z</time>
      </trkpt>
      <trkpt lat="44.16209" lon="0.58649">
        <ele>133.663311</ele>
        <time>2021-08-22T09:15:28.073Z</time>
      </trkpt>
      <trkpt lat="44.16208" lon="0.58669">
        <ele>132.927906</ele>
        <time>2021-08-22T09:15:31.077Z</time>
      </trkpt>
      <trkpt lat="44.16207" lon="0.58685">
        <ele>132.340518</ele>
        <time>2021-08-22T09:15:33.071Z</time>
      </trkpt>
      <trkpt lat="44.16206" lon="0.58698">
        <ele>131.839122</ele>
        <time>2021-08-22T09:15:35.077Z</time>
      </trkpt>
      <trkpt lat="44.16204" lon="0.58711">
        <ele>131.366038</ele>
        <time>2021-08-22T09:15:37.086Z</time>
      </trkpt>
      <trkpt lat="44.16198" lon="0.58725">
        <ele>130.78298</ele>
        <time>2021-08-22T09:15:40.077Z</time>
      </trkpt>
      <trkpt lat="44.16198" lon="0.58738">
        <ele>130.304141</ele>
        <time>2021-08-22T09:15:43.079Z</time>
      </trkpt>
      <trkpt lat="44.16197" lon="0.58751">
        <ele>129.825165</ele>
        <time>2021-08-22T09:15:46.070Z</time>
      </trkpt>
      <trkpt lat="44.16198" lon="0.58768">
        <ele>129.200236</ele>
        <time>2021-08-22T09:15:50.082Z</time>
      </trkpt>
      <trkpt lat="44.16197" lon="0.58785">
        <ele>128.584939</ele>
        <time>2021-08-22T09:15:53.082Z</time>
      </trkpt>
      <trkpt lat="44.16195" lon="0.58802">
        <ele>128.044224</ele>
        <time>2021-08-22T09:15:56.076Z</time>
      </trkpt>
      <trkpt lat="44.16192" lon="0.58818">
        <ele>128.234529</ele>
        <time>2021-08-22T09:15:59.070Z</time>
      </trkpt>
      <trkpt lat="44.16194" lon="0.58837">
        <ele>128.456835</ele>
        <time>2021-08-22T09:16:01.070Z</time>
      </trkpt>
      <trkpt lat="44.16195" lon="0.58855">
        <ele>128.657705</ele>
        <time>2021-08-22T09:16:04.075Z</time>
      </trkpt>
      <trkpt lat="44.16196" lon="0.58868">
        <ele>128.81406</ele>
        <time>2021-08-22T09:16:06.081Z</time>
      </trkpt>
      <trkpt lat="44.16195" lon="0.58881">
        <ele>128.961226</ele>
        <time>2021-08-22T09:16:08.077Z</time>
      </trkpt>
      <trkpt lat="44.16195" lon="0.58899">
        <ele>129.168465</ele>
        <time>2021-08-22T09:16:11.068Z</time>
      </trkpt>
      <trkpt lat="44.16194" lon="0.58915">
        <ele>129.350732</ele>
        <time>2021-08-22T09:16:14.072Z</time>
      </trkpt>
      <trkpt lat="44.16193" lon="0.58931">
        <ele>129.530575</ele>
        <time>2021-08-22T09:16:17.074Z</time>
      </trkpt>
      <trkpt lat="44.16192" lon="0.58945">
        <ele>129.701015</ele>
        <time>2021-08-22T09:16:20.067Z</time>
      </trkpt>
      <trkpt lat="44.1619" lon="0.58961">
        <ele>129.876415</ele>
        <time>2021-08-22T09:16:23.074Z</time>
      </trkpt>
      <trkpt lat="44.16189" lon="0.58976">
        <ele>130.053461</ele>
        <time>2021-08-22T09:16:26.075Z</time>
      </trkpt>
      <trkpt lat="44.16188" lon="0.58992">
        <ele>130.243443</ele>
        <time>2021-08-22T09:16:29.072Z</time>
      </trkpt>
      <trkpt lat="44.16186" lon="0.59005">
        <ele>130.395007</ele>
        <time>2021-08-22T09:16:31.069Z</time>
      </trkpt>
      <trkpt lat="44.16186" lon="0.5902">
        <ele>130.559402</ele>
        <time>2021-08-22T09:16:34.080Z</time>
      </trkpt>
      <trkpt lat="44.16186" lon="0.59034">
        <ele>130.719139</ele>
        <time>2021-08-22T09:16:38.086Z</time>
      </trkpt>
      <trkpt lat="44.16186" lon="0.59052">
        <ele>130.869372</ele>
        <time>2021-08-22T09:16:41.070Z</time>
      </trkpt>
      <trkpt lat="44.16185" lon="0.59065">
        <ele>130.690059</ele>
        <time>2021-08-22T09:16:43.076Z</time>
      </trkpt>
      <trkpt lat="44.16185" lon="0.59078">
        <ele>130.512592</ele>
        <time>2021-08-22T09:16:45.069Z</time>
      </trkpt>
      <trkpt lat="44.16185" lon="0.59092">
        <ele>130.316111</ele>
        <time>2021-08-22T09:16:47.072Z</time>
      </trkpt>
      <trkpt lat="44.16185" lon="0.59108">
        <ele>130.099121</ele>
        <time>2021-08-22T09:16:49.070Z</time>
      </trkpt>
      <trkpt lat="44.16185" lon="0.59122">
        <ele>129.909505</ele>
        <time>2021-08-22T09:16:51.072Z</time>
      </trkpt>
      <trkpt lat="44.16186" lon="0.59138">
        <ele>129.688524</ele>
        <time>2021-08-22T09:16:54.078Z</time>
      </trkpt>
      <trkpt lat="44.16187" lon="0.59151">
        <ele>129.512464</ele>
        <time>2021-08-22T09:16:59.076Z</time>
      </trkpt>
      <trkpt lat="44.16199" lon="0.59157">
        <ele>129.269638</ele>
        <time>2021-08-22T09:19:19.088Z</time>
      </trkpt>
      <trkpt lat="44.16212" lon="0.59154">
        <ele>129.024967</ele>
        <time>2021-08-22T09:19:22.086Z</time>
      </trkpt>
      <trkpt lat="44.16223" lon="0.59153">
        <ele>128.809698</ele>
        <time>2021-08-22T09:19:24.091Z</time>
      </trkpt>
      <trkpt lat="44.16236" lon="0.59152">
        <ele>128.560458</ele>
        <time>2021-08-22T09:19:26.094Z</time>
      </trkpt>
      <trkpt lat="44.16252" lon="0.59152">
        <ele>128.263867</ele>
        <time>2021-08-22T09:19:28.096Z</time>
      </trkpt>
      <trkpt lat="44.1627" lon="0.59152">
        <ele>127.919746</ele>
        <time>2021-08-22T09:19:30.091Z</time>
      </trkpt>
      <trkpt lat="44.1628" lon="0.59152">
        <ele>127.733383</ele>
        <time>2021-08-22T09:19:31.091Z</time>
      </trkpt>
      <trkpt lat="44.16289" lon="0.59152">
        <ele>127.545085</ele>
        <time>2021-08-22T09:19:32.092Z</time>
      </trkpt>
      <trkpt lat="44.163" lon="0.59151">
        <ele>127.137782</ele>
        <time>2021-08-22T09:19:33.087Z</time>
      </trkpt>
      <trkpt lat="44.1631" lon="0.59151">
        <ele>126.60364</ele>
        <time>2021-08-22T09:19:34.091Z</time>
      </trkpt>
      <trkpt lat="44.16321" lon="0.59152">
        <ele>126.074443</ele>
        <time>2021-08-22T09:19:35.086Z</time>
      </trkpt>
      <trkpt lat="44.16332" lon="0.59152">
        <ele>125.530317</ele>
        <time>2021-08-22T09:19:36.091Z</time>
      </trkpt>
      <trkpt lat="44.16343" lon="0.59152">
        <ele>124.981189</ele>
        <time>2021-08-22T09:19:37.094Z</time>
      </trkpt>
      <trkpt lat="44.16354" lon="0.59152">
        <ele>124.432025</ele>
        <time>2021-08-22T09:19:38.094Z</time>
      </trkpt>
      <trkpt lat="44.16365" lon="0.59151">
        <ele>123.867886</ele>
        <time>2021-08-22T09:19:39.092Z</time>
      </trkpt>
      <trkpt lat="44.16376" lon="0.59151">
        <ele>123.308739</ele>
        <time>2021-08-22T09:19:40.094Z</time>
      </trkpt>
      <trkpt lat="44.16388" lon="0.59151">
        <ele>122.734562</ele>
        <time>2021-08-22T09:19:41.098Z</time>
      </trkpt>
      <trkpt lat="44.16399" lon="0.59151">
        <ele>122.170423</ele>
        <time>2021-08-22T09:19:42.102Z</time>
      </trkpt>
      <trkpt lat="44.1641" lon="0.5915">
        <ele>121.626251</ele>
        <time>2021-08-22T09:19:43.092Z</time>
      </trkpt>
      <trkpt lat="44.16421" lon="0.5915">
        <ele>121.082114</ele>
        <time>2021-08-22T09:19:44.084Z</time>
      </trkpt>
      <trkpt lat="44.16432" lon="0.59151">
        <ele>120.542933</ele>
        <time>2021-08-22T09:19:45.086Z</time>
      </trkpt>
      <trkpt lat="44.16442" lon="0.59151">
        <ele>120.008599</ele>
        <time>2021-08-22T09:19:46.085Z</time>
      </trkpt>
      <trkpt lat="44.16453" lon="0.59151">
        <ele>119.489422</ele>
        <time>2021-08-22T09:19:47.078Z</time>
      </trkpt>
      <trkpt lat="44.16463" lon="0.59151">
        <ele>118.999999</ele>
        <time>2021-08-22T09:19:48.098Z</time>
      </trkpt>
      <trkpt lat="44.16472" lon="0.5915">
        <ele>118.535248</ele>
        <time>2021-08-22T09:19:49.094Z</time>
      </trkpt>
      <trkpt lat="44.1649" lon="0.59151">
        <ele>117.921913</ele>
        <time>2021-08-22T09:19:51.103Z</time>
      </trkpt>
      <trkpt lat="44.16507" lon="0.5915">
        <ele>117.332331</ele>
        <time>2021-08-22T09:19:53.092Z</time>
      </trkpt>
      <trkpt lat="44.16524" lon="0.5915">
        <ele>116.762971</ele>
        <time>2021-08-22T09:19:55.092Z</time>
      </trkpt>
      <trkpt lat="44.16541" lon="0.59149">
        <ele>116.197164</ele>
        <time>2021-08-22T09:19:57.099Z</time>
      </trkpt>
      <trkpt lat="44.16557" lon="0.59149">
        <ele>115.651359</ele>
        <time>2021-08-22T09:19:59.098Z</time>
      </trkpt>
      <trkpt lat="44.16572" lon="0.59148">
        <ele>115.146504</ele>
        <time>2021-08-22T09:20:01.089Z</time>
      </trkpt>
      <trkpt lat="44.16586" lon="0.59148">
        <ele>114.645083</ele>
        <time>2021-08-22T09:20:03.099Z</time>
      </trkpt>
      <trkpt lat="44.16599" lon="0.59152">
        <ele>114.217178</ele>
        <time>2021-08-22T09:20:05.096Z</time>
      </trkpt>
      <trkpt lat="44.16609" lon="0.59162">
        <ele>113.805587</ele>
        <time>2021-08-22T09:20:08.085Z</time>
      </trkpt>
      <trkpt lat="44.16609" lon="0.59179">
        <ele>113.389959</ele>
        <time>2021-08-22T09:20:11.091Z</time>
      </trkpt>
      <trkpt lat="44.16606" lon="0.59192">
        <ele>113.053103</ele>
        <time>2021-08-22T09:20:13.099Z</time>
      </trkpt>
      <trkpt lat="44.16603" lon="0.59206">
        <ele>112.702953</ele>
        <time>2021-08-22T09:20:15.092Z</time>
      </trkpt>
      <trkpt lat="44.166" lon="0.59219">
        <ele>112.401188</ele>
        <time>2021-08-22T09:20:17.096Z</time>
      </trkpt>
      <trkpt lat="44.16596" lon="0.59233">
        <ele>112.352341</ele>
        <time>2021-08-22T09:20:19.086Z</time>
      </trkpt>
      <trkpt lat="44.16593" lon="0.59247">
        <ele>112.303454</ele>
        <time>2021-08-22T09:20:21.093Z</time>
      </trkpt>
      <trkpt lat="44.16592" lon="0.59261">
        <ele>112.254481</ele>
        <time>2021-08-22T09:20:23.094Z</time>
      </trkpt>
      <trkpt lat="44.1659" lon="0.59276">
        <ele>112.203024</ele>
        <time>2021-08-22T09:20:25.093Z</time>
      </trkpt>
      <trkpt lat="44.16589" lon="0.59291">
        <ele>112.151204</ele>
        <time>2021-08-22T09:20:27.098Z</time>
      </trkpt>
      <trkpt lat="44.16586" lon="0.59306">
        <ele>112.100295</ele>
        <time>2021-08-22T09:20:29.097Z</time>
      </trkpt>
      <trkpt lat="44.16583" lon="0.5932">
        <ele>112.050297</ele>
        <time>2021-08-22T09:20:31.094Z</time>
      </trkpt>
      <trkpt lat="44.1658" lon="0.59334">
        <ele>112.000158</ele>
        <time>2021-08-22T09:20:33.095Z</time>
      </trkpt>
      <trkpt lat="44.16577" lon="0.59348">
        <ele>111.949511</ele>
        <time>2021-08-22T09:20:35.098Z</time>
      </trkpt>
      <trkpt lat="44.16575" lon="0.59363">
        <ele>111.900362</ele>
        <time>2021-08-22T09:20:37.100Z</time>
      </trkpt>
      <trkpt lat="44.16576" lon="0.59377">
        <ele>111.852839</ele>
        <time>2021-08-22T09:20:39.083Z</time>
      </trkpt>
      <trkpt lat="44.16586" lon="0.59388">
        <ele>111.789938</ele>
        <time>2021-08-22T09:20:42.099Z</time>
      </trkpt>
      <trkpt lat="44.16598" lon="0.59393">
        <ele>111.731482</ele>
        <time>2021-08-22T09:20:44.096Z</time>
      </trkpt>
      <trkpt lat="44.1661" lon="0.59396">
        <ele>111.675317</ele>
        <time>2021-08-22T09:20:46.097Z</time>
      </trkpt>
      <trkpt lat="44.16621" lon="0.59393">
        <ele>111.623269</ele>
        <time>2021-08-22T09:20:48.107Z</time>
      </trkpt>
      <trkpt lat="44.16631" lon="0.59386">
        <ele>111.57065</ele>
        <time>2021-08-22T09:20:50.083Z</time>
      </trkpt>
      <trkpt lat="44.16641" lon="0.59378">
        <ele>111.424513</ele>
        <time>2021-08-22T09:20:52.093Z</time>
      </trkpt>
      <trkpt lat="44.16651" lon="0.59373">
        <ele>111.265972</ele>
        <time>2021-08-22T09:20:54.097Z</time>
      </trkpt>
      <trkpt lat="44.16662" lon="0.59368">
        <ele>111.09976</ele>
        <time>2021-08-22T09:20:56.089Z</time>
      </trkpt>
      <trkpt lat="44.16673" lon="0.59371">
        <ele>110.937806</ele>
        <time>2021-08-22T09:20:58.096Z</time>
      </trkpt>
      <trkpt lat="44.16681" lon="0.59379">
        <ele>110.782934</ele>
        <time>2021-08-22T09:21:00.089Z</time>
      </trkpt>
      <trkpt lat="44.16689" lon="0.59388">
        <ele>110.635316</ele>
        <time>2021-08-22T09:21:02.087Z</time>
      </trkpt>
      <trkpt lat="44.16695" lon="0.59398">
        <ele>110.491716</ele>
        <time>2021-08-22T09:21:04.099Z</time>
      </trkpt>
      <trkpt lat="44.16703" lon="0.59406">
        <ele>110.352982</ele>
        <time>2021-08-22T09:21:07.088Z</time>
      </trkpt>
      <trkpt lat="44.16712" lon="0.59413">
        <ele>110.198706</ele>
        <time>2021-08-22T09:21:11.081Z</time>
      </trkpt>
      <trkpt lat="44.16714" lon="0.59427">
        <ele>110.050355</ele>
        <time>2021-08-22T09:21:14.081Z</time>
      </trkpt>
      <trkpt lat="44.16717" lon="0.59442">
        <ele>109.881803</ele>
        <time>2021-08-22T09:21:18.079Z</time>
      </trkpt>
      <trkpt lat="44.1672" lon="0.59456">
        <ele>109.730534</ele>
        <time>2021-08-22T09:21:22.080Z</time>
      </trkpt>
      <trkpt lat="44.16723" lon="0.59469">
        <ele>109.590739</ele>
        <time>2021-08-22T09:21:26.083Z</time>
      </trkpt>
      <trkpt lat="44.16726" lon="0.59482">
        <ele>109.446414</ele>
        <time>2021-08-22T09:21:30.071Z</time>
      </trkpt>
      <trkpt lat="44.1673" lon="0.59496">
        <ele>109.283654</ele>
        <time>2021-08-22T09:21:34.077Z</time>
      </trkpt>
      <trkpt lat="44.16732" lon="0.59508">
        <ele>109.150119</ele>
        <time>2021-08-22T09:21:37.077Z</time>
      </trkpt>
      <trkpt lat="44.16735" lon="0.59523">
        <ele>108.992506</ele>
        <time>2021-08-22T09:21:40.073Z</time>
      </trkpt>
      <trkpt lat="44.16738" lon="0.59538">
        <ele>108.881199</ele>
        <time>2021-08-22T09:21:43.083Z</time>
      </trkpt>
      <trkpt lat="44.16741" lon="0.59554">
        <ele>108.810908</ele>
        <time>2021-08-22T09:21:46.081Z</time>
      </trkpt>
      <trkpt lat="44.16744" lon="0.59573">
        <ele>108.732802</ele>
        <time>2021-08-22T09:21:49.084Z</time>
      </trkpt>
      <trkpt lat="44.16745" lon="0.59586">
        <ele>108.679915</ele>
        <time>2021-08-22T09:21:51.084Z</time>
      </trkpt>
      <trkpt lat="44.16747" lon="0.59604">
        <ele>108.601741</ele>
        <time>2021-08-22T09:21:54.078Z</time>
      </trkpt>
      <trkpt lat="44.16747" lon="0.59617">
        <ele>108.549188</ele>
        <time>2021-08-22T09:21:56.081Z</time>
      </trkpt>
      <trkpt lat="44.16748" lon="0.5963">
        <ele>108.496346</ele>
        <time>2021-08-22T09:21:58.078Z</time>
      </trkpt>
      <trkpt lat="44.16748" lon="0.59642">
        <ele>108.444362</ele>
        <time>2021-08-22T09:22:00.079Z</time>
      </trkpt>
      <trkpt lat="44.16755" lon="0.59658">
        <ele>108.367438</ele>
        <time>2021-08-22T09:22:03.082Z</time>
      </trkpt>
      <trkpt lat="44.16762" lon="0.59668">
        <ele>108.307194</ele>
        <time>2021-08-22T09:22:05.079Z</time>
      </trkpt>
      <trkpt lat="44.16763" lon="0.59683">
        <ele>108.247444</ele>
        <time>2021-08-22T09:22:07.078Z</time>
      </trkpt>
      <trkpt lat="44.16763" lon="0.59697">
        <ele>108.185913</ele>
        <time>2021-08-22T09:22:09.070Z</time>
      </trkpt>
      <trkpt lat="44.16763" lon="0.59712">
        <ele>108.124422</ele>
        <time>2021-08-22T09:22:11.077Z</time>
      </trkpt>
      <trkpt lat="44.16763" lon="0.59728">
        <ele>108.06044</ele>
        <time>2021-08-22T09:22:13.083Z</time>
      </trkpt>
      <trkpt lat="44.16763" lon="0.59743">
        <ele>107.996851</ele>
        <time>2021-08-22T09:22:15.083Z</time>
      </trkpt>
      <trkpt lat="44.16764" lon="0.59757">
        <ele>107.93617</ele>
        <time>2021-08-22T09:22:17.075Z</time>
      </trkpt>
      <trkpt lat="44.16764" lon="0.59772">
        <ele>107.876274</ele>
        <time>2021-08-22T09:22:19.079Z</time>
      </trkpt>
      <trkpt lat="44.16765" lon="0.59786">
        <ele>107.885904</ele>
        <time>2021-08-22T09:22:21.080Z</time>
      </trkpt>
      <trkpt lat="44.16766" lon="0.59801">
        <ele>107.896159</ele>
        <time>2021-08-22T09:22:23.071Z</time>
      </trkpt>
      <trkpt lat="44.16766" lon="0.59815">
        <ele>107.906349</ele>
        <time>2021-08-22T09:22:25.082Z</time>
      </trkpt>
      <trkpt lat="44.16767" lon="0.5983">
        <ele>107.916643</ele>
        <time>2021-08-22T09:22:27.082Z</time>
      </trkpt>
      <trkpt lat="44.16769" lon="0.59843">
        <ele>107.926375</ele>
        <time>2021-08-22T09:22:29.079Z</time>
      </trkpt>
      <trkpt lat="44.16772" lon="0.59856">
        <ele>107.93581</ele>
        <time>2021-08-22T09:22:31.079Z</time>
      </trkpt>
      <trkpt lat="44.16774" lon="0.59869">
        <ele>107.945102</ele>
        <time>2021-08-22T09:22:33.078Z</time>
      </trkpt>
      <trkpt lat="44.16777" lon="0.59882">
        <ele>107.954714</ele>
        <time>2021-08-22T09:22:35.080Z</time>
      </trkpt>
      <trkpt lat="44.16781" lon="0.59894">
        <ele>107.964299</ele>
        <time>2021-08-22T09:22:37.079Z</time>
      </trkpt>
      <trkpt lat="44.16785" lon="0.59907">
        <ele>107.973917</ele>
        <time>2021-08-22T09:22:39.078Z</time>
      </trkpt>
      <trkpt lat="44.16789" lon="0.59918">
        <ele>107.98329</ele>
        <time>2021-08-22T09:22:41.067Z</time>
      </trkpt>
      <trkpt lat="44.1679" lon="0.59934">
        <ele>107.994164</ele>
        <time>2021-08-22T09:22:44.060Z</time>
      </trkpt>
      <trkpt lat="44.16786" lon="0.59949">
        <ele>108.0051</ele>
        <time>2021-08-22T09:22:47.077Z</time>
      </trkpt>
      <trkpt lat="44.16793" lon="0.59963">
        <ele>108.01688</ele>
        <time>2021-08-22T09:22:50.082Z</time>
      </trkpt>
      <trkpt lat="44.16798" lon="0.59976">
        <ele>108.027819</ele>
        <time>2021-08-22T09:22:53.075Z</time>
      </trkpt>
      <trkpt lat="44.16804" lon="0.5999">
        <ele>108.039353</ele>
        <time>2021-08-22T09:22:56.078Z</time>
      </trkpt>
      <trkpt lat="44.16809" lon="0.60006">
        <ele>108.051442</ele>
        <time>2021-08-22T09:22:59.069Z</time>
      </trkpt>
      <trkpt lat="44.16814" lon="0.60023">
        <ele>108.057821</ele>
        <time>2021-08-22T09:23:02.078Z</time>
      </trkpt>
      <trkpt lat="44.16822" lon="0.60037">
        <ele>108.063547</ele>
        <time>2021-08-22T09:23:05.083Z</time>
      </trkpt>
      <trkpt lat="44.16831" lon="0.60051">
        <ele>108.069359</ele>
        <time>2021-08-22T09:23:08.081Z</time>
      </trkpt>
      <trkpt lat="44.16837" lon="0.60062">
        <ele>108.073385</ele>
        <time>2021-08-22T09:23:10.100Z</time>
      </trkpt>
      <trkpt lat="44.16842" lon="0.60073">
        <ele>108.077402</ele>
        <time>2021-08-22T09:23:12.082Z</time>
      </trkpt>
      <trkpt lat="44.16846" lon="0.60084">
        <ele>108.081337</ele>
        <time>2021-08-22T09:23:14.082Z</time>
      </trkpt>
      <trkpt lat="44.1685" lon="0.60096">
        <ele>108.085242</ele>
        <time>2021-08-22T09:23:16.081Z</time>
      </trkpt>
      <trkpt lat="44.16853" lon="0.60114">
        <ele>108.090908</ele>
        <time>2021-08-22T09:23:19.077Z</time>
      </trkpt>
      <trkpt lat="44.16858" lon="0.60131">
        <ele>108.096598</ele>
        <time>2021-08-22T09:23:22.081Z</time>
      </trkpt>
      <trkpt lat="44.16863" lon="0.60148">
        <ele>108.102176</ele>
        <time>2021-08-22T09:23:25.080Z</time>
      </trkpt>
      <trkpt lat="44.1687" lon="0.60163">
        <ele>108.107773</ele>
        <time>2021-08-22T09:23:28.081Z</time>
      </trkpt>
      <trkpt lat="44.16873" lon="0.60175">
        <ele>108.11164</ele>
        <time>2021-08-22T09:23:30.087Z</time>
      </trkpt>
      <trkpt lat="44.16875" lon="0.60188">
        <ele>108.115691</ele>
        <time>2021-08-22T09:23:32.074Z</time>
      </trkpt>
      <trkpt lat="44.16877" lon="0.60201">
        <ele>108.11965</ele>
        <time>2021-08-22T09:23:34.078Z</time>
      </trkpt>
      <trkpt lat="44.16877" lon="0.60213">
        <ele>108.123514</ele>
        <time>2021-08-22T09:23:36.081Z</time>
      </trkpt>
      <trkpt lat="44.16878" lon="0.60231">
        <ele>108.129147</ele>
        <time>2021-08-22T09:23:39.077Z</time>
      </trkpt>
      <trkpt lat="44.16878" lon="0.60244">
        <ele>108.154608</ele>
        <time>2021-08-22T09:23:41.079Z</time>
      </trkpt>
      <trkpt lat="44.16879" lon="0.60257">
        <ele>108.185526</ele>
        <time>2021-08-22T09:23:43.081Z</time>
      </trkpt>
      <trkpt lat="44.16881" lon="0.60271">
        <ele>108.217857</ele>
        <time>2021-08-22T09:23:45.076Z</time>
      </trkpt>
      <trkpt lat="44.16882" lon="0.60284">
        <ele>108.24938</ele>
        <time>2021-08-22T09:23:47.080Z</time>
      </trkpt>
      <trkpt lat="44.16884" lon="0.60297">
        <ele>108.281756</ele>
        <time>2021-08-22T09:23:49.080Z</time>
      </trkpt>
      <trkpt lat="44.16884" lon="0.60311">
        <ele>108.314853</ele>
        <time>2021-08-22T09:23:51.081Z</time>
      </trkpt>
      <trkpt lat="44.16883" lon="0.60324">
        <ele>108.346808</ele>
        <time>2021-08-22T09:23:53.084Z</time>
      </trkpt>
      <trkpt lat="44.16882" lon="0.60337">
        <ele>108.377088</ele>
        <time>2021-08-22T09:23:55.074Z</time>
      </trkpt>
      <trkpt lat="44.16879" lon="0.60355">
        <ele>108.41979</ele>
        <time>2021-08-22T09:23:58.070Z</time>
      </trkpt>
      <trkpt lat="44.16877" lon="0.60372">
        <ele>108.462573</ele>
        <time>2021-08-22T09:24:01.078Z</time>
      </trkpt>
      <trkpt lat="44.16875" lon="0.6039">
        <ele>108.506147</ele>
        <time>2021-08-22T09:24:04.078Z</time>
      </trkpt>
      <trkpt lat="44.16873" lon="0.60408">
        <ele>108.549897</ele>
        <time>2021-08-22T09:24:07.087Z</time>
      </trkpt>
      <trkpt lat="44.16871" lon="0.60427">
        <ele>108.593225</ele>
        <time>2021-08-22T09:24:10.071Z</time>
      </trkpt>
      <trkpt lat="44.1687" lon="0.60444">
        <ele>108.635644</ele>
        <time>2021-08-22T09:24:13.080Z</time>
      </trkpt>
      <trkpt lat="44.16867" lon="0.60462">
        <ele>108.678248</ele>
        <time>2021-08-22T09:24:16.077Z</time>
      </trkpt>
      <trkpt lat="44.16864" lon="0.60479">
        <ele>108.721487</ele>
        <time>2021-08-22T09:24:19.077Z</time>
      </trkpt>
      <trkpt lat="44.16857" lon="0.60495">
        <ele>108.735902</ele>
        <time>2021-08-22T09:24:22.085Z</time>
      </trkpt>
      <trkpt lat="44.16847" lon="0.60506">
        <ele>108.746154</ele>
        <time>2021-08-22T09:24:25.078Z</time>
      </trkpt>
      <trkpt lat="44.16845" lon="0.60519">
        <ele>108.753553</ele>
        <time>2021-08-22T09:24:27.087Z</time>
      </trkpt>
      <trkpt lat="44.16844" lon="0.60533">
        <ele>108.761532</ele>
        <time>2021-08-22T09:24:29.084Z</time>
      </trkpt>
      <trkpt lat="44.16844" lon="0.60545">
        <ele>108.768758</ele>
        <time>2021-08-22T09:24:31.068Z</time>
      </trkpt>
      <trkpt lat="44.16843" lon="0.60564">
        <ele>108.779344</ele>
        <time>2021-08-22T09:24:34.074Z</time>
      </trkpt>
      <trkpt lat="44.16844" lon="0.60581">
        <ele>108.789055</ele>
        <time>2021-08-22T09:24:37.079Z</time>
      </trkpt>
      <trkpt lat="44.16852" lon="0.6059">
        <ele>108.79721</ele>
        <time>2021-08-22T09:24:40.084Z</time>
      </trkpt>
      <trkpt lat="44.16861" lon="0.60596">
        <ele>108.80586</ele>
        <time>2021-08-22T09:24:43.078Z</time>
      </trkpt>
      <trkpt lat="44.16872" lon="0.60604">
        <ele>108.815647</ele>
        <time>2021-08-22T09:24:46.078Z</time>
      </trkpt>
      <trkpt lat="44.16884" lon="0.60613">
        <ele>108.826114</ele>
        <time>2021-08-22T09:24:49.081Z</time>
      </trkpt>
      <trkpt lat="44.16896" lon="0.60621">
        <ele>108.836679</ele>
        <time>2021-08-22T09:24:52.079Z</time>
      </trkpt>
      <trkpt lat="44.16908" lon="0.60629">
        <ele>108.847431</ele>
        <time>2021-08-22T09:24:55.079Z</time>
      </trkpt>
      <trkpt lat="44.1692" lon="0.60637">
        <ele>108.858021</ele>
        <time>2021-08-22T09:24:58.081Z</time>
      </trkpt>
      <trkpt lat="44.16931" lon="0.60645">
        <ele>108.868606</ele>
        <time>2021-08-22T09:25:01.076Z</time>
      </trkpt>
      <trkpt lat="44.16944" lon="0.60654">
        <ele>108.878131</ele>
        <time>2021-08-22T09:25:04.080Z</time>
      </trkpt>
      <trkpt lat="44.16952" lon="0.6066">
        <ele>108.884292</ele>
        <time>2021-08-22T09:25:06.086Z</time>
      </trkpt>
      <trkpt lat="44.1696" lon="0.60666">
        <ele>108.890618</ele>
        <time>2021-08-22T09:25:08.081Z</time>
      </trkpt>
      <trkpt lat="44.16972" lon="0.60673">
        <ele>108.899342</ele>
        <time>2021-08-22T09:25:11.079Z</time>
      </trkpt>
      <trkpt lat="44.16982" lon="0.60681">
        <ele>108.907574</ele>
        <time>2021-08-22T09:25:14.074Z</time>
      </trkpt>
      <trkpt lat="44.16994" lon="0.60688">
        <ele>108.916281</ele>
        <time>2021-08-22T09:25:17.082Z</time>
      </trkpt>
      <trkpt lat="44.17003" lon="0.60692">
        <ele>108.922357</ele>
        <time>2021-08-22T09:25:19.089Z</time>
      </trkpt>
      <trkpt lat="44.1701" lon="0.60706">
        <ele>108.930873</ele>
        <time>2021-08-22T09:25:22.087Z</time>
      </trkpt>
      <trkpt lat="44.17014" lon="0.6072">
        <ele>108.938167</ele>
        <time>2021-08-22T09:25:25.078Z</time>
      </trkpt>
      <trkpt lat="44.17019" lon="0.60733">
        <ele>108.945111</ele>
        <time>2021-08-22T09:25:28.084Z</time>
      </trkpt>
      <trkpt lat="44.17023" lon="0.60747">
        <ele>108.952878</ele>
        <time>2021-08-22T09:25:31.081Z</time>
      </trkpt>
      <trkpt lat="44.17028" lon="0.60762">
        <ele>108.960684</ele>
        <time>2021-08-22T09:25:34.083Z</time>
      </trkpt>
      <trkpt lat="44.17033" lon="0.60777">
        <ele>108.968815</ele>
        <time>2021-08-22T09:25:37.076Z</time>
      </trkpt>
      <trkpt lat="44.17039" lon="0.60792">
        <ele>108.976997</ele>
        <time>2021-08-22T09:25:40.080Z</time>
      </trkpt>
      <trkpt lat="44.17045" lon="0.60806">
        <ele>108.985253</ele>
        <time>2021-08-22T09:25:43.076Z</time>
      </trkpt>
      <trkpt lat="44.17051" lon="0.60821">
        <ele>108.992916</ele>
        <time>2021-08-22T09:25:46.084Z</time>
      </trkpt>
      <trkpt lat="44.17056" lon="0.60833">
        <ele>108.996296</ele>
        <time>2021-08-22T09:25:49.077Z</time>
      </trkpt>
      <trkpt lat="44.17062" lon="0.60844">
        <ele>108.999382</ele>
        <time>2021-08-22T09:25:53.071Z</time>
      </trkpt>
      <trkpt lat="44.17073" lon="0.60842">
        <ele>109.003005</ele>
        <time>2021-08-22T09:26:04.082Z</time>
      </trkpt>
      <trkpt lat="44.17083" lon="0.60839">
        <ele>109.006351</ele>
        <time>2021-08-22T09:26:08.093Z</time>
      </trkpt>
      <trkpt lat="44.17093" lon="0.60834">
        <ele>109.0098</ele>
        <time>2021-08-22T09:26:11.080Z</time>
      </trkpt>
      <trkpt lat="44.17104" lon="0.6083">
        <ele>109.013491</ele>
        <time>2021-08-22T09:26:14.084Z</time>
      </trkpt>
      <trkpt lat="44.17116" lon="0.60825">
        <ele>109.017443</ele>
        <time>2021-08-22T09:26:17.081Z</time>
      </trkpt>
      <trkpt lat="44.17128" lon="0.60821">
        <ele>109.021558</ele>
        <time>2021-08-22T09:26:20.080Z</time>
      </trkpt>
      <trkpt lat="44.1714" lon="0.60816">
        <ele>109.025661</ele>
        <time>2021-08-22T09:26:23.086Z</time>
      </trkpt>
      <trkpt lat="44.17152" lon="0.60812">
        <ele>109.029755</ele>
        <time>2021-08-22T09:26:26.091Z</time>
      </trkpt>
      <trkpt lat="44.17165" lon="0.60815">
        <ele>109.034041</ele>
        <time>2021-08-22T09:26:29.081Z</time>
      </trkpt>
      <trkpt lat="44.17175" lon="0.60816">
        <ele>109.03704</ele>
        <time>2021-08-22T09:26:31.071Z</time>
      </trkpt>
      <trkpt lat="44.17187" lon="0.60812">
        <ele>109.041215</ele>
        <time>2021-08-22T09:26:34.079Z</time>
      </trkpt>
      <trkpt lat="44.17199" lon="0.60807">
        <ele>109.045343</ele>
        <time>2021-08-22T09:26:37.081Z</time>
      </trkpt>
      <trkpt lat="44.17212" lon="0.60802">
        <ele>109.049458</ele>
        <time>2021-08-22T09:26:40.071Z</time>
      </trkpt>
      <trkpt lat="44.17224" lon="0.60798">
        <ele>109.021719</ele>
        <time>2021-08-22T09:26:43.089Z</time>
      </trkpt>
      <trkpt lat="44.17233" lon="0.60794">
        <ele>108.990168</ele>
        <time>2021-08-22T09:26:45.072Z</time>
      </trkpt>
      <trkpt lat="44.17242" lon="0.60791">
        <ele>108.959011</ele>
        <time>2021-08-22T09:26:47.080Z</time>
      </trkpt>
      <trkpt lat="44.17251" lon="0.60787">
        <ele>108.927394</ele>
        <time>2021-08-22T09:26:49.077Z</time>
      </trkpt>
      <trkpt lat="44.1726" lon="0.60784">
        <ele>108.896106</ele>
        <time>2021-08-22T09:26:51.073Z</time>
      </trkpt>
      <trkpt lat="44.17269" lon="0.6078">
        <ele>108.863831</ele>
        <time>2021-08-22T09:26:53.078Z</time>
      </trkpt>
      <trkpt lat="44.17278" lon="0.60777">
        <ele>108.832343</ele>
        <time>2021-08-22T09:26:55.074Z</time>
      </trkpt>
      <trkpt lat="44.17287" lon="0.60774">
        <ele>108.801249</ele>
        <time>2021-08-22T09:26:57.078Z</time>
      </trkpt>
      <trkpt lat="44.17296" lon="0.60771">
        <ele>108.770107</ele>
        <time>2021-08-22T09:26:59.079Z</time>
      </trkpt>
      <trkpt lat="44.17304" lon="0.60768">
        <ele>108.738743</ele>
        <time>2021-08-22T09:27:01.079Z</time>
      </trkpt>
      <trkpt lat="44.17313" lon="0.60765">
        <ele>108.707586</ele>
        <time>2021-08-22T09:27:03.076Z</time>
      </trkpt>
      <trkpt lat="44.17322" lon="0.60762">
        <ele>108.67616</ele>
        <time>2021-08-22T09:27:05.083Z</time>
      </trkpt>
      <trkpt lat="44.17331" lon="0.60759">
        <ele>108.645127</ele>
        <time>2021-08-22T09:27:07.075Z</time>
      </trkpt>
      <trkpt lat="44.17344" lon="0.60754">
        <ele>108.59869</ele>
        <time>2021-08-22T09:27:10.080Z</time>
      </trkpt>
      <trkpt lat="44.17353" lon="0.6075">
        <ele>108.567264</ele>
        <time>2021-08-22T09:27:12.078Z</time>
      </trkpt>
      <trkpt lat="44.17362" lon="0.60746">
        <ele>108.53449</ele>
        <time>2021-08-22T09:27:14.084Z</time>
      </trkpt>
      <trkpt lat="44.17371" lon="0.60742">
        <ele>108.502873</ele>
        <time>2021-08-22T09:27:16.069Z</time>
      </trkpt>
      <trkpt lat="44.1738" lon="0.60739">
        <ele>108.471716</ele>
        <time>2021-08-22T09:27:18.083Z</time>
      </trkpt>
      <trkpt lat="44.17389" lon="0.60736">
        <ele>108.439898</ele>
        <time>2021-08-22T09:27:20.081Z</time>
      </trkpt>
      <trkpt lat="44.17397" lon="0.60732">
        <ele>108.454281</ele>
        <time>2021-08-22T09:27:22.084Z</time>
      </trkpt>
      <trkpt lat="44.17406" lon="0.60728">
        <ele>108.475638</ele>
        <time>2021-08-22T09:27:24.076Z</time>
      </trkpt>
      <trkpt lat="44.17415" lon="0.60725">
        <ele>108.496728</ele>
        <time>2021-08-22T09:27:26.079Z</time>
      </trkpt>
      <trkpt lat="44.17428" lon="0.6072">
        <ele>108.527715</ele>
        <time>2021-08-22T09:27:29.080Z</time>
      </trkpt>
      <trkpt lat="44.17437" lon="0.60716">
        <ele>108.549512</ele>
        <time>2021-08-22T09:27:31.076Z</time>
      </trkpt>
      <trkpt lat="44.17446" lon="0.60714">
        <ele>108.570477</ele>
        <time>2021-08-22T09:27:33.074Z</time>
      </trkpt>
      <trkpt lat="44.17456" lon="0.6071">
        <ele>108.592761</ele>
        <time>2021-08-22T09:27:35.072Z</time>
      </trkpt>
      <trkpt lat="44.17465" lon="0.60706">
        <ele>108.615999</ele>
        <time>2021-08-22T09:27:37.096Z</time>
      </trkpt>
      <trkpt lat="44.17474" lon="0.60702">
        <ele>108.637724</ele>
        <time>2021-08-22T09:27:39.072Z</time>
      </trkpt>
      <trkpt lat="44.17483" lon="0.60698">
        <ele>108.658722</ele>
        <time>2021-08-22T09:27:41.076Z</time>
      </trkpt>
      <trkpt lat="44.17496" lon="0.60694">
        <ele>108.689194</ele>
        <time>2021-08-22T09:27:44.089Z</time>
      </trkpt>
      <trkpt lat="44.17508" lon="0.6069">
        <ele>108.717913</ele>
        <time>2021-08-22T09:27:47.080Z</time>
      </trkpt>
      <trkpt lat="44.17521" lon="0.60685">
        <ele>108.748425</ele>
        <time>2021-08-22T09:27:50.084Z</time>
      </trkpt>
      <trkpt lat="44.17534" lon="0.60681">
        <ele>108.778617</ele>
        <time>2021-08-22T09:27:53.080Z</time>
      </trkpt>
      <trkpt lat="44.17543" lon="0.60677">
        <ele>108.80056</ele>
        <time>2021-08-22T09:27:55.072Z</time>
      </trkpt>
      <trkpt lat="44.17552" lon="0.60673">
        <ele>108.821734</ele>
        <time>2021-08-22T09:27:57.076Z</time>
      </trkpt>
      <trkpt lat="44.17561" lon="0.6067">
        <ele>108.842865</ele>
        <time>2021-08-22T09:27:59.084Z</time>
      </trkpt>
      <trkpt lat="44.17569" lon="0.60666">
        <ele>108.837436</ele>
        <time>2021-08-22T09:28:01.073Z</time>
      </trkpt>
      <trkpt lat="44.17578" lon="0.60663">
        <ele>108.821768</ele>
        <time>2021-08-22T09:28:03.070Z</time>
      </trkpt>
      <trkpt lat="44.17587" lon="0.60659">
        <ele>108.805946</ele>
        <time>2021-08-22T09:28:05.081Z</time>
      </trkpt>
      <trkpt lat="44.17596" lon="0.60655">
        <ele>108.789695</ele>
        <time>2021-08-22T09:28:07.075Z</time>
      </trkpt>
      <trkpt lat="44.17605" lon="0.60652">
        <ele>108.77351</ele>
        <time>2021-08-22T09:28:09.068Z</time>
      </trkpt>
      <trkpt lat="44.17614" lon="0.60649">
        <ele>108.75742</ele>
        <time>2021-08-22T09:28:11.078Z</time>
      </trkpt>
      <trkpt lat="44.17623" lon="0.60646">
        <ele>108.741583</ele>
        <time>2021-08-22T09:28:13.087Z</time>
      </trkpt>
      <trkpt lat="44.17632" lon="0.60642">
        <ele>108.726092</ele>
        <time>2021-08-22T09:28:15.075Z</time>
      </trkpt>
      <trkpt lat="44.17641" lon="0.60639">
        <ele>108.710531</ele>
        <time>2021-08-22T09:28:17.074Z</time>
      </trkpt>
      <trkpt lat="44.1765" lon="0.60636">
        <ele>108.694939</ele>
        <time>2021-08-22T09:28:19.085Z</time>
      </trkpt>
      <trkpt lat="44.17658" lon="0.60633">
        <ele>108.679414</ele>
        <time>2021-08-22T09:28:21.074Z</time>
      </trkpt>
      <trkpt lat="44.17667" lon="0.60629">
        <ele>108.663656</ele>
        <time>2021-08-22T09:28:23.074Z</time>
      </trkpt>
      <trkpt lat="44.1768" lon="0.60624">
        <ele>108.640599</ele>
        <time>2021-08-22T09:28:26.074Z</time>
      </trkpt>
      <trkpt lat="44.17693" lon="0.60619">
        <ele>108.617446</ele>
        <time>2021-08-22T09:28:29.070Z</time>
      </trkpt>
      <trkpt lat="44.17702" lon="0.60616">
        <ele>108.60179</ele>
        <time>2021-08-22T09:28:31.077Z</time>
      </trkpt>
      <trkpt lat="44.17715" lon="0.60611">
        <ele>108.578999</ele>
        <time>2021-08-22T09:28:34.078Z</time>
      </trkpt>
      <trkpt lat="44.17728" lon="0.60606">
        <ele>108.556109</ele>
        <time>2021-08-22T09:28:37.082Z</time>
      </trkpt>
      <trkpt lat="44.1774" lon="0.60601">
        <ele>108.515239</ele>
        <time>2021-08-22T09:28:40.071Z</time>
      </trkpt>
      <trkpt lat="44.17753" lon="0.60596">
        <ele>108.434811</ele>
        <time>2021-08-22T09:28:43.087Z</time>
      </trkpt>
      <trkpt lat="44.17766" lon="0.60591">
        <ele>108.353451</ele>
        <time>2021-08-22T09:28:46.073Z</time>
      </trkpt>
      <trkpt lat="44.17775" lon="0.60587">
        <ele>108.29826</ele>
        <time>2021-08-22T09:28:48.078Z</time>
      </trkpt>
      <trkpt lat="44.17784" lon="0.60583">
        <ele>108.240038</ele>
        <time>2021-08-22T09:28:50.071Z</time>
      </trkpt>
      <trkpt lat="44.17793" lon="0.6058">
        <ele>108.183685</ele>
        <time>2021-08-22T09:28:52.077Z</time>
      </trkpt>
      <trkpt lat="44.17802" lon="0.60576">
        <ele>108.128022</ele>
        <time>2021-08-22T09:28:54.078Z</time>
      </trkpt>
      <trkpt lat="44.17811" lon="0.60573">
        <ele>108.069204</ele>
        <time>2021-08-22T09:28:56.075Z</time>
      </trkpt>
      <trkpt lat="44.1782" lon="0.6057">
        <ele>108.01215</ele>
        <time>2021-08-22T09:28:58.083Z</time>
      </trkpt>
      <trkpt lat="44.17829" lon="0.60566">
        <ele>107.955456</ele>
        <time>2021-08-22T09:29:00.078Z</time>
      </trkpt>
      <trkpt lat="44.17839" lon="0.60563">
        <ele>107.897591</ele>
        <time>2021-08-22T09:29:02.084Z</time>
      </trkpt>
      <trkpt lat="44.17847" lon="0.60559">
        <ele>107.841481</ele>
        <time>2021-08-22T09:29:04.080Z</time>
      </trkpt>
      <trkpt lat="44.17856" lon="0.60556">
        <ele>107.785711</ele>
        <time>2021-08-22T09:29:06.075Z</time>
      </trkpt>
      <trkpt lat="44.17865" lon="0.60553">
        <ele>107.728546</ele>
        <time>2021-08-22T09:29:08.086Z</time>
      </trkpt>
      <trkpt lat="44.17878" lon="0.60548">
        <ele>107.649757</ele>
        <time>2021-08-22T09:29:11.073Z</time>
      </trkpt>
      <trkpt lat="44.17891" lon="0.60543">
        <ele>107.569441</ele>
        <time>2021-08-22T09:29:14.079Z</time>
      </trkpt>
      <trkpt lat="44.17904" lon="0.60539">
        <ele>107.487576</ele>
        <time>2021-08-22T09:29:17.079Z</time>
      </trkpt>
      <trkpt lat="44.17913" lon="0.60535">
        <ele>107.417311</ele>
        <time>2021-08-22T09:29:19.077Z</time>
      </trkpt>
      <trkpt lat="44.17922" lon="0.60532">
        <ele>107.317996</ele>
        <time>2021-08-22T09:29:21.071Z</time>
      </trkpt>
      <trkpt lat="44.17932" lon="0.60528">
        <ele>107.214236</ele>
        <time>2021-08-22T09:29:23.079Z</time>
      </trkpt>
      <trkpt lat="44.17941" lon="0.60525">
        <ele>107.113874</ele>
        <time>2021-08-22T09:29:25.089Z</time>
      </trkpt>
      <trkpt lat="44.1795" lon="0.60522">
        <ele>107.016921</ele>
        <time>2021-08-22T09:29:27.087Z</time>
      </trkpt>
      <trkpt lat="44.17959" lon="0.60518">
        <ele>106.919607</ele>
        <time>2021-08-22T09:29:29.078Z</time>
      </trkpt>
      <trkpt lat="44.17968" lon="0.60515">
        <ele>106.822105</ele>
        <time>2021-08-22T09:29:31.074Z</time>
      </trkpt>
      <trkpt lat="44.17977" lon="0.60512">
        <ele>106.727188</ele>
        <time>2021-08-22T09:29:33.063Z</time>
      </trkpt>
      <trkpt lat="44.17989" lon="0.60508">
        <ele>106.593838</ele>
        <time>2021-08-22T09:29:36.083Z</time>
      </trkpt>
      <trkpt lat="44.18001" lon="0.60504">
        <ele>106.464049</ele>
        <time>2021-08-22T09:29:39.074Z</time>
      </trkpt>
      <trkpt lat="44.18014" lon="0.605">
        <ele>106.323709</ele>
        <time>2021-08-22T09:29:42.088Z</time>
      </trkpt>
      <trkpt lat="44.18027" lon="0.60495">
        <ele>106.184013</ele>
        <time>2021-08-22T09:29:45.073Z</time>
      </trkpt>
      <trkpt lat="44.1804" lon="0.6049">
        <ele>106.04393</ele>
        <time>2021-08-22T09:29:48.081Z</time>
      </trkpt>
      <trkpt lat="44.18053" lon="0.60485">
        <ele>105.904244</ele>
        <time>2021-08-22T09:29:51.074Z</time>
      </trkpt>
      <trkpt lat="44.18065" lon="0.6048">
        <ele>105.766181</ele>
        <time>2021-08-22T09:29:54.074Z</time>
      </trkpt>
      <trkpt lat="44.18074" lon="0.60477">
        <ele>105.671084</ele>
        <time>2021-08-22T09:29:56.081Z</time>
      </trkpt>
      <trkpt lat="44.18083" lon="0.60474">
        <ele>105.576213</ele>
        <time>2021-08-22T09:29:58.077Z</time>
      </trkpt>
      <trkpt lat="44.18092" lon="0.6047">
        <ele>105.608308</ele>
        <time>2021-08-22T09:30:00.084Z</time>
      </trkpt>
      <trkpt lat="44.18105" lon="0.60465">
        <ele>105.681994</ele>
        <time>2021-08-22T09:30:03.074Z</time>
      </trkpt>
      <trkpt lat="44.18114" lon="0.60461">
        <ele>105.732838</ele>
        <time>2021-08-22T09:30:05.077Z</time>
      </trkpt>
      <trkpt lat="44.18122" lon="0.60457">
        <ele>105.782409</ele>
        <time>2021-08-22T09:30:07.075Z</time>
      </trkpt>
      <trkpt lat="44.18131" lon="0.60454">
        <ele>105.83229</ele>
        <time>2021-08-22T09:30:09.074Z</time>
      </trkpt>
      <trkpt lat="44.18144" lon="0.60448">
        <ele>105.904129</ele>
        <time>2021-08-22T09:30:12.084Z</time>
      </trkpt>
      <trkpt lat="44.18157" lon="0.60443">
        <ele>105.978005</ele>
        <time>2021-08-22T09:30:15.080Z</time>
      </trkpt>
      <trkpt lat="44.1817" lon="0.60438">
        <ele>106.051364</ele>
        <time>2021-08-22T09:30:18.079Z</time>
      </trkpt>
      <trkpt lat="44.18182" lon="0.60433">
        <ele>106.123449</ele>
        <time>2021-08-22T09:30:21.082Z</time>
      </trkpt>
      <trkpt lat="44.18195" lon="0.60428">
        <ele>106.195534</ele>
        <time>2021-08-22T09:30:24.082Z</time>
      </trkpt>
      <trkpt lat="44.18208" lon="0.60423">
        <ele>106.267948</ele>
        <time>2021-08-22T09:30:27.082Z</time>
      </trkpt>
      <trkpt lat="44.1822" lon="0.60418">
        <ele>106.340454</ele>
        <time>2021-08-22T09:30:30.073Z</time>
      </trkpt>
      <trkpt lat="44.18229" lon="0.60415">
        <ele>106.390131</ele>
        <time>2021-08-22T09:30:32.076Z</time>
      </trkpt>
      <trkpt lat="44.18238" lon="0.60412">
        <ele>106.439381</ele>
        <time>2021-08-22T09:30:34.082Z</time>
      </trkpt>
      <trkpt lat="44.18247" lon="0.60408">
        <ele>106.48853</ele>
        <time>2021-08-22T09:30:36.078Z</time>
      </trkpt>
      <trkpt lat="44.1826" lon="0.60403">
        <ele>106.528405</ele>
        <time>2021-08-22T09:30:39.079Z</time>
      </trkpt>
      <trkpt lat="44.18268" lon="0.604">
        <ele>106.469126</ele>
        <time>2021-08-22T09:30:41.086Z</time>
      </trkpt>
      <trkpt lat="44.18277" lon="0.60396">
        <ele>106.408077</ele>
        <time>2021-08-22T09:30:43.070Z</time>
      </trkpt>
      <trkpt lat="44.18286" lon="0.60393">
        <ele>106.346118</ele>
        <time>2021-08-22T09:30:45.079Z</time>
      </trkpt>
      <trkpt lat="44.18295" lon="0.60389">
        <ele>106.282354</ele>
        <time>2021-08-22T09:30:47.083Z</time>
      </trkpt>
      <trkpt lat="44.18305" lon="0.60384">
        <ele>106.216427</ele>
        <time>2021-08-22T09:30:49.081Z</time>
      </trkpt>
      <trkpt lat="44.18315" lon="0.6038">
        <ele>106.149014</ele>
        <time>2021-08-22T09:30:51.081Z</time>
      </trkpt>
      <trkpt lat="44.18325" lon="0.60376">
        <ele>106.078526</ele>
        <time>2021-08-22T09:30:53.078Z</time>
      </trkpt>
      <trkpt lat="44.18336" lon="0.60373">
        <ele>106.002264</ele>
        <time>2021-08-22T09:30:55.072Z</time>
      </trkpt>
      <trkpt lat="44.18347" lon="0.60369">
        <ele>105.926692</ele>
        <time>2021-08-22T09:30:57.071Z</time>
      </trkpt>
      <trkpt lat="44.18358" lon="0.60365">
        <ele>105.851142</ele>
        <time>2021-08-22T09:30:59.085Z</time>
      </trkpt>
      <trkpt lat="44.18369" lon="0.60361">
        <ele>105.776731</ele>
        <time>2021-08-22T09:31:01.071Z</time>
      </trkpt>
      <trkpt lat="44.18379" lon="0.60356">
        <ele>105.706874</ele>
        <time>2021-08-22T09:31:03.085Z</time>
      </trkpt>
      <trkpt lat="44.18389" lon="0.60353">
        <ele>105.640226</ele>
        <time>2021-08-22T09:31:05.078Z</time>
      </trkpt>
      <trkpt lat="44.18399" lon="0.60349">
        <ele>105.575108</ele>
        <time>2021-08-22T09:31:07.078Z</time>
      </trkpt>
      <trkpt lat="44.18408" lon="0.60345">
        <ele>105.510085</ele>
        <time>2021-08-22T09:31:09.075Z</time>
      </trkpt>
      <trkpt lat="44.18418" lon="0.6034">
        <ele>105.443222</ele>
        <time>2021-08-22T09:31:11.080Z</time>
      </trkpt>
      <trkpt lat="44.18427" lon="0.60336">
        <ele>105.378199</ele>
        <time>2021-08-22T09:31:13.077Z</time>
      </trkpt>
      <trkpt lat="44.18436" lon="0.60333">
        <ele>105.360982</ele>
        <time>2021-08-22T09:31:15.079Z</time>
      </trkpt>
      <trkpt lat="44.18448" lon="0.60328">
        <ele>105.363944</ele>
        <time>2021-08-22T09:31:18.079Z</time>
      </trkpt>
      <trkpt lat="44.18459" lon="0.60323">
        <ele>105.366556</ele>
        <time>2021-08-22T09:31:21.083Z</time>
      </trkpt>
      <trkpt lat="44.18469" lon="0.60319">
        <ele>105.368874</ele>
        <time>2021-08-22T09:31:26.080Z</time>
      </trkpt>
      <trkpt lat="44.1849" lon="0.60311">
        <ele>105.373853</ele>
        <time>2021-08-22T09:31:55.082Z</time>
      </trkpt>
      <trkpt lat="44.18502" lon="0.60307">
        <ele>105.376499</ele>
        <time>2021-08-22T09:31:58.076Z</time>
      </trkpt>
      <trkpt lat="44.18514" lon="0.60302">
        <ele>105.379378</ele>
        <time>2021-08-22T09:32:01.074Z</time>
      </trkpt>
      <trkpt lat="44.18527" lon="0.60298">
        <ele>105.382406</ele>
        <time>2021-08-22T09:32:04.075Z</time>
      </trkpt>
      <trkpt lat="44.18539" lon="0.60296">
        <ele>105.385263</ele>
        <time>2021-08-22T09:32:07.086Z</time>
      </trkpt>
      <trkpt lat="44.18549" lon="0.60292">
        <ele>105.387647</ele>
        <time>2021-08-22T09:32:10.080Z</time>
      </trkpt>
      <trkpt lat="44.1856" lon="0.60288">
        <ele>105.390188</ele>
        <time>2021-08-22T09:32:13.076Z</time>
      </trkpt>
      <trkpt lat="44.18573" lon="0.60284">
        <ele>105.393083</ele>
        <time>2021-08-22T09:32:16.069Z</time>
      </trkpt>
      <trkpt lat="44.18584" lon="0.60279">
        <ele>105.395905</ele>
        <time>2021-08-22T09:32:19.081Z</time>
      </trkpt>
      <trkpt lat="44.18596" lon="0.60274">
        <ele>105.398736</ele>
        <time>2021-08-22T09:32:22.082Z</time>
      </trkpt>
      <trkpt lat="44.18609" lon="0.60269">
        <ele>105.358404</ele>
        <time>2021-08-22T09:32:25.075Z</time>
      </trkpt>
      <trkpt lat="44.1862" lon="0.60264">
        <ele>105.263101</ele>
        <time>2021-08-22T09:32:28.085Z</time>
      </trkpt>
      <trkpt lat="44.18631" lon="0.6026">
        <ele>105.172803</ele>
        <time>2021-08-22T09:32:31.080Z</time>
      </trkpt>
      <trkpt lat="44.18644" lon="0.60256">
        <ele>105.072927</ele>
        <time>2021-08-22T09:32:34.077Z</time>
      </trkpt>
      <trkpt lat="44.18657" lon="0.60251">
        <ele>104.967912</ele>
        <time>2021-08-22T09:32:37.074Z</time>
      </trkpt>
      <trkpt lat="44.18669" lon="0.60247">
        <ele>104.867916</ele>
        <time>2021-08-22T09:32:40.079Z</time>
      </trkpt>
      <trkpt lat="44.18681" lon="0.60242">
        <ele>104.764888</ele>
        <time>2021-08-22T09:32:43.074Z</time>
      </trkpt>
      <trkpt lat="44.18694" lon="0.60237">
        <ele>104.660191</ele>
        <time>2021-08-22T09:32:46.082Z</time>
      </trkpt>
      <trkpt lat="44.18707" lon="0.60231">
        <ele>104.556695</ele>
        <time>2021-08-22T09:32:49.072Z</time>
      </trkpt>
      <trkpt lat="44.18719" lon="0.60227">
        <ele>104.454872</ele>
        <time>2021-08-22T09:32:52.080Z</time>
      </trkpt>
      <trkpt lat="44.18732" lon="0.60222">
        <ele>104.35062</ele>
        <time>2021-08-22T09:32:55.075Z</time>
      </trkpt>
      <trkpt lat="44.18741" lon="0.60218">
        <ele>104.27536</ele>
        <time>2021-08-22T09:32:57.079Z</time>
      </trkpt>
      <trkpt lat="44.1875" lon="0.60214">
        <ele>104.199458</ele>
        <time>2021-08-22T09:32:59.082Z</time>
      </trkpt>
      <trkpt lat="44.18761" lon="0.6021">
        <ele>104.116587</ele>
        <time>2021-08-22T09:33:01.081Z</time>
      </trkpt>
      <trkpt lat="44.18773" lon="0.60206">
        <ele>104.019141</ele>
        <time>2021-08-22T09:33:03.075Z</time>
      </trkpt>
      <trkpt lat="44.18786" lon="0.60203">
        <ele>103.710778</ele>
        <time>2021-08-22T09:33:05.083Z</time>
      </trkpt>
      <trkpt lat="44.18799" lon="0.60198">
        <ele>103.315016</ele>
        <time>2021-08-22T09:33:07.080Z</time>
      </trkpt>
      <trkpt lat="44.18813" lon="0.60192">
        <ele>102.912571</ele>
        <time>2021-08-22T09:33:09.082Z</time>
      </trkpt>
      <trkpt lat="44.18828" lon="0.60193">
        <ele>102.482011</ele>
        <time>2021-08-22T09:33:11.068Z</time>
      </trkpt>
      <trkpt lat="44.18842" lon="0.602">
        <ele>102.03184</ele>
        <time>2021-08-22T09:33:13.079Z</time>
      </trkpt>
      <trkpt lat="44.18856" lon="0.60213">
        <ele>101.563656</ele>
        <time>2021-08-22T09:33:15.076Z</time>
      </trkpt>
      <trkpt lat="44.18869" lon="0.60226">
        <ele>101.100251</ele>
        <time>2021-08-22T09:33:17.076Z</time>
      </trkpt>
      <trkpt lat="44.18882" lon="0.60237">
        <ele>100.654099</ele>
        <time>2021-08-22T09:33:19.070Z</time>
      </trkpt>
      <trkpt lat="44.18895" lon="0.6025">
        <ele>100.199048</ele>
        <time>2021-08-22T09:33:21.079Z</time>
      </trkpt>
      <trkpt lat="44.18908" lon="0.60262">
        <ele>99.743958</ele>
        <time>2021-08-22T09:33:23.069Z</time>
      </trkpt>
      <trkpt lat="44.18921" lon="0.60275">
        <ele>99.284108</ele>
        <time>2021-08-22T09:33:25.083Z</time>
      </trkpt>
      <trkpt lat="44.18933" lon="0.60287">
        <ele>98.843258</ele>
        <time>2021-08-22T09:33:27.082Z</time>
      </trkpt>
      <trkpt lat="44.18946" lon="0.60299">
        <ele>98.393072</ele>
        <time>2021-08-22T09:33:29.082Z</time>
      </trkpt>
      <trkpt lat="44.18958" lon="0.60311">
        <ele>97.936517</ele>
        <time>2021-08-22T09:33:31.076Z</time>
      </trkpt>
      <trkpt lat="44.1897" lon="0.60323">
        <ele>97.490907</ele>
        <time>2021-08-22T09:33:33.078Z</time>
      </trkpt>
      <trkpt lat="44.18982" lon="0.60335">
        <ele>97.05049</ele>
        <time>2021-08-22T09:33:35.068Z</time>
      </trkpt>
      <trkpt lat="44.18993" lon="0.60346">
        <ele>96.620006</ele>
        <time>2021-08-22T09:33:37.077Z</time>
      </trkpt>
      <trkpt lat="44.19005" lon="0.60357">
        <ele>96.198204</ele>
        <time>2021-08-22T09:33:39.081Z</time>
      </trkpt>
      <trkpt lat="44.19016" lon="0.60369">
        <ele>95.776402</ele>
        <time>2021-08-22T09:33:41.073Z</time>
      </trkpt>
      <trkpt lat="44.19027" lon="0.6038">
        <ele>95.362436</ele>
        <time>2021-08-22T09:33:43.074Z</time>
      </trkpt>
      <trkpt lat="44.19038" lon="0.60391">
        <ele>94.945602</ele>
        <time>2021-08-22T09:33:45.071Z</time>
      </trkpt>
      <trkpt lat="44.1905" lon="0.60401">
        <ele>94.540791</ele>
        <time>2021-08-22T09:33:47.076Z</time>
      </trkpt>
      <trkpt lat="44.1906" lon="0.6041">
        <ele>94.16198</ele>
        <time>2021-08-22T09:33:49.078Z</time>
      </trkpt>
      <trkpt lat="44.19072" lon="0.60419">
        <ele>93.776834</ele>
        <time>2021-08-22T09:33:51.077Z</time>
      </trkpt>
      <trkpt lat="44.19082" lon="0.60428">
        <ele>93.396874</ele>
        <time>2021-08-22T09:33:53.078Z</time>
      </trkpt>
      <trkpt lat="44.19093" lon="0.60438">
        <ele>93.248562</ele>
        <time>2021-08-22T09:33:55.079Z</time>
      </trkpt>
      <trkpt lat="44.19103" lon="0.60447">
        <ele>93.138044</ele>
        <time>2021-08-22T09:33:57.074Z</time>
      </trkpt>
      <trkpt lat="44.19114" lon="0.60457">
        <ele>93.027208</ele>
        <time>2021-08-22T09:33:59.083Z</time>
      </trkpt>
      <trkpt lat="44.19124" lon="0.60467">
        <ele>92.919199</ele>
        <time>2021-08-22T09:34:01.071Z</time>
      </trkpt>
      <trkpt lat="44.19134" lon="0.60476">
        <ele>92.810498</ele>
        <time>2021-08-22T09:34:03.076Z</time>
      </trkpt>
      <trkpt lat="44.19145" lon="0.60486">
        <ele>92.701061</ele>
        <time>2021-08-22T09:34:05.081Z</time>
      </trkpt>
      <trkpt lat="44.19155" lon="0.60495">
        <ele>92.59236</ele>
        <time>2021-08-22T09:34:07.076Z</time>
      </trkpt>
      <trkpt lat="44.19165" lon="0.60505">
        <ele>92.48331</ele>
        <time>2021-08-22T09:34:09.083Z</time>
      </trkpt>
      <trkpt lat="44.19175" lon="0.60514">
        <ele>92.376425</ele>
        <time>2021-08-22T09:34:11.096Z</time>
      </trkpt>
      <trkpt lat="44.19186" lon="0.60522">
        <ele>92.270948</ele>
        <time>2021-08-22T09:34:13.075Z</time>
      </trkpt>
      <trkpt lat="44.19196" lon="0.60528">
        <ele>92.171877</ele>
        <time>2021-08-22T09:34:15.073Z</time>
      </trkpt>
      <trkpt lat="44.19205" lon="0.60537">
        <ele>92.075426</ele>
        <time>2021-08-22T09:34:17.080Z</time>
      </trkpt>
      <trkpt lat="44.19213" lon="0.60548">
        <ele>91.978849</ele>
        <time>2021-08-22T09:34:19.095Z</time>
      </trkpt>
      <trkpt lat="44.19222" lon="0.60555">
        <ele>91.887516</ele>
        <time>2021-08-22T09:34:21.078Z</time>
      </trkpt>
      <trkpt lat="44.19233" lon="0.60558">
        <ele>91.788472</ele>
        <time>2021-08-22T09:34:23.073Z</time>
      </trkpt>
      <trkpt lat="44.19243" lon="0.6055">
        <ele>91.798015</ele>
        <time>2021-08-22T09:34:25.079Z</time>
      </trkpt>
      <trkpt lat="44.19248" lon="0.60538">
        <ele>91.843092</ele>
        <time>2021-08-22T09:34:27.079Z</time>
      </trkpt>
      <trkpt lat="44.1926" lon="0.60529">
        <ele>91.900081</ele>
        <time>2021-08-22T09:34:30.073Z</time>
      </trkpt>
      <trkpt lat="44.19272" lon="0.60523">
        <ele>91.956696</ele>
        <time>2021-08-22T09:34:33.072Z</time>
      </trkpt>
      <trkpt lat="44.19283" lon="0.60515">
        <ele>92.008827</ele>
        <time>2021-08-22T09:34:36.088Z</time>
      </trkpt>
      <trkpt lat="44.19291" lon="0.60507">
        <ele>92.053167</ele>
        <time>2021-08-22T09:34:39.072Z</time>
      </trkpt>
      <trkpt lat="44.19302" lon="0.60499">
        <ele>92.105461</ele>
        <time>2021-08-22T09:34:42.082Z</time>
      </trkpt>
      <trkpt lat="44.19312" lon="0.6049">
        <ele>92.156844</ele>
        <time>2021-08-22T09:34:45.072Z</time>
      </trkpt>
      <trkpt lat="44.19323" lon="0.60484">
        <ele>92.206464</ele>
        <time>2021-08-22T09:34:48.075Z</time>
      </trkpt>
      <trkpt lat="44.19333" lon="0.60476">
        <ele>92.255803</ele>
        <time>2021-08-22T09:34:51.075Z</time>
      </trkpt>
      <trkpt lat="44.19343" lon="0.60467">
        <ele>92.30914</ele>
        <time>2021-08-22T09:34:54.080Z</time>
      </trkpt>
      <trkpt lat="44.19349" lon="0.6045">
        <ele>92.367854</ele>
        <time>2021-08-22T09:34:57.092Z</time>
      </trkpt>
      <trkpt lat="44.19353" lon="0.60433">
        <ele>92.423853</ele>
        <time>2021-08-22T09:35:00.081Z</time>
      </trkpt>
      <trkpt lat="44.19358" lon="0.6042">
        <ele>92.469746</ele>
        <time>2021-08-22T09:35:03.075Z</time>
      </trkpt>
      <trkpt lat="44.19368" lon="0.60412">
        <ele>92.516368</ele>
        <time>2021-08-22T09:35:06.083Z</time>
      </trkpt>
      <trkpt lat="44.19379" lon="0.60404">
        <ele>92.570465</ele>
        <time>2021-08-22T09:35:09.080Z</time>
      </trkpt>
      <trkpt lat="44.19389" lon="0.60396">
        <ele>92.622473</ele>
        <time>2021-08-22T09:35:12.089Z</time>
      </trkpt>
      <trkpt lat="44.19399" lon="0.60389">
        <ele>92.674635</ele>
        <time>2021-08-22T09:35:15.078Z</time>
      </trkpt>
      <trkpt lat="44.19409" lon="0.60381">
        <ele>92.723988</ele>
        <time>2021-08-22T09:35:18.079Z</time>
      </trkpt>
      <trkpt lat="44.19418" lon="0.60375">
        <ele>92.769811</ele>
        <time>2021-08-22T09:35:21.078Z</time>
      </trkpt>
      <trkpt lat="44.19428" lon="0.60369">
        <ele>92.818476</ele>
        <time>2021-08-22T09:35:24.084Z</time>
      </trkpt>
      <trkpt lat="44.19437" lon="0.60378">
        <ele>92.866333</ele>
        <time>2021-08-22T09:35:29.082Z</time>
      </trkpt>
      <trkpt lat="44.19446" lon="0.60378">
        <ele>92.907924</ele>
        <time>2021-08-22T09:35:32.092Z</time>
      </trkpt>
      <trkpt lat="44.19452" lon="0.60364">
        <ele>92.958838</ele>
        <time>2021-08-22T09:35:35.070Z</time>
      </trkpt>
      <trkpt lat="44.19457" lon="0.60351">
        <ele>93.005282</ele>
        <time>2021-08-22T09:35:38.079Z</time>
      </trkpt>
      <trkpt lat="44.19463" lon="0.60339">
        <ele>93.05166</ele>
        <time>2021-08-22T09:35:41.081Z</time>
      </trkpt>
      <trkpt lat="44.19472" lon="0.60331">
        <ele>93.102086</ele>
        <time>2021-08-22T09:35:44.072Z</time>
      </trkpt>
      <trkpt lat="44.19484" lon="0.60323">
        <ele>93.158303</ele>
        <time>2021-08-22T09:35:47.075Z</time>
      </trkpt>
      <trkpt lat="44.19495" lon="0.60313">
        <ele>93.217383</ele>
        <time>2021-08-22T09:35:50.081Z</time>
      </trkpt>
      <trkpt lat="44.19503" lon="0.60307">
        <ele>93.257993</ele>
        <time>2021-08-22T09:35:52.082Z</time>
      </trkpt>
      <trkpt lat="44.1951" lon="0.60299">
        <ele>93.300353</ele>
        <time>2021-08-22T09:35:54.073Z</time>
      </trkpt>
      <trkpt lat="44.19518" lon="0.60291">
        <ele>93.34186</ele>
        <time>2021-08-22T09:35:56.085Z</time>
      </trkpt>
      <trkpt lat="44.19528" lon="0.60281">
        <ele>93.231633</ele>
        <time>2021-08-22T09:35:59.073Z</time>
      </trkpt>
      <trkpt lat="44.19537" lon="0.60267">
        <ele>93.112422</ele>
        <time>2021-08-22T09:36:02.081Z</time>
      </trkpt>
      <trkpt lat="44.19543" lon="0.60257">
        <ele>93.029615</ele>
        <time>2021-08-22T09:36:04.080Z</time>
      </trkpt>
      <trkpt lat="44.19549" lon="0.60246">
        <ele>92.94513</ele>
        <time>2021-08-22T09:36:06.084Z</time>
      </trkpt>
      <trkpt lat="44.19554" lon="0.60236">
        <ele>92.862257</ele>
        <time>2021-08-22T09:36:08.087Z</time>
      </trkpt>
      <trkpt lat="44.1956" lon="0.60226">
        <ele>92.781389</ele>
        <time>2021-08-22T09:36:10.079Z</time>
      </trkpt>
      <trkpt lat="44.19566" lon="0.60217">
        <ele>92.700023</ele>
        <time>2021-08-22T09:36:12.087Z</time>
      </trkpt>
      <trkpt lat="44.19574" lon="0.60203">
        <ele>92.584176</ele>
        <time>2021-08-22T09:36:15.080Z</time>
      </trkpt>
      <trkpt lat="44.19582" lon="0.60189">
        <ele>92.473126</ele>
        <time>2021-08-22T09:36:18.078Z</time>
      </trkpt>
      <trkpt lat="44.19589" lon="0.60175">
        <ele>92.363227</ele>
        <time>2021-08-22T09:36:21.081Z</time>
      </trkpt>
      <trkpt lat="44.19598" lon="0.60164">
        <ele>92.254327</ele>
        <time>2021-08-22T09:36:24.078Z</time>
      </trkpt>
      <trkpt lat="44.1961" lon="0.60162">
        <ele>92.143717</ele>
        <time>2021-08-22T09:36:27.083Z</time>
      </trkpt>
      <trkpt lat="44.19619" lon="0.60149">
        <ele>92.033347</ele>
        <time>2021-08-22T09:36:30.078Z</time>
      </trkpt>
      <trkpt lat="44.19618" lon="0.60131">
        <ele>91.920548</ele>
        <time>2021-08-22T09:36:33.079Z</time>
      </trkpt>
      <trkpt lat="44.19623" lon="0.60115">
        <ele>91.810759</ele>
        <time>2021-08-22T09:36:36.068Z</time>
      </trkpt>
      <trkpt lat="44.19628" lon="0.60106">
        <ele>91.730289</ele>
        <time>2021-08-22T09:36:38.076Z</time>
      </trkpt>
      <trkpt lat="44.19637" lon="0.60092">
        <ele>91.622981</ele>
        <time>2021-08-22T09:36:41.077Z</time>
      </trkpt>
      <trkpt lat="44.19646" lon="0.60078">
        <ele>91.516508</ele>
        <time>2021-08-22T09:36:44.079Z</time>
      </trkpt>
      <trkpt lat="44.19653" lon="0.60063">
        <ele>91.408244</ele>
        <time>2021-08-22T09:36:47.075Z</time>
      </trkpt>
      <trkpt lat="44.19662" lon="0.60049">
        <ele>91.298406</ele>
        <time>2021-08-22T09:36:50.084Z</time>
      </trkpt>
      <trkpt lat="44.19671" lon="0.60035">
        <ele>91.190141</ele>
        <time>2021-08-22T09:36:53.086Z</time>
      </trkpt>
      <trkpt lat="44.1968" lon="0.60021">
        <ele>91.080681</ele>
        <time>2021-08-22T09:36:56.087Z</time>
      </trkpt>
      <trkpt lat="44.19687" lon="0.60006">
        <ele>90.973388</ele>
        <time>2021-08-22T09:36:59.079Z</time>
      </trkpt>
      <trkpt lat="44.19695" lon="0.59992">
        <ele>90.866797</ele>
        <time>2021-08-22T09:37:02.090Z</time>
      </trkpt>
      <trkpt lat="44.19701" lon="0.59983">
        <ele>90.793136</ele>
        <time>2021-08-22T09:37:04.076Z</time>
      </trkpt>
      <trkpt lat="44.1971" lon="0.59969">
        <ele>90.688789</ele>
        <time>2021-08-22T09:37:07.079Z</time>
      </trkpt>
      <trkpt lat="44.19718" lon="0.59956">
        <ele>90.586023</ele>
        <time>2021-08-22T09:37:10.071Z</time>
      </trkpt>
      <trkpt lat="44.19726" lon="0.59941">
        <ele>90.476957</ele>
        <time>2021-08-22T09:37:13.080Z</time>
      </trkpt>
      <trkpt lat="44.19732" lon="0.59931">
        <ele>90.401941</ele>
        <time>2021-08-22T09:37:15.076Z</time>
      </trkpt>
      <trkpt lat="44.19739" lon="0.59917">
        <ele>90.297456</ele>
        <time>2021-08-22T09:37:18.082Z</time>
      </trkpt>
      <trkpt lat="44.19745" lon="0.59904">
        <ele>90.38199</ele>
        <time>2021-08-22T09:37:21.079Z</time>
      </trkpt>
      <trkpt lat="44.19752" lon="0.59892">
        <ele>90.569003</ele>
        <time>2021-08-22T09:37:24.082Z</time>
      </trkpt>
      <trkpt lat="44.1976" lon="0.59881">
        <ele>90.755248</ele>
        <time>2021-08-22T09:37:27.080Z</time>
      </trkpt>
      <trkpt lat="44.19767" lon="0.59869">
        <ele>90.949636</ele>
        <time>2021-08-22T09:37:30.090Z</time>
      </trkpt>
      <trkpt lat="44.19773" lon="0.59857">
        <ele>91.129399</ele>
        <time>2021-08-22T09:37:33.092Z</time>
      </trkpt>
      <trkpt lat="44.19777" lon="0.59843">
        <ele>91.309547</ele>
        <time>2021-08-22T09:37:36.084Z</time>
      </trkpt>
      <trkpt lat="44.1978" lon="0.5983">
        <ele>91.481476</ele>
        <time>2021-08-22T09:37:39.077Z</time>
      </trkpt>
      <trkpt lat="44.19784" lon="0.59815">
        <ele>91.668918</ele>
        <time>2021-08-22T09:37:42.081Z</time>
      </trkpt>
      <trkpt lat="44.19792" lon="0.59807">
        <ele>91.840551</ele>
        <time>2021-08-22T09:37:45.082Z</time>
      </trkpt>
      <trkpt lat="44.19803" lon="0.59807">
        <ele>92.036509</ele>
        <time>2021-08-22T09:37:48.080Z</time>
      </trkpt>
      <trkpt lat="44.19814" lon="0.59815">
        <ele>92.248637</ele>
        <time>2021-08-22T09:37:51.083Z</time>
      </trkpt>
      <trkpt lat="44.19825" lon="0.59821">
        <ele>92.44505</ele>
        <time>2021-08-22T09:37:54.079Z</time>
      </trkpt>
      <trkpt lat="44.19836" lon="0.59824">
        <ele>92.627353</ele>
        <time>2021-08-22T09:37:57.081Z</time>
      </trkpt>
      <trkpt lat="44.19848" lon="0.59828">
        <ele>92.845885</ele>
        <time>2021-08-22T09:38:00.082Z</time>
      </trkpt>
      <trkpt lat="44.19857" lon="0.59833">
        <ele>93.006374</ele>
        <time>2021-08-22T09:38:02.083Z</time>
      </trkpt>
      <trkpt lat="44.19865" lon="0.59838">
        <ele>93.166478</ele>
        <time>2021-08-22T09:38:04.079Z</time>
      </trkpt>
      <trkpt lat="44.19874" lon="0.59844">
        <ele>93.326199</ele>
        <time>2021-08-22T09:38:06.079Z</time>
      </trkpt>
      <trkpt lat="44.19883" lon="0.5985">
        <ele>93.252924</ele>
        <time>2021-08-22T09:38:08.079Z</time>
      </trkpt>
      <trkpt lat="44.19892" lon="0.59857">
        <ele>93.18132</ele>
        <time>2021-08-22T09:38:10.074Z</time>
      </trkpt>
      <trkpt lat="44.19905" lon="0.59852">
        <ele>93.085892</ele>
        <time>2021-08-22T09:38:13.080Z</time>
      </trkpt>
      <trkpt lat="44.19911" lon="0.59839">
        <ele>93.011006</ele>
        <time>2021-08-22T09:38:15.071Z</time>
      </trkpt>
      <trkpt lat="44.19916" lon="0.59827">
        <ele>92.936359</ele>
        <time>2021-08-22T09:38:17.073Z</time>
      </trkpt>
      <trkpt lat="44.19922" lon="0.59814">
        <ele>92.861473</ele>
        <time>2021-08-22T09:38:19.078Z</time>
      </trkpt>
      <trkpt lat="44.19927" lon="0.59802">
        <ele>92.789941</ele>
        <time>2021-08-22T09:38:21.077Z</time>
      </trkpt>
      <trkpt lat="44.19932" lon="0.59791">
        <ele>92.720408</ele>
        <time>2021-08-22T09:38:23.082Z</time>
      </trkpt>
      <trkpt lat="44.19937" lon="0.59779">
        <ele>92.652445</ele>
        <time>2021-08-22T09:38:25.071Z</time>
      </trkpt>
      <trkpt lat="44.19941" lon="0.59767">
        <ele>92.58343</ele>
        <time>2021-08-22T09:38:27.076Z</time>
      </trkpt>
      <trkpt lat="44.19944" lon="0.59754">
        <ele>92.513582</ele>
        <time>2021-08-22T09:38:29.082Z</time>
      </trkpt>
      <trkpt lat="44.19948" lon="0.59742">
        <ele>92.447649</ele>
        <time>2021-08-22T09:38:31.081Z</time>
      </trkpt>
      <trkpt lat="44.19951" lon="0.59729">
        <ele>92.378624</ele>
        <time>2021-08-22T09:38:33.081Z</time>
      </trkpt>
      <trkpt lat="44.19955" lon="0.59716">
        <ele>92.307188</ele>
        <time>2021-08-22T09:38:35.077Z</time>
      </trkpt>
      <trkpt lat="44.19959" lon="0.59704">
        <ele>92.238174</ele>
        <time>2021-08-22T09:38:37.078Z</time>
      </trkpt>
      <trkpt lat="44.19971" lon="0.59698">
        <ele>92.146814</ele>
        <time>2021-08-22T09:38:40.071Z</time>
      </trkpt>
      <trkpt lat="44.1998" lon="0.59705">
        <ele>92.073118</ele>
        <time>2021-08-22T09:38:42.084Z</time>
      </trkpt>
      <trkpt lat="44.19989" lon="0.59713">
        <ele>92.045726</ele>
        <time>2021-08-22T09:38:44.068Z</time>
      </trkpt>
      <trkpt lat="44.19997" lon="0.59721">
        <ele>92.045726</ele>
        <time>2021-08-22T09:38:46.084Z</time>
      </trkpt>
      <trkpt lat="44.20005" lon="0.59729">
        <ele>92.045726</ele>
        <time>2021-08-22T09:38:48.078Z</time>
      </trkpt>
      <trkpt lat="44.20012" lon="0.59737">
        <ele>92.045726</ele>
        <time>2021-08-22T09:38:50.084Z</time>
      </trkpt>
      <trkpt lat="44.2002" lon="0.59745">
        <ele>92.045726</ele>
        <time>2021-08-22T09:38:52.080Z</time>
      </trkpt>
      <trkpt lat="44.20028" lon="0.59753">
        <ele>92.045726</ele>
        <time>2021-08-22T09:38:54.081Z</time>
      </trkpt>
      <trkpt lat="44.20036" lon="0.59762">
        <ele>92.045726</ele>
        <time>2021-08-22T09:38:56.081Z</time>
      </trkpt>
      <trkpt lat="44.20043" lon="0.59771">
        <ele>92.045726</ele>
        <time>2021-08-22T09:38:58.077Z</time>
      </trkpt>
      <trkpt lat="44.20049" lon="0.59782">
        <ele>92.045726</ele>
        <time>2021-08-22T09:39:00.081Z</time>
      </trkpt>
      <trkpt lat="44.20051" lon="0.59794">
        <ele>92.045726</ele>
        <time>2021-08-22T09:39:02.090Z</time>
      </trkpt>
      <trkpt lat="44.2005" lon="0.59811">
        <ele>92.045726</ele>
        <time>2021-08-22T09:39:05.075Z</time>
      </trkpt>
      <trkpt lat="44.20048" lon="0.59824">
        <ele>92.045726</ele>
        <time>2021-08-22T09:39:08.080Z</time>
      </trkpt>
      <trkpt lat="44.20052" lon="0.59831">
        <ele>92.045726</ele>
        <time>2021-08-22T09:42:46.145Z</time>
      </trkpt>
    </trkseg>
  </trk>
</gpx>